<?xml version='1.0' encoding='UTF-8'?><gpx version="1.1" creator="JPX - https://github.com/jenetics/jpx" xmlns="http://www.topografix.com/GPX/1/1"><trk><trkseg><trkpt lat="43.3509274" lon="12.5766654"><ele>493.00000000000006</ele><time>2026-04-28T10:14:10.731Z</time></trkpt><trkpt lat="43.3509635" lon="12.5767372"><ele>493.0</ele><time>2026-04-28T10:14:14.73Z</time></trkpt><trkpt lat="43.3508792" lon="12.5767772"><ele>493.0</ele><time>2026-04-28T10:14:18.731Z</time></trkpt><trkpt lat="43.3508032" lon="12.5767828"><ele>493.0</ele><time>2026-04-28T10:14:20.73Z</time></trkpt><trkpt lat="43.350716" lon="12.5767419"><ele>493.00000000000006</ele><time>2026-04-28T10:14:22.731Z</time></trkpt><trkpt lat="43.3506471" lon="12.5766362"><ele>493.0</ele><time>2026-04-28T10:14:24.73Z</time></trkpt><trkpt lat="43.3506433" lon="12.5764813"><ele>493.00000000000006</ele><time>2026-04-28T10:14:26.73Z</time></trkpt><trkpt lat="43.3506904" lon="12.5763268"><ele>493.0</ele><time>2026-04-28T10:14:28.73Z</time></trkpt><trkpt lat="43.3507187" lon="12.5762435"><ele>493.0</ele><time>2026-04-28T10:14:29.731Z</time></trkpt><trkpt lat="43.3507523" lon="12.5761583"><ele>493.0</ele><time>2026-04-28T10:14:30.73Z</time></trkpt><trkpt lat="43.3507884" lon="12.5760715"><ele>493.00000000000006</ele><time>2026-04-28T10:14:31.731Z</time></trkpt><trkpt lat="43.3508281" lon="12.5759822"><ele>493.0</ele><time>2026-04-28T10:14:32.73Z</time></trkpt><trkpt lat="43.3508748" lon="12.5758921"><ele>493.1666666666667</ele><time>2026-04-28T10:14:33.731Z</time></trkpt><trkpt lat="43.3509228" lon="12.5757981"><ele>493.33333333333337</ele><time>2026-04-28T10:14:34.731Z</time></trkpt><trkpt lat="43.3509792" lon="12.5757108"><ele>493.5</ele><time>2026-04-28T10:14:35.731Z</time></trkpt><trkpt lat="43.3510425" lon="12.5756287"><ele>493.66666666666663</ele><time>2026-04-28T10:14:36.731Z</time></trkpt><trkpt lat="43.3511039" lon="12.5755457"><ele>493.8333333333333</ele><time>2026-04-28T10:14:37.73Z</time></trkpt><trkpt lat="43.3511637" lon="12.5754709"><ele>494.0</ele><time>2026-04-28T10:14:38.731Z</time></trkpt><trkpt lat="43.3512218" lon="12.5754081"><ele>494.0</ele><time>2026-04-28T10:14:39.731Z</time></trkpt><trkpt lat="43.351278" lon="12.5753626"><ele>494.0</ele><time>2026-04-28T10:14:40.731Z</time></trkpt><trkpt lat="43.3513529" lon="12.5752696"><ele>494.0</ele><time>2026-04-28T10:14:42.73Z</time></trkpt><trkpt lat="43.3513474" lon="12.5751442"><ele>494.0</ele><time>2026-04-28T10:14:44.731Z</time></trkpt><trkpt lat="43.3512736" lon="12.5750301"><ele>494.0</ele><time>2026-04-28T10:14:46.73Z</time></trkpt><trkpt lat="43.3511886" lon="12.5748977"><ele>493.3333333333333</ele><time>2026-04-28T10:14:48.73Z</time></trkpt><trkpt lat="43.3511415" lon="12.5748254"><ele>492.66666666666663</ele><time>2026-04-28T10:14:49.731Z</time></trkpt><trkpt lat="43.3510903" lon="12.5747417"><ele>492.0</ele><time>2026-04-28T10:14:50.73Z</time></trkpt><trkpt lat="43.351039" lon="12.5746569"><ele>491.33333333333337</ele><time>2026-04-28T10:14:51.731Z</time></trkpt><trkpt lat="43.3509864" lon="12.5745675"><ele>490.6666666666667</ele><time>2026-04-28T10:14:52.731Z</time></trkpt><trkpt lat="43.3509327" lon="12.5744776"><ele>490.0</ele><time>2026-04-28T10:14:53.73Z</time></trkpt><trkpt lat="43.3508768" lon="12.574386"><ele>489.6666666666667</ele><time>2026-04-28T10:14:54.731Z</time></trkpt><trkpt lat="43.3508186" lon="12.5742928"><ele>489.33333333333337</ele><time>2026-04-28T10:14:55.73Z</time></trkpt><trkpt lat="43.3507633" lon="12.574201"><ele>489.0</ele><time>2026-04-28T10:14:56.731Z</time></trkpt><trkpt lat="43.3507108" lon="12.5741113"><ele>488.66666666666663</ele><time>2026-04-28T10:14:57.731Z</time></trkpt><trkpt lat="43.3506593" lon="12.5740251"><ele>488.3333333333333</ele><time>2026-04-28T10:14:58.731Z</time></trkpt><trkpt lat="43.3506056" lon="12.5739408"><ele>488.0</ele><time>2026-04-28T10:14:59.731Z</time></trkpt><trkpt lat="43.3505496" lon="12.5738583"><ele>487.8333333333333</ele><time>2026-04-28T10:15:00.73Z</time></trkpt><trkpt lat="43.3504945" lon="12.5737715"><ele>487.66666666666663</ele><time>2026-04-28T10:15:01.731Z</time></trkpt><trkpt lat="43.350436" lon="12.5736872"><ele>487.5</ele><time>2026-04-28T10:15:02.73Z</time></trkpt><trkpt lat="43.3503764" lon="12.5736044"><ele>487.33333333333337</ele><time>2026-04-28T10:15:03.731Z</time></trkpt><trkpt lat="43.3503185" lon="12.5735294"><ele>487.1666666666667</ele><time>2026-04-28T10:15:04.731Z</time></trkpt><trkpt lat="43.3502581" lon="12.5734564"><ele>487.0</ele><time>2026-04-28T10:15:05.731Z</time></trkpt><trkpt lat="43.3501983" lon="12.5733836"><ele>487.00000000000006</ele><time>2026-04-28T10:15:06.731Z</time></trkpt><trkpt lat="43.3501385" lon="12.5733112"><ele>487.0</ele><time>2026-04-28T10:15:07.731Z</time></trkpt><trkpt lat="43.3500764" lon="12.5732443"><ele>487.0</ele><time>2026-04-28T10:15:08.731Z</time></trkpt><trkpt lat="43.3500154" lon="12.5731769"><ele>487.0</ele><time>2026-04-28T10:15:09.731Z</time></trkpt><trkpt lat="43.3499518" lon="12.5731064"><ele>487.00000000000006</ele><time>2026-04-28T10:15:10.73Z</time></trkpt><trkpt lat="43.3498926" lon="12.573042"><ele>487.0</ele><time>2026-04-28T10:15:11.731Z</time></trkpt><trkpt lat="43.349836" lon="12.5729823"><ele>487.0</ele><time>2026-04-28T10:15:12.731Z</time></trkpt><trkpt lat="43.3497788" lon="12.572927"><ele>487.0</ele><time>2026-04-28T10:15:13.731Z</time></trkpt><trkpt lat="43.3497231" lon="12.5728733"><ele>487.0</ele><time>2026-04-28T10:15:14.731Z</time></trkpt><trkpt lat="43.3496642" lon="12.5728213"><ele>487.0</ele><time>2026-04-28T10:15:15.731Z</time></trkpt><trkpt lat="43.3496073" lon="12.5727713"><ele>487.0</ele><time>2026-04-28T10:15:16.731Z</time></trkpt><trkpt lat="43.349548" lon="12.5727181"><ele>487.0</ele><time>2026-04-28T10:15:17.731Z</time></trkpt><trkpt lat="43.3494865" lon="12.5726627"><ele>487.0</ele><time>2026-04-28T10:15:18.73Z</time></trkpt><trkpt lat="43.3494248" lon="12.5726077"><ele>486.83333333333337</ele><time>2026-04-28T10:15:19.731Z</time></trkpt><trkpt lat="43.3493662" lon="12.5725548"><ele>486.6666666666667</ele><time>2026-04-28T10:15:20.731Z</time></trkpt><trkpt lat="43.3493041" lon="12.5725018"><ele>486.5</ele><time>2026-04-28T10:15:21.73Z</time></trkpt><trkpt lat="43.3492405" lon="12.5724438"><ele>486.33333333333337</ele><time>2026-04-28T10:15:22.73Z</time></trkpt><trkpt lat="43.3491792" lon="12.5723766"><ele>486.1666666666667</ele><time>2026-04-28T10:15:23.729Z</time></trkpt><trkpt lat="43.349121" lon="12.572302"><ele>486.0</ele><time>2026-04-28T10:15:24.73Z</time></trkpt><trkpt lat="43.3490719" lon="12.572211"><ele>486.0</ele><time>2026-04-28T10:15:25.73Z</time></trkpt><trkpt lat="43.3490318" lon="12.5721049"><ele>486.0</ele><time>2026-04-28T10:15:26.729Z</time></trkpt><trkpt lat="43.3489968" lon="12.5719929"><ele>486.0</ele><time>2026-04-28T10:15:27.73Z</time></trkpt><trkpt lat="43.3489685" lon="12.5718833"><ele>486.0</ele><time>2026-04-28T10:15:28.73Z</time></trkpt><trkpt lat="43.348946" lon="12.5717787"><ele>486.0</ele><time>2026-04-28T10:15:29.73Z</time></trkpt><trkpt lat="43.3489297" lon="12.5716813"><ele>486.0</ele><time>2026-04-28T10:15:30.73Z</time></trkpt><trkpt lat="43.3489192" lon="12.571575"><ele>485.3333333333333</ele><time>2026-04-28T10:15:31.73Z</time></trkpt><trkpt lat="43.3489108" lon="12.5714654"><ele>484.66666666666663</ele><time>2026-04-28T10:15:32.73Z</time></trkpt><trkpt lat="43.3489048" lon="12.5713548"><ele>484.0</ele><time>2026-04-28T10:15:33.729Z</time></trkpt><trkpt lat="43.3488972" lon="12.5712444"><ele>483.3333333333333</ele><time>2026-04-28T10:15:34.73Z</time></trkpt><trkpt lat="43.3488863" lon="12.5711429"><ele>482.66666666666663</ele><time>2026-04-28T10:15:35.73Z</time></trkpt><trkpt lat="43.3488756" lon="12.5710569"><ele>482.0</ele><time>2026-04-28T10:15:36.73Z</time></trkpt><trkpt lat="43.3488555" lon="12.5709116"><ele>481.20000000000005</ele><time>2026-04-28T10:15:38.73Z</time></trkpt><trkpt lat="43.3488215" lon="12.5707661"><ele>480.40000000000003</ele><time>2026-04-28T10:15:40.73Z</time></trkpt><trkpt lat="43.3487888" lon="12.5706098"><ele>479.59999999999997</ele><time>2026-04-28T10:15:42.729Z</time></trkpt><trkpt lat="43.3487452" lon="12.5704482"><ele>478.79999999999995</ele><time>2026-04-28T10:15:44.73Z</time></trkpt><trkpt lat="43.3487127" lon="12.570367"><ele>478.0</ele><time>2026-04-28T10:15:45.73Z</time></trkpt><trkpt lat="43.3486806" lon="12.5702844"><ele>478.00000000000006</ele><time>2026-04-28T10:15:46.729Z</time></trkpt><trkpt lat="43.3486501" lon="12.5702042"><ele>478.0</ele><time>2026-04-28T10:15:47.73Z</time></trkpt><trkpt lat="43.3485963" lon="12.5700751"><ele>478.0</ele><time>2026-04-28T10:15:49.729Z</time></trkpt><trkpt lat="43.3485629" lon="12.5699992"><ele>478.0</ele><time>2026-04-28T10:15:51.73Z</time></trkpt><trkpt lat="43.348519" lon="12.569905"><ele>478.00000000000006</ele><time>2026-04-28T10:15:56.73Z</time></trkpt><trkpt lat="43.3484855" lon="12.5698179"><ele>478.0</ele><time>2026-04-28T10:16:01.729Z</time></trkpt><trkpt lat="43.3484235" lon="12.569794"><ele>478.00000000000006</ele><time>2026-04-28T10:16:17.73Z</time></trkpt><trkpt lat="43.3483656" lon="12.5699386"><ele>478.0</ele><time>2026-04-28T10:16:19.73Z</time></trkpt><trkpt lat="43.3483298" lon="12.5700238"><ele>478.0</ele><time>2026-04-28T10:16:20.729Z</time></trkpt><trkpt lat="43.3482912" lon="12.5701174"><ele>478.0</ele><time>2026-04-28T10:16:21.73Z</time></trkpt><trkpt lat="43.3482459" lon="12.5702222"><ele>478.00000000000006</ele><time>2026-04-28T10:16:22.73Z</time></trkpt><trkpt lat="43.3482025" lon="12.570323"><ele>478.0</ele><time>2026-04-28T10:16:23.729Z</time></trkpt><trkpt lat="43.3481612" lon="12.5704244"><ele>478.00000000000006</ele><time>2026-04-28T10:16:24.73Z</time></trkpt><trkpt lat="43.34812" lon="12.5705218"><ele>478.0</ele><time>2026-04-28T10:16:25.729Z</time></trkpt><trkpt lat="43.3480799" lon="12.5706173"><ele>478.0</ele><time>2026-04-28T10:16:26.73Z</time></trkpt><trkpt lat="43.3480406" lon="12.5707133"><ele>478.0</ele><time>2026-04-28T10:16:27.73Z</time></trkpt><trkpt lat="43.3480057" lon="12.5708016"><ele>478.00000000000006</ele><time>2026-04-28T10:16:28.73Z</time></trkpt><trkpt lat="43.3479709" lon="12.570883"><ele>478.0</ele><time>2026-04-28T10:16:29.73Z</time></trkpt><trkpt lat="43.3479097" lon="12.5710143"><ele>477.50000000000006</ele><time>2026-04-28T10:16:31.73Z</time></trkpt><trkpt lat="43.347858" lon="12.5711322"><ele>477.0</ele><time>2026-04-28T10:16:33.73Z</time></trkpt><trkpt lat="43.3478023" lon="12.5712683"><ele>476.5</ele><time>2026-04-28T10:16:35.73Z</time></trkpt><trkpt lat="43.3477673" lon="12.571349"><ele>476.0</ele><time>2026-04-28T10:16:36.73Z</time></trkpt><trkpt lat="43.3477283" lon="12.5714343"><ele>475.50000000000006</ele><time>2026-04-28T10:16:37.73Z</time></trkpt><trkpt lat="43.3476901" lon="12.5715246"><ele>475.0</ele><time>2026-04-28T10:16:38.73Z</time></trkpt><trkpt lat="43.3476527" lon="12.5716185"><ele>475.00000000000006</ele><time>2026-04-28T10:16:39.729Z</time></trkpt><trkpt lat="43.347615" lon="12.5717143"><ele>475.0</ele><time>2026-04-28T10:16:40.73Z</time></trkpt><trkpt lat="43.3475759" lon="12.5718076"><ele>475.0</ele><time>2026-04-28T10:16:41.73Z</time></trkpt><trkpt lat="43.3475346" lon="12.5719008"><ele>475.0</ele><time>2026-04-28T10:16:42.729Z</time></trkpt><trkpt lat="43.3474894" lon="12.5719985"><ele>475.00000000000006</ele><time>2026-04-28T10:16:43.729Z</time></trkpt><trkpt lat="43.3474447" lon="12.5721008"><ele>475.0</ele><time>2026-04-28T10:16:44.73Z</time></trkpt><trkpt lat="43.3474015" lon="12.5722012"><ele>475.33333333333337</ele><time>2026-04-28T10:16:45.73Z</time></trkpt><trkpt lat="43.3473639" lon="12.5723001"><ele>475.6666666666667</ele><time>2026-04-28T10:16:46.729Z</time></trkpt><trkpt lat="43.3473311" lon="12.5723967"><ele>476.0</ele><time>2026-04-28T10:16:47.73Z</time></trkpt><trkpt lat="43.3473033" lon="12.5724976"><ele>476.33333333333337</ele><time>2026-04-28T10:16:48.729Z</time></trkpt><trkpt lat="43.3472834" lon="12.5725947"><ele>476.6666666666667</ele><time>2026-04-28T10:16:49.73Z</time></trkpt><trkpt lat="43.3472694" lon="12.5726879"><ele>477.0</ele><time>2026-04-28T10:16:50.73Z</time></trkpt><trkpt lat="43.3472572" lon="12.5727833"><ele>476.6</ele><time>2026-04-28T10:16:51.729Z</time></trkpt><trkpt lat="43.3472455" lon="12.5728788"><ele>476.20000000000005</ele><time>2026-04-28T10:16:52.73Z</time></trkpt><trkpt lat="43.3472343" lon="12.5729702"><ele>475.8</ele><time>2026-04-28T10:16:53.73Z</time></trkpt><trkpt lat="43.3472255" lon="12.573059"><ele>475.4</ele><time>2026-04-28T10:16:54.729Z</time></trkpt><trkpt lat="43.3472108" lon="12.5732269"><ele>475.0</ele><time>2026-04-28T10:16:56.73Z</time></trkpt><trkpt lat="43.3471946" lon="12.5734049"><ele>474.6666666666667</ele><time>2026-04-28T10:16:58.73Z</time></trkpt><trkpt lat="43.3471839" lon="12.5735029"><ele>474.33333333333337</ele><time>2026-04-28T10:16:59.73Z</time></trkpt><trkpt lat="43.3471747" lon="12.5736042"><ele>474.0</ele><time>2026-04-28T10:17:00.728Z</time></trkpt><trkpt lat="43.347166" lon="12.5737033"><ele>473.66666666666663</ele><time>2026-04-28T10:17:01.73Z</time></trkpt><trkpt lat="43.3471565" lon="12.5737956"><ele>473.3333333333333</ele><time>2026-04-28T10:17:02.73Z</time></trkpt><trkpt lat="43.3471473" lon="12.5738826"><ele>473.0</ele><time>2026-04-28T10:17:03.73Z</time></trkpt><trkpt lat="43.3471228" lon="12.5740381"><ele>473.0</ele><time>2026-04-28T10:17:05.73Z</time></trkpt><trkpt lat="43.3470934" lon="12.5741867"><ele>472.99999999999994</ele><time>2026-04-28T10:17:07.73Z</time></trkpt><trkpt lat="43.3470556" lon="12.5743523"><ele>472.99999999999994</ele><time>2026-04-28T10:17:09.73Z</time></trkpt><trkpt lat="43.3470305" lon="12.5744466"><ele>473.0</ele><time>2026-04-28T10:17:10.73Z</time></trkpt><trkpt lat="43.3470042" lon="12.574549"><ele>473.0</ele><time>2026-04-28T10:17:11.729Z</time></trkpt><trkpt lat="43.346977" lon="12.5746493"><ele>473.59999999999997</ele><time>2026-04-28T10:17:12.73Z</time></trkpt><trkpt lat="43.3469508" lon="12.5747388"><ele>474.19999999999993</ele><time>2026-04-28T10:17:13.73Z</time></trkpt><trkpt lat="43.3469018" lon="12.5748894"><ele>474.8</ele><time>2026-04-28T10:17:15.73Z</time></trkpt><trkpt lat="43.3468483" lon="12.575036"><ele>475.4</ele><time>2026-04-28T10:17:17.73Z</time></trkpt><trkpt lat="43.3467917" lon="12.5751969"><ele>476.0</ele><time>2026-04-28T10:17:19.729Z</time></trkpt><trkpt lat="43.3467608" lon="12.5752806"><ele>476.4</ele><time>2026-04-28T10:17:20.73Z</time></trkpt><trkpt lat="43.3467089" lon="12.5754303"><ele>476.8</ele><time>2026-04-28T10:17:22.73Z</time></trkpt><trkpt lat="43.3466675" lon="12.5755543"><ele>477.19999999999993</ele><time>2026-04-28T10:17:24.73Z</time></trkpt><trkpt lat="43.346647" lon="12.5756562"><ele>477.59999999999997</ele><time>2026-04-28T10:17:26.729Z</time></trkpt><trkpt lat="43.3466178" lon="12.5757842"><ele>478.0</ele><time>2026-04-28T10:17:28.729Z</time></trkpt><trkpt lat="43.3465592" lon="12.5759394"><ele>478.00000000000006</ele><time>2026-04-28T10:17:30.73Z</time></trkpt><trkpt lat="43.3465042" lon="12.5760897"><ele>478.0</ele><time>2026-04-28T10:17:32.73Z</time></trkpt><trkpt lat="43.3464756" lon="12.576171"><ele>478.0</ele><time>2026-04-28T10:17:33.729Z</time></trkpt><trkpt lat="43.346447" lon="12.5762503"><ele>478.0</ele><time>2026-04-28T10:17:34.729Z</time></trkpt><trkpt lat="43.3464184" lon="12.5763297"><ele>478.00000000000006</ele><time>2026-04-28T10:17:35.73Z</time></trkpt><trkpt lat="43.3463883" lon="12.5764071"><ele>478.0</ele><time>2026-04-28T10:17:36.729Z</time></trkpt><trkpt lat="43.3463409" lon="12.5765316"><ele>477.79999999999995</ele><time>2026-04-28T10:17:38.73Z</time></trkpt><trkpt lat="43.346294" lon="12.5766514"><ele>477.59999999999997</ele><time>2026-04-28T10:17:40.73Z</time></trkpt><trkpt lat="43.3462308" lon="12.5767679"><ele>477.40000000000003</ele><time>2026-04-28T10:17:42.73Z</time></trkpt><trkpt lat="43.3461219" lon="12.5768176"><ele>477.20000000000005</ele><time>2026-04-28T10:17:44.73Z</time></trkpt><trkpt lat="43.3460518" lon="12.5768093"><ele>477.0</ele><time>2026-04-28T10:17:45.73Z</time></trkpt><trkpt lat="43.3459768" lon="12.5767858"><ele>477.0</ele><time>2026-04-28T10:17:46.73Z</time></trkpt><trkpt lat="43.3459034" lon="12.5767553"><ele>476.99999999999994</ele><time>2026-04-28T10:17:47.729Z</time></trkpt><trkpt lat="43.3458322" lon="12.5767332"><ele>477.0</ele><time>2026-04-28T10:17:48.73Z</time></trkpt><trkpt lat="43.3457634" lon="12.5767086"><ele>477.0</ele><time>2026-04-28T10:17:49.729Z</time></trkpt><trkpt lat="43.3456925" lon="12.5766781"><ele>476.99999999999994</ele><time>2026-04-28T10:17:50.73Z</time></trkpt><trkpt lat="43.3456205" lon="12.5766458"><ele>477.0</ele><time>2026-04-28T10:17:51.73Z</time></trkpt><trkpt lat="43.3455466" lon="12.5766135"><ele>477.0</ele><time>2026-04-28T10:17:52.729Z</time></trkpt><trkpt lat="43.3454737" lon="12.5765799"><ele>476.2857142857143</ele><time>2026-04-28T10:17:53.73Z</time></trkpt><trkpt lat="43.3454042" lon="12.5765515"><ele>475.57142857142856</ele><time>2026-04-28T10:17:54.73Z</time></trkpt><trkpt lat="43.3453385" lon="12.5765299"><ele>474.85714285714283</ele><time>2026-04-28T10:17:55.73Z</time></trkpt><trkpt lat="43.345274" lon="12.5765078"><ele>474.1428571428571</ele><time>2026-04-28T10:17:56.73Z</time></trkpt><trkpt lat="43.34521" lon="12.5764833"><ele>473.42857142857144</ele><time>2026-04-28T10:17:57.73Z</time></trkpt><trkpt lat="43.3451416" lon="12.5764559"><ele>472.71428571428567</ele><time>2026-04-28T10:17:58.73Z</time></trkpt><trkpt lat="43.3450726" lon="12.5764285"><ele>472.0</ele><time>2026-04-28T10:17:59.73Z</time></trkpt><trkpt lat="43.3450031" lon="12.5764011"><ele>472.0</ele><time>2026-04-28T10:18:00.728Z</time></trkpt><trkpt lat="43.3449311" lon="12.576375"><ele>472.0</ele><time>2026-04-28T10:18:01.728Z</time></trkpt><trkpt lat="43.3448616" lon="12.5763476"><ele>472.0</ele><time>2026-04-28T10:18:02.729Z</time></trkpt><trkpt lat="43.3447923" lon="12.5763239"><ele>472.0</ele><time>2026-04-28T10:18:03.729Z</time></trkpt><trkpt lat="43.3447225" lon="12.5763029"><ele>472.0</ele><time>2026-04-28T10:18:04.729Z</time></trkpt><trkpt lat="43.3446508" lon="12.5762775"><ele>472.0</ele><time>2026-04-28T10:18:05.728Z</time></trkpt><trkpt lat="43.3445801" lon="12.5762445"><ele>472.0</ele><time>2026-04-28T10:18:06.729Z</time></trkpt><trkpt lat="43.3445053" lon="12.5762164"><ele>471.57142857142856</ele><time>2026-04-28T10:18:07.728Z</time></trkpt><trkpt lat="43.3444344" lon="12.5761846"><ele>471.14285714285717</ele><time>2026-04-28T10:18:08.729Z</time></trkpt><trkpt lat="43.3443548" lon="12.5761523"><ele>470.7142857142857</ele><time>2026-04-28T10:18:09.729Z</time></trkpt><trkpt lat="43.3442801" lon="12.5761266"><ele>470.2857142857143</ele><time>2026-04-28T10:18:10.729Z</time></trkpt><trkpt lat="43.3442097" lon="12.5760983"><ele>469.8571428571429</ele><time>2026-04-28T10:18:11.729Z</time></trkpt><trkpt lat="43.3441425" lon="12.5760729"><ele>469.42857142857144</ele><time>2026-04-28T10:18:12.729Z</time></trkpt><trkpt lat="43.3440766" lon="12.5760431"><ele>469.0</ele><time>2026-04-28T10:18:13.728Z</time></trkpt><trkpt lat="43.3440069" lon="12.5760179"><ele>469.00000000000006</ele><time>2026-04-28T10:18:14.729Z</time></trkpt><trkpt lat="43.3439372" lon="12.5759871"><ele>469.0</ele><time>2026-04-28T10:18:15.729Z</time></trkpt><trkpt lat="43.3438698" lon="12.575959"><ele>469.0</ele><time>2026-04-28T10:18:16.728Z</time></trkpt><trkpt lat="43.343804" lon="12.575937"><ele>469.0</ele><time>2026-04-28T10:18:17.728Z</time></trkpt><trkpt lat="43.3437209" lon="12.5759101"><ele>469.00000000000006</ele><time>2026-04-28T10:18:19.729Z</time></trkpt><trkpt lat="43.3436456" lon="12.5758858"><ele>469.0</ele><time>2026-04-28T10:18:25.729Z</time></trkpt><trkpt lat="43.3435383" lon="12.5758177"><ele>468.83333333333337</ele><time>2026-04-28T10:18:27.729Z</time></trkpt><trkpt lat="43.343473" lon="12.5757933"><ele>468.6666666666667</ele><time>2026-04-28T10:18:28.729Z</time></trkpt><trkpt lat="43.3433941" lon="12.575769"><ele>468.5</ele><time>2026-04-28T10:18:29.729Z</time></trkpt><trkpt lat="43.3433033" lon="12.5757382"><ele>468.33333333333337</ele><time>2026-04-28T10:18:30.728Z</time></trkpt><trkpt lat="43.3432077" lon="12.5757055"><ele>468.1666666666667</ele><time>2026-04-28T10:18:31.729Z</time></trkpt><trkpt lat="43.3431078" lon="12.575667"><ele>468.0</ele><time>2026-04-28T10:18:32.728Z</time></trkpt><trkpt lat="43.3429994" lon="12.5756249"><ele>468.0</ele><time>2026-04-28T10:18:33.729Z</time></trkpt><trkpt lat="43.3428884" lon="12.5755805"><ele>468.0</ele><time>2026-04-28T10:18:34.728Z</time></trkpt><trkpt lat="43.3427759" lon="12.5755349"><ele>468.0</ele><time>2026-04-28T10:18:35.729Z</time></trkpt><trkpt lat="43.3426618" lon="12.5754867"><ele>468.0</ele><time>2026-04-28T10:18:36.729Z</time></trkpt><trkpt lat="43.3425458" lon="12.5754369"><ele>468.0</ele><time>2026-04-28T10:18:37.729Z</time></trkpt><trkpt lat="43.3424286" lon="12.5753879"><ele>468.0</ele><time>2026-04-28T10:18:38.729Z</time></trkpt><trkpt lat="43.3423103" lon="12.5753368"><ele>468.0</ele><time>2026-04-28T10:18:39.729Z</time></trkpt><trkpt lat="43.3421888" lon="12.5752866"><ele>468.0</ele><time>2026-04-28T10:18:40.729Z</time></trkpt><trkpt lat="43.3420685" lon="12.5752373"><ele>466.75</ele><time>2026-04-28T10:18:41.729Z</time></trkpt><trkpt lat="43.3419481" lon="12.5751864"><ele>465.5</ele><time>2026-04-28T10:18:42.729Z</time></trkpt><trkpt lat="43.3418244" lon="12.5751332"><ele>464.25</ele><time>2026-04-28T10:18:43.728Z</time></trkpt><trkpt lat="43.3416972" lon="12.5750792"><ele>463.0</ele><time>2026-04-28T10:18:44.729Z</time></trkpt><trkpt lat="43.3415679" lon="12.5750237"><ele>463.0</ele><time>2026-04-28T10:18:45.728Z</time></trkpt><trkpt lat="43.3414348" lon="12.5749695"><ele>463.0</ele><time>2026-04-28T10:18:46.729Z</time></trkpt><trkpt lat="43.3413" lon="12.5749144"><ele>463.0</ele><time>2026-04-28T10:18:47.728Z</time></trkpt><trkpt lat="43.3411652" lon="12.5748628"><ele>463.0</ele><time>2026-04-28T10:18:48.729Z</time></trkpt><trkpt lat="43.3410332" lon="12.5748119"><ele>462.75</ele><time>2026-04-28T10:18:49.729Z</time></trkpt><trkpt lat="43.3409116" lon="12.5747664"><ele>462.5</ele><time>2026-04-28T10:18:50.728Z</time></trkpt><trkpt lat="43.3407922" lon="12.5747116"><ele>462.25</ele><time>2026-04-28T10:18:51.729Z</time></trkpt><trkpt lat="43.3406755" lon="12.5746596"><ele>462.0</ele><time>2026-04-28T10:18:52.728Z</time></trkpt><trkpt lat="43.3405583" lon="12.5746105"><ele>461.5</ele><time>2026-04-28T10:18:53.729Z</time></trkpt><trkpt lat="43.3404398" lon="12.5745619"><ele>461.0</ele><time>2026-04-28T10:18:54.728Z</time></trkpt><trkpt lat="43.3403206" lon="12.5745114"><ele>460.5</ele><time>2026-04-28T10:18:55.729Z</time></trkpt><trkpt lat="43.3401994" lon="12.5744594"><ele>460.0</ele><time>2026-04-28T10:18:56.729Z</time></trkpt><trkpt lat="43.3400769" lon="12.574408"><ele>460.0</ele><time>2026-04-28T10:18:57.729Z</time></trkpt><trkpt lat="43.3399521" lon="12.5743564"><ele>460.0</ele><time>2026-04-28T10:18:58.729Z</time></trkpt><trkpt lat="43.3398272" lon="12.5743047"><ele>460.0</ele><time>2026-04-28T10:18:59.729Z</time></trkpt><trkpt lat="43.3396995" lon="12.5742582"><ele>460.0</ele><time>2026-04-28T10:19:00.729Z</time></trkpt><trkpt lat="43.3395779" lon="12.574212"><ele>459.25</ele><time>2026-04-28T10:19:01.728Z</time></trkpt><trkpt lat="43.3394589" lon="12.5741677"><ele>458.5</ele><time>2026-04-28T10:19:02.729Z</time></trkpt><trkpt lat="43.3393451" lon="12.5741234"><ele>457.75</ele><time>2026-04-28T10:19:03.729Z</time></trkpt><trkpt lat="43.3392317" lon="12.5740791"><ele>457.0</ele><time>2026-04-28T10:19:04.729Z</time></trkpt><trkpt lat="43.3391216" lon="12.5740349"><ele>457.0</ele><time>2026-04-28T10:19:05.729Z</time></trkpt><trkpt lat="43.3390103" lon="12.5739918"><ele>457.0</ele><time>2026-04-28T10:19:06.728Z</time></trkpt><trkpt lat="43.3389011" lon="12.5739492"><ele>457.0</ele><time>2026-04-28T10:19:07.729Z</time></trkpt><trkpt lat="43.3387926" lon="12.5739018"><ele>457.0</ele><time>2026-04-28T10:19:08.728Z</time></trkpt><trkpt lat="43.3386833" lon="12.5738561"><ele>456.6</ele><time>2026-04-28T10:19:09.729Z</time></trkpt><trkpt lat="43.3385751" lon="12.5738139"><ele>456.20000000000005</ele><time>2026-04-28T10:19:10.728Z</time></trkpt><trkpt lat="43.3384666" lon="12.573771"><ele>455.8</ele><time>2026-04-28T10:19:11.729Z</time></trkpt><trkpt lat="43.3383594" lon="12.5737285"><ele>455.4</ele><time>2026-04-28T10:19:12.729Z</time></trkpt><trkpt lat="43.3382515" lon="12.5736866"><ele>455.0</ele><time>2026-04-28T10:19:13.728Z</time></trkpt><trkpt lat="43.3381411" lon="12.5736473"><ele>455.0</ele><time>2026-04-28T10:19:14.729Z</time></trkpt><trkpt lat="43.3380302" lon="12.5736087"><ele>455.0</ele><time>2026-04-28T10:19:15.729Z</time></trkpt><trkpt lat="43.33792" lon="12.5735701"><ele>455.0</ele><time>2026-04-28T10:19:16.727Z</time></trkpt><trkpt lat="43.3378102" lon="12.5735274"><ele>455.0</ele><time>2026-04-28T10:19:17.729Z</time></trkpt><trkpt lat="43.3377007" lon="12.573483"><ele>455.0</ele><time>2026-04-28T10:19:18.728Z</time></trkpt><trkpt lat="43.3375927" lon="12.5734407"><ele>455.0</ele><time>2026-04-28T10:19:19.729Z</time></trkpt><trkpt lat="43.3374844" lon="12.5733994"><ele>455.0</ele><time>2026-04-28T10:19:20.729Z</time></trkpt><trkpt lat="43.3373764" lon="12.5733598"><ele>455.0</ele><time>2026-04-28T10:19:21.728Z</time></trkpt><trkpt lat="43.3372686" lon="12.5733201"><ele>455.0</ele><time>2026-04-28T10:19:22.729Z</time></trkpt><trkpt lat="43.3371608" lon="12.573282"><ele>454.0</ele><time>2026-04-28T10:19:23.729Z</time></trkpt><trkpt lat="43.3370542" lon="12.5732449"><ele>453.0</ele><time>2026-04-28T10:19:24.729Z</time></trkpt><trkpt lat="43.3368376" lon="12.5731744"><ele>452.0</ele><time>2026-04-28T10:19:26.729Z</time></trkpt><trkpt lat="43.3367342" lon="12.5731375"><ele>451.0</ele><time>2026-04-28T10:19:27.728Z</time></trkpt><trkpt lat="43.3366361" lon="12.5731006"><ele>451.0</ele><time>2026-04-28T10:19:28.729Z</time></trkpt><trkpt lat="43.3365497" lon="12.5730701"><ele>451.0</ele><time>2026-04-28T10:19:29.729Z</time></trkpt><trkpt lat="43.3364774" lon="12.5730426"><ele>451.0</ele><time>2026-04-28T10:19:30.729Z</time></trkpt><trkpt lat="43.3363911" lon="12.5729913"><ele>451.0</ele><time>2026-04-28T10:19:32.728Z</time></trkpt><trkpt lat="43.3363226" lon="12.5728936"><ele>451.0</ele><time>2026-04-28T10:19:38.728Z</time></trkpt><trkpt lat="43.3362844" lon="12.5727632"><ele>451.1666666666667</ele><time>2026-04-28T10:19:40.729Z</time></trkpt><trkpt lat="43.3363144" lon="12.5725956"><ele>451.33333333333337</ele><time>2026-04-28T10:19:42.729Z</time></trkpt><trkpt lat="43.3363489" lon="12.5725085"><ele>451.5</ele><time>2026-04-28T10:19:43.729Z</time></trkpt><trkpt lat="43.3363867" lon="12.5724131"><ele>451.66666666666663</ele><time>2026-04-28T10:19:44.729Z</time></trkpt><trkpt lat="43.336422" lon="12.5723169"><ele>451.8333333333333</ele><time>2026-04-28T10:19:45.729Z</time></trkpt><trkpt lat="43.3364447" lon="12.5722309"><ele>452.0</ele><time>2026-04-28T10:19:46.729Z</time></trkpt><trkpt lat="43.3364749" lon="12.5720997"><ele>451.6</ele><time>2026-04-28T10:19:48.728Z</time></trkpt><trkpt lat="43.3365392" lon="12.5719329"><ele>451.20000000000005</ele><time>2026-04-28T10:19:50.729Z</time></trkpt><trkpt lat="43.3365837" lon="12.5718228"><ele>450.8</ele><time>2026-04-28T10:19:51.729Z</time></trkpt><trkpt lat="43.3366243" lon="12.5717027"><ele>450.4</ele><time>2026-04-28T10:19:52.729Z</time></trkpt><trkpt lat="43.3366644" lon="12.5715711"><ele>450.0</ele><time>2026-04-28T10:19:53.729Z</time></trkpt><trkpt lat="43.3367089" lon="12.5714282"><ele>450.0</ele><time>2026-04-28T10:19:54.729Z</time></trkpt><trkpt lat="43.3367572" lon="12.5712785"><ele>450.0</ele><time>2026-04-28T10:19:55.729Z</time></trkpt><trkpt lat="43.3368036" lon="12.5711339"><ele>450.0</ele><time>2026-04-28T10:19:56.729Z</time></trkpt><trkpt lat="43.3368484" lon="12.5709904"><ele>450.0</ele><time>2026-04-28T10:19:57.728Z</time></trkpt><trkpt lat="43.3368876" lon="12.570852"><ele>450.0</ele><time>2026-04-28T10:19:58.729Z</time></trkpt><trkpt lat="43.3369205" lon="12.5707173"><ele>450.0</ele><time>2026-04-28T10:19:59.729Z</time></trkpt><trkpt lat="43.336947" lon="12.5705751"><ele>450.0</ele><time>2026-04-28T10:20:00.728Z</time></trkpt><trkpt lat="43.3369596" lon="12.5704238"><ele>450.0</ele><time>2026-04-28T10:20:01.729Z</time></trkpt><trkpt lat="43.3369558" lon="12.5702617"><ele>450.0</ele><time>2026-04-28T10:20:02.728Z</time></trkpt><trkpt lat="43.3369354" lon="12.5700976"><ele>450.25</ele><time>2026-04-28T10:20:03.728Z</time></trkpt><trkpt lat="43.3369078" lon="12.5699373"><ele>450.5</ele><time>2026-04-28T10:20:04.729Z</time></trkpt><trkpt lat="43.3368812" lon="12.569772"><ele>450.75</ele><time>2026-04-28T10:20:05.729Z</time></trkpt><trkpt lat="43.3368608" lon="12.5696016"><ele>451.0</ele><time>2026-04-28T10:20:06.729Z</time></trkpt><trkpt lat="43.3368396" lon="12.5694315"><ele>450.20000000000005</ele><time>2026-04-28T10:20:07.729Z</time></trkpt><trkpt lat="43.3368134" lon="12.5692759"><ele>449.40000000000003</ele><time>2026-04-28T10:20:08.729Z</time></trkpt><trkpt lat="43.336778" lon="12.5691414"><ele>448.6</ele><time>2026-04-28T10:20:09.729Z</time></trkpt><trkpt lat="43.3367228" lon="12.569027"><ele>447.8</ele><time>2026-04-28T10:20:10.728Z</time></trkpt><trkpt lat="43.3366468" lon="12.5689248"><ele>447.0</ele><time>2026-04-28T10:20:11.729Z</time></trkpt><trkpt lat="43.3365574" lon="12.5688269"><ele>447.0</ele><time>2026-04-28T10:20:12.728Z</time></trkpt><trkpt lat="43.3364605" lon="12.5687319"><ele>447.0</ele><time>2026-04-28T10:20:13.729Z</time></trkpt><trkpt lat="43.3363591" lon="12.5686349"><ele>447.0</ele><time>2026-04-28T10:20:14.729Z</time></trkpt><trkpt lat="43.3362534" lon="12.5685363"><ele>447.0</ele><time>2026-04-28T10:20:15.729Z</time></trkpt><trkpt lat="43.3361455" lon="12.5684362"><ele>447.0</ele><time>2026-04-28T10:20:16.729Z</time></trkpt><trkpt lat="43.3360353" lon="12.5683308"><ele>447.0</ele><time>2026-04-28T10:20:17.728Z</time></trkpt><trkpt lat="43.3359205" lon="12.5682205"><ele>447.0</ele><time>2026-04-28T10:20:18.729Z</time></trkpt><trkpt lat="43.3358064" lon="12.5681137"><ele>447.0</ele><time>2026-04-28T10:20:19.729Z</time></trkpt><trkpt lat="43.3356937" lon="12.5680079"><ele>447.0</ele><time>2026-04-28T10:20:20.728Z</time></trkpt><trkpt lat="43.3355835" lon="12.5678976"><ele>447.0</ele><time>2026-04-28T10:20:21.729Z</time></trkpt><trkpt lat="43.3354676" lon="12.5677925"><ele>447.0</ele><time>2026-04-28T10:20:22.729Z</time></trkpt><trkpt lat="43.3353489" lon="12.5676826"><ele>447.0</ele><time>2026-04-28T10:20:23.729Z</time></trkpt><trkpt lat="43.3352288" lon="12.5675675"><ele>446.33333333333337</ele><time>2026-04-28T10:20:24.728Z</time></trkpt><trkpt lat="43.3351078" lon="12.567448"><ele>445.6666666666667</ele><time>2026-04-28T10:20:25.729Z</time></trkpt><trkpt lat="43.3349852" lon="12.5673279"><ele>445.0</ele><time>2026-04-28T10:20:26.728Z</time></trkpt><trkpt lat="43.334859" lon="12.5672078"><ele>445.0</ele><time>2026-04-28T10:20:27.729Z</time></trkpt><trkpt lat="43.3347294" lon="12.5670896"><ele>445.0</ele><time>2026-04-28T10:20:28.728Z</time></trkpt><trkpt lat="43.3345978" lon="12.5669701"><ele>445.0</ele><time>2026-04-28T10:20:29.728Z</time></trkpt><trkpt lat="43.3344647" lon="12.5668498"><ele>444.6666666666667</ele><time>2026-04-28T10:20:30.729Z</time></trkpt><trkpt lat="43.3343316" lon="12.5667245"><ele>444.33333333333337</ele><time>2026-04-28T10:20:31.729Z</time></trkpt><trkpt lat="43.3341957" lon="12.5665976"><ele>444.0</ele><time>2026-04-28T10:20:32.729Z</time></trkpt><trkpt lat="43.3340593" lon="12.5664683"><ele>444.0</ele><time>2026-04-28T10:20:33.728Z</time></trkpt><trkpt lat="43.3339233" lon="12.5663398"><ele>444.0</ele><time>2026-04-28T10:20:34.729Z</time></trkpt><trkpt lat="43.3337937" lon="12.5662146"><ele>444.0</ele><time>2026-04-28T10:20:35.728Z</time></trkpt><trkpt lat="43.333668" lon="12.5660848"><ele>442.66666666666663</ele><time>2026-04-28T10:20:36.729Z</time></trkpt><trkpt lat="43.3335509" lon="12.5659454"><ele>441.3333333333333</ele><time>2026-04-28T10:20:37.729Z</time></trkpt><trkpt lat="43.3334428" lon="12.5657915"><ele>440.0</ele><time>2026-04-28T10:20:38.728Z</time></trkpt><trkpt lat="43.3333405" lon="12.5656319"><ele>440.0</ele><time>2026-04-28T10:20:39.729Z</time></trkpt><trkpt lat="43.3332392" lon="12.5654689"><ele>440.0</ele><time>2026-04-28T10:20:40.729Z</time></trkpt><trkpt lat="43.3331365" lon="12.5653048"><ele>440.0</ele><time>2026-04-28T10:20:41.729Z</time></trkpt><trkpt lat="43.3330337" lon="12.5651412"><ele>440.0</ele><time>2026-04-28T10:20:42.728Z</time></trkpt><trkpt lat="43.332932" lon="12.564978"><ele>440.0</ele><time>2026-04-28T10:20:43.729Z</time></trkpt><trkpt lat="43.3328317" lon="12.5648148"><ele>440.0</ele><time>2026-04-28T10:20:44.729Z</time></trkpt><trkpt lat="43.3327294" lon="12.564656"><ele>439.66666666666663</ele><time>2026-04-28T10:20:45.727Z</time></trkpt><trkpt lat="43.3326229" lon="12.5645025"><ele>439.33333333333337</ele><time>2026-04-28T10:20:46.729Z</time></trkpt><trkpt lat="43.3325044" lon="12.5643632"><ele>439.0</ele><time>2026-04-28T10:20:47.728Z</time></trkpt><trkpt lat="43.3323774" lon="12.5642407"><ele>439.0</ele><time>2026-04-28T10:20:48.728Z</time></trkpt><trkpt lat="43.3322432" lon="12.5641259"><ele>439.0</ele><time>2026-04-28T10:20:49.729Z</time></trkpt><trkpt lat="43.3321075" lon="12.5640157"><ele>439.0</ele><time>2026-04-28T10:20:50.728Z</time></trkpt><trkpt lat="43.3319685" lon="12.5639116"><ele>439.0</ele><time>2026-04-28T10:20:51.729Z</time></trkpt><trkpt lat="43.3318237" lon="12.5638183"><ele>439.0</ele><time>2026-04-28T10:20:52.729Z</time></trkpt><trkpt lat="43.3316705" lon="12.5637415"><ele>439.0</ele><time>2026-04-28T10:20:53.728Z</time></trkpt><trkpt lat="43.3315148" lon="12.5636708"><ele>437.6666666666667</ele><time>2026-04-28T10:20:54.729Z</time></trkpt><trkpt lat="43.3313563" lon="12.5636064"><ele>436.33333333333337</ele><time>2026-04-28T10:20:55.729Z</time></trkpt><trkpt lat="43.3311975" lon="12.563554"><ele>435.0</ele><time>2026-04-28T10:20:56.727Z</time></trkpt><trkpt lat="43.3310361" lon="12.5635053"><ele>435.0</ele><time>2026-04-28T10:20:57.728Z</time></trkpt><trkpt lat="43.3308745" lon="12.5634654"><ele>435.0</ele><time>2026-04-28T10:20:58.728Z</time></trkpt><trkpt lat="43.3307137" lon="12.5634308"><ele>435.0</ele><time>2026-04-28T10:20:59.727Z</time></trkpt><trkpt lat="43.3305534" lon="12.5633936"><ele>434.33333333333337</ele><time>2026-04-28T10:21:00.728Z</time></trkpt><trkpt lat="43.3303937" lon="12.5633451"><ele>433.6666666666667</ele><time>2026-04-28T10:21:01.728Z</time></trkpt><trkpt lat="43.330237" lon="12.5632842"><ele>433.0</ele><time>2026-04-28T10:21:02.727Z</time></trkpt><trkpt lat="43.3300803" lon="12.5632143"><ele>433.0</ele><time>2026-04-28T10:21:03.728Z</time></trkpt><trkpt lat="43.3299262" lon="12.5631402"><ele>433.0</ele><time>2026-04-28T10:21:04.728Z</time></trkpt><trkpt lat="43.3297721" lon="12.5630646"><ele>433.0</ele><time>2026-04-28T10:21:05.728Z</time></trkpt><trkpt lat="43.3296193" lon="12.5629849"><ele>433.0</ele><time>2026-04-28T10:21:06.728Z</time></trkpt><trkpt lat="43.3294649" lon="12.5629"><ele>433.0</ele><time>2026-04-28T10:21:07.727Z</time></trkpt><trkpt lat="43.3293106" lon="12.562817"><ele>433.0</ele><time>2026-04-28T10:21:08.728Z</time></trkpt><trkpt lat="43.3291584" lon="12.5627276"><ele>432.6666666666667</ele><time>2026-04-28T10:21:09.727Z</time></trkpt><trkpt lat="43.329008" lon="12.5626392"><ele>432.33333333333337</ele><time>2026-04-28T10:21:10.728Z</time></trkpt><trkpt lat="43.3288604" lon="12.5625481"><ele>432.0</ele><time>2026-04-28T10:21:11.727Z</time></trkpt><trkpt lat="43.3287232" lon="12.5624568"><ele>431.75</ele><time>2026-04-28T10:21:12.728Z</time></trkpt><trkpt lat="43.3285923" lon="12.5623678"><ele>431.5</ele><time>2026-04-28T10:21:13.728Z</time></trkpt><trkpt lat="43.3284695" lon="12.5622822"><ele>431.25</ele><time>2026-04-28T10:21:14.728Z</time></trkpt><trkpt lat="43.3283521" lon="12.5622035"><ele>431.0</ele><time>2026-04-28T10:21:15.727Z</time></trkpt><trkpt lat="43.3282392" lon="12.5621291"><ele>431.0</ele><time>2026-04-28T10:21:16.728Z</time></trkpt><trkpt lat="43.3281226" lon="12.5620542"><ele>431.0</ele><time>2026-04-28T10:21:17.728Z</time></trkpt><trkpt lat="43.3280052" lon="12.5619762"><ele>431.0</ele><time>2026-04-28T10:21:18.728Z</time></trkpt><trkpt lat="43.3278891" lon="12.5618953"><ele>431.0</ele><time>2026-04-28T10:21:19.727Z</time></trkpt><trkpt lat="43.3277747" lon="12.5618164"><ele>431.0</ele><time>2026-04-28T10:21:20.728Z</time></trkpt><trkpt lat="43.3276633" lon="12.5617428"><ele>431.0</ele><time>2026-04-28T10:21:21.728Z</time></trkpt><trkpt lat="43.3275504" lon="12.5616699"><ele>431.0</ele><time>2026-04-28T10:21:22.728Z</time></trkpt><trkpt lat="43.3274325" lon="12.561604"><ele>431.0</ele><time>2026-04-28T10:21:23.727Z</time></trkpt><trkpt lat="43.3273096" lon="12.5615423"><ele>430.5</ele><time>2026-04-28T10:21:24.728Z</time></trkpt><trkpt lat="43.3271834" lon="12.5614803"><ele>430.0</ele><time>2026-04-28T10:21:25.727Z</time></trkpt><trkpt lat="43.3270578" lon="12.5614198"><ele>429.5</ele><time>2026-04-28T10:21:26.728Z</time></trkpt><trkpt lat="43.3269359" lon="12.5613614"><ele>429.0</ele><time>2026-04-28T10:21:27.728Z</time></trkpt><trkpt lat="43.3268197" lon="12.5613029"><ele>429.0</ele><time>2026-04-28T10:21:28.727Z</time></trkpt><trkpt lat="43.3267004" lon="12.5612484"><ele>429.0</ele><time>2026-04-28T10:21:29.728Z</time></trkpt><trkpt lat="43.3265793" lon="12.561197"><ele>429.0</ele><time>2026-04-28T10:21:30.728Z</time></trkpt><trkpt lat="43.3264566" lon="12.5611419"><ele>429.0</ele><time>2026-04-28T10:21:31.727Z</time></trkpt><trkpt lat="43.3263381" lon="12.5610771"><ele>429.0</ele><time>2026-04-28T10:21:32.728Z</time></trkpt><trkpt lat="43.3262271" lon="12.5609947"><ele>429.0</ele><time>2026-04-28T10:21:33.728Z</time></trkpt><trkpt lat="43.3261228" lon="12.5608993"><ele>429.0</ele><time>2026-04-28T10:21:34.727Z</time></trkpt><trkpt lat="43.3260245" lon="12.5607876"><ele>429.0</ele><time>2026-04-28T10:21:35.728Z</time></trkpt><trkpt lat="43.3259266" lon="12.5606678"><ele>429.0</ele><time>2026-04-28T10:21:36.728Z</time></trkpt><trkpt lat="43.3258263" lon="12.5605459"><ele>429.0</ele><time>2026-04-28T10:21:37.727Z</time></trkpt><trkpt lat="43.3257254" lon="12.5604184"><ele>429.0</ele><time>2026-04-28T10:21:38.728Z</time></trkpt><trkpt lat="43.3256217" lon="12.560288"><ele>429.0</ele><time>2026-04-28T10:21:39.728Z</time></trkpt><trkpt lat="43.3255193" lon="12.560161"><ele>428.0</ele><time>2026-04-28T10:21:40.728Z</time></trkpt><trkpt lat="43.3254163" lon="12.5600306"><ele>427.0</ele><time>2026-04-28T10:21:41.727Z</time></trkpt><trkpt lat="43.3253124" lon="12.5598987"><ele>426.0</ele><time>2026-04-28T10:21:42.728Z</time></trkpt><trkpt lat="43.3252072" lon="12.5597653"><ele>425.0</ele><time>2026-04-28T10:21:43.728Z</time></trkpt><trkpt lat="43.3251001" lon="12.5596307"><ele>424.75</ele><time>2026-04-28T10:21:44.727Z</time></trkpt><trkpt lat="43.3249922" lon="12.5594946"><ele>424.5</ele><time>2026-04-28T10:21:45.728Z</time></trkpt><trkpt lat="43.3248823" lon="12.55936"><ele>424.25</ele><time>2026-04-28T10:21:46.728Z</time></trkpt><trkpt lat="43.3247713" lon="12.5592307"><ele>424.0</ele><time>2026-04-28T10:21:47.727Z</time></trkpt><trkpt lat="43.3246569" lon="12.5591055"><ele>424.5</ele><time>2026-04-28T10:21:48.728Z</time></trkpt><trkpt lat="43.3245422" lon="12.5589813"><ele>425.0</ele><time>2026-04-28T10:21:49.728Z</time></trkpt><trkpt lat="43.3244378" lon="12.5588601"><ele>425.5</ele><time>2026-04-28T10:21:50.728Z</time></trkpt><trkpt lat="43.3243466" lon="12.5587348"><ele>426.0</ele><time>2026-04-28T10:21:51.727Z</time></trkpt><trkpt lat="43.324267" lon="12.5586101"><ele>426.4</ele><time>2026-04-28T10:21:52.728Z</time></trkpt><trkpt lat="43.3242022" lon="12.5584957"><ele>426.8</ele><time>2026-04-28T10:21:53.728Z</time></trkpt><trkpt lat="43.3241407" lon="12.5583952"><ele>427.19999999999993</ele><time>2026-04-28T10:21:54.727Z</time></trkpt><trkpt lat="43.3240769" lon="12.5582899"><ele>427.59999999999997</ele><time>2026-04-28T10:21:55.728Z</time></trkpt><trkpt lat="43.3240089" lon="12.5581794"><ele>428.0</ele><time>2026-04-28T10:21:56.728Z</time></trkpt><trkpt lat="43.3239304" lon="12.5580745"><ele>427.5</ele><time>2026-04-28T10:21:57.728Z</time></trkpt><trkpt lat="43.3238391" lon="12.5579823"><ele>427.0</ele><time>2026-04-28T10:21:58.728Z</time></trkpt><trkpt lat="43.3237389" lon="12.5578988"><ele>426.5</ele><time>2026-04-28T10:21:59.727Z</time></trkpt><trkpt lat="43.3236405" lon="12.5578063"><ele>426.0</ele><time>2026-04-28T10:22:00.726Z</time></trkpt><trkpt lat="43.3235522" lon="12.5576949"><ele>425.75</ele><time>2026-04-28T10:22:01.728Z</time></trkpt><trkpt lat="43.3234737" lon="12.5575791"><ele>425.5</ele><time>2026-04-28T10:22:02.727Z</time></trkpt><trkpt lat="43.3233947" lon="12.5574653"><ele>425.25</ele><time>2026-04-28T10:22:03.728Z</time></trkpt><trkpt lat="43.3233064" lon="12.5573596"><ele>425.0</ele><time>2026-04-28T10:22:04.728Z</time></trkpt><trkpt lat="43.3232124" lon="12.5572608"><ele>425.0</ele><time>2026-04-28T10:22:05.728Z</time></trkpt><trkpt lat="43.323112" lon="12.5571587"><ele>425.0</ele><time>2026-04-28T10:22:06.728Z</time></trkpt><trkpt lat="43.3230072" lon="12.5570564"><ele>425.0</ele><time>2026-04-28T10:22:07.727Z</time></trkpt><trkpt lat="43.3228987" lon="12.5569535"><ele>425.0</ele><time>2026-04-28T10:22:08.728Z</time></trkpt><trkpt lat="43.322786" lon="12.5568483"><ele>425.5</ele><time>2026-04-28T10:22:09.728Z</time></trkpt><trkpt lat="43.3226722" lon="12.5567359"><ele>426.0</ele><time>2026-04-28T10:22:10.727Z</time></trkpt><trkpt lat="43.3225625" lon="12.5566165"><ele>426.5</ele><time>2026-04-28T10:22:11.728Z</time></trkpt><trkpt lat="43.32246" lon="12.5564926"><ele>427.0</ele><time>2026-04-28T10:22:12.727Z</time></trkpt><trkpt lat="43.322358" lon="12.5563627"><ele>427.0</ele><time>2026-04-28T10:22:13.728Z</time></trkpt><trkpt lat="43.3222558" lon="12.5562314"><ele>427.0</ele><time>2026-04-28T10:22:14.727Z</time></trkpt><trkpt lat="43.3221512" lon="12.5560992"><ele>427.0</ele><time>2026-04-28T10:22:15.728Z</time></trkpt><trkpt lat="43.3220446" lon="12.5559643"><ele>427.0</ele><time>2026-04-28T10:22:16.728Z</time></trkpt><trkpt lat="43.3219374" lon="12.5558322"><ele>427.75</ele><time>2026-04-28T10:22:17.728Z</time></trkpt><trkpt lat="43.3218301" lon="12.5556972"><ele>428.5</ele><time>2026-04-28T10:22:18.727Z</time></trkpt><trkpt lat="43.3217234" lon="12.555564"><ele>429.25</ele><time>2026-04-28T10:22:19.728Z</time></trkpt><trkpt lat="43.3216201" lon="12.5554282"><ele>430.0</ele><time>2026-04-28T10:22:20.728Z</time></trkpt><trkpt lat="43.3215188" lon="12.5552912"><ele>430.0</ele><time>2026-04-28T10:22:21.728Z</time></trkpt><trkpt lat="43.3214199" lon="12.5551667"><ele>430.0</ele><time>2026-04-28T10:22:22.728Z</time></trkpt><trkpt lat="43.3213216" lon="12.5550544"><ele>430.0</ele><time>2026-04-28T10:22:23.727Z</time></trkpt><trkpt lat="43.3212229" lon="12.5549453"><ele>430.0</ele><time>2026-04-28T10:22:24.728Z</time></trkpt><trkpt lat="43.3211285" lon="12.5548442"><ele>430.0</ele><time>2026-04-28T10:22:25.728Z</time></trkpt><trkpt lat="43.3210425" lon="12.5547525"><ele>430.0</ele><time>2026-04-28T10:22:26.728Z</time></trkpt><trkpt lat="43.3209628" lon="12.5546529"><ele>430.0</ele><time>2026-04-28T10:22:27.727Z</time></trkpt><trkpt lat="43.3208906" lon="12.5545495"><ele>430.0</ele><time>2026-04-28T10:22:28.728Z</time></trkpt><trkpt lat="43.320829" lon="12.5544561"><ele>430.0</ele><time>2026-04-28T10:22:29.727Z</time></trkpt><trkpt lat="43.3207783" lon="12.554378"><ele>430.33333333333337</ele><time>2026-04-28T10:22:30.728Z</time></trkpt><trkpt lat="43.3207342" lon="12.5543132"><ele>430.6666666666667</ele><time>2026-04-28T10:22:31.727Z</time></trkpt><trkpt lat="43.320674" lon="12.5542207"><ele>431.0</ele><time>2026-04-28T10:22:33.728Z</time></trkpt><trkpt lat="43.3205983" lon="12.5541661"><ele>431.33333333333337</ele><time>2026-04-28T10:22:36.728Z</time></trkpt><trkpt lat="43.320501" lon="12.5542159"><ele>431.6666666666667</ele><time>2026-04-28T10:22:38.727Z</time></trkpt><trkpt lat="43.3204346" lon="12.5542616"><ele>432.0</ele><time>2026-04-28T10:22:39.728Z</time></trkpt><trkpt lat="43.3203609" lon="12.5543051"><ele>432.20000000000005</ele><time>2026-04-28T10:22:40.728Z</time></trkpt><trkpt lat="43.3202795" lon="12.5543492"><ele>432.40000000000003</ele><time>2026-04-28T10:22:41.727Z</time></trkpt><trkpt lat="43.3201896" lon="12.5543963"><ele>432.59999999999997</ele><time>2026-04-28T10:22:42.728Z</time></trkpt><trkpt lat="43.3200933" lon="12.5544457"><ele>432.79999999999995</ele><time>2026-04-28T10:22:43.728Z</time></trkpt><trkpt lat="43.3200006" lon="12.5544939"><ele>433.0</ele><time>2026-04-28T10:22:44.727Z</time></trkpt><trkpt lat="43.319922" lon="12.5545357"><ele>433.00000000000006</ele><time>2026-04-28T10:22:45.728Z</time></trkpt><trkpt lat="43.319855" lon="12.5545701"><ele>433.0</ele><time>2026-04-28T10:22:46.728Z</time></trkpt><trkpt lat="43.3197922" lon="12.5545852"><ele>433.0</ele><time>2026-04-28T10:22:47.728Z</time></trkpt><trkpt lat="43.3196825" lon="12.5545448"><ele>433.0</ele><time>2026-04-28T10:22:49.727Z</time></trkpt><trkpt lat="43.3196302" lon="12.5544938"><ele>433.00000000000006</ele><time>2026-04-28T10:22:50.728Z</time></trkpt><trkpt lat="43.3195814" lon="12.5544179"><ele>433.0</ele><time>2026-04-28T10:22:51.728Z</time></trkpt><trkpt lat="43.3195345" lon="12.554317"><ele>437.25</ele><time>2026-04-28T10:22:52.727Z</time></trkpt><trkpt lat="43.3194919" lon="12.5541947"><ele>441.5</ele><time>2026-04-28T10:22:53.728Z</time></trkpt><trkpt lat="43.3194504" lon="12.5540446"><ele>445.75</ele><time>2026-04-28T10:22:54.727Z</time></trkpt><trkpt lat="43.3194118" lon="12.5538729"><ele>450.0</ele><time>2026-04-28T10:22:55.727Z</time></trkpt><trkpt lat="43.319381" lon="12.5536954"><ele>450.0</ele><time>2026-04-28T10:22:56.727Z</time></trkpt><trkpt lat="43.3193545" lon="12.5535071"><ele>450.0</ele><time>2026-04-28T10:22:57.728Z</time></trkpt><trkpt lat="43.3193272" lon="12.5533081"><ele>450.0</ele><time>2026-04-28T10:22:58.728Z</time></trkpt><trkpt lat="43.3192995" lon="12.5531022"><ele>450.0</ele><time>2026-04-28T10:22:59.728Z</time></trkpt><trkpt lat="43.319274" lon="12.5528973"><ele>448.33333333333337</ele><time>2026-04-28T10:23:00.728Z</time></trkpt><trkpt lat="43.3192461" lon="12.5526976"><ele>446.6666666666667</ele><time>2026-04-28T10:23:01.728Z</time></trkpt><trkpt lat="43.3192007" lon="12.5524941"><ele>445.0</ele><time>2026-04-28T10:23:02.728Z</time></trkpt><trkpt lat="43.3191429" lon="12.5522881"><ele>445.0</ele><time>2026-04-28T10:23:03.727Z</time></trkpt><trkpt lat="43.3190931" lon="12.552097"><ele>445.0</ele><time>2026-04-28T10:23:04.727Z</time></trkpt><trkpt lat="43.3190608" lon="12.5519277"><ele>445.0</ele><time>2026-04-28T10:23:05.728Z</time></trkpt><trkpt lat="43.3190254" lon="12.5517817"><ele>445.0</ele><time>2026-04-28T10:23:06.728Z</time></trkpt><trkpt lat="43.3189695" lon="12.5516644"><ele>444.5</ele><time>2026-04-28T10:23:07.727Z</time></trkpt><trkpt lat="43.3188887" lon="12.5515369"><ele>444.0</ele><time>2026-04-28T10:23:08.728Z</time></trkpt><trkpt lat="43.3187739" lon="12.5514156"><ele>443.5</ele><time>2026-04-28T10:23:09.727Z</time></trkpt><trkpt lat="43.3186418" lon="12.551291"><ele>443.0</ele><time>2026-04-28T10:23:10.728Z</time></trkpt><trkpt lat="43.318503" lon="12.5511644"><ele>443.0</ele><time>2026-04-28T10:23:11.728Z</time></trkpt><trkpt lat="43.3183566" lon="12.5510346"><ele>443.0</ele><time>2026-04-28T10:23:12.727Z</time></trkpt><trkpt lat="43.318204" lon="12.5509009"><ele>443.0</ele><time>2026-04-28T10:23:13.728Z</time></trkpt><trkpt lat="43.3180455" lon="12.5507644"><ele>442.0</ele><time>2026-04-28T10:23:14.728Z</time></trkpt><trkpt lat="43.3178839" lon="12.5506209"><ele>441.0</ele><time>2026-04-28T10:23:15.728Z</time></trkpt><trkpt lat="43.3177214" lon="12.5504773"><ele>440.0</ele><time>2026-04-28T10:23:16.727Z</time></trkpt><trkpt lat="43.3175575" lon="12.5503308"><ele>440.0</ele><time>2026-04-28T10:23:17.728Z</time></trkpt><trkpt lat="43.317392" lon="12.5501857"><ele>440.0</ele><time>2026-04-28T10:23:18.728Z</time></trkpt><trkpt lat="43.3172354" lon="12.5500483"><ele>440.0</ele><time>2026-04-28T10:23:19.727Z</time></trkpt><trkpt lat="43.3170894" lon="12.5499161"><ele>441.5</ele><time>2026-04-28T10:23:20.728Z</time></trkpt><trkpt lat="43.3169579" lon="12.5497946"><ele>443.0</ele><time>2026-04-28T10:23:21.728Z</time></trkpt><trkpt lat="43.3168424" lon="12.5496803"><ele>444.5</ele><time>2026-04-28T10:23:22.728Z</time></trkpt><trkpt lat="43.316748" lon="12.5495712"><ele>446.0</ele><time>2026-04-28T10:23:23.727Z</time></trkpt><trkpt lat="43.3166793" lon="12.5494609"><ele>446.0</ele><time>2026-04-28T10:23:24.727Z</time></trkpt><trkpt lat="43.3166393" lon="12.5493411"><ele>446.0</ele><time>2026-04-28T10:23:25.728Z</time></trkpt><trkpt lat="43.3166222" lon="12.5491992"><ele>446.0</ele><time>2026-04-28T10:23:26.728Z</time></trkpt><trkpt lat="43.31663" lon="12.5490404"><ele>446.0</ele><time>2026-04-28T10:23:27.728Z</time></trkpt><trkpt lat="43.3166478" lon="12.5488688"><ele>446.0</ele><time>2026-04-28T10:23:28.728Z</time></trkpt><trkpt lat="43.3166667" lon="12.5486932"><ele>445.75</ele><time>2026-04-28T10:23:29.728Z</time></trkpt><trkpt lat="43.3166798" lon="12.5485306"><ele>445.5</ele><time>2026-04-28T10:23:30.728Z</time></trkpt><trkpt lat="43.3166782" lon="12.5483792"><ele>445.25</ele><time>2026-04-28T10:23:31.727Z</time></trkpt><trkpt lat="43.3166494" lon="12.54823"><ele>445.0</ele><time>2026-04-28T10:23:32.727Z</time></trkpt><trkpt lat="43.3165881" lon="12.5480923"><ele>445.0</ele><time>2026-04-28T10:23:33.728Z</time></trkpt><trkpt lat="43.3164987" lon="12.54797"><ele>445.0</ele><time>2026-04-28T10:23:34.727Z</time></trkpt><trkpt lat="43.3163909" lon="12.5478535"><ele>445.0</ele><time>2026-04-28T10:23:35.728Z</time></trkpt><trkpt lat="43.3162782" lon="12.5477305"><ele>445.0</ele><time>2026-04-28T10:23:36.728Z</time></trkpt><trkpt lat="43.3161702" lon="12.547594"><ele>447.0</ele><time>2026-04-28T10:23:37.727Z</time></trkpt><trkpt lat="43.3160701" lon="12.5474399"><ele>449.0</ele><time>2026-04-28T10:23:38.728Z</time></trkpt><trkpt lat="43.3159694" lon="12.5472619"><ele>451.0</ele><time>2026-04-28T10:23:39.728Z</time></trkpt><trkpt lat="43.315863" lon="12.5470684"><ele>451.6666666666667</ele><time>2026-04-28T10:23:40.728Z</time></trkpt><trkpt lat="43.3157481" lon="12.5468652"><ele>452.33333333333337</ele><time>2026-04-28T10:23:41.728Z</time></trkpt><trkpt lat="43.3156311" lon="12.5466533"><ele>453.0</ele><time>2026-04-28T10:23:42.727Z</time></trkpt><trkpt lat="43.3155133" lon="12.5464358"><ele>453.0</ele><time>2026-04-28T10:23:43.728Z</time></trkpt><trkpt lat="43.3153946" lon="12.5462165"><ele>453.0</ele><time>2026-04-28T10:23:44.728Z</time></trkpt><trkpt lat="43.3152767" lon="12.5459928"><ele>453.0</ele><time>2026-04-28T10:23:45.728Z</time></trkpt><trkpt lat="43.3151656" lon="12.5457792"><ele>455.66666666666663</ele><time>2026-04-28T10:23:46.728Z</time></trkpt><trkpt lat="43.3150647" lon="12.5455863"><ele>458.3333333333333</ele><time>2026-04-28T10:23:47.727Z</time></trkpt><trkpt lat="43.3149704" lon="12.5454119"><ele>461.0</ele><time>2026-04-28T10:23:48.728Z</time></trkpt><trkpt lat="43.3148774" lon="12.5452509"><ele>462.0</ele><time>2026-04-28T10:23:49.727Z</time></trkpt><trkpt lat="43.3147873" lon="12.5450926"><ele>463.0</ele><time>2026-04-28T10:23:50.728Z</time></trkpt><trkpt lat="43.3146942" lon="12.5449356"><ele>464.0</ele><time>2026-04-28T10:23:51.727Z</time></trkpt><trkpt lat="43.3145966" lon="12.5447864"><ele>465.0</ele><time>2026-04-28T10:23:52.728Z</time></trkpt><trkpt lat="43.314492" lon="12.5446465"><ele>467.75</ele><time>2026-04-28T10:23:53.726Z</time></trkpt><trkpt lat="43.3143865" lon="12.5445084"><ele>470.5</ele><time>2026-04-28T10:23:54.728Z</time></trkpt><trkpt lat="43.3142799" lon="12.5443703"><ele>473.25</ele><time>2026-04-28T10:23:55.727Z</time></trkpt><trkpt lat="43.3141758" lon="12.5442327"><ele>476.0</ele><time>2026-04-28T10:23:56.728Z</time></trkpt><trkpt lat="43.3140733" lon="12.5440934"><ele>476.0</ele><time>2026-04-28T10:23:57.727Z</time></trkpt><trkpt lat="43.3139753" lon="12.5439479"><ele>476.0</ele><time>2026-04-28T10:23:58.728Z</time></trkpt><trkpt lat="43.3138812" lon="12.5437981"><ele>476.0</ele><time>2026-04-28T10:23:59.728Z</time></trkpt><trkpt lat="43.3137899" lon="12.5436465"><ele>476.0</ele><time>2026-04-28T10:24:00.728Z</time></trkpt><trkpt lat="43.3137025" lon="12.5434987"><ele>475.5</ele><time>2026-04-28T10:24:01.728Z</time></trkpt><trkpt lat="43.3136129" lon="12.5433518"><ele>475.0</ele><time>2026-04-28T10:24:02.727Z</time></trkpt><trkpt lat="43.3135256" lon="12.5431971"><ele>474.5</ele><time>2026-04-28T10:24:03.728Z</time></trkpt><trkpt lat="43.3134409" lon="12.5430363"><ele>474.0</ele><time>2026-04-28T10:24:04.727Z</time></trkpt><trkpt lat="43.3133591" lon="12.5428698"><ele>476.75</ele><time>2026-04-28T10:24:05.728Z</time></trkpt><trkpt lat="43.313282" lon="12.5427047"><ele>479.5</ele><time>2026-04-28T10:24:06.728Z</time></trkpt><trkpt lat="43.3132151" lon="12.5425523"><ele>482.25</ele><time>2026-04-28T10:24:07.727Z</time></trkpt><trkpt lat="43.3131521" lon="12.5424131"><ele>485.0</ele><time>2026-04-28T10:24:08.728Z</time></trkpt><trkpt lat="43.3130821" lon="12.5422806"><ele>484.5</ele><time>2026-04-28T10:24:09.728Z</time></trkpt><trkpt lat="43.313003" lon="12.5421543"><ele>484.0</ele><time>2026-04-28T10:24:10.727Z</time></trkpt><trkpt lat="43.3129098" lon="12.5420371"><ele>483.5</ele><time>2026-04-28T10:24:11.727Z</time></trkpt><trkpt lat="43.3128144" lon="12.5419184"><ele>483.0</ele><time>2026-04-28T10:24:12.728Z</time></trkpt><trkpt lat="43.3127171" lon="12.5418002"><ele>483.0</ele><time>2026-04-28T10:24:13.728Z</time></trkpt><trkpt lat="43.3126293" lon="12.541675"><ele>483.0</ele><time>2026-04-28T10:24:14.727Z</time></trkpt><trkpt lat="43.3125668" lon="12.5415384"><ele>483.0</ele><time>2026-04-28T10:24:15.728Z</time></trkpt><trkpt lat="43.3125269" lon="12.541387"><ele>483.0</ele><time>2026-04-28T10:24:16.727Z</time></trkpt><trkpt lat="43.3124878" lon="12.541231"><ele>484.75</ele><time>2026-04-28T10:24:17.728Z</time></trkpt><trkpt lat="43.3124429" lon="12.5410698"><ele>486.5</ele><time>2026-04-28T10:24:18.728Z</time></trkpt><trkpt lat="43.3123985" lon="12.5409091"><ele>488.25</ele><time>2026-04-28T10:24:19.728Z</time></trkpt><trkpt lat="43.3123539" lon="12.5407462"><ele>490.0</ele><time>2026-04-28T10:24:20.728Z</time></trkpt><trkpt lat="43.3123097" lon="12.5405805"><ele>490.0</ele><time>2026-04-28T10:24:21.727Z</time></trkpt><trkpt lat="43.3122703" lon="12.5404143"><ele>490.0</ele><time>2026-04-28T10:24:22.728Z</time></trkpt><trkpt lat="43.3122448" lon="12.5402588"><ele>490.0</ele><time>2026-04-28T10:24:23.728Z</time></trkpt><trkpt lat="43.3122346" lon="12.5401134"><ele>490.0</ele><time>2026-04-28T10:24:24.728Z</time></trkpt><trkpt lat="43.3122484" lon="12.5399613"><ele>491.5</ele><time>2026-04-28T10:24:25.728Z</time></trkpt><trkpt lat="43.3122806" lon="12.5398071"><ele>493.0</ele><time>2026-04-28T10:24:26.728Z</time></trkpt><trkpt lat="43.3123187" lon="12.5396493"><ele>494.5</ele><time>2026-04-28T10:24:27.728Z</time></trkpt><trkpt lat="43.3123612" lon="12.5394806"><ele>496.0</ele><time>2026-04-28T10:24:28.728Z</time></trkpt><trkpt lat="43.3124008" lon="12.5392997"><ele>496.5</ele><time>2026-04-28T10:24:29.727Z</time></trkpt><trkpt lat="43.3124377" lon="12.539112"><ele>497.0</ele><time>2026-04-28T10:24:30.728Z</time></trkpt><trkpt lat="43.3124644" lon="12.5389299"><ele>497.5</ele><time>2026-04-28T10:24:31.726Z</time></trkpt><trkpt lat="43.3124817" lon="12.5387644"><ele>498.0</ele><time>2026-04-28T10:24:32.727Z</time></trkpt><trkpt lat="43.3124806" lon="12.5386031"><ele>498.75</ele><time>2026-04-28T10:24:33.727Z</time></trkpt><trkpt lat="43.3124606" lon="12.5384382"><ele>499.5</ele><time>2026-04-28T10:24:34.727Z</time></trkpt><trkpt lat="43.3124217" lon="12.5382731"><ele>500.25</ele><time>2026-04-28T10:24:35.727Z</time></trkpt><trkpt lat="43.3123722" lon="12.5381046"><ele>501.0</ele><time>2026-04-28T10:24:36.727Z</time></trkpt><trkpt lat="43.3123257" lon="12.5379268"><ele>500.25</ele><time>2026-04-28T10:24:37.727Z</time></trkpt><trkpt lat="43.3122836" lon="12.5377389"><ele>499.5</ele><time>2026-04-28T10:24:38.726Z</time></trkpt><trkpt lat="43.3122419" lon="12.5375434"><ele>498.75</ele><time>2026-04-28T10:24:39.726Z</time></trkpt><trkpt lat="43.3121975" lon="12.5373421"><ele>498.0</ele><time>2026-04-28T10:24:40.727Z</time></trkpt><trkpt lat="43.312151" lon="12.5371362"><ele>500.0</ele><time>2026-04-28T10:24:41.726Z</time></trkpt><trkpt lat="43.3121049" lon="12.5369331"><ele>502.0</ele><time>2026-04-28T10:24:42.726Z</time></trkpt><trkpt lat="43.3120545" lon="12.5367281"><ele>504.0</ele><time>2026-04-28T10:24:43.727Z</time></trkpt><trkpt lat="43.3119936" lon="12.5365324"><ele>504.0</ele><time>2026-04-28T10:24:44.727Z</time></trkpt><trkpt lat="43.3119137" lon="12.5363548"><ele>504.0</ele><time>2026-04-28T10:24:45.726Z</time></trkpt><trkpt lat="43.3118186" lon="12.5361904"><ele>504.0</ele><time>2026-04-28T10:24:46.726Z</time></trkpt><trkpt lat="43.3117145" lon="12.5360296"><ele>506.33333333333337</ele><time>2026-04-28T10:24:47.727Z</time></trkpt><trkpt lat="43.3116063" lon="12.5358718"><ele>508.6666666666667</ele><time>2026-04-28T10:24:48.727Z</time></trkpt><trkpt lat="43.3114983" lon="12.5357114"><ele>511.0</ele><time>2026-04-28T10:24:49.727Z</time></trkpt><trkpt lat="43.3113905" lon="12.5355483"><ele>511.0</ele><time>2026-04-28T10:24:50.726Z</time></trkpt><trkpt lat="43.3112771" lon="12.5353911"><ele>511.0</ele><time>2026-04-28T10:24:51.727Z</time></trkpt><trkpt lat="43.3111568" lon="12.5352457"><ele>511.0</ele><time>2026-04-28T10:24:52.727Z</time></trkpt><trkpt lat="43.3110318" lon="12.5351086"><ele>515.0</ele><time>2026-04-28T10:24:53.727Z</time></trkpt><trkpt lat="43.3109068" lon="12.5349769"><ele>519.0</ele><time>2026-04-28T10:24:54.727Z</time></trkpt><trkpt lat="43.3107851" lon="12.5348524"><ele>523.0</ele><time>2026-04-28T10:24:55.726Z</time></trkpt><trkpt lat="43.3106791" lon="12.5347362"><ele>527.0</ele><time>2026-04-28T10:24:56.727Z</time></trkpt><trkpt lat="43.31059" lon="12.534624"><ele>530.25</ele><time>2026-04-28T10:24:57.727Z</time></trkpt><trkpt lat="43.310523" lon="12.5345036"><ele>533.5</ele><time>2026-04-28T10:24:58.727Z</time></trkpt><trkpt lat="43.3104644" lon="12.5343654"><ele>536.75</ele><time>2026-04-28T10:24:59.727Z</time></trkpt><trkpt lat="43.310422" lon="12.5342101"><ele>540.0</ele><time>2026-04-28T10:25:00.726Z</time></trkpt><trkpt lat="43.3103737" lon="12.5340539"><ele>540.0</ele><time>2026-04-28T10:25:01.726Z</time></trkpt><trkpt lat="43.3103106" lon="12.5339103"><ele>540.0</ele><time>2026-04-28T10:25:02.727Z</time></trkpt><trkpt lat="43.3102597" lon="12.5337729"><ele>540.0</ele><time>2026-04-28T10:25:03.726Z</time></trkpt><trkpt lat="43.3102258" lon="12.5336145"><ele>540.0</ele><time>2026-04-28T10:25:04.727Z</time></trkpt><trkpt lat="43.3102018" lon="12.5334347"><ele>539.8</ele><time>2026-04-28T10:25:05.726Z</time></trkpt><trkpt lat="43.3101814" lon="12.533276"><ele>539.6</ele><time>2026-04-28T10:25:06.727Z</time></trkpt><trkpt lat="43.3101505" lon="12.5331229"><ele>539.4</ele><time>2026-04-28T10:25:07.727Z</time></trkpt><trkpt lat="43.3101138" lon="12.5329933"><ele>539.2</ele><time>2026-04-28T10:25:08.726Z</time></trkpt><trkpt lat="43.3100709" lon="12.53288"><ele>539.0</ele><time>2026-04-28T10:25:09.727Z</time></trkpt><trkpt lat="43.3100234" lon="12.5327763"><ele>539.0</ele><time>2026-04-28T10:25:10.726Z</time></trkpt><trkpt lat="43.3099699" lon="12.5326975"><ele>539.0</ele><time>2026-04-28T10:25:11.727Z</time></trkpt><trkpt lat="43.3099031" lon="12.5326336"><ele>539.0</ele><time>2026-04-28T10:25:12.726Z</time></trkpt><trkpt lat="43.3098129" lon="12.5325744"><ele>539.0</ele><time>2026-04-28T10:25:13.727Z</time></trkpt><trkpt lat="43.3097024" lon="12.5325187"><ele>539.0</ele><time>2026-04-28T10:25:14.727Z</time></trkpt><trkpt lat="43.3095818" lon="12.5324543"><ele>541.5</ele><time>2026-04-28T10:25:15.726Z</time></trkpt><trkpt lat="43.3094615" lon="12.5323854"><ele>544.0</ele><time>2026-04-28T10:25:16.727Z</time></trkpt><trkpt lat="43.309353" lon="12.5323124"><ele>546.5</ele><time>2026-04-28T10:25:17.727Z</time></trkpt><trkpt lat="43.3092558" lon="12.5322405"><ele>549.0</ele><time>2026-04-28T10:25:18.727Z</time></trkpt><trkpt lat="43.309162" lon="12.5321835"><ele>549.0</ele><time>2026-04-28T10:25:19.727Z</time></trkpt><trkpt lat="43.3090576" lon="12.5321566"><ele>549.0</ele><time>2026-04-28T10:25:20.726Z</time></trkpt><trkpt lat="43.3089453" lon="12.5321524"><ele>549.0</ele><time>2026-04-28T10:25:21.727Z</time></trkpt><trkpt lat="43.3088106" lon="12.5321841"><ele>549.0</ele><time>2026-04-28T10:25:22.726Z</time></trkpt><trkpt lat="43.3087019" lon="12.5321948"><ele>550.1666666666666</ele><time>2026-04-28T10:25:23.727Z</time></trkpt><trkpt lat="43.3086217" lon="12.5321825"><ele>551.3333333333334</ele><time>2026-04-28T10:25:24.726Z</time></trkpt><trkpt lat="43.3085621" lon="12.5320907"><ele>552.5</ele><time>2026-04-28T10:25:26.727Z</time></trkpt><trkpt lat="43.3085672" lon="12.5320044"><ele>553.6666666666667</ele><time>2026-04-28T10:25:27.727Z</time></trkpt><trkpt lat="43.3085958" lon="12.5319018"><ele>554.8333333333334</ele><time>2026-04-28T10:25:28.726Z</time></trkpt><trkpt lat="43.3086246" lon="12.5317924"><ele>556.0</ele><time>2026-04-28T10:25:29.727Z</time></trkpt><trkpt lat="43.3086413" lon="12.5316592"><ele>558.75</ele><time>2026-04-28T10:25:30.727Z</time></trkpt><trkpt lat="43.3086372" lon="12.5314945"><ele>561.5</ele><time>2026-04-28T10:25:31.727Z</time></trkpt><trkpt lat="43.3086102" lon="12.5313028"><ele>564.25</ele><time>2026-04-28T10:25:32.726Z</time></trkpt><trkpt lat="43.3085616" lon="12.5311024"><ele>567.0</ele><time>2026-04-28T10:25:33.727Z</time></trkpt><trkpt lat="43.3085123" lon="12.5309001"><ele>567.25</ele><time>2026-04-28T10:25:34.726Z</time></trkpt><trkpt lat="43.308463" lon="12.5307244"><ele>567.5</ele><time>2026-04-28T10:25:35.726Z</time></trkpt><trkpt lat="43.3083944" lon="12.5305656"><ele>567.75</ele><time>2026-04-28T10:25:36.727Z</time></trkpt><trkpt lat="43.3082955" lon="12.5303974"><ele>568.0</ele><time>2026-04-28T10:25:37.726Z</time></trkpt><trkpt lat="43.3081925" lon="12.5301981"><ele>568.0</ele><time>2026-04-28T10:25:38.726Z</time></trkpt><trkpt lat="43.3080976" lon="12.5299885"><ele>568.0</ele><time>2026-04-28T10:25:39.727Z</time></trkpt><trkpt lat="43.3080114" lon="12.5297769"><ele>568.0</ele><time>2026-04-28T10:25:40.727Z</time></trkpt><trkpt lat="43.3079444" lon="12.5295959"><ele>572.0</ele><time>2026-04-28T10:25:41.727Z</time></trkpt><trkpt lat="43.3078848" lon="12.52944"><ele>576.0</ele><time>2026-04-28T10:25:42.726Z</time></trkpt><trkpt lat="43.3078065" lon="12.5293077"><ele>580.0</ele><time>2026-04-28T10:25:43.727Z</time></trkpt><trkpt lat="43.3077066" lon="12.5292046"><ele>584.0</ele><time>2026-04-28T10:25:44.727Z</time></trkpt><trkpt lat="43.3076228" lon="12.5291159"><ele>584.0</ele><time>2026-04-28T10:25:45.727Z</time></trkpt><trkpt lat="43.3075687" lon="12.5290266"><ele>584.0</ele><time>2026-04-28T10:25:46.727Z</time></trkpt><trkpt lat="43.3075433" lon="12.5289316"><ele>584.0</ele><time>2026-04-28T10:25:47.726Z</time></trkpt><trkpt lat="43.3075528" lon="12.5288325"><ele>584.0</ele><time>2026-04-28T10:25:48.727Z</time></trkpt><trkpt lat="43.3075979" lon="12.5287509"><ele>584.0</ele><time>2026-04-28T10:25:49.727Z</time></trkpt><trkpt lat="43.3076726" lon="12.5286969"><ele>584.0</ele><time>2026-04-28T10:25:50.726Z</time></trkpt><trkpt lat="43.3077663" lon="12.5286637"><ele>582.25</ele><time>2026-04-28T10:25:51.727Z</time></trkpt><trkpt lat="43.3078878" lon="12.5286596"><ele>580.5</ele><time>2026-04-28T10:25:52.727Z</time></trkpt><trkpt lat="43.3080168" lon="12.5286757"><ele>578.75</ele><time>2026-04-28T10:25:53.727Z</time></trkpt><trkpt lat="43.3081533" lon="12.5286989"><ele>577.0</ele><time>2026-04-28T10:25:54.726Z</time></trkpt><trkpt lat="43.3082904" lon="12.5287283"><ele>577.0</ele><time>2026-04-28T10:25:55.727Z</time></trkpt><trkpt lat="43.3084068" lon="12.5287658"><ele>577.0</ele><time>2026-04-28T10:25:56.726Z</time></trkpt><trkpt lat="43.3084972" lon="12.5288018"><ele>577.0</ele><time>2026-04-28T10:25:57.726Z</time></trkpt><trkpt lat="43.30856" lon="12.5288128"><ele>577.0</ele><time>2026-04-28T10:25:58.727Z</time></trkpt><trkpt lat="43.308607" lon="12.5287332"><ele>577.0</ele><time>2026-04-28T10:26:01.727Z</time></trkpt><trkpt lat="43.3085556" lon="12.5286333"><ele>577.0</ele><time>2026-04-28T10:26:03.727Z</time></trkpt><trkpt lat="43.3084905" lon="12.5285652"><ele>580.4</ele><time>2026-04-28T10:26:05.726Z</time></trkpt><trkpt lat="43.3083956" lon="12.5285101"><ele>583.8000000000001</ele><time>2026-04-28T10:26:07.726Z</time></trkpt><trkpt lat="43.3083145" lon="12.5284313"><ele>587.2</ele><time>2026-04-28T10:26:09.726Z</time></trkpt><trkpt lat="43.308251" lon="12.5283759"><ele>590.6</ele><time>2026-04-28T10:26:11.727Z</time></trkpt><trkpt lat="43.3083129" lon="12.5284434"><ele>594.0</ele><time>2026-04-28T10:26:36.727Z</time></trkpt><trkpt lat="43.3084085" lon="12.5285117"><ele>594.0</ele><time>2026-04-28T10:26:38.726Z</time></trkpt><trkpt lat="43.3085021" lon="12.5285931"><ele>594.0</ele><time>2026-04-28T10:26:40.727Z</time></trkpt><trkpt lat="43.308568" lon="12.5286601"><ele>594.0</ele><time>2026-04-28T10:26:42.727Z</time></trkpt><trkpt lat="43.3086168" lon="12.5287154"><ele>594.0</ele><time>2026-04-28T10:26:44.727Z</time></trkpt><trkpt lat="43.3086804" lon="12.5287625"><ele>594.0</ele><time>2026-04-28T10:26:46.726Z</time></trkpt><trkpt lat="43.3087996" lon="12.5287744"><ele>594.0</ele><time>2026-04-28T10:26:48.727Z</time></trkpt><trkpt lat="43.3088654" lon="12.5287544"><ele>592.5714285714286</ele><time>2026-04-28T10:26:49.727Z</time></trkpt><trkpt lat="43.308931" lon="12.5287142"><ele>591.1428571428572</ele><time>2026-04-28T10:26:50.725Z</time></trkpt><trkpt lat="43.3089918" lon="12.5286535"><ele>589.7142857142858</ele><time>2026-04-28T10:26:51.727Z</time></trkpt><trkpt lat="43.3090368" lon="12.5285801"><ele>588.2857142857143</ele><time>2026-04-28T10:26:52.727Z</time></trkpt><trkpt lat="43.3090605" lon="12.528499"><ele>586.8571428571429</ele><time>2026-04-28T10:26:53.727Z</time></trkpt><trkpt lat="43.3090644" lon="12.5284095"><ele>585.4285714285714</ele><time>2026-04-28T10:26:54.726Z</time></trkpt><trkpt lat="43.3090349" lon="12.5282827"><ele>584.0</ele><time>2026-04-28T10:26:56.726Z</time></trkpt><trkpt lat="43.3089683" lon="12.5283079"><ele>584.0</ele><time>2026-04-28T10:26:59.726Z</time></trkpt><trkpt lat="43.3089433" lon="12.5284292"><ele>584.0</ele><time>2026-04-28T10:27:01.726Z</time></trkpt><trkpt lat="43.3088574" lon="12.5284884"><ele>584.0</ele><time>2026-04-28T10:27:03.727Z</time></trkpt><trkpt lat="43.3087702" lon="12.5284641"><ele>584.0</ele><time>2026-04-28T10:27:05.727Z</time></trkpt><trkpt lat="43.3087519" lon="12.5283476"><ele>584.0</ele><time>2026-04-28T10:27:07.727Z</time></trkpt><trkpt lat="43.3087479" lon="12.528179"><ele>585.6666666666666</ele><time>2026-04-28T10:27:09.727Z</time></trkpt><trkpt lat="43.3087299" lon="12.5280829"><ele>587.3333333333333</ele><time>2026-04-28T10:27:10.727Z</time></trkpt><trkpt lat="43.308707" lon="12.5279914"><ele>589.0</ele><time>2026-04-28T10:27:11.727Z</time></trkpt><trkpt lat="43.3086797" lon="12.5278902"><ele>590.6666666666666</ele><time>2026-04-28T10:27:12.727Z</time></trkpt><trkpt lat="43.3086498" lon="12.5277743"><ele>592.3333333333334</ele><time>2026-04-28T10:27:13.727Z</time></trkpt><trkpt lat="43.3086238" lon="12.5276449"><ele>594.0</ele><time>2026-04-28T10:27:14.727Z</time></trkpt><trkpt lat="43.3085946" lon="12.52751"><ele>596.6</ele><time>2026-04-28T10:27:15.727Z</time></trkpt><trkpt lat="43.308573" lon="12.5273683"><ele>599.2</ele><time>2026-04-28T10:27:16.727Z</time></trkpt><trkpt lat="43.3085574" lon="12.5272188"><ele>601.8000000000001</ele><time>2026-04-28T10:27:17.726Z</time></trkpt><trkpt lat="43.3085523" lon="12.5270632"><ele>604.4</ele><time>2026-04-28T10:27:18.727Z</time></trkpt><trkpt lat="43.3085572" lon="12.5269081"><ele>607.0</ele><time>2026-04-28T10:27:19.727Z</time></trkpt><trkpt lat="43.3085663" lon="12.5267532"><ele>607.3333333333334</ele><time>2026-04-28T10:27:20.727Z</time></trkpt><trkpt lat="43.3085873" lon="12.5266146"><ele>607.6666666666667</ele><time>2026-04-28T10:27:21.727Z</time></trkpt><trkpt lat="43.3086207" lon="12.5264912"><ele>608.0</ele><time>2026-04-28T10:27:22.727Z</time></trkpt><trkpt lat="43.3086615" lon="12.5263909"><ele>608.3333333333334</ele><time>2026-04-28T10:27:23.727Z</time></trkpt><trkpt lat="43.3087085" lon="12.5263064"><ele>608.6666666666666</ele><time>2026-04-28T10:27:24.726Z</time></trkpt><trkpt lat="43.3087406" lon="12.5262182"><ele>609.0</ele><time>2026-04-28T10:27:25.727Z</time></trkpt><trkpt lat="43.3087509" lon="12.526114"><ele>609.0</ele><time>2026-04-28T10:27:26.727Z</time></trkpt><trkpt lat="43.308735" lon="12.525996"><ele>609.0</ele><time>2026-04-28T10:27:27.727Z</time></trkpt><trkpt lat="43.3087048" lon="12.5258694"><ele>609.0</ele><time>2026-04-28T10:27:28.726Z</time></trkpt><trkpt lat="43.3086638" lon="12.525738"><ele>609.0</ele><time>2026-04-28T10:27:29.726Z</time></trkpt><trkpt lat="43.3086108" lon="12.5256113"><ele>609.0</ele><time>2026-04-28T10:27:30.727Z</time></trkpt><trkpt lat="43.3085498" lon="12.5254904"><ele>605.8</ele><time>2026-04-28T10:27:31.727Z</time></trkpt><trkpt lat="43.3084866" lon="12.5253711"><ele>602.5999999999999</ele><time>2026-04-28T10:27:32.726Z</time></trkpt><trkpt lat="43.3084207" lon="12.525257"><ele>599.4</ele><time>2026-04-28T10:27:33.727Z</time></trkpt><trkpt lat="43.3083417" lon="12.5251498"><ele>596.1999999999999</ele><time>2026-04-28T10:27:34.727Z</time></trkpt><trkpt lat="43.3082462" lon="12.5250434"><ele>593.0</ele><time>2026-04-28T10:27:35.727Z</time></trkpt><trkpt lat="43.3081418" lon="12.5249382"><ele>593.75</ele><time>2026-04-28T10:27:36.727Z</time></trkpt><trkpt lat="43.308029" lon="12.5248301"><ele>594.5</ele><time>2026-04-28T10:27:37.726Z</time></trkpt><trkpt lat="43.3079096" lon="12.5247189"><ele>595.25</ele><time>2026-04-28T10:27:38.726Z</time></trkpt><trkpt lat="43.3077914" lon="12.5245993"><ele>596.0</ele><time>2026-04-28T10:27:39.727Z</time></trkpt><trkpt lat="43.307679" lon="12.5244717"><ele>596.0</ele><time>2026-04-28T10:27:40.727Z</time></trkpt><trkpt lat="43.3075832" lon="12.5243435"><ele>596.0</ele><time>2026-04-28T10:27:41.727Z</time></trkpt><trkpt lat="43.3075008" lon="12.5242272"><ele>596.0</ele><time>2026-04-28T10:27:42.727Z</time></trkpt><trkpt lat="43.3074302" lon="12.5241283"><ele>596.0</ele><time>2026-04-28T10:27:43.727Z</time></trkpt><trkpt lat="43.307377" lon="12.5240466"><ele>596.0</ele><time>2026-04-28T10:27:44.727Z</time></trkpt><trkpt lat="43.3073148" lon="12.5239415"><ele>599.6</ele><time>2026-04-28T10:27:46.726Z</time></trkpt><trkpt lat="43.3072284" lon="12.5239181"><ele>603.2</ele><time>2026-04-28T10:27:49.727Z</time></trkpt><trkpt lat="43.3071648" lon="12.5239775"><ele>606.8</ele><time>2026-04-28T10:27:51.725Z</time></trkpt><trkpt lat="43.3070926" lon="12.5240605"><ele>610.4</ele><time>2026-04-28T10:27:53.727Z</time></trkpt><trkpt lat="43.307006" lon="12.5241487"><ele>614.0</ele><time>2026-04-28T10:27:55.727Z</time></trkpt><trkpt lat="43.3069095" lon="12.5242262"><ele>614.0</ele><time>2026-04-28T10:27:57.726Z</time></trkpt><trkpt lat="43.3068091" lon="12.5242652"><ele>614.0</ele><time>2026-04-28T10:27:59.727Z</time></trkpt><trkpt lat="43.3067301" lon="12.5242206"><ele>614.0</ele><time>2026-04-28T10:28:01.727Z</time></trkpt><trkpt lat="43.3066755" lon="12.5241184"><ele>614.0</ele><time>2026-04-28T10:28:03.727Z</time></trkpt><trkpt lat="43.3066509" lon="12.5240076"><ele>614.0</ele><time>2026-04-28T10:28:05.727Z</time></trkpt><trkpt lat="43.3066423" lon="12.5238866"><ele>614.0</ele><time>2026-04-28T10:28:07.727Z</time></trkpt><trkpt lat="43.3066472" lon="12.523758"><ele>614.0</ele><time>2026-04-28T10:28:09.727Z</time></trkpt><trkpt lat="43.3066741" lon="12.5236045"><ele>614.0</ele><time>2026-04-28T10:28:11.727Z</time></trkpt><trkpt lat="43.3066907" lon="12.52352"><ele>614.0</ele><time>2026-04-28T10:28:12.727Z</time></trkpt><trkpt lat="43.3067092" lon="12.5234299"><ele>614.0</ele><time>2026-04-28T10:28:13.727Z</time></trkpt><trkpt lat="43.3067308" lon="12.5233403"><ele>614.0</ele><time>2026-04-28T10:28:14.726Z</time></trkpt><trkpt lat="43.306754" lon="12.523248"><ele>614.5</ele><time>2026-04-28T10:28:15.727Z</time></trkpt><trkpt lat="43.3067797" lon="12.5231512"><ele>615.0</ele><time>2026-04-28T10:28:16.727Z</time></trkpt><trkpt lat="43.3068006" lon="12.5230612"><ele>615.5</ele><time>2026-04-28T10:28:17.727Z</time></trkpt><trkpt lat="43.3067967" lon="12.5229151"><ele>616.0</ele><time>2026-04-28T10:28:19.726Z</time></trkpt><trkpt lat="43.3067261" lon="12.52279"><ele>616.5</ele><time>2026-04-28T10:28:21.727Z</time></trkpt><trkpt lat="43.3066689" lon="12.5227425"><ele>617.0</ele><time>2026-04-28T10:28:22.727Z</time></trkpt><trkpt lat="43.3066042" lon="12.5227087"><ele>617.0</ele><time>2026-04-28T10:28:23.727Z</time></trkpt><trkpt lat="43.3065373" lon="12.5226788"><ele>617.0</ele><time>2026-04-28T10:28:24.726Z</time></trkpt><trkpt lat="43.306474" lon="12.5226384"><ele>617.0</ele><time>2026-04-28T10:28:25.726Z</time></trkpt><trkpt lat="43.3064178" lon="12.5225854"><ele>617.0</ele><time>2026-04-28T10:28:26.725Z</time></trkpt><trkpt lat="43.3063717" lon="12.5225194"><ele>617.0</ele><time>2026-04-28T10:28:27.726Z</time></trkpt><trkpt lat="43.3063395" lon="12.5224376"><ele>617.0</ele><time>2026-04-28T10:28:28.725Z</time></trkpt><trkpt lat="43.306319" lon="12.522347"><ele>617.0</ele><time>2026-04-28T10:28:29.726Z</time></trkpt><trkpt lat="43.3063079" lon="12.5222493"><ele>620.1666666666666</ele><time>2026-04-28T10:28:30.725Z</time></trkpt><trkpt lat="43.306294" lon="12.5221331"><ele>623.3333333333333</ele><time>2026-04-28T10:28:31.726Z</time></trkpt><trkpt lat="43.3062798" lon="12.5220098"><ele>626.5</ele><time>2026-04-28T10:28:32.725Z</time></trkpt><trkpt lat="43.3062647" lon="12.52188"><ele>629.6666666666666</ele><time>2026-04-28T10:28:33.726Z</time></trkpt><trkpt lat="43.3062481" lon="12.5217536"><ele>632.8333333333334</ele><time>2026-04-28T10:28:34.726Z</time></trkpt><trkpt lat="43.3062336" lon="12.5216504"><ele>636.0</ele><time>2026-04-28T10:28:35.724Z</time></trkpt><trkpt lat="43.3062185" lon="12.5215639"><ele>636.0</ele><time>2026-04-28T10:28:36.726Z</time></trkpt><trkpt lat="43.3061974" lon="12.5214543"><ele>636.0</ele><time>2026-04-28T10:28:38.726Z</time></trkpt><trkpt lat="43.3061777" lon="12.5213721"><ele>636.0</ele><time>2026-04-28T10:28:51.725Z</time></trkpt><trkpt lat="43.3061354" lon="12.521213"><ele>636.0</ele><time>2026-04-28T10:28:53.726Z</time></trkpt><trkpt lat="43.3061117" lon="12.5211177"><ele>636.0</ele><time>2026-04-28T10:28:54.725Z</time></trkpt><trkpt lat="43.3060939" lon="12.5210194"><ele>636.0</ele><time>2026-04-28T10:28:55.725Z</time></trkpt><trkpt lat="43.3060816" lon="12.5209172"><ele>636.1666666666666</ele><time>2026-04-28T10:28:56.725Z</time></trkpt><trkpt lat="43.3060813" lon="12.5208101"><ele>636.3333333333334</ele><time>2026-04-28T10:28:57.726Z</time></trkpt><trkpt lat="43.3060926" lon="12.5206995"><ele>636.5</ele><time>2026-04-28T10:28:58.725Z</time></trkpt><trkpt lat="43.3061085" lon="12.5205782"><ele>636.6666666666667</ele><time>2026-04-28T10:28:59.726Z</time></trkpt><trkpt lat="43.3061271" lon="12.5204537"><ele>636.8333333333334</ele><time>2026-04-28T10:29:00.726Z</time></trkpt><trkpt lat="43.3061472" lon="12.5203359"><ele>637.0</ele><time>2026-04-28T10:29:01.725Z</time></trkpt><trkpt lat="43.3061658" lon="12.5202226"><ele>637.0</ele><time>2026-04-28T10:29:02.726Z</time></trkpt><trkpt lat="43.3061774" lon="12.5201147"><ele>637.0</ele><time>2026-04-28T10:29:03.725Z</time></trkpt><trkpt lat="43.3061748" lon="12.5200064"><ele>637.0</ele><time>2026-04-28T10:29:04.726Z</time></trkpt><trkpt lat="43.3061603" lon="12.5199007"><ele>637.0</ele><time>2026-04-28T10:29:05.726Z</time></trkpt><trkpt lat="43.3061408" lon="12.5197944"><ele>637.0</ele><time>2026-04-28T10:29:06.725Z</time></trkpt><trkpt lat="43.3061276" lon="12.5196993"><ele>637.0</ele><time>2026-04-28T10:29:07.726Z</time></trkpt><trkpt lat="43.3061207" lon="12.5196022"><ele>639.2</ele><time>2026-04-28T10:29:08.726Z</time></trkpt><trkpt lat="43.3061162" lon="12.5194951"><ele>641.4000000000001</ele><time>2026-04-28T10:29:09.725Z</time></trkpt><trkpt lat="43.3061138" lon="12.5193658"><ele>643.5999999999999</ele><time>2026-04-28T10:29:10.726Z</time></trkpt><trkpt lat="43.3061097" lon="12.5192307"><ele>645.8</ele><time>2026-04-28T10:29:11.725Z</time></trkpt><trkpt lat="43.3061057" lon="12.5190879"><ele>648.0</ele><time>2026-04-28T10:29:12.726Z</time></trkpt><trkpt lat="43.3061048" lon="12.5189575"><ele>648.0</ele><time>2026-04-28T10:29:13.726Z</time></trkpt><trkpt lat="43.3061095" lon="12.5188365"><ele>648.0</ele><time>2026-04-28T10:29:14.725Z</time></trkpt><trkpt lat="43.306127" lon="12.5187322"><ele>648.0</ele><time>2026-04-28T10:29:15.726Z</time></trkpt><trkpt lat="43.3061506" lon="12.5186371"><ele>648.0</ele><time>2026-04-28T10:29:16.726Z</time></trkpt><trkpt lat="43.3061749" lon="12.5185465"><ele>648.0</ele><time>2026-04-28T10:29:17.725Z</time></trkpt><trkpt lat="43.3062021" lon="12.5184416"><ele>648.0</ele><time>2026-04-28T10:29:18.726Z</time></trkpt><trkpt lat="43.3062363" lon="12.5183265"><ele>649.3333333333334</ele><time>2026-04-28T10:29:19.726Z</time></trkpt><trkpt lat="43.3062725" lon="12.5182087"><ele>650.6666666666666</ele><time>2026-04-28T10:29:20.725Z</time></trkpt><trkpt lat="43.306306" lon="12.5181013"><ele>652.0</ele><time>2026-04-28T10:29:21.726Z</time></trkpt><trkpt lat="43.3063309" lon="12.5180068"><ele>653.3333333333333</ele><time>2026-04-28T10:29:22.726Z</time></trkpt><trkpt lat="43.3063502" lon="12.5178657"><ele>654.6666666666666</ele><time>2026-04-28T10:29:24.726Z</time></trkpt><trkpt lat="43.3063336" lon="12.517762"><ele>656.0</ele><time>2026-04-28T10:29:26.725Z</time></trkpt><trkpt lat="43.3062759" lon="12.5177208"><ele>656.6666666666666</ele><time>2026-04-28T10:29:28.725Z</time></trkpt><trkpt lat="43.3061963" lon="12.5177437"><ele>657.3333333333333</ele><time>2026-04-28T10:29:30.725Z</time></trkpt><trkpt lat="43.3061" lon="12.5177739"><ele>658.0</ele><time>2026-04-28T10:29:32.725Z</time></trkpt><trkpt lat="43.3059909" lon="12.5178103"><ele>658.6666666666666</ele><time>2026-04-28T10:29:34.726Z</time></trkpt><trkpt lat="43.3059275" lon="12.5178274"><ele>659.3333333333334</ele><time>2026-04-28T10:29:35.726Z</time></trkpt><trkpt lat="43.305858" lon="12.5178401"><ele>660.0</ele><time>2026-04-28T10:29:36.726Z</time></trkpt><trkpt lat="43.3057825" lon="12.5178506"><ele>660.0</ele><time>2026-04-28T10:29:37.724Z</time></trkpt><trkpt lat="43.3057036" lon="12.5178611"><ele>660.0</ele><time>2026-04-28T10:29:38.726Z</time></trkpt><trkpt lat="43.3056211" lon="12.5178741"><ele>660.0</ele><time>2026-04-28T10:29:39.725Z</time></trkpt><trkpt lat="43.3055383" lon="12.5178917"><ele>660.0</ele><time>2026-04-28T10:29:40.726Z</time></trkpt><trkpt lat="43.305457" lon="12.5179113"><ele>660.0</ele><time>2026-04-28T10:29:41.726Z</time></trkpt><trkpt lat="43.3053762" lon="12.5179342"><ele>660.0</ele><time>2026-04-28T10:29:42.726Z</time></trkpt><trkpt lat="43.3052946" lon="12.5179582"><ele>661.6666666666666</ele><time>2026-04-28T10:29:43.726Z</time></trkpt><trkpt lat="43.305204" lon="12.5179846"><ele>663.3333333333334</ele><time>2026-04-28T10:29:44.725Z</time></trkpt><trkpt lat="43.3051074" lon="12.5180109"><ele>665.0</ele><time>2026-04-28T10:29:45.726Z</time></trkpt><trkpt lat="43.3050239" lon="12.5180344"><ele>666.6666666666667</ele><time>2026-04-28T10:29:46.725Z</time></trkpt><trkpt lat="43.3049526" lon="12.5180516"><ele>668.3333333333334</ele><time>2026-04-28T10:29:47.726Z</time></trkpt><trkpt lat="43.3048577" lon="12.5180345"><ele>670.0</ele><time>2026-04-28T10:29:49.725Z</time></trkpt><trkpt lat="43.3047884" lon="12.5179223"><ele>670.6666666666667</ele><time>2026-04-28T10:29:51.724Z</time></trkpt><trkpt lat="43.3047648" lon="12.5178312"><ele>671.3333333333334</ele><time>2026-04-28T10:29:52.726Z</time></trkpt><trkpt lat="43.3047445" lon="12.5177299"><ele>672.0</ele><time>2026-04-28T10:29:53.726Z</time></trkpt><trkpt lat="43.3047188" lon="12.5176215"><ele>672.6666666666666</ele><time>2026-04-28T10:29:54.726Z</time></trkpt><trkpt lat="43.3046835" lon="12.5175027"><ele>673.3333333333333</ele><time>2026-04-28T10:29:55.726Z</time></trkpt><trkpt lat="43.3046388" lon="12.5173664"><ele>674.0</ele><time>2026-04-28T10:29:56.725Z</time></trkpt><trkpt lat="43.3045907" lon="12.5172259"><ele>675.1666666666666</ele><time>2026-04-28T10:29:57.726Z</time></trkpt><trkpt lat="43.3045406" lon="12.5170887"><ele>676.3333333333333</ele><time>2026-04-28T10:29:58.726Z</time></trkpt><trkpt lat="43.3044892" lon="12.516968"><ele>677.5</ele><time>2026-04-28T10:29:59.726Z</time></trkpt><trkpt lat="43.3044414" lon="12.516872"><ele>678.6666666666666</ele><time>2026-04-28T10:30:00.726Z</time></trkpt><trkpt lat="43.3044045" lon="12.5168012"><ele>679.8333333333334</ele><time>2026-04-28T10:30:01.726Z</time></trkpt><trkpt lat="43.3043634" lon="12.5167176"><ele>681.0</ele><time>2026-04-28T10:30:03.726Z</time></trkpt><trkpt lat="43.3043506" lon="12.5166328"><ele>681.0</ele><time>2026-04-28T10:30:07.726Z</time></trkpt><trkpt lat="43.304452" lon="12.5166602"><ele>681.0</ele><time>2026-04-28T10:30:29.725Z</time></trkpt><trkpt lat="43.304574" lon="12.5167115"><ele>681.0</ele><time>2026-04-28T10:30:31.726Z</time></trkpt><trkpt lat="43.3046566" lon="12.5167337"><ele>681.0</ele><time>2026-04-28T10:30:32.726Z</time></trkpt><trkpt lat="43.3047331" lon="12.5167432"><ele>681.0</ele><time>2026-04-28T10:30:33.726Z</time></trkpt><trkpt lat="43.3048065" lon="12.5167419"><ele>682.5</ele><time>2026-04-28T10:30:34.725Z</time></trkpt><trkpt lat="43.3048735" lon="12.516726"><ele>684.0</ele><time>2026-04-28T10:30:35.726Z</time></trkpt><trkpt lat="43.3049416" lon="12.5166935"><ele>685.5</ele><time>2026-04-28T10:30:36.725Z</time></trkpt><trkpt lat="43.305013" lon="12.5166441"><ele>687.0</ele><time>2026-04-28T10:30:37.726Z</time></trkpt><trkpt lat="43.3050872" lon="12.5165729"><ele>688.5</ele><time>2026-04-28T10:30:38.724Z</time></trkpt><trkpt lat="43.3051676" lon="12.5164769"><ele>690.0</ele><time>2026-04-28T10:30:39.725Z</time></trkpt><trkpt lat="43.3052451" lon="12.5163734"><ele>690.0</ele><time>2026-04-28T10:30:40.725Z</time></trkpt><trkpt lat="43.3053195" lon="12.5162708"><ele>690.0</ele><time>2026-04-28T10:30:41.726Z</time></trkpt><trkpt lat="43.3053934" lon="12.516176"><ele>690.0</ele><time>2026-04-28T10:30:42.725Z</time></trkpt><trkpt lat="43.3054694" lon="12.5160805"><ele>690.0</ele><time>2026-04-28T10:30:43.726Z</time></trkpt><trkpt lat="43.305534" lon="12.5159959"><ele>690.0</ele><time>2026-04-28T10:30:44.725Z</time></trkpt><trkpt lat="43.3055966" lon="12.5159167"><ele>691.5</ele><time>2026-04-28T10:30:45.726Z</time></trkpt><trkpt lat="43.3056509" lon="12.5158418"><ele>693.0</ele><time>2026-04-28T10:30:46.726Z</time></trkpt><trkpt lat="43.3056982" lon="12.5157601"><ele>694.5</ele><time>2026-04-28T10:30:47.726Z</time></trkpt><trkpt lat="43.3057383" lon="12.5156702"><ele>696.0</ele><time>2026-04-28T10:30:48.726Z</time></trkpt><trkpt lat="43.3057655" lon="12.5155792"><ele>697.5</ele><time>2026-04-28T10:30:49.725Z</time></trkpt><trkpt lat="43.3057767" lon="12.5154803"><ele>699.0</ele><time>2026-04-28T10:30:50.726Z</time></trkpt><trkpt lat="43.3057752" lon="12.5153697"><ele>701.2</ele><time>2026-04-28T10:30:51.726Z</time></trkpt><trkpt lat="43.3057752" lon="12.5152509"><ele>703.4000000000001</ele><time>2026-04-28T10:30:52.726Z</time></trkpt><trkpt lat="43.3057838" lon="12.5151301"><ele>705.6</ele><time>2026-04-28T10:30:53.726Z</time></trkpt><trkpt lat="43.3057953" lon="12.5149986"><ele>707.8</ele><time>2026-04-28T10:30:54.726Z</time></trkpt><trkpt lat="43.3058064" lon="12.5148538"><ele>710.0</ele><time>2026-04-28T10:30:55.725Z</time></trkpt><trkpt lat="43.3058162" lon="12.5147037"><ele>711.6</ele><time>2026-04-28T10:30:56.725Z</time></trkpt><trkpt lat="43.3058243" lon="12.5145495"><ele>713.2</ele><time>2026-04-28T10:30:57.726Z</time></trkpt><trkpt lat="43.3058306" lon="12.5143986"><ele>714.8</ele><time>2026-04-28T10:30:58.726Z</time></trkpt><trkpt lat="43.305837" lon="12.514271"><ele>716.4</ele><time>2026-04-28T10:30:59.726Z</time></trkpt><trkpt lat="43.3058472" lon="12.5141591"><ele>718.0</ele><time>2026-04-28T10:31:00.726Z</time></trkpt><trkpt lat="43.3058701" lon="12.5140485"><ele>718.0</ele><time>2026-04-28T10:31:01.726Z</time></trkpt><trkpt lat="43.3059047" lon="12.5139366"><ele>718.0</ele><time>2026-04-28T10:31:02.725Z</time></trkpt><trkpt lat="43.3059547" lon="12.5138354"><ele>718.0</ele><time>2026-04-28T10:31:03.725Z</time></trkpt><trkpt lat="43.3059916" lon="12.5137225"><ele>718.0</ele><time>2026-04-28T10:31:04.726Z</time></trkpt><trkpt lat="43.3060262" lon="12.513613"><ele>718.0</ele><time>2026-04-28T10:31:05.726Z</time></trkpt><trkpt lat="43.3060454" lon="12.5135008"><ele>718.0</ele><time>2026-04-28T10:31:06.725Z</time></trkpt><trkpt lat="43.3060536" lon="12.513392"><ele>718.4</ele><time>2026-04-28T10:31:07.726Z</time></trkpt><trkpt lat="43.3060524" lon="12.513287"><ele>718.8</ele><time>2026-04-28T10:31:08.726Z</time></trkpt><trkpt lat="43.3060393" lon="12.5131621"><ele>719.2</ele><time>2026-04-28T10:31:09.725Z</time></trkpt><trkpt lat="43.3060198" lon="12.5130201"><ele>719.6</ele><time>2026-04-28T10:31:10.726Z</time></trkpt><trkpt lat="43.3060035" lon="12.5128669"><ele>720.0</ele><time>2026-04-28T10:31:11.726Z</time></trkpt><trkpt lat="43.30599" lon="12.5127199"><ele>720.1666666666666</ele><time>2026-04-28T10:31:12.725Z</time></trkpt><trkpt lat="43.3059716" lon="12.5125912"><ele>720.3333333333334</ele><time>2026-04-28T10:31:13.726Z</time></trkpt><trkpt lat="43.3059523" lon="12.5124782"><ele>720.5</ele><time>2026-04-28T10:31:14.726Z</time></trkpt><trkpt lat="43.3059388" lon="12.5123752"><ele>720.6666666666667</ele><time>2026-04-28T10:31:15.725Z</time></trkpt><trkpt lat="43.3059323" lon="12.5122515"><ele>720.8333333333334</ele><time>2026-04-28T10:31:16.726Z</time></trkpt><trkpt lat="43.3059457" lon="12.5121295"><ele>721.0</ele><time>2026-04-28T10:31:17.726Z</time></trkpt><trkpt lat="43.3059764" lon="12.5120084"><ele>721.0</ele><time>2026-04-28T10:31:18.725Z</time></trkpt><trkpt lat="43.3060211" lon="12.5118846"><ele>721.0</ele><time>2026-04-28T10:31:19.726Z</time></trkpt><trkpt lat="43.3060792" lon="12.511764"><ele>721.0</ele><time>2026-04-28T10:31:20.726Z</time></trkpt><trkpt lat="43.3061468" lon="12.5116393"><ele>721.0</ele><time>2026-04-28T10:31:21.725Z</time></trkpt><trkpt lat="43.3062211" lon="12.5115111"><ele>721.0</ele><time>2026-04-28T10:31:22.726Z</time></trkpt><trkpt lat="43.3063048" lon="12.5113778"><ele>721.0</ele><time>2026-04-28T10:31:23.726Z</time></trkpt><trkpt lat="43.306393" lon="12.5112435"><ele>721.0</ele><time>2026-04-28T10:31:24.726Z</time></trkpt><trkpt lat="43.306485" lon="12.5111089"><ele>721.0</ele><time>2026-04-28T10:31:25.725Z</time></trkpt><trkpt lat="43.3065822" lon="12.5109798"><ele>721.0</ele><time>2026-04-28T10:31:26.725Z</time></trkpt><trkpt lat="43.3066817" lon="12.5108573"><ele>721.0</ele><time>2026-04-28T10:31:27.726Z</time></trkpt><trkpt lat="43.3067736" lon="12.510747"><ele>721.0</ele><time>2026-04-28T10:31:28.726Z</time></trkpt><trkpt lat="43.3068561" lon="12.5106441"><ele>721.0</ele><time>2026-04-28T10:31:29.725Z</time></trkpt><trkpt lat="43.3069361" lon="12.5105329"><ele>721.0</ele><time>2026-04-28T10:31:30.726Z</time></trkpt><trkpt lat="43.3070078" lon="12.510406"><ele>721.0</ele><time>2026-04-28T10:31:31.726Z</time></trkpt><trkpt lat="43.3070758" lon="12.5102682"><ele>721.0</ele><time>2026-04-28T10:31:32.726Z</time></trkpt><trkpt lat="43.3071413" lon="12.510129"><ele>721.0</ele><time>2026-04-28T10:31:33.724Z</time></trkpt><trkpt lat="43.3071995" lon="12.5099898"><ele>721.0</ele><time>2026-04-28T10:31:34.726Z</time></trkpt><trkpt lat="43.3072538" lon="12.509849"><ele>721.0</ele><time>2026-04-28T10:31:35.726Z</time></trkpt><trkpt lat="43.3073084" lon="12.5097182"><ele>721.0</ele><time>2026-04-28T10:31:36.726Z</time></trkpt><trkpt lat="43.3073637" lon="12.5096073"><ele>721.0</ele><time>2026-04-28T10:31:37.726Z</time></trkpt><trkpt lat="43.3074275" lon="12.5095179"><ele>721.0</ele><time>2026-04-28T10:31:38.726Z</time></trkpt><trkpt lat="43.307506" lon="12.509435"><ele>721.0</ele><time>2026-04-28T10:31:39.725Z</time></trkpt><trkpt lat="43.3075988" lon="12.5093594"><ele>721.8</ele><time>2026-04-28T10:31:40.726Z</time></trkpt><trkpt lat="43.3077031" lon="12.5092891"><ele>722.5999999999999</ele><time>2026-04-28T10:31:41.726Z</time></trkpt><trkpt lat="43.3078022" lon="12.5092291"><ele>723.4</ele><time>2026-04-28T10:31:42.726Z</time></trkpt><trkpt lat="43.3078925" lon="12.5091753"><ele>724.2</ele><time>2026-04-28T10:31:43.726Z</time></trkpt><trkpt lat="43.3079741" lon="12.5091203"><ele>725.0</ele><time>2026-04-28T10:31:44.726Z</time></trkpt><trkpt lat="43.3080588" lon="12.5090384"><ele>725.25</ele><time>2026-04-28T10:31:45.726Z</time></trkpt><trkpt lat="43.3081536" lon="12.5089407"><ele>725.5</ele><time>2026-04-28T10:31:46.725Z</time></trkpt><trkpt lat="43.3082563" lon="12.5088324"><ele>725.75</ele><time>2026-04-28T10:31:47.726Z</time></trkpt><trkpt lat="43.3083709" lon="12.5087151"><ele>726.0</ele><time>2026-04-28T10:31:48.726Z</time></trkpt><trkpt lat="43.3084788" lon="12.5086065"><ele>726.1999999999999</ele><time>2026-04-28T10:31:49.726Z</time></trkpt><trkpt lat="43.308579" lon="12.5085044"><ele>726.4</ele><time>2026-04-28T10:31:50.726Z</time></trkpt><trkpt lat="43.308669" lon="12.508418"><ele>726.6</ele><time>2026-04-28T10:31:51.726Z</time></trkpt><trkpt lat="43.3087477" lon="12.5083417"><ele>726.8</ele><time>2026-04-28T10:31:52.726Z</time></trkpt><trkpt lat="43.3088244" lon="12.5082825"><ele>727.0</ele><time>2026-04-28T10:31:53.726Z</time></trkpt><trkpt lat="43.3088984" lon="12.5082345"><ele>728.1666666666667</ele><time>2026-04-28T10:31:54.726Z</time></trkpt><trkpt lat="43.3089689" lon="12.5081867"><ele>729.3333333333334</ele><time>2026-04-28T10:31:55.726Z</time></trkpt><trkpt lat="43.3090307" lon="12.5081347"><ele>730.5</ele><time>2026-04-28T10:31:56.725Z</time></trkpt><trkpt lat="43.3090799" lon="12.5080687"><ele>731.6666666666666</ele><time>2026-04-28T10:31:57.726Z</time></trkpt><trkpt lat="43.3091108" lon="12.5079884"><ele>732.8333333333333</ele><time>2026-04-28T10:31:58.726Z</time></trkpt><trkpt lat="43.3091097" lon="12.5078206"><ele>734.0</ele><time>2026-04-28T10:32:00.726Z</time></trkpt><trkpt lat="43.3090889" lon="12.5077251"><ele>734.3333333333333</ele><time>2026-04-28T10:32:01.726Z</time></trkpt><trkpt lat="43.3090566" lon="12.5076297"><ele>734.6666666666666</ele><time>2026-04-28T10:32:02.726Z</time></trkpt><trkpt lat="43.3090147" lon="12.5075315"><ele>735.0</ele><time>2026-04-28T10:32:03.725Z</time></trkpt><trkpt lat="43.3089609" lon="12.5074361"><ele>735.3333333333334</ele><time>2026-04-28T10:32:04.724Z</time></trkpt><trkpt lat="43.3088965" lon="12.5073497"><ele>735.6666666666667</ele><time>2026-04-28T10:32:05.725Z</time></trkpt><trkpt lat="43.3088253" lon="12.5072706"><ele>736.0</ele><time>2026-04-28T10:32:06.725Z</time></trkpt><trkpt lat="43.3087515" lon="12.507187"><ele>736.1666666666667</ele><time>2026-04-28T10:32:07.725Z</time></trkpt><trkpt lat="43.3086867" lon="12.5070999"><ele>736.3333333333334</ele><time>2026-04-28T10:32:08.724Z</time></trkpt><trkpt lat="43.3086361" lon="12.5070216"><ele>736.5</ele><time>2026-04-28T10:32:09.724Z</time></trkpt><trkpt lat="43.3086047" lon="12.5069448"><ele>736.6666666666666</ele><time>2026-04-28T10:32:10.725Z</time></trkpt><trkpt lat="43.3085874" lon="12.506857"><ele>736.8333333333333</ele><time>2026-04-28T10:32:11.724Z</time></trkpt><trkpt lat="43.3085875" lon="12.5067581"><ele>737.0</ele><time>2026-04-28T10:32:12.724Z</time></trkpt><trkpt lat="43.3086036" lon="12.5066449"><ele>737.0</ele><time>2026-04-28T10:32:13.725Z</time></trkpt><trkpt lat="43.3086278" lon="12.5065179"><ele>737.0</ele><time>2026-04-28T10:32:14.725Z</time></trkpt><trkpt lat="43.3086506" lon="12.5063818"><ele>737.0</ele><time>2026-04-28T10:32:15.724Z</time></trkpt><trkpt lat="43.3086694" lon="12.5062408"><ele>737.0</ele><time>2026-04-28T10:32:16.724Z</time></trkpt><trkpt lat="43.3086896" lon="12.5060988"><ele>737.0</ele><time>2026-04-28T10:32:17.724Z</time></trkpt><trkpt lat="43.3087138" lon="12.5059836"><ele>738.4000000000001</ele><time>2026-04-28T10:32:18.725Z</time></trkpt><trkpt lat="43.3087404" lon="12.505873"><ele>739.8000000000001</ele><time>2026-04-28T10:32:19.724Z</time></trkpt><trkpt lat="43.3087638" lon="12.5057333"><ele>741.2</ele><time>2026-04-28T10:32:21.725Z</time></trkpt><trkpt lat="43.3087398" lon="12.5056372"><ele>742.6</ele><time>2026-04-28T10:32:23.725Z</time></trkpt><trkpt lat="43.3086445" lon="12.5055255"><ele>744.0</ele><time>2026-04-28T10:32:25.725Z</time></trkpt><trkpt lat="43.3085811" lon="12.5054577"><ele>743.8000000000001</ele><time>2026-04-28T10:32:26.724Z</time></trkpt><trkpt lat="43.3085133" lon="12.5053696"><ele>743.6</ele><time>2026-04-28T10:32:27.725Z</time></trkpt><trkpt lat="43.3084529" lon="12.5052627"><ele>743.4</ele><time>2026-04-28T10:32:28.725Z</time></trkpt><trkpt lat="43.3084008" lon="12.5051382"><ele>743.2</ele><time>2026-04-28T10:32:29.725Z</time></trkpt><trkpt lat="43.3083416" lon="12.5050077"><ele>743.0</ele><time>2026-04-28T10:32:30.725Z</time></trkpt><trkpt lat="43.3082816" lon="12.504891"><ele>743.0</ele><time>2026-04-28T10:32:31.725Z</time></trkpt><trkpt lat="43.3082081" lon="12.5047961"><ele>743.0</ele><time>2026-04-28T10:32:32.724Z</time></trkpt><trkpt lat="43.3081132" lon="12.5047135"><ele>743.0</ele><time>2026-04-28T10:32:33.725Z</time></trkpt><trkpt lat="43.3080088" lon="12.5046532"><ele>743.0</ele><time>2026-04-28T10:32:34.725Z</time></trkpt><trkpt lat="43.3078956" lon="12.5046065"><ele>743.0</ele><time>2026-04-28T10:32:35.724Z</time></trkpt><trkpt lat="43.3077739" lon="12.5045754"><ele>745.0</ele><time>2026-04-28T10:32:36.725Z</time></trkpt><trkpt lat="43.3076508" lon="12.5045694"><ele>747.0</ele><time>2026-04-28T10:32:37.725Z</time></trkpt><trkpt lat="43.3075251" lon="12.5045881"><ele>749.0</ele><time>2026-04-28T10:32:38.724Z</time></trkpt><trkpt lat="43.3074037" lon="12.5046212"><ele>751.0</ele><time>2026-04-28T10:32:39.725Z</time></trkpt><trkpt lat="43.3072914" lon="12.5046601"><ele>747.5999999999999</ele><time>2026-04-28T10:32:40.724Z</time></trkpt><trkpt lat="43.3071844" lon="12.504698"><ele>744.2</ele><time>2026-04-28T10:32:41.725Z</time></trkpt><trkpt lat="43.3070884" lon="12.504742"><ele>740.8</ele><time>2026-04-28T10:32:42.725Z</time></trkpt><trkpt lat="43.3070081" lon="12.5048066"><ele>737.4000000000001</ele><time>2026-04-28T10:32:43.724Z</time></trkpt><trkpt lat="43.3069384" lon="12.5048955"><ele>734.0</ele><time>2026-04-28T10:32:44.724Z</time></trkpt><trkpt lat="43.3068776" lon="12.5050095"><ele>734.0</ele><time>2026-04-28T10:32:45.725Z</time></trkpt><trkpt lat="43.3068233" lon="12.5051438"><ele>734.0</ele><time>2026-04-28T10:32:46.725Z</time></trkpt><trkpt lat="43.3067629" lon="12.5052874"><ele>734.0</ele><time>2026-04-28T10:32:47.725Z</time></trkpt><trkpt lat="43.3066964" lon="12.5054378"><ele>734.0</ele><time>2026-04-28T10:32:48.725Z</time></trkpt><trkpt lat="43.3066181" lon="12.5055899"><ele>733.5</ele><time>2026-04-28T10:32:49.725Z</time></trkpt><trkpt lat="43.3065337" lon="12.5057367"><ele>733.0</ele><time>2026-04-28T10:32:50.724Z</time></trkpt><trkpt lat="43.3064491" lon="12.5058681"><ele>732.5</ele><time>2026-04-28T10:32:51.725Z</time></trkpt><trkpt lat="43.3063643" lon="12.50599"><ele>732.0</ele><time>2026-04-28T10:32:52.725Z</time></trkpt><trkpt lat="43.3062792" lon="12.506103"><ele>732.0</ele><time>2026-04-28T10:32:53.725Z</time></trkpt><trkpt lat="43.306191" lon="12.5061927"><ele>732.0</ele><time>2026-04-28T10:32:54.725Z</time></trkpt><trkpt lat="43.3060997" lon="12.5062599"><ele>732.0</ele><time>2026-04-28T10:32:55.725Z</time></trkpt><trkpt lat="43.3060042" lon="12.5062723"><ele>732.0</ele><time>2026-04-28T10:32:56.725Z</time></trkpt><trkpt lat="43.3059041" lon="12.5062643"><ele>732.0</ele><time>2026-04-28T10:32:57.725Z</time></trkpt><trkpt lat="43.3058038" lon="12.5062209"><ele>732.0</ele><time>2026-04-28T10:32:58.725Z</time></trkpt><trkpt lat="43.3056976" lon="12.506154"><ele>732.0</ele><time>2026-04-28T10:32:59.725Z</time></trkpt><trkpt lat="43.3055841" lon="12.5060744"><ele>732.0</ele><time>2026-04-28T10:33:00.724Z</time></trkpt><trkpt lat="43.3054609" lon="12.5059894"><ele>732.0</ele><time>2026-04-28T10:33:01.725Z</time></trkpt><trkpt lat="43.3053342" lon="12.5059063"><ele>733.5</ele><time>2026-04-28T10:33:02.725Z</time></trkpt><trkpt lat="43.3052142" lon="12.5058275"><ele>735.0</ele><time>2026-04-28T10:33:03.725Z</time></trkpt><trkpt lat="43.305104" lon="12.5057542"><ele>736.5</ele><time>2026-04-28T10:33:04.725Z</time></trkpt><trkpt lat="43.3050002" lon="12.5056883"><ele>738.0</ele><time>2026-04-28T10:33:05.725Z</time></trkpt><trkpt lat="43.3048992" lon="12.5056365"><ele>738.0</ele><time>2026-04-28T10:33:06.724Z</time></trkpt><trkpt lat="43.3047924" lon="12.5056086"><ele>738.0</ele><time>2026-04-28T10:33:07.725Z</time></trkpt><trkpt lat="43.3046789" lon="12.505615"><ele>738.0</ele><time>2026-04-28T10:33:08.724Z</time></trkpt><trkpt lat="43.3045585" lon="12.5056571"><ele>738.0</ele><time>2026-04-28T10:33:09.725Z</time></trkpt><trkpt lat="43.3044299" lon="12.5057267"><ele>737.25</ele><time>2026-04-28T10:33:10.724Z</time></trkpt><trkpt lat="43.3042935" lon="12.50582"><ele>736.5</ele><time>2026-04-28T10:33:11.725Z</time></trkpt><trkpt lat="43.3041627" lon="12.5059131"><ele>735.75</ele><time>2026-04-28T10:33:12.725Z</time></trkpt><trkpt lat="43.3040357" lon="12.5060029"><ele>735.0</ele><time>2026-04-28T10:33:13.725Z</time></trkpt><trkpt lat="43.3039159" lon="12.5060877"><ele>734.0</ele><time>2026-04-28T10:33:14.724Z</time></trkpt><trkpt lat="43.3037994" lon="12.5061607"><ele>733.0</ele><time>2026-04-28T10:33:15.725Z</time></trkpt><trkpt lat="43.3036835" lon="12.5062109"><ele>732.0</ele><time>2026-04-28T10:33:16.724Z</time></trkpt><trkpt lat="43.3035648" lon="12.5062295"><ele>731.0</ele><time>2026-04-28T10:33:17.724Z</time></trkpt><trkpt lat="43.3034503" lon="12.5062069"><ele>731.0</ele><time>2026-04-28T10:33:18.725Z</time></trkpt><trkpt lat="43.3033453" lon="12.5061503"><ele>731.0</ele><time>2026-04-28T10:33:19.725Z</time></trkpt><trkpt lat="43.3032473" lon="12.5060774"><ele>731.0</ele><time>2026-04-28T10:33:20.724Z</time></trkpt><trkpt lat="43.3031578" lon="12.506028"><ele>731.0</ele><time>2026-04-28T10:33:21.724Z</time></trkpt><trkpt lat="43.3030674" lon="12.5060034"><ele>731.0</ele><time>2026-04-28T10:33:22.725Z</time></trkpt><trkpt lat="43.3029728" lon="12.5060073"><ele>732.75</ele><time>2026-04-28T10:33:23.725Z</time></trkpt><trkpt lat="43.3028726" lon="12.506047"><ele>734.5</ele><time>2026-04-28T10:33:24.725Z</time></trkpt><trkpt lat="43.3027628" lon="12.5061005"><ele>736.25</ele><time>2026-04-28T10:33:25.725Z</time></trkpt><trkpt lat="43.3026406" lon="12.5061392"><ele>738.0</ele><time>2026-04-28T10:33:26.724Z</time></trkpt><trkpt lat="43.302516" lon="12.5061529"><ele>738.0</ele><time>2026-04-28T10:33:27.725Z</time></trkpt><trkpt lat="43.3023807" lon="12.5061577"><ele>738.0</ele><time>2026-04-28T10:33:28.724Z</time></trkpt><trkpt lat="43.3022438" lon="12.5061499"><ele>738.0</ele><time>2026-04-28T10:33:29.725Z</time></trkpt><trkpt lat="43.3021101" lon="12.5061259"><ele>738.0</ele><time>2026-04-28T10:33:30.724Z</time></trkpt><trkpt lat="43.301989" lon="12.506079"><ele>738.0</ele><time>2026-04-28T10:33:31.724Z</time></trkpt><trkpt lat="43.3018742" lon="12.5060166"><ele>738.0</ele><time>2026-04-28T10:33:32.724Z</time></trkpt><trkpt lat="43.301773" lon="12.5059624"><ele>738.0</ele><time>2026-04-28T10:33:33.724Z</time></trkpt><trkpt lat="43.3016737" lon="12.5059341"><ele>738.0</ele><time>2026-04-28T10:33:34.725Z</time></trkpt><trkpt lat="43.3015766" lon="12.5059322"><ele>738.0</ele><time>2026-04-28T10:33:35.725Z</time></trkpt><trkpt lat="43.3014778" lon="12.5059762"><ele>737.5999999999999</ele><time>2026-04-28T10:33:36.725Z</time></trkpt><trkpt lat="43.3013875" lon="12.5060537"><ele>737.1999999999999</ele><time>2026-04-28T10:33:37.724Z</time></trkpt><trkpt lat="43.3013082" lon="12.5061165"><ele>736.8</ele><time>2026-04-28T10:33:38.725Z</time></trkpt><trkpt lat="43.3012227" lon="12.5061521"><ele>736.4</ele><time>2026-04-28T10:33:39.724Z</time></trkpt><trkpt lat="43.3011349" lon="12.5061425"><ele>736.0</ele><time>2026-04-28T10:33:40.725Z</time></trkpt><trkpt lat="43.3010508" lon="12.5060872"><ele>736.0</ele><time>2026-04-28T10:33:41.725Z</time></trkpt><trkpt lat="43.3009583" lon="12.5059944"><ele>736.0</ele><time>2026-04-28T10:33:42.724Z</time></trkpt><trkpt lat="43.3008556" lon="12.5058776"><ele>736.0</ele><time>2026-04-28T10:33:43.725Z</time></trkpt><trkpt lat="43.3007503" lon="12.5057596"><ele>736.0</ele><time>2026-04-28T10:33:44.725Z</time></trkpt><trkpt lat="43.3006353" lon="12.5056482"><ele>736.0</ele><time>2026-04-28T10:33:45.725Z</time></trkpt><trkpt lat="43.3005067" lon="12.5055524"><ele>736.0</ele><time>2026-04-28T10:33:46.723Z</time></trkpt><trkpt lat="43.3003648" lon="12.5054724"><ele>736.0</ele><time>2026-04-28T10:33:47.725Z</time></trkpt><trkpt lat="43.3002216" lon="12.5053981"><ele>736.3333333333334</ele><time>2026-04-28T10:33:48.724Z</time></trkpt><trkpt lat="43.3000774" lon="12.5053213"><ele>736.6666666666666</ele><time>2026-04-28T10:33:49.725Z</time></trkpt><trkpt lat="43.2999321" lon="12.5052414"><ele>737.0</ele><time>2026-04-28T10:33:50.724Z</time></trkpt><trkpt lat="43.299785" lon="12.5051581"><ele>738.6666666666666</ele><time>2026-04-28T10:33:51.725Z</time></trkpt><trkpt lat="43.2996317" lon="12.5050734"><ele>740.3333333333334</ele><time>2026-04-28T10:33:52.724Z</time></trkpt><trkpt lat="43.2994777" lon="12.5049882"><ele>742.0</ele><time>2026-04-28T10:33:53.725Z</time></trkpt><trkpt lat="43.2993204" lon="12.5049049"><ele>742.0</ele><time>2026-04-28T10:33:54.725Z</time></trkpt><trkpt lat="43.2991637" lon="12.5048194"><ele>742.0</ele><time>2026-04-28T10:33:55.724Z</time></trkpt><trkpt lat="43.2990098" lon="12.5047326"><ele>742.0</ele><time>2026-04-28T10:33:56.724Z</time></trkpt><trkpt lat="43.2988699" lon="12.5046546"><ele>741.25</ele><time>2026-04-28T10:33:57.725Z</time></trkpt><trkpt lat="43.2987362" lon="12.5045855"><ele>740.5</ele><time>2026-04-28T10:33:58.724Z</time></trkpt><trkpt lat="43.2986077" lon="12.5045151"><ele>739.75</ele><time>2026-04-28T10:33:59.725Z</time></trkpt><trkpt lat="43.2984881" lon="12.5044377"><ele>739.0</ele><time>2026-04-28T10:34:00.725Z</time></trkpt><trkpt lat="43.2983773" lon="12.5043643"><ele>739.0</ele><time>2026-04-28T10:34:01.725Z</time></trkpt><trkpt lat="43.2982741" lon="12.5043019"><ele>739.0</ele><time>2026-04-28T10:34:02.724Z</time></trkpt><trkpt lat="43.298175" lon="12.5042577"><ele>739.0</ele><time>2026-04-28T10:34:03.725Z</time></trkpt><trkpt lat="43.2980674" lon="12.5042311"><ele>739.0</ele><time>2026-04-28T10:34:04.724Z</time></trkpt><trkpt lat="43.2979523" lon="12.5042325"><ele>739.0</ele><time>2026-04-28T10:34:05.725Z</time></trkpt><trkpt lat="43.2978291" lon="12.5042494"><ele>741.75</ele><time>2026-04-28T10:34:06.725Z</time></trkpt><trkpt lat="43.2977115" lon="12.5042635"><ele>744.5</ele><time>2026-04-28T10:34:07.725Z</time></trkpt><trkpt lat="43.2975987" lon="12.5042666"><ele>747.25</ele><time>2026-04-28T10:34:08.724Z</time></trkpt><trkpt lat="43.2974725" lon="12.5042365"><ele>750.0</ele><time>2026-04-28T10:34:09.725Z</time></trkpt><trkpt lat="43.2973453" lon="12.5041899"><ele>754.75</ele><time>2026-04-28T10:34:10.725Z</time></trkpt><trkpt lat="43.2972122" lon="12.5041316"><ele>759.5</ele><time>2026-04-28T10:34:11.725Z</time></trkpt><trkpt lat="43.2970769" lon="12.5040631"><ele>764.25</ele><time>2026-04-28T10:34:12.724Z</time></trkpt><trkpt lat="43.2969428" lon="12.5039881"><ele>769.0</ele><time>2026-04-28T10:34:13.724Z</time></trkpt><trkpt lat="43.2968255" lon="12.5039127"><ele>769.0</ele><time>2026-04-28T10:34:14.724Z</time></trkpt><trkpt lat="43.2967293" lon="12.503829"><ele>769.0</ele><time>2026-04-28T10:34:15.725Z</time></trkpt><trkpt lat="43.2966453" lon="12.5037383"><ele>769.0</ele><time>2026-04-28T10:34:16.725Z</time></trkpt><trkpt lat="43.2965682" lon="12.5036292"><ele>769.0</ele><time>2026-04-28T10:34:17.724Z</time></trkpt><trkpt lat="43.296503" lon="12.5035208"><ele>769.0</ele><time>2026-04-28T10:34:18.725Z</time></trkpt><trkpt lat="43.2964275" lon="12.5034391"><ele>770.0</ele><time>2026-04-28T10:34:19.724Z</time></trkpt><trkpt lat="43.2963375" lon="12.5033776"><ele>771.0</ele><time>2026-04-28T10:34:20.724Z</time></trkpt><trkpt lat="43.2962454" lon="12.5033157"><ele>772.0</ele><time>2026-04-28T10:34:21.725Z</time></trkpt><trkpt lat="43.296158" lon="12.5032346"><ele>773.0</ele><time>2026-04-28T10:34:22.725Z</time></trkpt><trkpt lat="43.2960869" lon="12.5031337"><ele>774.0</ele><time>2026-04-28T10:34:23.725Z</time></trkpt><trkpt lat="43.2960317" lon="12.5030153"><ele>769.8000000000001</ele><time>2026-04-28T10:34:24.725Z</time></trkpt><trkpt lat="43.2959746" lon="12.5028944"><ele>765.6</ele><time>2026-04-28T10:34:25.724Z</time></trkpt><trkpt lat="43.2959071" lon="12.5027861"><ele>761.4</ele><time>2026-04-28T10:34:26.725Z</time></trkpt><trkpt lat="43.2958223" lon="12.5026865"><ele>757.2</ele><time>2026-04-28T10:34:27.724Z</time></trkpt><trkpt lat="43.2957369" lon="12.5025959"><ele>753.0</ele><time>2026-04-28T10:34:28.725Z</time></trkpt><trkpt lat="43.2956649" lon="12.5025253"><ele>753.0</ele><time>2026-04-28T10:34:29.725Z</time></trkpt><trkpt lat="43.2955998" lon="12.5024641"><ele>753.0</ele><time>2026-04-28T10:34:30.724Z</time></trkpt><trkpt lat="43.2955168" lon="12.5023766"><ele>753.0</ele><time>2026-04-28T10:34:32.724Z</time></trkpt><trkpt lat="43.295548" lon="12.5024553"><ele>753.0</ele><time>2026-04-28T10:34:42.725Z</time></trkpt><trkpt lat="43.295607" lon="12.5024969"><ele>753.0</ele><time>2026-04-28T10:34:43.725Z</time></trkpt><trkpt lat="43.2956797" lon="12.5025519"><ele>753.0</ele><time>2026-04-28T10:34:44.725Z</time></trkpt><trkpt lat="43.2957601" lon="12.5026267"><ele>753.0</ele><time>2026-04-28T10:34:45.724Z</time></trkpt><trkpt lat="43.295839" lon="12.5027135"><ele>753.0</ele><time>2026-04-28T10:34:46.725Z</time></trkpt><trkpt lat="43.2959146" lon="12.502821"><ele>753.0</ele><time>2026-04-28T10:34:47.725Z</time></trkpt><trkpt lat="43.2959781" lon="12.5029436"><ele>753.0</ele><time>2026-04-28T10:34:48.724Z</time></trkpt><trkpt lat="43.2960292" lon="12.5030676"><ele>753.0</ele><time>2026-04-28T10:34:49.725Z</time></trkpt><trkpt lat="43.2960878" lon="12.5031809"><ele>751.5999999999999</ele><time>2026-04-28T10:34:50.725Z</time></trkpt><trkpt lat="43.296175" lon="12.503272"><ele>750.1999999999999</ele><time>2026-04-28T10:34:51.725Z</time></trkpt><trkpt lat="43.2962796" lon="12.5033409"><ele>748.8</ele><time>2026-04-28T10:34:52.725Z</time></trkpt><trkpt lat="43.2963756" lon="12.5034049"><ele>747.4</ele><time>2026-04-28T10:34:53.725Z</time></trkpt><trkpt lat="43.2964599" lon="12.5034902"><ele>746.0</ele><time>2026-04-28T10:34:54.724Z</time></trkpt><trkpt lat="43.296529" lon="12.5035946"><ele>746.0</ele><time>2026-04-28T10:34:55.725Z</time></trkpt><trkpt lat="43.2966047" lon="12.5037063"><ele>746.0</ele><time>2026-04-28T10:34:56.724Z</time></trkpt><trkpt lat="43.2966862" lon="12.5038021"><ele>746.0</ele><time>2026-04-28T10:34:57.725Z</time></trkpt><trkpt lat="43.2967776" lon="12.5038864"><ele>746.0</ele><time>2026-04-28T10:34:58.725Z</time></trkpt><trkpt lat="43.2968743" lon="12.5039587"><ele>746.0</ele><time>2026-04-28T10:34:59.725Z</time></trkpt><trkpt lat="43.2969847" lon="12.5040211"><ele>747.0</ele><time>2026-04-28T10:35:00.725Z</time></trkpt><trkpt lat="43.297108" lon="12.5040837"><ele>748.0</ele><time>2026-04-28T10:35:01.725Z</time></trkpt><trkpt lat="43.297232" lon="12.5041425"><ele>749.0</ele><time>2026-04-28T10:35:02.725Z</time></trkpt><trkpt lat="43.2973586" lon="12.5042003"><ele>750.0</ele><time>2026-04-28T10:35:03.724Z</time></trkpt><trkpt lat="43.2974779" lon="12.5042467"><ele>750.0</ele><time>2026-04-28T10:35:04.725Z</time></trkpt><trkpt lat="43.2976005" lon="12.5042712"><ele>750.0</ele><time>2026-04-28T10:35:05.723Z</time></trkpt><trkpt lat="43.2977224" lon="12.5042653"><ele>750.0</ele><time>2026-04-28T10:35:06.725Z</time></trkpt><trkpt lat="43.2978448" lon="12.5042462"><ele>750.0</ele><time>2026-04-28T10:35:07.724Z</time></trkpt><trkpt lat="43.2979621" lon="12.5042287"><ele>750.0</ele><time>2026-04-28T10:35:08.725Z</time></trkpt><trkpt lat="43.2980755" lon="12.5042344"><ele>750.0</ele><time>2026-04-28T10:35:09.725Z</time></trkpt><trkpt lat="43.2981854" lon="12.5042685"><ele>750.0</ele><time>2026-04-28T10:35:10.724Z</time></trkpt><trkpt lat="43.2982977" lon="12.5043228"><ele>750.0</ele><time>2026-04-28T10:35:11.725Z</time></trkpt><trkpt lat="43.2984147" lon="12.5043887"><ele>751.25</ele><time>2026-04-28T10:35:12.725Z</time></trkpt><trkpt lat="43.2985394" lon="12.5044628"><ele>752.5</ele><time>2026-04-28T10:35:13.725Z</time></trkpt><trkpt lat="43.2986632" lon="12.5045445"><ele>753.75</ele><time>2026-04-28T10:35:14.725Z</time></trkpt><trkpt lat="43.2987943" lon="12.5046216"><ele>755.0</ele><time>2026-04-28T10:35:15.725Z</time></trkpt><trkpt lat="43.2989361" lon="12.5046986"><ele>750.6666666666666</ele><time>2026-04-28T10:35:16.725Z</time></trkpt><trkpt lat="43.299082" lon="12.5047752"><ele>746.3333333333334</ele><time>2026-04-28T10:35:17.725Z</time></trkpt><trkpt lat="43.2992337" lon="12.5048557"><ele>742.0</ele><time>2026-04-28T10:35:18.725Z</time></trkpt><trkpt lat="43.2993857" lon="12.5049391"><ele>742.0</ele><time>2026-04-28T10:35:19.725Z</time></trkpt><trkpt lat="43.2995334" lon="12.5050196"><ele>742.0</ele><time>2026-04-28T10:35:20.725Z</time></trkpt><trkpt lat="43.2996712" lon="12.5050969"><ele>742.0</ele><time>2026-04-28T10:35:21.725Z</time></trkpt><trkpt lat="43.2998003" lon="12.5051675"><ele>742.0</ele><time>2026-04-28T10:35:22.725Z</time></trkpt><trkpt lat="43.2999255" lon="12.5052332"><ele>740.75</ele><time>2026-04-28T10:35:23.725Z</time></trkpt><trkpt lat="43.3000471" lon="12.505294"><ele>739.5</ele><time>2026-04-28T10:35:24.724Z</time></trkpt><trkpt lat="43.3001704" lon="12.5053662"><ele>738.25</ele><time>2026-04-28T10:35:25.725Z</time></trkpt><trkpt lat="43.3003009" lon="12.5054321"><ele>737.0</ele><time>2026-04-28T10:35:26.724Z</time></trkpt><trkpt lat="43.3004207" lon="12.5055034"><ele>736.75</ele><time>2026-04-28T10:35:27.725Z</time></trkpt><trkpt lat="43.3005355" lon="12.5055799"><ele>736.5</ele><time>2026-04-28T10:35:28.725Z</time></trkpt><trkpt lat="43.3006423" lon="12.5056623"><ele>736.25</ele><time>2026-04-28T10:35:29.724Z</time></trkpt><trkpt lat="43.3007433" lon="12.5057594"><ele>736.0</ele><time>2026-04-28T10:35:30.725Z</time></trkpt><trkpt lat="43.3008415" lon="12.5058755"><ele>736.0</ele><time>2026-04-28T10:35:31.725Z</time></trkpt><trkpt lat="43.3009276" lon="12.5059812"><ele>736.0</ele><time>2026-04-28T10:35:32.724Z</time></trkpt><trkpt lat="43.3010105" lon="12.5060696"><ele>736.0</ele><time>2026-04-28T10:35:33.724Z</time></trkpt><trkpt lat="43.301088" lon="12.5061399"><ele>736.0</ele><time>2026-04-28T10:35:34.724Z</time></trkpt><trkpt lat="43.3011689" lon="12.5061745"><ele>736.0</ele><time>2026-04-28T10:35:35.725Z</time></trkpt><trkpt lat="43.3012456" lon="12.5061668"><ele>736.0</ele><time>2026-04-28T10:35:36.724Z</time></trkpt><trkpt lat="43.3013207" lon="12.506125"><ele>736.0</ele><time>2026-04-28T10:35:37.725Z</time></trkpt><trkpt lat="43.3013974" lon="12.5060579"><ele>736.0</ele><time>2026-04-28T10:35:38.724Z</time></trkpt><trkpt lat="43.3014762" lon="12.5059896"><ele>736.0</ele><time>2026-04-28T10:35:39.725Z</time></trkpt><trkpt lat="43.3015582" lon="12.5059481"><ele>736.0</ele><time>2026-04-28T10:35:40.725Z</time></trkpt><trkpt lat="43.3016528" lon="12.5059424"><ele>736.0</ele><time>2026-04-28T10:35:41.725Z</time></trkpt><trkpt lat="43.3017515" lon="12.5059685"><ele>736.5</ele><time>2026-04-28T10:35:42.725Z</time></trkpt><trkpt lat="43.3018516" lon="12.506022"><ele>737.0</ele><time>2026-04-28T10:35:43.725Z</time></trkpt><trkpt lat="43.3019589" lon="12.5060798"><ele>737.5</ele><time>2026-04-28T10:35:44.725Z</time></trkpt><trkpt lat="43.302072" lon="12.5061235"><ele>738.0</ele><time>2026-04-28T10:35:45.724Z</time></trkpt><trkpt lat="43.3021815" lon="12.5061523"><ele>738.0</ele><time>2026-04-28T10:35:46.725Z</time></trkpt><trkpt lat="43.3022837" lon="12.5061691"><ele>738.0</ele><time>2026-04-28T10:35:47.724Z</time></trkpt><trkpt lat="43.3023921" lon="12.5061757"><ele>738.0</ele><time>2026-04-28T10:35:48.725Z</time></trkpt><trkpt lat="43.3025007" lon="12.5061757"><ele>738.0</ele><time>2026-04-28T10:35:49.725Z</time></trkpt><trkpt lat="43.3026046" lon="12.5061659"><ele>738.0</ele><time>2026-04-28T10:35:50.725Z</time></trkpt><trkpt lat="43.3027077" lon="12.5061379"><ele>738.0</ele><time>2026-04-28T10:35:51.724Z</time></trkpt><trkpt lat="43.302808" lon="12.5060905"><ele>738.0</ele><time>2026-04-28T10:35:52.725Z</time></trkpt><trkpt lat="43.3029007" lon="12.5060433"><ele>738.0</ele><time>2026-04-28T10:35:53.724Z</time></trkpt><trkpt lat="43.3029919" lon="12.5060154"><ele>738.0</ele><time>2026-04-28T10:35:54.725Z</time></trkpt><trkpt lat="43.3030775" lon="12.506018"><ele>738.0</ele><time>2026-04-28T10:35:55.724Z</time></trkpt><trkpt lat="43.3031684" lon="12.5060605"><ele>736.5999999999999</ele><time>2026-04-28T10:35:56.725Z</time></trkpt><trkpt lat="43.3032676" lon="12.5061268"><ele>735.1999999999999</ele><time>2026-04-28T10:35:57.724Z</time></trkpt><trkpt lat="43.3033721" lon="12.5061908"><ele>733.8</ele><time>2026-04-28T10:35:58.725Z</time></trkpt><trkpt lat="43.3034769" lon="12.5062257"><ele>732.4</ele><time>2026-04-28T10:35:59.725Z</time></trkpt><trkpt lat="43.3035858" lon="12.5062303"><ele>731.0</ele><time>2026-04-28T10:36:00.725Z</time></trkpt><trkpt lat="43.3036838" lon="12.5062156"><ele>731.0</ele><time>2026-04-28T10:36:01.725Z</time></trkpt><trkpt lat="43.3037865" lon="12.5061768"><ele>731.0</ele><time>2026-04-28T10:36:02.723Z</time></trkpt><trkpt lat="43.3038909" lon="12.5061119"><ele>731.0</ele><time>2026-04-28T10:36:03.724Z</time></trkpt><trkpt lat="43.3039848" lon="12.5060519"><ele>731.0</ele><time>2026-04-28T10:36:04.724Z</time></trkpt><trkpt lat="43.3040572" lon="12.506007"><ele>731.0</ele><time>2026-04-28T10:36:05.724Z</time></trkpt><trkpt lat="43.3041387" lon="12.5059513"><ele>731.0</ele><time>2026-04-28T10:36:07.723Z</time></trkpt><trkpt lat="43.30411" lon="12.505867"><ele>731.0</ele><time>2026-04-28T10:36:11.723Z</time></trkpt><trkpt lat="43.3040393" lon="12.505904"><ele>731.0</ele><time>2026-04-28T10:36:13.724Z</time></trkpt><trkpt lat="43.3039398" lon="12.5059727"><ele>731.0</ele><time>2026-04-28T10:36:15.724Z</time></trkpt><trkpt lat="43.303845" lon="12.5059768"><ele>731.0</ele><time>2026-04-28T10:36:17.724Z</time></trkpt><trkpt lat="43.3037803" lon="12.5058749"><ele>731.0</ele><time>2026-04-28T10:36:19.724Z</time></trkpt><trkpt lat="43.3037373" lon="12.5057367"><ele>731.0</ele><time>2026-04-28T10:36:21.724Z</time></trkpt><trkpt lat="43.3036577" lon="12.5056312"><ele>731.0</ele><time>2026-04-28T10:36:23.724Z</time></trkpt><trkpt lat="43.3035991" lon="12.5055989"><ele>731.0</ele><time>2026-04-28T10:36:24.724Z</time></trkpt><trkpt lat="43.3035319" lon="12.5055804"><ele>731.0</ele><time>2026-04-28T10:36:25.723Z</time></trkpt><trkpt lat="43.3034676" lon="12.5055613"><ele>731.0</ele><time>2026-04-28T10:36:26.724Z</time></trkpt><trkpt lat="43.3033594" lon="12.5054784"><ele>731.0</ele><time>2026-04-28T10:36:28.723Z</time></trkpt><trkpt lat="43.3033159" lon="12.5054116"><ele>729.3333333333333</ele><time>2026-04-28T10:36:29.724Z</time></trkpt><trkpt lat="43.3032786" lon="12.5053214"><ele>727.6666666666666</ele><time>2026-04-28T10:36:30.723Z</time></trkpt><trkpt lat="43.3032432" lon="12.5052173"><ele>726.0</ele><time>2026-04-28T10:36:31.724Z</time></trkpt><trkpt lat="43.3032079" lon="12.5051048"><ele>724.3333333333334</ele><time>2026-04-28T10:36:32.723Z</time></trkpt><trkpt lat="43.3031721" lon="12.5049883"><ele>722.6666666666667</ele><time>2026-04-28T10:36:33.724Z</time></trkpt><trkpt lat="43.3031368" lon="12.5048687"><ele>721.0</ele><time>2026-04-28T10:36:34.723Z</time></trkpt><trkpt lat="43.3030979" lon="12.5047388"><ele>722.0</ele><time>2026-04-28T10:36:35.724Z</time></trkpt><trkpt lat="43.3030596" lon="12.504609"><ele>723.0</ele><time>2026-04-28T10:36:36.723Z</time></trkpt><trkpt lat="43.3030178" lon="12.5044886"><ele>724.0</ele><time>2026-04-28T10:36:37.723Z</time></trkpt><trkpt lat="43.3029719" lon="12.5043791"><ele>725.0</ele><time>2026-04-28T10:36:38.723Z</time></trkpt><trkpt lat="43.3029211" lon="12.5042723"><ele>726.0</ele><time>2026-04-28T10:36:39.724Z</time></trkpt><trkpt lat="43.3028648" lon="12.5041611"><ele>726.0</ele><time>2026-04-28T10:36:40.723Z</time></trkpt><trkpt lat="43.302807" lon="12.5040367"><ele>726.0</ele><time>2026-04-28T10:36:41.724Z</time></trkpt><trkpt lat="43.3027511" lon="12.5039075"><ele>726.0</ele><time>2026-04-28T10:36:42.723Z</time></trkpt><trkpt lat="43.3026995" lon="12.5037688"><ele>726.0</ele><time>2026-04-28T10:36:43.724Z</time></trkpt><trkpt lat="43.3026549" lon="12.5036203"><ele>726.0</ele><time>2026-04-28T10:36:44.724Z</time></trkpt><trkpt lat="43.3026217" lon="12.5034691"><ele>724.1999999999999</ele><time>2026-04-28T10:36:45.724Z</time></trkpt><trkpt lat="43.3026004" lon="12.5033215"><ele>722.4</ele><time>2026-04-28T10:36:46.724Z</time></trkpt><trkpt lat="43.3025829" lon="12.5031765"><ele>720.6</ele><time>2026-04-28T10:36:47.724Z</time></trkpt><trkpt lat="43.3025659" lon="12.5030376"><ele>718.8</ele><time>2026-04-28T10:36:48.724Z</time></trkpt><trkpt lat="43.3025485" lon="12.5029084"><ele>717.0</ele><time>2026-04-28T10:36:49.723Z</time></trkpt><trkpt lat="43.3025314" lon="12.5027878"><ele>715.6666666666666</ele><time>2026-04-28T10:36:50.724Z</time></trkpt><trkpt lat="43.3025171" lon="12.5026828"><ele>714.3333333333334</ele><time>2026-04-28T10:36:51.724Z</time></trkpt><trkpt lat="43.3025143" lon="12.5025847"><ele>713.0</ele><time>2026-04-28T10:36:52.723Z</time></trkpt><trkpt lat="43.3025793" lon="12.5024438"><ele>711.6666666666667</ele><time>2026-04-28T10:36:54.724Z</time></trkpt><trkpt lat="43.3026397" lon="12.5023803"><ele>710.3333333333334</ele><time>2026-04-28T10:36:55.723Z</time></trkpt><trkpt lat="43.3027151" lon="12.5023169"><ele>709.0</ele><time>2026-04-28T10:36:56.724Z</time></trkpt><trkpt lat="43.3027926" lon="12.5022512"><ele>709.0</ele><time>2026-04-28T10:36:57.723Z</time></trkpt><trkpt lat="43.3028728" lon="12.5021752"><ele>709.0</ele><time>2026-04-28T10:36:58.722Z</time></trkpt><trkpt lat="43.3029509" lon="12.5021011"><ele>709.0</ele><time>2026-04-28T10:36:59.723Z</time></trkpt><trkpt lat="43.3030173" lon="12.5020369"><ele>709.0</ele><time>2026-04-28T10:37:00.724Z</time></trkpt><trkpt lat="43.3030678" lon="12.5019829"><ele>709.0</ele><time>2026-04-28T10:37:01.724Z</time></trkpt><trkpt lat="43.3031165" lon="12.5018883"><ele>709.0</ele><time>2026-04-28T10:37:03.724Z</time></trkpt><trkpt lat="43.3031107" lon="12.50177"><ele>707.5</ele><time>2026-04-28T10:37:05.724Z</time></trkpt><trkpt lat="43.3030965" lon="12.5016539"><ele>706.0</ele><time>2026-04-28T10:37:07.723Z</time></trkpt><trkpt lat="43.3031306" lon="12.5015492"><ele>704.5</ele><time>2026-04-28T10:37:09.724Z</time></trkpt><trkpt lat="43.3032336" lon="12.501488"><ele>703.0</ele><time>2026-04-28T10:37:11.724Z</time></trkpt><trkpt lat="43.303306" lon="12.5014695"><ele>701.5</ele><time>2026-04-28T10:37:12.723Z</time></trkpt><trkpt lat="43.3033776" lon="12.5014511"><ele>700.0</ele><time>2026-04-28T10:37:13.724Z</time></trkpt><trkpt lat="43.3034504" lon="12.5014221"><ele>700.0</ele><time>2026-04-28T10:37:14.723Z</time></trkpt><trkpt lat="43.3035194" lon="12.5013852"><ele>700.0</ele><time>2026-04-28T10:37:15.724Z</time></trkpt><trkpt lat="43.303586" lon="12.5013508"><ele>700.0</ele><time>2026-04-28T10:37:16.724Z</time></trkpt><trkpt lat="43.3036493" lon="12.5013216"><ele>700.0</ele><time>2026-04-28T10:37:17.724Z</time></trkpt><trkpt lat="43.3037636" lon="12.50127"><ele>700.0</ele><time>2026-04-28T10:37:19.724Z</time></trkpt><trkpt lat="43.3038724" lon="12.5012039"><ele>696.6</ele><time>2026-04-28T10:37:21.724Z</time></trkpt><trkpt lat="43.303977" lon="12.5011174"><ele>693.2</ele><time>2026-04-28T10:37:23.724Z</time></trkpt><trkpt lat="43.3040745" lon="12.5010144"><ele>689.8</ele><time>2026-04-28T10:37:25.723Z</time></trkpt><trkpt lat="43.3041197" lon="12.5009533"><ele>686.4</ele><time>2026-04-28T10:37:26.724Z</time></trkpt><trkpt lat="43.3041669" lon="12.500883"><ele>683.0</ele><time>2026-04-28T10:37:27.724Z</time></trkpt><trkpt lat="43.3042148" lon="12.5008067"><ele>683.0</ele><time>2026-04-28T10:37:28.724Z</time></trkpt><trkpt lat="43.3042598" lon="12.5007251"><ele>683.0</ele><time>2026-04-28T10:37:29.724Z</time></trkpt><trkpt lat="43.3043008" lon="12.5006386"><ele>683.0</ele><time>2026-04-28T10:37:30.724Z</time></trkpt><trkpt lat="43.3043388" lon="12.5005475"><ele>683.0</ele><time>2026-04-28T10:37:31.723Z</time></trkpt><trkpt lat="43.3043768" lon="12.5004519"><ele>683.0</ele><time>2026-04-28T10:37:32.724Z</time></trkpt><trkpt lat="43.3044157" lon="12.500354"><ele>683.0</ele><time>2026-04-28T10:37:33.724Z</time></trkpt><trkpt lat="43.3044614" lon="12.5002614"><ele>681.4</ele><time>2026-04-28T10:37:34.723Z</time></trkpt><trkpt lat="43.3045192" lon="12.5001744"><ele>679.8</ele><time>2026-04-28T10:37:35.724Z</time></trkpt><trkpt lat="43.3045922" lon="12.5000893"><ele>678.2</ele><time>2026-04-28T10:37:36.724Z</time></trkpt><trkpt lat="43.3046727" lon="12.5000119"><ele>676.6</ele><time>2026-04-28T10:37:37.724Z</time></trkpt><trkpt lat="43.3047459" lon="12.4999403"><ele>675.0</ele><time>2026-04-28T10:37:38.724Z</time></trkpt><trkpt lat="43.3048018" lon="12.4998538"><ele>675.0</ele><time>2026-04-28T10:37:39.724Z</time></trkpt><trkpt lat="43.3048441" lon="12.499751"><ele>675.0</ele><time>2026-04-28T10:37:40.723Z</time></trkpt><trkpt lat="43.3048818" lon="12.4996351"><ele>675.0</ele><time>2026-04-28T10:37:41.724Z</time></trkpt><trkpt lat="43.3049198" lon="12.4995192"><ele>675.0</ele><time>2026-04-28T10:37:42.724Z</time></trkpt><trkpt lat="43.3049623" lon="12.4994147"><ele>675.0</ele><time>2026-04-28T10:37:43.724Z</time></trkpt><trkpt lat="43.3050097" lon="12.4993169"><ele>675.0</ele><time>2026-04-28T10:37:44.724Z</time></trkpt><trkpt lat="43.3050714" lon="12.4992254"><ele>674.0</ele><time>2026-04-28T10:37:45.724Z</time></trkpt><trkpt lat="43.3051296" lon="12.4991496"><ele>673.0</ele><time>2026-04-28T10:37:46.724Z</time></trkpt><trkpt lat="43.3051829" lon="12.4990711"><ele>672.0</ele><time>2026-04-28T10:37:47.724Z</time></trkpt><trkpt lat="43.3052312" lon="12.498985"><ele>671.0</ele><time>2026-04-28T10:37:48.723Z</time></trkpt><trkpt lat="43.3052821" lon="12.4988952"><ele>670.0</ele><time>2026-04-28T10:37:49.724Z</time></trkpt><trkpt lat="43.3053387" lon="12.4987988"><ele>669.0</ele><time>2026-04-28T10:37:50.724Z</time></trkpt><trkpt lat="43.3053978" lon="12.4987162"><ele>668.0</ele><time>2026-04-28T10:37:51.723Z</time></trkpt><trkpt lat="43.3054549" lon="12.4986422"><ele>667.0</ele><time>2026-04-28T10:37:52.724Z</time></trkpt><trkpt lat="43.3055112" lon="12.4985736"><ele>666.0</ele><time>2026-04-28T10:37:53.724Z</time></trkpt><trkpt lat="43.3055616" lon="12.498501"><ele>665.0</ele><time>2026-04-28T10:37:54.723Z</time></trkpt><trkpt lat="43.3056125" lon="12.4984368"><ele>664.0</ele><time>2026-04-28T10:37:55.723Z</time></trkpt><trkpt lat="43.305663" lon="12.4983843"><ele>663.0</ele><time>2026-04-28T10:37:56.723Z</time></trkpt><trkpt lat="43.3057695" lon="12.498307"><ele>663.0</ele><time>2026-04-28T10:37:58.723Z</time></trkpt><trkpt lat="43.3058617" lon="12.498228"><ele>663.0</ele><time>2026-04-28T10:38:00.723Z</time></trkpt><trkpt lat="43.3059287" lon="12.4980834"><ele>663.0</ele><time>2026-04-28T10:38:02.723Z</time></trkpt><trkpt lat="43.3059521" lon="12.4979952"><ele>663.0</ele><time>2026-04-28T10:38:03.723Z</time></trkpt><trkpt lat="43.3059676" lon="12.4978975"><ele>663.0</ele><time>2026-04-28T10:38:04.723Z</time></trkpt><trkpt lat="43.3059803" lon="12.4977838"><ele>662.5</ele><time>2026-04-28T10:38:05.724Z</time></trkpt><trkpt lat="43.3059835" lon="12.4976725"><ele>662.0</ele><time>2026-04-28T10:38:06.724Z</time></trkpt><trkpt lat="43.3059777" lon="12.497554"><ele>661.5</ele><time>2026-04-28T10:38:07.724Z</time></trkpt><trkpt lat="43.3059669" lon="12.4974402"><ele>661.0</ele><time>2026-04-28T10:38:08.724Z</time></trkpt><trkpt lat="43.305963" lon="12.4973309"><ele>660.5</ele><time>2026-04-28T10:38:09.724Z</time></trkpt><trkpt lat="43.3059702" lon="12.4972333"><ele>660.0</ele><time>2026-04-28T10:38:10.724Z</time></trkpt><trkpt lat="43.3060132" lon="12.4970768"><ele>658.6</ele><time>2026-04-28T10:38:12.724Z</time></trkpt><trkpt lat="43.3060842" lon="12.4969454"><ele>657.2</ele><time>2026-04-28T10:38:14.724Z</time></trkpt><trkpt lat="43.3061463" lon="12.4968238"><ele>655.8</ele><time>2026-04-28T10:38:16.724Z</time></trkpt><trkpt lat="43.3061976" lon="12.4967164"><ele>654.4</ele><time>2026-04-28T10:38:18.724Z</time></trkpt><trkpt lat="43.3062299" lon="12.4966153"><ele>653.0</ele><time>2026-04-28T10:38:20.724Z</time></trkpt><trkpt lat="43.306245" lon="12.4965047"><ele>653.0000000000001</ele><time>2026-04-28T10:38:22.723Z</time></trkpt><trkpt lat="43.3062418" lon="12.4963952"><ele>653.0</ele><time>2026-04-28T10:38:24.724Z</time></trkpt><trkpt lat="43.3062146" lon="12.4962722"><ele>653.0</ele><time>2026-04-28T10:38:26.724Z</time></trkpt><trkpt lat="43.3061953" lon="12.4961897"><ele>653.0</ele><time>2026-04-28T10:38:27.724Z</time></trkpt><trkpt lat="43.3061774" lon="12.4961005"><ele>653.0</ele><time>2026-04-28T10:38:28.724Z</time></trkpt><trkpt lat="43.3061582" lon="12.4960086"><ele>653.0000000000001</ele><time>2026-04-28T10:38:29.724Z</time></trkpt><trkpt lat="43.3061407" lon="12.4959128"><ele>653.0</ele><time>2026-04-28T10:38:30.723Z</time></trkpt><trkpt lat="43.3061226" lon="12.495815"><ele>650.8333333333333</ele><time>2026-04-28T10:38:31.724Z</time></trkpt><trkpt lat="43.3061067" lon="12.4957178"><ele>648.6666666666666</ele><time>2026-04-28T10:38:32.723Z</time></trkpt><trkpt lat="43.3060927" lon="12.4956253"><ele>646.5</ele><time>2026-04-28T10:38:33.724Z</time></trkpt><trkpt lat="43.3060831" lon="12.4955368"><ele>644.3333333333334</ele><time>2026-04-28T10:38:34.723Z</time></trkpt><trkpt lat="43.3060784" lon="12.4954504"><ele>642.1666666666667</ele><time>2026-04-28T10:38:35.724Z</time></trkpt><trkpt lat="43.3060919" lon="12.4952839"><ele>640.0</ele><time>2026-04-28T10:38:37.724Z</time></trkpt><trkpt lat="43.3061088" lon="12.4951977"><ele>638.4285714285714</ele><time>2026-04-28T10:38:38.724Z</time></trkpt><trkpt lat="43.3061312" lon="12.4951109"><ele>636.8571428571429</ele><time>2026-04-28T10:38:39.724Z</time></trkpt><trkpt lat="43.3061553" lon="12.4950211"><ele>635.2857142857142</ele><time>2026-04-28T10:38:40.724Z</time></trkpt><trkpt lat="43.3061792" lon="12.4949301"><ele>633.7142857142858</ele><time>2026-04-28T10:38:41.723Z</time></trkpt><trkpt lat="43.3061978" lon="12.4948381"><ele>632.1428571428572</ele><time>2026-04-28T10:38:42.724Z</time></trkpt><trkpt lat="43.3062095" lon="12.4947433"><ele>630.5714285714286</ele><time>2026-04-28T10:38:43.723Z</time></trkpt><trkpt lat="43.3062142" lon="12.4946467"><ele>629.0</ele><time>2026-04-28T10:38:44.724Z</time></trkpt><trkpt lat="43.3062122" lon="12.4945503"><ele>627.8571428571428</ele><time>2026-04-28T10:38:45.724Z</time></trkpt><trkpt lat="43.3062112" lon="12.4944537"><ele>626.7142857142858</ele><time>2026-04-28T10:38:46.723Z</time></trkpt><trkpt lat="43.3062095" lon="12.4943574"><ele>625.5714285714286</ele><time>2026-04-28T10:38:47.724Z</time></trkpt><trkpt lat="43.3062085" lon="12.4942643"><ele>624.4285714285713</ele><time>2026-04-28T10:38:48.723Z</time></trkpt><trkpt lat="43.3062029" lon="12.4941708"><ele>623.2857142857142</ele><time>2026-04-28T10:38:49.723Z</time></trkpt><trkpt lat="43.3061899" lon="12.4940796"><ele>622.1428571428571</ele><time>2026-04-28T10:38:50.723Z</time></trkpt><trkpt lat="43.3061711" lon="12.4939902"><ele>621.0</ele><time>2026-04-28T10:38:51.724Z</time></trkpt><trkpt lat="43.3061488" lon="12.4938985"><ele>621.0</ele><time>2026-04-28T10:38:52.723Z</time></trkpt><trkpt lat="43.3061251" lon="12.4938063"><ele>621.0</ele><time>2026-04-28T10:38:53.724Z</time></trkpt><trkpt lat="43.3060998" lon="12.4937134"><ele>621.0</ele><time>2026-04-28T10:38:54.723Z</time></trkpt><trkpt lat="43.3060717" lon="12.493619"><ele>621.0</ele><time>2026-04-28T10:38:55.724Z</time></trkpt><trkpt lat="43.306041" lon="12.4935207"><ele>621.0</ele><time>2026-04-28T10:38:56.724Z</time></trkpt><trkpt lat="43.3060084" lon="12.493417"><ele>621.0</ele><time>2026-04-28T10:38:57.723Z</time></trkpt><trkpt lat="43.3059739" lon="12.4933111"><ele>619.6666666666666</ele><time>2026-04-28T10:38:58.724Z</time></trkpt><trkpt lat="43.3059387" lon="12.493206"><ele>618.3333333333334</ele><time>2026-04-28T10:38:59.723Z</time></trkpt><trkpt lat="43.3059042" lon="12.4931032"><ele>617.0</ele><time>2026-04-28T10:39:00.723Z</time></trkpt><trkpt lat="43.3058739" lon="12.4930019"><ele>615.6666666666667</ele><time>2026-04-28T10:39:01.723Z</time></trkpt><trkpt lat="43.3058514" lon="12.4929041"><ele>614.3333333333334</ele><time>2026-04-28T10:39:02.723Z</time></trkpt><trkpt lat="43.305835" lon="12.4928071"><ele>613.0</ele><time>2026-04-28T10:39:03.724Z</time></trkpt><trkpt lat="43.3058178" lon="12.492668"><ele>611.6</ele><time>2026-04-28T10:39:05.724Z</time></trkpt><trkpt lat="43.3057684" lon="12.4925936"><ele>610.1999999999999</ele><time>2026-04-28T10:39:07.723Z</time></trkpt><trkpt lat="43.305686" lon="12.4925297"><ele>608.8</ele><time>2026-04-28T10:39:09.724Z</time></trkpt><trkpt lat="43.3055983" lon="12.492475"><ele>607.4</ele><time>2026-04-28T10:39:11.723Z</time></trkpt><trkpt lat="43.305514" lon="12.4924208"><ele>606.0</ele><time>2026-04-28T10:39:13.724Z</time></trkpt><trkpt lat="43.305426" lon="12.4923738"><ele>605.3333333333334</ele><time>2026-04-28T10:39:15.723Z</time></trkpt><trkpt lat="43.3053353" lon="12.4923314"><ele>604.6666666666666</ele><time>2026-04-28T10:39:17.724Z</time></trkpt><trkpt lat="43.3052462" lon="12.4922818"><ele>604.0</ele><time>2026-04-28T10:39:19.724Z</time></trkpt><trkpt lat="43.3051625" lon="12.4922339"><ele>603.3333333333333</ele><time>2026-04-28T10:39:21.723Z</time></trkpt><trkpt lat="43.3050857" lon="12.4921945"><ele>602.6666666666666</ele><time>2026-04-28T10:39:23.724Z</time></trkpt><trkpt lat="43.3050139" lon="12.4921564"><ele>602.0</ele><time>2026-04-28T10:39:25.723Z</time></trkpt><trkpt lat="43.3049465" lon="12.4921194"><ele>602.0</ele><time>2026-04-28T10:39:27.724Z</time></trkpt><trkpt lat="43.3048781" lon="12.4920911"><ele>602.0</ele><time>2026-04-28T10:39:29.724Z</time></trkpt><trkpt lat="43.3048079" lon="12.4920707"><ele>602.0</ele><time>2026-04-28T10:39:31.724Z</time></trkpt><trkpt lat="43.3047367" lon="12.4920395"><ele>602.0</ele><time>2026-04-28T10:39:33.724Z</time></trkpt><trkpt lat="43.3046685" lon="12.491986"><ele>602.0</ele><time>2026-04-28T10:39:35.724Z</time></trkpt><trkpt lat="43.3045854" lon="12.4919019"><ele>602.0</ele><time>2026-04-28T10:39:37.724Z</time></trkpt><trkpt lat="43.3044963" lon="12.4917981"><ele>598.8000000000001</ele><time>2026-04-28T10:39:39.724Z</time></trkpt><trkpt lat="43.3044118" lon="12.4916825"><ele>595.6</ele><time>2026-04-28T10:39:41.724Z</time></trkpt><trkpt lat="43.3043303" lon="12.4915746"><ele>592.4000000000001</ele><time>2026-04-28T10:39:43.723Z</time></trkpt><trkpt lat="43.3042479" lon="12.4914828"><ele>589.2</ele><time>2026-04-28T10:39:45.724Z</time></trkpt><trkpt lat="43.3041557" lon="12.4914001"><ele>586.0</ele><time>2026-04-28T10:39:47.724Z</time></trkpt><trkpt lat="43.3040661" lon="12.4913169"><ele>586.0</ele><time>2026-04-28T10:39:49.724Z</time></trkpt><trkpt lat="43.3039862" lon="12.4912353"><ele>586.0</ele><time>2026-04-28T10:39:51.724Z</time></trkpt><trkpt lat="43.303882" lon="12.4912106"><ele>586.0</ele><time>2026-04-28T10:39:53.724Z</time></trkpt><trkpt lat="43.3038182" lon="12.4912153"><ele>586.0</ele><time>2026-04-28T10:39:54.724Z</time></trkpt><trkpt lat="43.3037554" lon="12.4912257"><ele>586.0</ele><time>2026-04-28T10:39:55.723Z</time></trkpt><trkpt lat="43.3036391" lon="12.4912408"><ele>586.0</ele><time>2026-04-28T10:39:57.723Z</time></trkpt><trkpt lat="43.3035756" lon="12.4912419"><ele>585.3333333333334</ele><time>2026-04-28T10:39:58.724Z</time></trkpt><trkpt lat="43.3035076" lon="12.4912368"><ele>584.6666666666667</ele><time>2026-04-28T10:39:59.723Z</time></trkpt><trkpt lat="43.3034402" lon="12.4912264"><ele>584.0</ele><time>2026-04-28T10:40:00.724Z</time></trkpt><trkpt lat="43.3033704" lon="12.4912141"><ele>583.3333333333334</ele><time>2026-04-28T10:40:01.724Z</time></trkpt><trkpt lat="43.3032929" lon="12.4912107"><ele>582.6666666666666</ele><time>2026-04-28T10:40:02.723Z</time></trkpt><trkpt lat="43.3032056" lon="12.4912261"><ele>582.0</ele><time>2026-04-28T10:40:03.724Z</time></trkpt><trkpt lat="43.3031122" lon="12.4912591"><ele>581.8000000000001</ele><time>2026-04-28T10:40:04.724Z</time></trkpt><trkpt lat="43.3030165" lon="12.4913002"><ele>581.6</ele><time>2026-04-28T10:40:05.724Z</time></trkpt><trkpt lat="43.3029266" lon="12.4913426"><ele>581.4000000000001</ele><time>2026-04-28T10:40:06.724Z</time></trkpt><trkpt lat="43.3028456" lon="12.4913816"><ele>581.2</ele><time>2026-04-28T10:40:07.724Z</time></trkpt><trkpt lat="43.3027668" lon="12.4914224"><ele>581.0</ele><time>2026-04-28T10:40:08.724Z</time></trkpt><trkpt lat="43.3026775" lon="12.4914668"><ele>581.0</ele><time>2026-04-28T10:40:09.724Z</time></trkpt><trkpt lat="43.3025853" lon="12.4915143"><ele>581.0</ele><time>2026-04-28T10:40:10.724Z</time></trkpt><trkpt lat="43.3025023" lon="12.4915578"><ele>581.0</ele><time>2026-04-28T10:40:11.723Z</time></trkpt><trkpt lat="43.3024262" lon="12.4915915"><ele>581.0</ele><time>2026-04-28T10:40:12.723Z</time></trkpt><trkpt lat="43.3023525" lon="12.4916123"><ele>581.0</ele><time>2026-04-28T10:40:13.723Z</time></trkpt><trkpt lat="43.3022738" lon="12.4916216"><ele>581.0</ele><time>2026-04-28T10:40:14.722Z</time></trkpt><trkpt lat="43.302186" lon="12.4916223"><ele>581.6666666666666</ele><time>2026-04-28T10:40:15.723Z</time></trkpt><trkpt lat="43.3021044" lon="12.4916284"><ele>582.3333333333333</ele><time>2026-04-28T10:40:16.722Z</time></trkpt><trkpt lat="43.3020358" lon="12.4916431"><ele>583.0</ele><time>2026-04-28T10:40:17.723Z</time></trkpt><trkpt lat="43.3019686" lon="12.4916594"><ele>583.6666666666666</ele><time>2026-04-28T10:40:18.723Z</time></trkpt><trkpt lat="43.301902" lon="12.4916664"><ele>584.3333333333334</ele><time>2026-04-28T10:40:19.723Z</time></trkpt><trkpt lat="43.3017976" lon="12.4916733"><ele>585.0</ele><time>2026-04-28T10:40:21.723Z</time></trkpt><trkpt lat="43.3017051" lon="12.4916642"><ele>585.0</ele><time>2026-04-28T10:40:23.723Z</time></trkpt><trkpt lat="43.301649" lon="12.4915862"><ele>585.0</ele><time>2026-04-28T10:40:25.722Z</time></trkpt><trkpt lat="43.3016395" lon="12.4914735"><ele>585.0</ele><time>2026-04-28T10:40:27.723Z</time></trkpt><trkpt lat="43.3016832" lon="12.4913609"><ele>585.0</ele><time>2026-04-28T10:40:29.722Z</time></trkpt><trkpt lat="43.3017037" lon="12.4912753"><ele>585.0</ele><time>2026-04-28T10:40:30.723Z</time></trkpt><trkpt lat="43.3017224" lon="12.4911666"><ele>585.0</ele><time>2026-04-28T10:40:31.723Z</time></trkpt><trkpt lat="43.3017388" lon="12.4910369"><ele>585.6</ele><time>2026-04-28T10:40:32.723Z</time></trkpt><trkpt lat="43.3017511" lon="12.4909004"><ele>586.2</ele><time>2026-04-28T10:40:33.723Z</time></trkpt><trkpt lat="43.30176" lon="12.4907687"><ele>586.8</ele><time>2026-04-28T10:40:34.723Z</time></trkpt><trkpt lat="43.3017662" lon="12.4906392"><ele>587.4</ele><time>2026-04-28T10:40:35.723Z</time></trkpt><trkpt lat="43.3017699" lon="12.4905176"><ele>588.0</ele><time>2026-04-28T10:40:36.722Z</time></trkpt><trkpt lat="43.3017708" lon="12.4904006"><ele>588.0</ele><time>2026-04-28T10:40:37.723Z</time></trkpt><trkpt lat="43.3017561" lon="12.4902878"><ele>588.0</ele><time>2026-04-28T10:40:38.723Z</time></trkpt><trkpt lat="43.301722" lon="12.490187"><ele>588.0</ele><time>2026-04-28T10:40:39.723Z</time></trkpt><trkpt lat="43.3016798" lon="12.4900948"><ele>588.0</ele><time>2026-04-28T10:40:40.722Z</time></trkpt><trkpt lat="43.3016352" lon="12.4900006"><ele>588.0</ele><time>2026-04-28T10:40:41.723Z</time></trkpt><trkpt lat="43.3015965" lon="12.4899067"><ele>588.0</ele><time>2026-04-28T10:40:42.722Z</time></trkpt><trkpt lat="43.3015758" lon="12.4898209"><ele>588.0</ele><time>2026-04-28T10:40:43.723Z</time></trkpt><trkpt lat="43.3015588" lon="12.4897289"><ele>588.0</ele><time>2026-04-28T10:40:44.723Z</time></trkpt><trkpt lat="43.3015418" lon="12.4896214"><ele>588.0</ele><time>2026-04-28T10:40:45.723Z</time></trkpt><trkpt lat="43.3015307" lon="12.4895068"><ele>588.0</ele><time>2026-04-28T10:40:46.723Z</time></trkpt><trkpt lat="43.3015237" lon="12.4893979"><ele>588.0</ele><time>2026-04-28T10:40:47.722Z</time></trkpt><trkpt lat="43.3015099" lon="12.4892845"><ele>588.0</ele><time>2026-04-28T10:40:48.723Z</time></trkpt><trkpt lat="43.3014866" lon="12.489172"><ele>589.1666666666666</ele><time>2026-04-28T10:40:49.723Z</time></trkpt><trkpt lat="43.3014641" lon="12.4890574"><ele>590.3333333333334</ele><time>2026-04-28T10:40:50.723Z</time></trkpt><trkpt lat="43.301449" lon="12.4889445"><ele>591.5</ele><time>2026-04-28T10:40:51.723Z</time></trkpt><trkpt lat="43.3014346" lon="12.4888315"><ele>592.6666666666667</ele><time>2026-04-28T10:40:52.723Z</time></trkpt><trkpt lat="43.3014154" lon="12.4887172"><ele>593.8333333333334</ele><time>2026-04-28T10:40:53.723Z</time></trkpt><trkpt lat="43.3013918" lon="12.4885942"><ele>595.0</ele><time>2026-04-28T10:40:54.723Z</time></trkpt><trkpt lat="43.3013703" lon="12.4884559"><ele>598.2</ele><time>2026-04-28T10:40:55.723Z</time></trkpt><trkpt lat="43.3013524" lon="12.4883229"><ele>601.4</ele><time>2026-04-28T10:40:56.722Z</time></trkpt><trkpt lat="43.301335" lon="12.4881888"><ele>604.6</ele><time>2026-04-28T10:40:57.723Z</time></trkpt><trkpt lat="43.3013144" lon="12.4880623"><ele>607.8</ele><time>2026-04-28T10:40:58.722Z</time></trkpt><trkpt lat="43.3012925" lon="12.4879426"><ele>611.0</ele><time>2026-04-28T10:40:59.723Z</time></trkpt><trkpt lat="43.3012588" lon="12.4878256"><ele>612.8</ele><time>2026-04-28T10:41:00.722Z</time></trkpt><trkpt lat="43.3012269" lon="12.4877115"><ele>614.6</ele><time>2026-04-28T10:41:01.723Z</time></trkpt><trkpt lat="43.3012001" lon="12.4875973"><ele>616.4</ele><time>2026-04-28T10:41:02.723Z</time></trkpt><trkpt lat="43.3011759" lon="12.4874787"><ele>618.2</ele><time>2026-04-28T10:41:03.723Z</time></trkpt><trkpt lat="43.3011547" lon="12.4873513"><ele>620.0</ele><time>2026-04-28T10:41:04.723Z</time></trkpt><trkpt lat="43.3011354" lon="12.4872103"><ele>621.4</ele><time>2026-04-28T10:41:05.723Z</time></trkpt><trkpt lat="43.301119" lon="12.4870537"><ele>622.8</ele><time>2026-04-28T10:41:06.723Z</time></trkpt><trkpt lat="43.3011099" lon="12.4869074"><ele>624.2</ele><time>2026-04-28T10:41:07.723Z</time></trkpt><trkpt lat="43.3011015" lon="12.4867703"><ele>625.6</ele><time>2026-04-28T10:41:08.722Z</time></trkpt><trkpt lat="43.3010933" lon="12.4866294"><ele>627.0</ele><time>2026-04-28T10:41:09.721Z</time></trkpt><trkpt lat="43.301086" lon="12.4864923"><ele>627.0</ele><time>2026-04-28T10:41:10.723Z</time></trkpt><trkpt lat="43.3010711" lon="12.4863699"><ele>627.0</ele><time>2026-04-28T10:41:11.723Z</time></trkpt><trkpt lat="43.3010467" lon="12.4862607"><ele>627.0</ele><time>2026-04-28T10:41:12.723Z</time></trkpt><trkpt lat="43.3010187" lon="12.4861747"><ele>627.0</ele><time>2026-04-28T10:41:13.723Z</time></trkpt><trkpt lat="43.3009717" lon="12.4860462"><ele>627.0</ele><time>2026-04-28T10:41:15.723Z</time></trkpt><trkpt lat="43.3009142" lon="12.4859895"><ele>627.0</ele><time>2026-04-28T10:41:17.723Z</time></trkpt><trkpt lat="43.3008102" lon="12.4859327"><ele>627.1666666666666</ele><time>2026-04-28T10:41:19.723Z</time></trkpt><trkpt lat="43.3007341" lon="12.4858612"><ele>627.3333333333334</ele><time>2026-04-28T10:41:21.723Z</time></trkpt><trkpt lat="43.300706" lon="12.4857748"><ele>627.5</ele><time>2026-04-28T10:41:31.722Z</time></trkpt><trkpt lat="43.3006936" lon="12.4856385"><ele>627.6666666666667</ele><time>2026-04-28T10:41:34.723Z</time></trkpt><trkpt lat="43.3006867" lon="12.4855437"><ele>627.8333333333334</ele><time>2026-04-28T10:41:36.723Z</time></trkpt><trkpt lat="43.3006774" lon="12.4854238"><ele>628.0</ele><time>2026-04-28T10:41:39.722Z</time></trkpt><trkpt lat="43.3006973" lon="12.4853377"><ele>628.0</ele><time>2026-04-28T10:41:41.723Z</time></trkpt><trkpt lat="43.3007314" lon="12.4852264"><ele>628.0</ele><time>2026-04-28T10:41:44.723Z</time></trkpt><trkpt lat="43.3007413" lon="12.4851112"><ele>628.0</ele><time>2026-04-28T10:41:47.723Z</time></trkpt><trkpt lat="43.3007508" lon="12.4850186"><ele>628.0</ele><time>2026-04-28T10:41:50.722Z</time></trkpt><trkpt lat="43.3007709" lon="12.4848992"><ele>628.0</ele><time>2026-04-28T10:41:53.722Z</time></trkpt><trkpt lat="43.3007803" lon="12.4847998"><ele>628.0</ele><time>2026-04-28T10:41:55.722Z</time></trkpt><trkpt lat="43.300789" lon="12.4846843"><ele>627.0</ele><time>2026-04-28T10:41:57.723Z</time></trkpt><trkpt lat="43.3008023" lon="12.4845772"><ele>626.0</ele><time>2026-04-28T10:41:59.723Z</time></trkpt><trkpt lat="43.3007848" lon="12.4844639"><ele>625.0</ele><time>2026-04-28T10:42:01.723Z</time></trkpt><trkpt lat="43.3007459" lon="12.4843561"><ele>624.0</ele><time>2026-04-28T10:42:03.723Z</time></trkpt><trkpt lat="43.3007337" lon="12.484254"><ele>623.0</ele><time>2026-04-28T10:42:05.723Z</time></trkpt><trkpt lat="43.3007654" lon="12.4841607"><ele>622.0</ele><time>2026-04-28T10:42:08.722Z</time></trkpt><trkpt lat="43.3008267" lon="12.4840827"><ele>622.0</ele><time>2026-04-28T10:42:38.723Z</time></trkpt><trkpt lat="43.300874" lon="12.4839799"><ele>622.0</ele><time>2026-04-28T10:42:40.722Z</time></trkpt><trkpt lat="43.3009395" lon="12.4838645"><ele>622.0</ele><time>2026-04-28T10:42:42.723Z</time></trkpt><trkpt lat="43.300982" lon="12.4837089"><ele>622.0</ele><time>2026-04-28T10:42:44.723Z</time></trkpt><trkpt lat="43.3009901" lon="12.4836068"><ele>622.0</ele><time>2026-04-28T10:42:45.723Z</time></trkpt><trkpt lat="43.3009955" lon="12.483496"><ele>623.6</ele><time>2026-04-28T10:42:46.723Z</time></trkpt><trkpt lat="43.3010035" lon="12.4833751"><ele>625.2</ele><time>2026-04-28T10:42:47.722Z</time></trkpt><trkpt lat="43.3010086" lon="12.4832411"><ele>626.8</ele><time>2026-04-28T10:42:48.723Z</time></trkpt><trkpt lat="43.3010069" lon="12.4830961"><ele>628.4</ele><time>2026-04-28T10:42:49.723Z</time></trkpt><trkpt lat="43.3010067" lon="12.482949"><ele>630.0</ele><time>2026-04-28T10:42:50.723Z</time></trkpt><trkpt lat="43.3010083" lon="12.4828067"><ele>631.4</ele><time>2026-04-28T10:42:51.723Z</time></trkpt><trkpt lat="43.3010078" lon="12.4826777"><ele>632.8</ele><time>2026-04-28T10:42:52.723Z</time></trkpt><trkpt lat="43.3010051" lon="12.4825656"><ele>634.2</ele><time>2026-04-28T10:42:53.723Z</time></trkpt><trkpt lat="43.3009904" lon="12.4824305"><ele>635.6</ele><time>2026-04-28T10:42:55.722Z</time></trkpt><trkpt lat="43.3009674" lon="12.4823015"><ele>637.0</ele><time>2026-04-28T10:42:58.723Z</time></trkpt><trkpt lat="43.3009291" lon="12.4822015"><ele>636.5</ele><time>2026-04-28T10:43:00.722Z</time></trkpt><trkpt lat="43.3008732" lon="12.4820471"><ele>636.0</ele><time>2026-04-28T10:43:02.723Z</time></trkpt><trkpt lat="43.3008488" lon="12.4819558"><ele>635.5</ele><time>2026-04-28T10:43:03.722Z</time></trkpt><trkpt lat="43.3008351" lon="12.4818522"><ele>635.0</ele><time>2026-04-28T10:43:04.722Z</time></trkpt><trkpt lat="43.3008328" lon="12.4817358"><ele>634.5</ele><time>2026-04-28T10:43:05.723Z</time></trkpt><trkpt lat="43.3008417" lon="12.481622"><ele>634.0</ele><time>2026-04-28T10:43:06.722Z</time></trkpt><trkpt lat="43.3008491" lon="12.4815266"><ele>634.0</ele><time>2026-04-28T10:43:07.723Z</time></trkpt><trkpt lat="43.3008628" lon="12.481385"><ele>634.0</ele><time>2026-04-28T10:43:09.723Z</time></trkpt><trkpt lat="43.3008917" lon="12.4812851"><ele>634.0</ele><time>2026-04-28T10:43:11.723Z</time></trkpt><trkpt lat="43.3009193" lon="12.4811746"><ele>634.0</ele><time>2026-04-28T10:43:14.723Z</time></trkpt><trkpt lat="43.300961" lon="12.4810714"><ele>634.0</ele><time>2026-04-28T10:45:33.722Z</time></trkpt><trkpt lat="43.3009847" lon="12.4809829"><ele>634.0</ele><time>2026-04-28T10:45:35.721Z</time></trkpt><trkpt lat="43.3010128" lon="12.480888"><ele>635.0</ele><time>2026-04-28T10:45:37.721Z</time></trkpt><trkpt lat="43.3010372" lon="12.4807873"><ele>636.0</ele><time>2026-04-28T10:45:39.722Z</time></trkpt><trkpt lat="43.3010655" lon="12.4807013"><ele>637.0</ele><time>2026-04-28T10:45:41.722Z</time></trkpt><trkpt lat="43.3010834" lon="12.4805526"><ele>638.0</ele><time>2026-04-28T10:45:43.722Z</time></trkpt><trkpt lat="43.3010874" lon="12.4804596"><ele>639.0</ele><time>2026-04-28T10:45:44.722Z</time></trkpt><trkpt lat="43.3010962" lon="12.4803596"><ele>640.0</ele><time>2026-04-28T10:45:45.722Z</time></trkpt><trkpt lat="43.3011114" lon="12.480254"><ele>640.5</ele><time>2026-04-28T10:45:46.722Z</time></trkpt><trkpt lat="43.3011221" lon="12.4801444"><ele>641.0</ele><time>2026-04-28T10:45:47.722Z</time></trkpt><trkpt lat="43.3011266" lon="12.4800395"><ele>641.5</ele><time>2026-04-28T10:45:48.722Z</time></trkpt><trkpt lat="43.3011329" lon="12.4799421"><ele>642.0</ele><time>2026-04-28T10:45:49.721Z</time></trkpt><trkpt lat="43.3011321" lon="12.4798525"><ele>642.5</ele><time>2026-04-28T10:45:50.722Z</time></trkpt><trkpt lat="43.3011225" lon="12.4797028"><ele>643.0</ele><time>2026-04-28T10:45:52.722Z</time></trkpt><trkpt lat="43.3011209" lon="12.4795771"><ele>641.1999999999999</ele><time>2026-04-28T10:45:54.722Z</time></trkpt><trkpt lat="43.3011315" lon="12.479454"><ele>639.4</ele><time>2026-04-28T10:45:56.721Z</time></trkpt><trkpt lat="43.3011062" lon="12.4793205"><ele>637.5999999999999</ele><time>2026-04-28T10:45:58.722Z</time></trkpt><trkpt lat="43.3010406" lon="12.4791661"><ele>635.8</ele><time>2026-04-28T10:46:00.722Z</time></trkpt><trkpt lat="43.3009919" lon="12.4790822"><ele>634.0</ele><time>2026-04-28T10:46:01.722Z</time></trkpt><trkpt lat="43.3009424" lon="12.4789957"><ele>634.0</ele><time>2026-04-28T10:46:02.721Z</time></trkpt><trkpt lat="43.3008922" lon="12.4789009"><ele>634.0</ele><time>2026-04-28T10:46:03.722Z</time></trkpt><trkpt lat="43.3008436" lon="12.4788051"><ele>634.0</ele><time>2026-04-28T10:46:04.721Z</time></trkpt><trkpt lat="43.3008003" lon="12.4787185"><ele>634.0</ele><time>2026-04-28T10:46:05.722Z</time></trkpt><trkpt lat="43.3007578" lon="12.4786356"><ele>634.0</ele><time>2026-04-28T10:46:06.722Z</time></trkpt><trkpt lat="43.3007135" lon="12.4785535"><ele>634.0</ele><time>2026-04-28T10:46:07.722Z</time></trkpt><trkpt lat="43.300669" lon="12.4784774"><ele>634.4285714285714</ele><time>2026-04-28T10:46:08.722Z</time></trkpt><trkpt lat="43.3006247" lon="12.4784112"><ele>634.8571428571429</ele><time>2026-04-28T10:46:09.722Z</time></trkpt><trkpt lat="43.3005786" lon="12.4783447"><ele>635.2857142857142</ele><time>2026-04-28T10:46:10.722Z</time></trkpt><trkpt lat="43.3005234" lon="12.4782786"><ele>635.7142857142858</ele><time>2026-04-28T10:46:11.722Z</time></trkpt><trkpt lat="43.3004606" lon="12.478219"><ele>636.1428571428571</ele><time>2026-04-28T10:46:12.722Z</time></trkpt><trkpt lat="43.3003989" lon="12.4781709"><ele>636.5714285714286</ele><time>2026-04-28T10:46:13.721Z</time></trkpt><trkpt lat="43.3003409" lon="12.4781258"><ele>637.0</ele><time>2026-04-28T10:46:14.721Z</time></trkpt><trkpt lat="43.3002858" lon="12.4780836"><ele>637.0</ele><time>2026-04-28T10:46:15.722Z</time></trkpt><trkpt lat="43.3002287" lon="12.4780438"><ele>637.0</ele><time>2026-04-28T10:46:16.722Z</time></trkpt><trkpt lat="43.3001716" lon="12.4779995"><ele>637.0</ele><time>2026-04-28T10:46:17.721Z</time></trkpt><trkpt lat="43.3001212" lon="12.4779456"><ele>637.0</ele><time>2026-04-28T10:46:18.722Z</time></trkpt><trkpt lat="43.3000795" lon="12.477874"><ele>637.0</ele><time>2026-04-28T10:46:19.722Z</time></trkpt><trkpt lat="43.3000446" lon="12.4777866"><ele>637.0</ele><time>2026-04-28T10:46:20.722Z</time></trkpt><trkpt lat="43.3000184" lon="12.4776777"><ele>637.0</ele><time>2026-04-28T10:46:21.722Z</time></trkpt><trkpt lat="43.2999932" lon="12.4775627"><ele>634.6666666666667</ele><time>2026-04-28T10:46:22.721Z</time></trkpt><trkpt lat="43.2999707" lon="12.4774603"><ele>632.3333333333334</ele><time>2026-04-28T10:46:23.722Z</time></trkpt><trkpt lat="43.2999429" lon="12.4773648"><ele>630.0</ele><time>2026-04-28T10:46:24.722Z</time></trkpt><trkpt lat="43.2999024" lon="12.4772841"><ele>627.6666666666666</ele><time>2026-04-28T10:46:25.721Z</time></trkpt><trkpt lat="43.299855" lon="12.4772224"><ele>625.3333333333333</ele><time>2026-04-28T10:46:26.722Z</time></trkpt><trkpt lat="43.2997978" lon="12.4771731"><ele>623.0</ele><time>2026-04-28T10:46:27.722Z</time></trkpt><trkpt lat="43.2996967" lon="12.4771032"><ele>629.0</ele><time>2026-04-28T10:46:29.721Z</time></trkpt><trkpt lat="43.2996142" lon="12.4770304"><ele>635.0</ele><time>2026-04-28T10:46:31.721Z</time></trkpt><trkpt lat="43.2995775" lon="12.4769091"><ele>641.0</ele><time>2026-04-28T10:46:33.722Z</time></trkpt><trkpt lat="43.2996009" lon="12.4767762"><ele>647.0</ele><time>2026-04-28T10:46:35.722Z</time></trkpt><trkpt lat="43.2996689" lon="12.4766388"><ele>653.0</ele><time>2026-04-28T10:46:37.722Z</time></trkpt><trkpt lat="43.2997138" lon="12.476506"><ele>653.0</ele><time>2026-04-28T10:46:39.722Z</time></trkpt><trkpt lat="43.2997111" lon="12.4763338"><ele>653.0</ele><time>2026-04-28T10:46:41.722Z</time></trkpt><trkpt lat="43.2997035" lon="12.4762329"><ele>653.0</ele><time>2026-04-28T10:46:42.722Z</time></trkpt><trkpt lat="43.2996926" lon="12.4761333"><ele>653.0</ele><time>2026-04-28T10:46:43.722Z</time></trkpt><trkpt lat="43.299677" lon="12.4760392"><ele>653.0</ele><time>2026-04-28T10:46:44.722Z</time></trkpt><trkpt lat="43.2996551" lon="12.4759511"><ele>653.0</ele><time>2026-04-28T10:46:45.722Z</time></trkpt><trkpt lat="43.2996212" lon="12.4758575"><ele>649.0</ele><time>2026-04-28T10:46:46.722Z</time></trkpt><trkpt lat="43.2995771" lon="12.4757639"><ele>645.0</ele><time>2026-04-28T10:46:47.722Z</time></trkpt><trkpt lat="43.2995225" lon="12.4756745"><ele>641.0</ele><time>2026-04-28T10:46:48.722Z</time></trkpt><trkpt lat="43.2994563" lon="12.4755896"><ele>637.0</ele><time>2026-04-28T10:46:49.721Z</time></trkpt><trkpt lat="43.299385" lon="12.4755138"><ele>633.0</ele><time>2026-04-28T10:46:50.721Z</time></trkpt><trkpt lat="43.2993168" lon="12.4754446"><ele>629.0</ele><time>2026-04-28T10:46:51.722Z</time></trkpt><trkpt lat="43.2992572" lon="12.4753874"><ele>628.6666666666666</ele><time>2026-04-28T10:46:52.722Z</time></trkpt><trkpt lat="43.2991445" lon="12.475319"><ele>628.3333333333333</ele><time>2026-04-28T10:46:54.722Z</time></trkpt><trkpt lat="43.2990758" lon="12.4753047"><ele>628.0</ele><time>2026-04-28T10:46:55.721Z</time></trkpt><trkpt lat="43.2990026" lon="12.4752974"><ele>627.6666666666666</ele><time>2026-04-28T10:46:56.721Z</time></trkpt><trkpt lat="43.2989309" lon="12.4752775"><ele>627.3333333333334</ele><time>2026-04-28T10:46:57.722Z</time></trkpt><trkpt lat="43.2988667" lon="12.4752321"><ele>627.0</ele><time>2026-04-28T10:46:58.722Z</time></trkpt><trkpt lat="43.2988037" lon="12.4751782"><ele>627.0</ele><time>2026-04-28T10:46:59.721Z</time></trkpt><trkpt lat="43.2987374" lon="12.4751449"><ele>627.0</ele><time>2026-04-28T10:47:00.721Z</time></trkpt><trkpt lat="43.2986683" lon="12.4751339"><ele>627.0</ele><time>2026-04-28T10:47:01.721Z</time></trkpt><trkpt lat="43.2985941" lon="12.4751301"><ele>627.0</ele><time>2026-04-28T10:47:02.722Z</time></trkpt><trkpt lat="43.2985149" lon="12.4751248"><ele>627.0</ele><time>2026-04-28T10:47:03.722Z</time></trkpt><trkpt lat="43.2984442" lon="12.475119"><ele>627.0</ele><time>2026-04-28T10:47:04.721Z</time></trkpt><trkpt lat="43.2983624" lon="12.4750573"><ele>627.0</ele><time>2026-04-28T10:47:06.722Z</time></trkpt><trkpt lat="43.2983145" lon="12.4749322"><ele>627.0</ele><time>2026-04-28T10:47:08.722Z</time></trkpt><trkpt lat="43.2982947" lon="12.4748363"><ele>627.0</ele><time>2026-04-28T10:47:09.722Z</time></trkpt><trkpt lat="43.2982767" lon="12.4747301"><ele>627.0</ele><time>2026-04-28T10:47:10.722Z</time></trkpt><trkpt lat="43.2982568" lon="12.4746115"><ele>627.0</ele><time>2026-04-28T10:47:11.722Z</time></trkpt><trkpt lat="43.2982289" lon="12.4744893"><ele>627.0</ele><time>2026-04-28T10:47:12.722Z</time></trkpt><trkpt lat="43.298197" lon="12.4743561"><ele>627.2</ele><time>2026-04-28T10:47:13.721Z</time></trkpt><trkpt lat="43.2981606" lon="12.4742146"><ele>627.4000000000001</ele><time>2026-04-28T10:47:14.721Z</time></trkpt><trkpt lat="43.2981288" lon="12.474076"><ele>627.5999999999999</ele><time>2026-04-28T10:47:15.721Z</time></trkpt><trkpt lat="43.2981003" lon="12.4739421"><ele>627.8</ele><time>2026-04-28T10:47:16.722Z</time></trkpt><trkpt lat="43.2980749" lon="12.4738164"><ele>628.0</ele><time>2026-04-28T10:47:17.722Z</time></trkpt><trkpt lat="43.2980566" lon="12.4736842"><ele>631.5999999999999</ele><time>2026-04-28T10:47:18.722Z</time></trkpt><trkpt lat="43.2980437" lon="12.4735608"><ele>635.1999999999999</ele><time>2026-04-28T10:47:19.722Z</time></trkpt><trkpt lat="43.2980258" lon="12.4734356"><ele>638.8</ele><time>2026-04-28T10:47:20.721Z</time></trkpt><trkpt lat="43.2980084" lon="12.4733065"><ele>642.4</ele><time>2026-04-28T10:47:21.722Z</time></trkpt><trkpt lat="43.2979916" lon="12.4731813"><ele>646.0</ele><time>2026-04-28T10:47:22.722Z</time></trkpt><trkpt lat="43.2979732" lon="12.473054"><ele>647.0</ele><time>2026-04-28T10:47:23.722Z</time></trkpt><trkpt lat="43.2979646" lon="12.4729229"><ele>648.0</ele><time>2026-04-28T10:47:24.721Z</time></trkpt><trkpt lat="43.2979687" lon="12.4727876"><ele>649.0</ele><time>2026-04-28T10:47:25.722Z</time></trkpt><trkpt lat="43.2979758" lon="12.4726424"><ele>650.0</ele><time>2026-04-28T10:47:26.722Z</time></trkpt><trkpt lat="43.297983" lon="12.4724976"><ele>651.0</ele><time>2026-04-28T10:47:27.722Z</time></trkpt><trkpt lat="43.2979825" lon="12.4723473"><ele>651.0</ele><time>2026-04-28T10:47:28.722Z</time></trkpt><trkpt lat="43.2979759" lon="12.4721912"><ele>651.0</ele><time>2026-04-28T10:47:29.721Z</time></trkpt><trkpt lat="43.2979671" lon="12.4720397"><ele>651.0</ele><time>2026-04-28T10:47:30.721Z</time></trkpt><trkpt lat="43.2979582" lon="12.4719058"><ele>651.0</ele><time>2026-04-28T10:47:31.721Z</time></trkpt><trkpt lat="43.2979602" lon="12.4718091"><ele>651.0</ele><time>2026-04-28T10:47:32.72Z</time></trkpt><trkpt lat="43.2979961" lon="12.4716617"><ele>652.1999999999999</ele><time>2026-04-28T10:47:34.722Z</time></trkpt><trkpt lat="43.2980189" lon="12.471512"><ele>653.4</ele><time>2026-04-28T10:47:36.721Z</time></trkpt><trkpt lat="43.298025" lon="12.4713438"><ele>654.6</ele><time>2026-04-28T10:47:38.722Z</time></trkpt><trkpt lat="43.2980063" lon="12.4711838"><ele>655.8</ele><time>2026-04-28T10:47:40.722Z</time></trkpt><trkpt lat="43.2979548" lon="12.4710885"><ele>657.0</ele><time>2026-04-28T10:47:42.722Z</time></trkpt><trkpt lat="43.2978779" lon="12.4710963"><ele>657.0</ele><time>2026-04-28T10:47:45.722Z</time></trkpt><trkpt lat="43.2978267" lon="12.4711867"><ele>657.0</ele><time>2026-04-28T10:47:47.721Z</time></trkpt><trkpt lat="43.2978014" lon="12.4712685"><ele>657.0</ele><time>2026-04-28T10:47:48.722Z</time></trkpt><trkpt lat="43.2977702" lon="12.4713471"><ele>657.0</ele><time>2026-04-28T10:47:49.721Z</time></trkpt><trkpt lat="43.2977316" lon="12.4714315"><ele>657.0</ele><time>2026-04-28T10:47:50.722Z</time></trkpt><trkpt lat="43.2976909" lon="12.4714975"><ele>657.0</ele><time>2026-04-28T10:47:51.722Z</time></trkpt><trkpt lat="43.297592" lon="12.471593"><ele>657.0</ele><time>2026-04-28T10:47:53.722Z</time></trkpt><trkpt lat="43.2975297" lon="12.471615"><ele>657.0</ele><time>2026-04-28T10:47:54.721Z</time></trkpt><trkpt lat="43.2974569" lon="12.4716295"><ele>657.0</ele><time>2026-04-28T10:47:55.722Z</time></trkpt><trkpt lat="43.297377" lon="12.4716368"><ele>657.0</ele><time>2026-04-28T10:47:56.722Z</time></trkpt><trkpt lat="43.2973025" lon="12.4716392"><ele>657.0</ele><time>2026-04-28T10:47:57.721Z</time></trkpt><trkpt lat="43.2972363" lon="12.4716328"><ele>657.0</ele><time>2026-04-28T10:47:58.722Z</time></trkpt><trkpt lat="43.2971289" lon="12.4715701"><ele>662.2</ele><time>2026-04-28T10:48:00.721Z</time></trkpt><trkpt lat="43.2970728" lon="12.4714254"><ele>667.4000000000001</ele><time>2026-04-28T10:48:02.722Z</time></trkpt><trkpt lat="43.297053" lon="12.4713281"><ele>672.5999999999999</ele><time>2026-04-28T10:48:03.722Z</time></trkpt><trkpt lat="43.2970511" lon="12.4712121"><ele>677.8</ele><time>2026-04-28T10:48:04.721Z</time></trkpt><trkpt lat="43.2970616" lon="12.4710897"><ele>683.0</ele><time>2026-04-28T10:48:05.721Z</time></trkpt><trkpt lat="43.2970873" lon="12.4709519"><ele>683.0</ele><time>2026-04-28T10:48:06.722Z</time></trkpt><trkpt lat="43.2971218" lon="12.4707924"><ele>683.0</ele><time>2026-04-28T10:48:07.722Z</time></trkpt><trkpt lat="43.2971628" lon="12.4706226"><ele>683.0</ele><time>2026-04-28T10:48:08.722Z</time></trkpt><trkpt lat="43.2971969" lon="12.4704726"><ele>683.0</ele><time>2026-04-28T10:48:09.722Z</time></trkpt><trkpt lat="43.2972372" lon="12.4703538"><ele>682.1666666666666</ele><time>2026-04-28T10:48:10.721Z</time></trkpt><trkpt lat="43.2972653" lon="12.4702518"><ele>681.3333333333333</ele><time>2026-04-28T10:48:11.721Z</time></trkpt><trkpt lat="43.2972783" lon="12.4701518"><ele>680.5</ele><time>2026-04-28T10:48:12.721Z</time></trkpt><trkpt lat="43.2972769" lon="12.4700458"><ele>679.6666666666666</ele><time>2026-04-28T10:48:13.721Z</time></trkpt><trkpt lat="43.2972611" lon="12.4699332"><ele>678.8333333333334</ele><time>2026-04-28T10:48:14.721Z</time></trkpt><trkpt lat="43.2972325" lon="12.4698194"><ele>678.0</ele><time>2026-04-28T10:48:15.721Z</time></trkpt><trkpt lat="43.297208" lon="12.4697152"><ele>678.0</ele><time>2026-04-28T10:48:16.72Z</time></trkpt><trkpt lat="43.2971812" lon="12.4696159"><ele>678.0</ele><time>2026-04-28T10:48:17.721Z</time></trkpt><trkpt lat="43.2971125" lon="12.469465"><ele>678.0</ele><time>2026-04-28T10:48:19.721Z</time></trkpt><trkpt lat="43.297061" lon="12.4693812"><ele>678.0</ele><time>2026-04-28T10:48:20.721Z</time></trkpt><trkpt lat="43.2970104" lon="12.4692974"><ele>678.0</ele><time>2026-04-28T10:48:21.721Z</time></trkpt><trkpt lat="43.2969721" lon="12.4692281"><ele>678.0</ele><time>2026-04-28T10:48:22.721Z</time></trkpt><trkpt lat="43.2969132" lon="12.4691179"><ele>676.4</ele><time>2026-04-28T10:48:24.721Z</time></trkpt><trkpt lat="43.296894" lon="12.4689838"><ele>674.8</ele><time>2026-04-28T10:48:27.721Z</time></trkpt><trkpt lat="43.2969498" lon="12.4688435"><ele>673.2</ele><time>2026-04-28T10:48:29.721Z</time></trkpt><trkpt lat="43.2969869" lon="12.4687687"><ele>671.6</ele><time>2026-04-28T10:48:30.72Z</time></trkpt><trkpt lat="43.2970225" lon="12.4686943"><ele>670.0</ele><time>2026-04-28T10:48:31.721Z</time></trkpt><trkpt lat="43.2970872" lon="12.4685475"><ele>669.6666666666667</ele><time>2026-04-28T10:48:33.72Z</time></trkpt><trkpt lat="43.2971198" lon="12.4684638"><ele>669.3333333333334</ele><time>2026-04-28T10:48:34.72Z</time></trkpt><trkpt lat="43.2971546" lon="12.4683729"><ele>669.0</ele><time>2026-04-28T10:48:35.721Z</time></trkpt><trkpt lat="43.2971868" lon="12.468285"><ele>668.6666666666666</ele><time>2026-04-28T10:48:36.721Z</time></trkpt><trkpt lat="43.2972154" lon="12.4682"><ele>668.3333333333333</ele><time>2026-04-28T10:48:37.72Z</time></trkpt><trkpt lat="43.2972419" lon="12.4681206"><ele>668.0</ele><time>2026-04-28T10:48:38.721Z</time></trkpt><trkpt lat="43.2972882" lon="12.4679696"><ele>666.8333333333333</ele><time>2026-04-28T10:48:40.72Z</time></trkpt><trkpt lat="43.2973013" lon="12.4678843"><ele>665.6666666666666</ele><time>2026-04-28T10:48:41.721Z</time></trkpt><trkpt lat="43.2973095" lon="12.4677774"><ele>664.5</ele><time>2026-04-28T10:48:42.721Z</time></trkpt><trkpt lat="43.2973073" lon="12.4676623"><ele>663.3333333333334</ele><time>2026-04-28T10:48:43.721Z</time></trkpt><trkpt lat="43.2972932" lon="12.4675473"><ele>662.1666666666667</ele><time>2026-04-28T10:48:44.721Z</time></trkpt><trkpt lat="43.2972759" lon="12.4674268"><ele>661.0</ele><time>2026-04-28T10:48:45.721Z</time></trkpt><trkpt lat="43.2972572" lon="12.4673086"><ele>660.5714285714286</ele><time>2026-04-28T10:48:46.72Z</time></trkpt><trkpt lat="43.2972431" lon="12.4671968"><ele>660.1428571428571</ele><time>2026-04-28T10:48:47.72Z</time></trkpt><trkpt lat="43.297237" lon="12.4670954"><ele>659.7142857142858</ele><time>2026-04-28T10:48:48.72Z</time></trkpt><trkpt lat="43.2972405" lon="12.4669989"><ele>659.2857142857142</ele><time>2026-04-28T10:48:49.721Z</time></trkpt><trkpt lat="43.2972647" lon="12.4669108"><ele>658.8571428571429</ele><time>2026-04-28T10:48:50.72Z</time></trkpt><trkpt lat="43.2973022" lon="12.4668308"><ele>658.4285714285714</ele><time>2026-04-28T10:48:51.72Z</time></trkpt><trkpt lat="43.2973533" lon="12.4667516"><ele>658.0</ele><time>2026-04-28T10:48:52.721Z</time></trkpt><trkpt lat="43.2974152" lon="12.466666"><ele>658.0</ele><time>2026-04-28T10:48:53.721Z</time></trkpt><trkpt lat="43.2974852" lon="12.4665672"><ele>658.0</ele><time>2026-04-28T10:48:54.721Z</time></trkpt><trkpt lat="43.2975601" lon="12.4664683"><ele>658.0</ele><time>2026-04-28T10:48:55.721Z</time></trkpt><trkpt lat="43.2976364" lon="12.4663784"><ele>658.0</ele><time>2026-04-28T10:48:56.721Z</time></trkpt><trkpt lat="43.2977178" lon="12.4662911"><ele>658.0</ele><time>2026-04-28T10:48:57.72Z</time></trkpt><trkpt lat="43.2978018" lon="12.4662167"><ele>656.2</ele><time>2026-04-28T10:48:58.721Z</time></trkpt><trkpt lat="43.2978884" lon="12.4661606"><ele>654.4</ele><time>2026-04-28T10:48:59.721Z</time></trkpt><trkpt lat="43.2979776" lon="12.4661174"><ele>652.6</ele><time>2026-04-28T10:49:00.721Z</time></trkpt><trkpt lat="43.2980685" lon="12.4660817"><ele>650.8000000000001</ele><time>2026-04-28T10:49:01.721Z</time></trkpt><trkpt lat="43.2981647" lon="12.4660403"><ele>649.0</ele><time>2026-04-28T10:49:02.72Z</time></trkpt><trkpt lat="43.2982634" lon="12.4659963"><ele>648.6</ele><time>2026-04-28T10:49:03.721Z</time></trkpt><trkpt lat="43.2983641" lon="12.4659464"><ele>648.2</ele><time>2026-04-28T10:49:04.721Z</time></trkpt><trkpt lat="43.298466" lon="12.4658925"><ele>647.8000000000001</ele><time>2026-04-28T10:49:05.721Z</time></trkpt><trkpt lat="43.2985692" lon="12.4658345"><ele>647.4000000000001</ele><time>2026-04-28T10:49:06.72Z</time></trkpt><trkpt lat="43.2986696" lon="12.465775"><ele>647.0</ele><time>2026-04-28T10:49:07.721Z</time></trkpt><trkpt lat="43.2987691" lon="12.4657207"><ele>647.0</ele><time>2026-04-28T10:49:08.721Z</time></trkpt><trkpt lat="43.2988664" lon="12.4656747"><ele>647.0</ele><time>2026-04-28T10:49:09.72Z</time></trkpt><trkpt lat="43.298971" lon="12.4656405"><ele>647.0</ele><time>2026-04-28T10:49:10.721Z</time></trkpt><trkpt lat="43.2990839" lon="12.4656275"><ele>647.0</ele><time>2026-04-28T10:49:11.721Z</time></trkpt><trkpt lat="43.2991982" lon="12.4656342"><ele>647.0</ele><time>2026-04-28T10:49:12.721Z</time></trkpt><trkpt lat="43.2993118" lon="12.4656591"><ele>648.0</ele><time>2026-04-28T10:49:13.72Z</time></trkpt><trkpt lat="43.2994147" lon="12.4657017"><ele>649.0</ele><time>2026-04-28T10:49:14.721Z</time></trkpt><trkpt lat="43.2995015" lon="12.4657847"><ele>650.0</ele><time>2026-04-28T10:49:15.721Z</time></trkpt><trkpt lat="43.299578" lon="12.4658821"><ele>651.0</ele><time>2026-04-28T10:49:16.72Z</time></trkpt><trkpt lat="43.2996456" lon="12.4659595"><ele>652.0</ele><time>2026-04-28T10:49:17.721Z</time></trkpt><trkpt lat="43.2997149" lon="12.4660176"><ele>653.3333333333334</ele><time>2026-04-28T10:49:18.721Z</time></trkpt><trkpt lat="43.2997896" lon="12.4660582"><ele>654.6666666666667</ele><time>2026-04-28T10:49:19.72Z</time></trkpt><trkpt lat="43.2998707" lon="12.4660885"><ele>656.0</ele><time>2026-04-28T10:49:20.721Z</time></trkpt><trkpt lat="43.2999577" lon="12.4660963"><ele>657.3333333333334</ele><time>2026-04-28T10:49:21.721Z</time></trkpt><trkpt lat="43.3000475" lon="12.4660902"><ele>658.6666666666666</ele><time>2026-04-28T10:49:22.72Z</time></trkpt><trkpt lat="43.3001373" lon="12.4660731"><ele>660.0</ele><time>2026-04-28T10:49:23.721Z</time></trkpt><trkpt lat="43.3002178" lon="12.466045"><ele>660.0</ele><time>2026-04-28T10:49:24.721Z</time></trkpt><trkpt lat="43.3002925" lon="12.4659974"><ele>660.0</ele><time>2026-04-28T10:49:25.721Z</time></trkpt><trkpt lat="43.3003642" lon="12.4659283"><ele>660.0</ele><time>2026-04-28T10:49:26.721Z</time></trkpt><trkpt lat="43.3004312" lon="12.4658434"><ele>660.0</ele><time>2026-04-28T10:49:27.721Z</time></trkpt><trkpt lat="43.3004997" lon="12.4657432"><ele>660.0</ele><time>2026-04-28T10:49:28.721Z</time></trkpt><trkpt lat="43.3005711" lon="12.4656354"><ele>660.4</ele><time>2026-04-28T10:49:29.721Z</time></trkpt><trkpt lat="43.3006319" lon="12.4655303"><ele>660.8</ele><time>2026-04-28T10:49:30.721Z</time></trkpt><trkpt lat="43.3006799" lon="12.4654436"><ele>661.2</ele><time>2026-04-28T10:49:31.721Z</time></trkpt><trkpt lat="43.3007443" lon="12.4653271"><ele>661.6</ele><time>2026-04-28T10:49:33.72Z</time></trkpt><trkpt lat="43.3008039" lon="12.4652154"><ele>662.0</ele><time>2026-04-28T10:49:50.721Z</time></trkpt><trkpt lat="43.3008402" lon="12.465136"><ele>662.5</ele><time>2026-04-28T10:49:51.721Z</time></trkpt><trkpt lat="43.3008754" lon="12.4650562"><ele>663.0</ele><time>2026-04-28T10:49:52.721Z</time></trkpt><trkpt lat="43.3009088" lon="12.4649573"><ele>663.5</ele><time>2026-04-28T10:49:53.721Z</time></trkpt><trkpt lat="43.3009372" lon="12.4648391"><ele>664.0</ele><time>2026-04-28T10:49:54.72Z</time></trkpt><trkpt lat="43.3009561" lon="12.464715"><ele>664.5</ele><time>2026-04-28T10:49:55.72Z</time></trkpt><trkpt lat="43.3009668" lon="12.4645815"><ele>665.0</ele><time>2026-04-28T10:49:56.72Z</time></trkpt><trkpt lat="43.3009683" lon="12.464451"><ele>665.6666666666666</ele><time>2026-04-28T10:49:57.719Z</time></trkpt><trkpt lat="43.3009597" lon="12.4643308"><ele>666.3333333333333</ele><time>2026-04-28T10:49:58.721Z</time></trkpt><trkpt lat="43.3009403" lon="12.464216"><ele>667.0</ele><time>2026-04-28T10:49:59.72Z</time></trkpt><trkpt lat="43.3009105" lon="12.464116"><ele>667.6666666666666</ele><time>2026-04-28T10:50:00.721Z</time></trkpt><trkpt lat="43.3008697" lon="12.4640209"><ele>668.3333333333334</ele><time>2026-04-28T10:50:01.721Z</time></trkpt><trkpt lat="43.3008109" lon="12.4639387"><ele>669.0</ele><time>2026-04-28T10:50:02.721Z</time></trkpt><trkpt lat="43.3007398" lon="12.4638688"><ele>669.0</ele><time>2026-04-28T10:50:03.721Z</time></trkpt><trkpt lat="43.3006647" lon="12.4638019"><ele>669.0</ele><time>2026-04-28T10:50:04.721Z</time></trkpt><trkpt lat="43.3006011" lon="12.4637329"><ele>669.0</ele><time>2026-04-28T10:50:05.72Z</time></trkpt><trkpt lat="43.3005541" lon="12.4636536"><ele>669.0</ele><time>2026-04-28T10:50:06.721Z</time></trkpt><trkpt lat="43.3005265" lon="12.4635685"><ele>669.0</ele><time>2026-04-28T10:50:07.72Z</time></trkpt><trkpt lat="43.3005135" lon="12.4634794"><ele>669.0</ele><time>2026-04-28T10:50:08.721Z</time></trkpt><trkpt lat="43.3005201" lon="12.4633854"><ele>669.0</ele><time>2026-04-28T10:50:09.721Z</time></trkpt><trkpt lat="43.3005397" lon="12.4632868"><ele>669.1666666666666</ele><time>2026-04-28T10:50:10.72Z</time></trkpt><trkpt lat="43.3005763" lon="12.4631767"><ele>669.3333333333334</ele><time>2026-04-28T10:50:11.72Z</time></trkpt><trkpt lat="43.3006166" lon="12.46306"><ele>669.5</ele><time>2026-04-28T10:50:12.721Z</time></trkpt><trkpt lat="43.3006573" lon="12.4629448"><ele>669.6666666666667</ele><time>2026-04-28T10:50:13.721Z</time></trkpt><trkpt lat="43.300695" lon="12.4628352"><ele>669.8333333333334</ele><time>2026-04-28T10:50:14.72Z</time></trkpt><trkpt lat="43.3007264" lon="12.4627284"><ele>670.0</ele><time>2026-04-28T10:50:15.72Z</time></trkpt><trkpt lat="43.3007485" lon="12.4626222"><ele>670.0</ele><time>2026-04-28T10:50:16.721Z</time></trkpt><trkpt lat="43.3007569" lon="12.4625112"><ele>670.0</ele><time>2026-04-28T10:50:17.721Z</time></trkpt><trkpt lat="43.3007491" lon="12.4623958"><ele>670.0</ele><time>2026-04-28T10:50:18.72Z</time></trkpt><trkpt lat="43.3007277" lon="12.462279"><ele>670.0</ele><time>2026-04-28T10:50:19.721Z</time></trkpt><trkpt lat="43.3007046" lon="12.462168"><ele>670.0</ele><time>2026-04-28T10:50:20.721Z</time></trkpt><trkpt lat="43.3006904" lon="12.4620586"><ele>670.0</ele><time>2026-04-28T10:50:21.72Z</time></trkpt><trkpt lat="43.3006963" lon="12.4619575"><ele>668.0</ele><time>2026-04-28T10:50:22.72Z</time></trkpt><trkpt lat="43.3007191" lon="12.4618628"><ele>666.0</ele><time>2026-04-28T10:50:23.721Z</time></trkpt><trkpt lat="43.3007584" lon="12.461775"><ele>664.0</ele><time>2026-04-28T10:50:24.721Z</time></trkpt><trkpt lat="43.3008124" lon="12.4617037"><ele>662.0</ele><time>2026-04-28T10:50:25.721Z</time></trkpt><trkpt lat="43.3008813" lon="12.4616418"><ele>660.0</ele><time>2026-04-28T10:50:26.721Z</time></trkpt><trkpt lat="43.300958" lon="12.4615795"><ele>658.0</ele><time>2026-04-28T10:50:27.721Z</time></trkpt><trkpt lat="43.3010428" lon="12.4615268"><ele>658.0</ele><time>2026-04-28T10:50:28.721Z</time></trkpt><trkpt lat="43.3011261" lon="12.4614723"><ele>658.0</ele><time>2026-04-28T10:50:29.721Z</time></trkpt><trkpt lat="43.3012032" lon="12.4614055"><ele>658.0</ele><time>2026-04-28T10:50:30.72Z</time></trkpt><trkpt lat="43.3012744" lon="12.4613148"><ele>658.0</ele><time>2026-04-28T10:50:31.721Z</time></trkpt><trkpt lat="43.3013409" lon="12.4612086"><ele>658.0</ele><time>2026-04-28T10:50:32.72Z</time></trkpt><trkpt lat="43.3013977" lon="12.4610934"><ele>659.2</ele><time>2026-04-28T10:50:33.721Z</time></trkpt><trkpt lat="43.3014505" lon="12.4609653"><ele>660.4</ele><time>2026-04-28T10:50:34.721Z</time></trkpt><trkpt lat="43.301498" lon="12.460839"><ele>661.6</ele><time>2026-04-28T10:50:35.721Z</time></trkpt><trkpt lat="43.3015417" lon="12.4607237"><ele>662.8000000000001</ele><time>2026-04-28T10:50:36.72Z</time></trkpt><trkpt lat="43.3015812" lon="12.4606159"><ele>664.0</ele><time>2026-04-28T10:50:37.721Z</time></trkpt><trkpt lat="43.3016139" lon="12.4605103"><ele>662.3333333333334</ele><time>2026-04-28T10:50:38.721Z</time></trkpt><trkpt lat="43.3016355" lon="12.460411"><ele>660.6666666666667</ele><time>2026-04-28T10:50:39.721Z</time></trkpt><trkpt lat="43.3016456" lon="12.4603057"><ele>659.0</ele><time>2026-04-28T10:50:40.721Z</time></trkpt><trkpt lat="43.30164" lon="12.4601987"><ele>657.3333333333334</ele><time>2026-04-28T10:50:41.721Z</time></trkpt><trkpt lat="43.3016204" lon="12.4600874"><ele>655.6666666666666</ele><time>2026-04-28T10:50:42.721Z</time></trkpt><trkpt lat="43.3015929" lon="12.4599731"><ele>654.0</ele><time>2026-04-28T10:50:43.721Z</time></trkpt><trkpt lat="43.301561" lon="12.4598507"><ele>654.0</ele><time>2026-04-28T10:50:44.72Z</time></trkpt><trkpt lat="43.3015294" lon="12.4597218"><ele>654.0</ele><time>2026-04-28T10:50:45.721Z</time></trkpt><trkpt lat="43.301499" lon="12.4595898"><ele>654.0</ele><time>2026-04-28T10:50:46.72Z</time></trkpt><trkpt lat="43.3014718" lon="12.4594577"><ele>654.0</ele><time>2026-04-28T10:50:47.721Z</time></trkpt><trkpt lat="43.3014519" lon="12.4593267"><ele>654.0</ele><time>2026-04-28T10:50:48.72Z</time></trkpt><trkpt lat="43.3014415" lon="12.4591947"><ele>653.0</ele><time>2026-04-28T10:50:49.721Z</time></trkpt><trkpt lat="43.3014399" lon="12.4590648"><ele>652.0</ele><time>2026-04-28T10:50:50.721Z</time></trkpt><trkpt lat="43.3014449" lon="12.4589407"><ele>651.0</ele><time>2026-04-28T10:50:51.721Z</time></trkpt><trkpt lat="43.3014511" lon="12.4588153"><ele>650.0</ele><time>2026-04-28T10:50:52.721Z</time></trkpt><trkpt lat="43.3014525" lon="12.4586864"><ele>649.0</ele><time>2026-04-28T10:50:53.719Z</time></trkpt><trkpt lat="43.3014517" lon="12.4585561"><ele>648.5</ele><time>2026-04-28T10:50:54.721Z</time></trkpt><trkpt lat="43.3014505" lon="12.458429"><ele>648.0</ele><time>2026-04-28T10:50:55.721Z</time></trkpt><trkpt lat="43.3014477" lon="12.4583124"><ele>647.5</ele><time>2026-04-28T10:50:56.72Z</time></trkpt><trkpt lat="43.3014434" lon="12.458218"><ele>647.0</ele><time>2026-04-28T10:50:57.721Z</time></trkpt><trkpt lat="43.3014338" lon="12.458085"><ele>646.5</ele><time>2026-04-28T10:50:59.721Z</time></trkpt><trkpt lat="43.3014187" lon="12.4579981"><ele>646.0</ele><time>2026-04-28T10:51:02.72Z</time></trkpt><trkpt lat="43.3013961" lon="12.4580861"><ele>645.8</ele><time>2026-04-28T10:51:15.721Z</time></trkpt><trkpt lat="43.3014298" lon="12.4582491"><ele>645.5999999999999</ele><time>2026-04-28T10:51:17.721Z</time></trkpt><trkpt lat="43.3014401" lon="12.4583538"><ele>645.4</ele><time>2026-04-28T10:51:18.721Z</time></trkpt><trkpt lat="43.3014451" lon="12.4584665"><ele>645.2</ele><time>2026-04-28T10:51:19.721Z</time></trkpt><trkpt lat="43.3014426" lon="12.458559"><ele>645.0</ele><time>2026-04-28T10:51:20.721Z</time></trkpt><trkpt lat="43.3014407" lon="12.4587017"><ele>645.0</ele><time>2026-04-28T10:51:22.72Z</time></trkpt><trkpt lat="43.3014616" lon="12.4587842"><ele>645.0</ele><time>2026-04-28T10:51:24.72Z</time></trkpt><trkpt lat="43.3015434" lon="12.4587636"><ele>645.0</ele><time>2026-04-28T10:51:27.72Z</time></trkpt><trkpt lat="43.3016092" lon="12.4586414"><ele>645.0</ele><time>2026-04-28T10:51:29.721Z</time></trkpt><trkpt lat="43.3016611" lon="12.4585088"><ele>645.0</ele><time>2026-04-28T10:51:31.721Z</time></trkpt><trkpt lat="43.3017014" lon="12.4583715"><ele>645.0</ele><time>2026-04-28T10:51:33.721Z</time></trkpt><trkpt lat="43.301738" lon="12.4582276"><ele>645.0</ele><time>2026-04-28T10:51:35.72Z</time></trkpt><trkpt lat="43.3017691" lon="12.4580792"><ele>645.0</ele><time>2026-04-28T10:51:37.72Z</time></trkpt><trkpt lat="43.3018003" lon="12.4579434"><ele>645.0</ele><time>2026-04-28T10:51:39.721Z</time></trkpt><trkpt lat="43.301847" lon="12.4578343"><ele>645.0</ele><time>2026-04-28T10:51:41.721Z</time></trkpt><trkpt lat="43.3019102" lon="12.4577407"><ele>645.0</ele><time>2026-04-28T10:51:43.721Z</time></trkpt><trkpt lat="43.3019834" lon="12.4576521"><ele>645.0</ele><time>2026-04-28T10:51:45.721Z</time></trkpt><trkpt lat="43.3020621" lon="12.4575591"><ele>645.0</ele><time>2026-04-28T10:51:47.721Z</time></trkpt><trkpt lat="43.3021413" lon="12.4574603"><ele>645.0</ele><time>2026-04-28T10:51:49.721Z</time></trkpt><trkpt lat="43.3022201" lon="12.4573572"><ele>645.0</ele><time>2026-04-28T10:51:51.721Z</time></trkpt><trkpt lat="43.3022924" lon="12.4572527"><ele>642.4</ele><time>2026-04-28T10:51:53.721Z</time></trkpt><trkpt lat="43.3023605" lon="12.4571436"><ele>639.8</ele><time>2026-04-28T10:51:55.72Z</time></trkpt><trkpt lat="43.3024263" lon="12.4570271"><ele>637.2</ele><time>2026-04-28T10:51:57.72Z</time></trkpt><trkpt lat="43.3024944" lon="12.4569113"><ele>634.6</ele><time>2026-04-28T10:51:59.721Z</time></trkpt><trkpt lat="43.3025571" lon="12.4567976"><ele>632.0</ele><time>2026-04-28T10:52:01.721Z</time></trkpt><trkpt lat="43.3026159" lon="12.4566824"><ele>632.0</ele><time>2026-04-28T10:52:03.72Z</time></trkpt><trkpt lat="43.3026747" lon="12.4565676"><ele>632.0</ele><time>2026-04-28T10:52:05.72Z</time></trkpt><trkpt lat="43.3027404" lon="12.4564638"><ele>632.0</ele><time>2026-04-28T10:52:07.72Z</time></trkpt><trkpt lat="43.3028238" lon="12.4564158"><ele>632.0</ele><time>2026-04-28T10:52:09.72Z</time></trkpt><trkpt lat="43.3029215" lon="12.4563942"><ele>632.0</ele><time>2026-04-28T10:52:11.719Z</time></trkpt><trkpt lat="43.3030115" lon="12.456354"><ele>630.4</ele><time>2026-04-28T10:52:13.719Z</time></trkpt><trkpt lat="43.3031034" lon="12.4563019"><ele>628.8000000000001</ele><time>2026-04-28T10:52:15.72Z</time></trkpt><trkpt lat="43.3032084" lon="12.4562565"><ele>627.2</ele><time>2026-04-28T10:52:17.72Z</time></trkpt><trkpt lat="43.3033216" lon="12.4562173"><ele>625.6</ele><time>2026-04-28T10:52:19.719Z</time></trkpt><trkpt lat="43.3033839" lon="12.4561941"><ele>624.0</ele><time>2026-04-28T10:52:20.72Z</time></trkpt><trkpt lat="43.3034455" lon="12.4561671"><ele>624.0</ele><time>2026-04-28T10:52:21.719Z</time></trkpt><trkpt lat="43.3035507" lon="12.4561111"><ele>624.0</ele><time>2026-04-28T10:52:23.72Z</time></trkpt><trkpt lat="43.3036652" lon="12.4560515"><ele>624.0</ele><time>2026-04-28T10:52:25.72Z</time></trkpt><trkpt lat="43.3037341" lon="12.4560179"><ele>624.0</ele><time>2026-04-28T10:52:26.719Z</time></trkpt><trkpt lat="43.3038106" lon="12.4559883"><ele>624.0</ele><time>2026-04-28T10:52:27.72Z</time></trkpt><trkpt lat="43.3038902" lon="12.4559726"><ele>622.6666666666666</ele><time>2026-04-28T10:52:28.72Z</time></trkpt><trkpt lat="43.3039639" lon="12.4559765"><ele>621.3333333333334</ele><time>2026-04-28T10:52:29.72Z</time></trkpt><trkpt lat="43.3040284" lon="12.4559899"><ele>620.0</ele><time>2026-04-28T10:52:30.72Z</time></trkpt><trkpt lat="43.3041178" lon="12.4559973"><ele>618.6666666666667</ele><time>2026-04-28T10:52:32.72Z</time></trkpt><trkpt lat="43.304182" lon="12.4559571"><ele>617.3333333333334</ele><time>2026-04-28T10:52:34.719Z</time></trkpt><trkpt lat="43.3042838" lon="12.4558595"><ele>616.0</ele><time>2026-04-28T10:52:36.72Z</time></trkpt><trkpt lat="43.3043484" lon="12.4558101"><ele>616.0</ele><time>2026-04-28T10:52:37.72Z</time></trkpt><trkpt lat="43.3044229" lon="12.4557763"><ele>616.0</ele><time>2026-04-28T10:52:38.719Z</time></trkpt><trkpt lat="43.3044924" lon="12.4557631"><ele>616.0</ele><time>2026-04-28T10:52:39.72Z</time></trkpt><trkpt lat="43.3045954" lon="12.4557485"><ele>616.0</ele><time>2026-04-28T10:52:41.719Z</time></trkpt><trkpt lat="43.30468" lon="12.4556892"><ele>616.0</ele><time>2026-04-28T10:52:44.72Z</time></trkpt><trkpt lat="43.3047249" lon="12.4555533"><ele>616.0</ele><time>2026-04-28T10:52:47.72Z</time></trkpt><trkpt lat="43.3047413" lon="12.4554607"><ele>616.0</ele><time>2026-04-28T10:52:48.72Z</time></trkpt><trkpt lat="43.3047618" lon="12.4553546"><ele>616.0</ele><time>2026-04-28T10:52:49.72Z</time></trkpt><trkpt lat="43.3047907" lon="12.4552449"><ele>616.0</ele><time>2026-04-28T10:52:50.72Z</time></trkpt><trkpt lat="43.3048323" lon="12.4551276"><ele>616.0</ele><time>2026-04-28T10:52:51.72Z</time></trkpt><trkpt lat="43.3048809" lon="12.4550132"><ele>616.0</ele><time>2026-04-28T10:52:52.72Z</time></trkpt><trkpt lat="43.3049322" lon="12.4549071"><ele>615.6</ele><time>2026-04-28T10:52:53.72Z</time></trkpt><trkpt lat="43.3049808" lon="12.4548146"><ele>615.2</ele><time>2026-04-28T10:52:54.72Z</time></trkpt><trkpt lat="43.3050237" lon="12.4547366"><ele>614.8</ele><time>2026-04-28T10:52:55.72Z</time></trkpt><trkpt lat="43.305093" lon="12.4546108"><ele>614.4</ele><time>2026-04-28T10:52:57.72Z</time></trkpt><trkpt lat="43.3051699" lon="12.4545112"><ele>614.0</ele><time>2026-04-28T10:52:59.72Z</time></trkpt><trkpt lat="43.3052835" lon="12.4544716"><ele>614.1666666666666</ele><time>2026-04-28T10:53:01.72Z</time></trkpt><trkpt lat="43.3053578" lon="12.4544657"><ele>614.3333333333333</ele><time>2026-04-28T10:53:02.72Z</time></trkpt><trkpt lat="43.3054437" lon="12.4544641"><ele>614.5</ele><time>2026-04-28T10:53:03.72Z</time></trkpt><trkpt lat="43.3055304" lon="12.4544649"><ele>614.6666666666666</ele><time>2026-04-28T10:53:04.719Z</time></trkpt><trkpt lat="43.3056059" lon="12.4544639"><ele>614.8333333333334</ele><time>2026-04-28T10:53:05.72Z</time></trkpt><trkpt lat="43.3056762" lon="12.4544588"><ele>615.0</ele><time>2026-04-28T10:53:06.72Z</time></trkpt><trkpt lat="43.3057865" lon="12.4544245"><ele>615.0</ele><time>2026-04-28T10:53:08.719Z</time></trkpt><trkpt lat="43.3058695" lon="12.4543506"><ele>615.0</ele><time>2026-04-28T10:53:10.719Z</time></trkpt><trkpt lat="43.305939" lon="12.454245"><ele>615.0</ele><time>2026-04-28T10:53:12.72Z</time></trkpt><trkpt lat="43.3059941" lon="12.45412"><ele>615.0</ele><time>2026-04-28T10:53:14.72Z</time></trkpt><trkpt lat="43.3060509" lon="12.4539817"><ele>615.0</ele><time>2026-04-28T10:53:16.719Z</time></trkpt><trkpt lat="43.306113" lon="12.4538534"><ele>613.4</ele><time>2026-04-28T10:53:18.719Z</time></trkpt><trkpt lat="43.3061975" lon="12.4537474"><ele>611.8</ele><time>2026-04-28T10:53:20.719Z</time></trkpt><trkpt lat="43.3062787" lon="12.4536548"><ele>610.2</ele><time>2026-04-28T10:53:22.72Z</time></trkpt><trkpt lat="43.3063616" lon="12.4535718"><ele>608.6</ele><time>2026-04-28T10:53:24.72Z</time></trkpt><trkpt lat="43.3064533" lon="12.4534808"><ele>607.0</ele><time>2026-04-28T10:53:26.72Z</time></trkpt><trkpt lat="43.3065604" lon="12.4534067"><ele>607.0</ele><time>2026-04-28T10:53:28.719Z</time></trkpt><trkpt lat="43.3066465" lon="12.4533451"><ele>607.0</ele><time>2026-04-28T10:53:30.72Z</time></trkpt><trkpt lat="43.3067087" lon="12.4532866"><ele>607.0</ele><time>2026-04-28T10:53:32.72Z</time></trkpt><trkpt lat="43.3067517" lon="12.453215"><ele>607.0</ele><time>2026-04-28T10:53:35.72Z</time></trkpt><trkpt lat="43.3067722" lon="12.4531323"><ele>607.0</ele><time>2026-04-28T10:53:37.72Z</time></trkpt><trkpt lat="43.3067922" lon="12.4530393"><ele>607.0</ele><time>2026-04-28T10:53:39.719Z</time></trkpt><trkpt lat="43.3068419" lon="12.4529408"><ele>609.6</ele><time>2026-04-28T10:53:41.72Z</time></trkpt><trkpt lat="43.306908" lon="12.4528258"><ele>612.2</ele><time>2026-04-28T10:53:43.72Z</time></trkpt><trkpt lat="43.3070013" lon="12.4527254"><ele>614.8</ele><time>2026-04-28T10:53:45.72Z</time></trkpt><trkpt lat="43.3070663" lon="12.4526855"><ele>617.4</ele><time>2026-04-28T10:53:46.72Z</time></trkpt><trkpt lat="43.3071415" lon="12.4526493"><ele>620.0</ele><time>2026-04-28T10:53:47.72Z</time></trkpt><trkpt lat="43.307222" lon="12.4526183"><ele>615.5</ele><time>2026-04-28T10:53:48.72Z</time></trkpt><trkpt lat="43.3073055" lon="12.4525921"><ele>611.0</ele><time>2026-04-28T10:53:49.72Z</time></trkpt><trkpt lat="43.3073874" lon="12.4525681"><ele>606.5</ele><time>2026-04-28T10:53:50.72Z</time></trkpt><trkpt lat="43.3074681" lon="12.4525503"><ele>602.0</ele><time>2026-04-28T10:53:51.719Z</time></trkpt><trkpt lat="43.3075457" lon="12.4525373"><ele>597.5</ele><time>2026-04-28T10:53:52.72Z</time></trkpt><trkpt lat="43.3076225" lon="12.4525257"><ele>593.0</ele><time>2026-04-28T10:53:53.719Z</time></trkpt><trkpt lat="43.3076991" lon="12.4525112"><ele>593.0</ele><time>2026-04-28T10:53:54.72Z</time></trkpt><trkpt lat="43.307773" lon="12.4524911"><ele>593.0</ele><time>2026-04-28T10:53:55.719Z</time></trkpt><trkpt lat="43.3078454" lon="12.4524746"><ele>593.0</ele><time>2026-04-28T10:53:56.72Z</time></trkpt><trkpt lat="43.3079125" lon="12.4524631"><ele>593.0</ele><time>2026-04-28T10:53:57.72Z</time></trkpt><trkpt lat="43.3080312" lon="12.4524615"><ele>593.0</ele><time>2026-04-28T10:53:59.72Z</time></trkpt><trkpt lat="43.3081392" lon="12.4524602"><ele>593.0</ele><time>2026-04-28T10:54:01.719Z</time></trkpt><trkpt lat="43.308241" lon="12.4524521"><ele>591.6666666666666</ele><time>2026-04-28T10:54:03.72Z</time></trkpt><trkpt lat="43.3083413" lon="12.4524485"><ele>590.3333333333333</ele><time>2026-04-28T10:54:05.72Z</time></trkpt><trkpt lat="43.3084552" lon="12.4524485"><ele>589.0</ele><time>2026-04-28T10:54:07.719Z</time></trkpt><trkpt lat="43.3085185" lon="12.4524488"><ele>587.6666666666666</ele><time>2026-04-28T10:54:08.72Z</time></trkpt><trkpt lat="43.3085842" lon="12.4524518"><ele>586.3333333333334</ele><time>2026-04-28T10:54:09.72Z</time></trkpt><trkpt lat="43.3086514" lon="12.4524585"><ele>585.0</ele><time>2026-04-28T10:54:10.719Z</time></trkpt><trkpt lat="43.3087197" lon="12.4524659"><ele>585.0</ele><time>2026-04-28T10:54:11.72Z</time></trkpt><trkpt lat="43.3087889" lon="12.4524749"><ele>585.0</ele><time>2026-04-28T10:54:12.719Z</time></trkpt><trkpt lat="43.3088584" lon="12.4524827"><ele>585.0</ele><time>2026-04-28T10:54:13.72Z</time></trkpt><trkpt lat="43.3089254" lon="12.4524905"><ele>585.0</ele><time>2026-04-28T10:54:14.72Z</time></trkpt><trkpt lat="43.3089886" lon="12.4524997"><ele>585.0</ele><time>2026-04-28T10:54:15.719Z</time></trkpt><trkpt lat="43.3091004" lon="12.4525183"><ele>585.0</ele><time>2026-04-28T10:54:17.72Z</time></trkpt><trkpt lat="43.3092211" lon="12.4525224"><ele>584.1666666666666</ele><time>2026-04-28T10:54:19.72Z</time></trkpt><trkpt lat="43.3092838" lon="12.4525144"><ele>583.3333333333334</ele><time>2026-04-28T10:54:20.72Z</time></trkpt><trkpt lat="43.3093853" lon="12.4524771"><ele>582.5</ele><time>2026-04-28T10:54:22.719Z</time></trkpt><trkpt lat="43.3094779" lon="12.4524141"><ele>581.6666666666667</ele><time>2026-04-28T10:54:24.72Z</time></trkpt><trkpt lat="43.3095542" lon="12.4523446"><ele>580.8333333333334</ele><time>2026-04-28T10:54:26.719Z</time></trkpt><trkpt lat="43.3096228" lon="12.4522737"><ele>580.0</ele><time>2026-04-28T10:54:28.72Z</time></trkpt><trkpt lat="43.3096789" lon="12.4522197"><ele>580.0</ele><time>2026-04-28T10:54:30.72Z</time></trkpt><trkpt lat="43.3097374" lon="12.4521443"><ele>580.0</ele><time>2026-04-28T10:54:50.72Z</time></trkpt><trkpt lat="43.309803" lon="12.4520578"><ele>580.0</ele><time>2026-04-28T10:54:52.72Z</time></trkpt><trkpt lat="43.3098684" lon="12.451976"><ele>580.0</ele><time>2026-04-28T10:54:54.72Z</time></trkpt><trkpt lat="43.3099315" lon="12.4519033"><ele>580.0</ele><time>2026-04-28T10:54:56.72Z</time></trkpt><trkpt lat="43.3100103" lon="12.4518321"><ele>580.0</ele><time>2026-04-28T10:54:58.719Z</time></trkpt><trkpt lat="43.310104" lon="12.4517872"><ele>578.0</ele><time>2026-04-28T10:55:00.72Z</time></trkpt><trkpt lat="43.3101893" lon="12.4517621"><ele>576.0</ele><time>2026-04-28T10:55:01.72Z</time></trkpt><trkpt lat="43.3102863" lon="12.4517281"><ele>574.0</ele><time>2026-04-28T10:55:02.719Z</time></trkpt><trkpt lat="43.310379" lon="12.4516867"><ele>572.0</ele><time>2026-04-28T10:55:03.719Z</time></trkpt><trkpt lat="43.3104596" lon="12.451639"><ele>570.0</ele><time>2026-04-28T10:55:04.72Z</time></trkpt><trkpt lat="43.3105302" lon="12.4515898"><ele>568.3333333333334</ele><time>2026-04-28T10:55:05.72Z</time></trkpt><trkpt lat="43.3105954" lon="12.4515448"><ele>566.6666666666666</ele><time>2026-04-28T10:55:06.719Z</time></trkpt><trkpt lat="43.3106559" lon="12.4515036"><ele>565.0</ele><time>2026-04-28T10:55:07.72Z</time></trkpt><trkpt lat="43.3107227" lon="12.4514519"><ele>563.3333333333333</ele><time>2026-04-28T10:55:08.72Z</time></trkpt><trkpt lat="43.3107975" lon="12.4513911"><ele>561.6666666666666</ele><time>2026-04-28T10:55:09.72Z</time></trkpt><trkpt lat="43.3108735" lon="12.4513308"><ele>560.0</ele><time>2026-04-28T10:55:10.72Z</time></trkpt><trkpt lat="43.3109456" lon="12.4512797"><ele>559.8333333333333</ele><time>2026-04-28T10:55:11.719Z</time></trkpt><trkpt lat="43.3110165" lon="12.4512346"><ele>559.6666666666666</ele><time>2026-04-28T10:55:12.72Z</time></trkpt><trkpt lat="43.311086" lon="12.4511965"><ele>559.5</ele><time>2026-04-28T10:55:13.72Z</time></trkpt><trkpt lat="43.3111546" lon="12.4511669"><ele>559.3333333333334</ele><time>2026-04-28T10:55:14.72Z</time></trkpt><trkpt lat="43.311222" lon="12.4511416"><ele>559.1666666666667</ele><time>2026-04-28T10:55:15.719Z</time></trkpt><trkpt lat="43.3112859" lon="12.4511163"><ele>559.0</ele><time>2026-04-28T10:55:16.72Z</time></trkpt><trkpt lat="43.3114015" lon="12.4510709"><ele>556.4</ele><time>2026-04-28T10:55:18.72Z</time></trkpt><trkpt lat="43.3115113" lon="12.4510569"><ele>553.8</ele><time>2026-04-28T10:55:20.72Z</time></trkpt><trkpt lat="43.3116088" lon="12.4511168"><ele>551.2</ele><time>2026-04-28T10:55:22.72Z</time></trkpt><trkpt lat="43.3116852" lon="12.4512427"><ele>548.6</ele><time>2026-04-28T10:55:24.72Z</time></trkpt><trkpt lat="43.311724" lon="12.4513137"><ele>546.0</ele><time>2026-04-28T10:55:25.719Z</time></trkpt><trkpt lat="43.3118149" lon="12.4514057"><ele>546.0</ele><time>2026-04-28T10:55:27.719Z</time></trkpt><trkpt lat="43.3119209" lon="12.4514012"><ele>546.0</ele><time>2026-04-28T10:55:29.719Z</time></trkpt><trkpt lat="43.3120218" lon="12.451289"><ele>546.0</ele><time>2026-04-28T10:55:31.719Z</time></trkpt><trkpt lat="43.3120854" lon="12.451214"><ele>546.0</ele><time>2026-04-28T10:55:32.719Z</time></trkpt><trkpt lat="43.3121541" lon="12.4511321"><ele>546.0</ele><time>2026-04-28T10:55:33.718Z</time></trkpt><trkpt lat="43.3122183" lon="12.4510545"><ele>545.0</ele><time>2026-04-28T10:55:34.719Z</time></trkpt><trkpt lat="43.3122716" lon="12.450986"><ele>544.0</ele><time>2026-04-28T10:55:35.719Z</time></trkpt><trkpt lat="43.3123056" lon="12.4509126"><ele>543.0</ele><time>2026-04-28T10:55:36.719Z</time></trkpt><trkpt lat="43.312298" lon="12.4507811"><ele>542.0</ele><time>2026-04-28T10:55:38.719Z</time></trkpt><trkpt lat="43.3122255" lon="12.4506703"><ele>541.0</ele><time>2026-04-28T10:55:40.718Z</time></trkpt><trkpt lat="43.3121742" lon="12.4506012"><ele>540.0</ele><time>2026-04-28T10:55:41.718Z</time></trkpt><trkpt lat="43.312122" lon="12.4505232"><ele>538.3333333333334</ele><time>2026-04-28T10:55:42.719Z</time></trkpt><trkpt lat="43.3120724" lon="12.4504408"><ele>536.6666666666666</ele><time>2026-04-28T10:55:43.719Z</time></trkpt><trkpt lat="43.3120296" lon="12.4503533"><ele>535.0</ele><time>2026-04-28T10:55:44.719Z</time></trkpt><trkpt lat="43.3119951" lon="12.4502602"><ele>533.3333333333333</ele><time>2026-04-28T10:55:45.719Z</time></trkpt><trkpt lat="43.3119663" lon="12.4501642"><ele>531.6666666666666</ele><time>2026-04-28T10:55:46.719Z</time></trkpt><trkpt lat="43.311937" lon="12.4500742"><ele>530.0</ele><time>2026-04-28T10:55:47.718Z</time></trkpt><trkpt lat="43.3119028" lon="12.4499853"><ele>530.0</ele><time>2026-04-28T10:55:48.718Z</time></trkpt><trkpt lat="43.3118678" lon="12.4498906"><ele>530.0</ele><time>2026-04-28T10:55:49.719Z</time></trkpt><trkpt lat="43.3118398" lon="12.4497855"><ele>530.0</ele><time>2026-04-28T10:55:50.719Z</time></trkpt><trkpt lat="43.3118212" lon="12.4496731"><ele>530.0</ele><time>2026-04-28T10:55:51.719Z</time></trkpt><trkpt lat="43.3118019" lon="12.4495615"><ele>530.0</ele><time>2026-04-28T10:55:52.719Z</time></trkpt><trkpt lat="43.311779" lon="12.4494547"><ele>530.0</ele><time>2026-04-28T10:55:53.718Z</time></trkpt><trkpt lat="43.3117541" lon="12.4493514"><ele>528.5</ele><time>2026-04-28T10:55:54.719Z</time></trkpt><trkpt lat="43.3117298" lon="12.4492487"><ele>527.0</ele><time>2026-04-28T10:55:55.718Z</time></trkpt><trkpt lat="43.3117063" lon="12.4491452"><ele>525.5</ele><time>2026-04-28T10:55:56.719Z</time></trkpt><trkpt lat="43.3116846" lon="12.4490397"><ele>524.0</ele><time>2026-04-28T10:55:57.719Z</time></trkpt><trkpt lat="43.3116656" lon="12.4489402"><ele>522.5</ele><time>2026-04-28T10:55:58.719Z</time></trkpt><trkpt lat="43.3116314" lon="12.4487847"><ele>521.0</ele><time>2026-04-28T10:56:00.719Z</time></trkpt><trkpt lat="43.3116035" lon="12.4486242"><ele>519.5714285714286</ele><time>2026-04-28T10:56:02.719Z</time></trkpt><trkpt lat="43.3116008" lon="12.4485353"><ele>518.1428571428571</ele><time>2026-04-28T10:56:03.718Z</time></trkpt><trkpt lat="43.3116064" lon="12.4484461"><ele>516.7142857142858</ele><time>2026-04-28T10:56:04.719Z</time></trkpt><trkpt lat="43.3116237" lon="12.4483566"><ele>515.2857142857142</ele><time>2026-04-28T10:56:05.718Z</time></trkpt><trkpt lat="43.311656" lon="12.4482749"><ele>513.8571428571429</ele><time>2026-04-28T10:56:06.719Z</time></trkpt><trkpt lat="43.3117015" lon="12.4482066"><ele>512.4285714285714</ele><time>2026-04-28T10:56:07.719Z</time></trkpt><trkpt lat="43.3117471" lon="12.4481447"><ele>511.0</ele><time>2026-04-28T10:56:08.718Z</time></trkpt><trkpt lat="43.311814" lon="12.4480048"><ele>509.1428571428571</ele><time>2026-04-28T10:56:10.719Z</time></trkpt><trkpt lat="43.3118431" lon="12.4479227"><ele>507.2857142857143</ele><time>2026-04-28T10:56:11.718Z</time></trkpt><trkpt lat="43.3118737" lon="12.447835"><ele>505.42857142857144</ele><time>2026-04-28T10:56:12.719Z</time></trkpt><trkpt lat="43.311904" lon="12.4477447"><ele>503.57142857142856</ele><time>2026-04-28T10:56:13.719Z</time></trkpt><trkpt lat="43.3119294" lon="12.4476651"><ele>501.71428571428567</ele><time>2026-04-28T10:56:14.718Z</time></trkpt><trkpt lat="43.3119737" lon="12.4475365"><ele>499.85714285714283</ele><time>2026-04-28T10:56:16.719Z</time></trkpt><trkpt lat="43.3120263" lon="12.4474677"><ele>498.0</ele><time>2026-04-28T10:56:18.719Z</time></trkpt><trkpt lat="43.3121107" lon="12.4474672"><ele>498.0</ele><time>2026-04-28T10:56:20.719Z</time></trkpt><trkpt lat="43.3122084" lon="12.4475547"><ele>498.0</ele><time>2026-04-28T10:56:22.719Z</time></trkpt><trkpt lat="43.3122611" lon="12.4476059"><ele>498.0</ele><time>2026-04-28T10:56:23.719Z</time></trkpt><trkpt lat="43.3123178" lon="12.4476607"><ele>498.0</ele><time>2026-04-28T10:56:24.719Z</time></trkpt><trkpt lat="43.3123779" lon="12.4477179"><ele>498.0</ele><time>2026-04-28T10:56:25.718Z</time></trkpt><trkpt lat="43.31244" lon="12.4477754"><ele>498.0</ele><time>2026-04-28T10:56:26.719Z</time></trkpt><trkpt lat="43.3125013" lon="12.447833"><ele>498.71428571428567</ele><time>2026-04-28T10:56:27.719Z</time></trkpt><trkpt lat="43.3125623" lon="12.4478809"><ele>499.4285714285714</ele><time>2026-04-28T10:56:28.718Z</time></trkpt><trkpt lat="43.3126226" lon="12.4479159"><ele>500.1428571428571</ele><time>2026-04-28T10:56:29.719Z</time></trkpt><trkpt lat="43.3126865" lon="12.4479358"><ele>500.8571428571429</ele><time>2026-04-28T10:56:30.718Z</time></trkpt><trkpt lat="43.3127574" lon="12.4479353"><ele>501.5714285714286</ele><time>2026-04-28T10:56:31.719Z</time></trkpt><trkpt lat="43.3128309" lon="12.4479372"><ele>502.28571428571433</ele><time>2026-04-28T10:56:32.719Z</time></trkpt><trkpt lat="43.3129022" lon="12.4479488"><ele>503.0</ele><time>2026-04-28T10:56:33.718Z</time></trkpt><trkpt lat="43.3129705" lon="12.4479639"><ele>502.99999999999994</ele><time>2026-04-28T10:56:34.718Z</time></trkpt><trkpt lat="43.3130351" lon="12.4479725"><ele>503.0</ele><time>2026-04-28T10:56:35.719Z</time></trkpt><trkpt lat="43.3131459" lon="12.4479348"><ele>503.0</ele><time>2026-04-28T10:56:37.719Z</time></trkpt><trkpt lat="43.313207" lon="12.4478864"><ele>503.0</ele><time>2026-04-28T10:56:38.719Z</time></trkpt><trkpt lat="43.3132716" lon="12.4478182"><ele>502.99999999999994</ele><time>2026-04-28T10:56:39.718Z</time></trkpt><trkpt lat="43.3133227" lon="12.4477291"><ele>503.0</ele><time>2026-04-28T10:56:40.718Z</time></trkpt><trkpt lat="43.3133632" lon="12.4476372"><ele>499.99999999999994</ele><time>2026-04-28T10:56:41.719Z</time></trkpt><trkpt lat="43.3134023" lon="12.4475483"><ele>497.0</ele><time>2026-04-28T10:56:42.719Z</time></trkpt><trkpt lat="43.3134435" lon="12.4474548"><ele>494.0</ele><time>2026-04-28T10:56:43.719Z</time></trkpt><trkpt lat="43.3134879" lon="12.4473646"><ele>491.0</ele><time>2026-04-28T10:56:44.719Z</time></trkpt><trkpt lat="43.3135392" lon="12.4472821"><ele>487.99999999999994</ele><time>2026-04-28T10:56:45.719Z</time></trkpt><trkpt lat="43.3135915" lon="12.4472019"><ele>485.0</ele><time>2026-04-28T10:56:46.719Z</time></trkpt><trkpt lat="43.3136515" lon="12.4471176"><ele>483.6</ele><time>2026-04-28T10:56:47.719Z</time></trkpt><trkpt lat="43.313719" lon="12.4470335"><ele>482.2</ele><time>2026-04-28T10:56:48.719Z</time></trkpt><trkpt lat="43.3137926" lon="12.446954"><ele>480.79999999999995</ele><time>2026-04-28T10:56:49.718Z</time></trkpt><trkpt lat="43.3138731" lon="12.4468854"><ele>479.4</ele><time>2026-04-28T10:56:50.719Z</time></trkpt><trkpt lat="43.3139551" lon="12.4468124"><ele>478.0</ele><time>2026-04-28T10:56:51.718Z</time></trkpt><trkpt lat="43.3140255" lon="12.4467334"><ele>478.00000000000006</ele><time>2026-04-28T10:56:52.719Z</time></trkpt><trkpt lat="43.3140927" lon="12.4466585"><ele>478.0</ele><time>2026-04-28T10:56:53.719Z</time></trkpt><trkpt lat="43.3141625" lon="12.4466062"><ele>478.0</ele><time>2026-04-28T10:56:54.718Z</time></trkpt><trkpt lat="43.3142361" lon="12.4465649"><ele>478.0</ele><time>2026-04-28T10:56:55.718Z</time></trkpt><trkpt lat="43.3143151" lon="12.4465254"><ele>478.00000000000006</ele><time>2026-04-28T10:56:56.718Z</time></trkpt><trkpt lat="43.3143878" lon="12.4464855"><ele>478.0</ele><time>2026-04-28T10:56:57.719Z</time></trkpt><trkpt lat="43.3144519" lon="12.4464377"><ele>478.00000000000006</ele><time>2026-04-28T10:56:58.718Z</time></trkpt><trkpt lat="43.3145378" lon="12.4463475"><ele>478.0</ele><time>2026-04-28T10:57:00.719Z</time></trkpt><trkpt lat="43.3146028" lon="12.446268"><ele>478.0</ele><time>2026-04-28T10:57:02.718Z</time></trkpt><trkpt lat="43.3146629" lon="12.446195"><ele>478.0</ele><time>2026-04-28T10:57:04.719Z</time></trkpt><trkpt lat="43.3146901" lon="12.4461007"><ele>478.00000000000006</ele><time>2026-04-28T10:57:07.719Z</time></trkpt><trkpt lat="43.3146283" lon="12.4461736"><ele>478.0</ele><time>2026-04-28T10:57:27.718Z</time></trkpt><trkpt lat="43.314566" lon="12.4462217"><ele>475.50000000000006</ele><time>2026-04-28T10:57:29.719Z</time></trkpt><trkpt lat="43.3144827" lon="12.4462404"><ele>473.0</ele><time>2026-04-28T10:57:32.718Z</time></trkpt><trkpt lat="43.3144239" lon="12.4462021"><ele>470.5</ele><time>2026-04-28T10:57:34.718Z</time></trkpt><trkpt lat="43.3143893" lon="12.4461073"><ele>468.0</ele><time>2026-04-28T10:57:36.718Z</time></trkpt><trkpt lat="43.3143755" lon="12.4459733"><ele>465.50000000000006</ele><time>2026-04-28T10:57:38.719Z</time></trkpt><trkpt lat="43.3143534" lon="12.4458407"><ele>463.0</ele><time>2026-04-28T10:57:40.719Z</time></trkpt><trkpt lat="43.3143351" lon="12.4457269"><ele>463.00000000000006</ele><time>2026-04-28T10:57:42.719Z</time></trkpt><trkpt lat="43.3143195" lon="12.445607"><ele>463.0</ele><time>2026-04-28T10:57:44.718Z</time></trkpt><trkpt lat="43.3143088" lon="12.4454854"><ele>463.0</ele><time>2026-04-28T10:57:46.718Z</time></trkpt><trkpt lat="43.314307" lon="12.4453769"><ele>463.0</ele><time>2026-04-28T10:57:48.719Z</time></trkpt><trkpt lat="43.3143018" lon="12.4452713"><ele>463.00000000000006</ele><time>2026-04-28T10:57:50.718Z</time></trkpt><trkpt lat="43.3142992" lon="12.4451503"><ele>463.0</ele><time>2026-04-28T10:57:52.718Z</time></trkpt><trkpt lat="43.314282" lon="12.4450232"><ele>459.75</ele><time>2026-04-28T10:57:54.719Z</time></trkpt><trkpt lat="43.3142593" lon="12.4448724"><ele>456.5</ele><time>2026-04-28T10:57:56.719Z</time></trkpt><trkpt lat="43.3142338" lon="12.4447152"><ele>453.25</ele><time>2026-04-28T10:57:58.718Z</time></trkpt><trkpt lat="43.3142075" lon="12.4445582"><ele>450.0</ele><time>2026-04-28T10:58:00.718Z</time></trkpt><trkpt lat="43.3141768" lon="12.4443969"><ele>448.5</ele><time>2026-04-28T10:58:02.719Z</time></trkpt><trkpt lat="43.3141465" lon="12.4442415"><ele>447.0</ele><time>2026-04-28T10:58:04.719Z</time></trkpt><trkpt lat="43.3141184" lon="12.4441138"><ele>445.5</ele><time>2026-04-28T10:58:06.719Z</time></trkpt><trkpt lat="43.3140928" lon="12.4440189"><ele>444.0</ele><time>2026-04-28T10:58:08.719Z</time></trkpt><trkpt lat="43.3140699" lon="12.4439335"><ele>442.5</ele><time>2026-04-28T10:58:10.719Z</time></trkpt><trkpt lat="43.3140484" lon="12.4438313"><ele>441.0</ele><time>2026-04-28T10:58:12.719Z</time></trkpt><trkpt lat="43.3140286" lon="12.4437123"><ele>440.1666666666667</ele><time>2026-04-28T10:58:14.719Z</time></trkpt><trkpt lat="43.3139905" lon="12.4435842"><ele>439.33333333333337</ele><time>2026-04-28T10:58:16.719Z</time></trkpt><trkpt lat="43.3139215" lon="12.4435124"><ele>438.5</ele><time>2026-04-28T10:58:18.719Z</time></trkpt><trkpt lat="43.3138476" lon="12.443478"><ele>437.6666666666667</ele><time>2026-04-28T10:58:20.719Z</time></trkpt><trkpt lat="43.3137748" lon="12.443433"><ele>436.83333333333337</ele><time>2026-04-28T10:58:22.719Z</time></trkpt><trkpt lat="43.3136987" lon="12.4433636"><ele>436.0</ele><time>2026-04-28T10:58:24.719Z</time></trkpt><trkpt lat="43.3136055" lon="12.4432302"><ele>436.0</ele><time>2026-04-28T10:58:26.718Z</time></trkpt><trkpt lat="43.3135486" lon="12.4431312"><ele>436.0</ele><time>2026-04-28T10:58:27.719Z</time></trkpt><trkpt lat="43.3134913" lon="12.4430125"><ele>436.0</ele><time>2026-04-28T10:58:28.719Z</time></trkpt><trkpt lat="43.3134326" lon="12.4428858"><ele>436.0</ele><time>2026-04-28T10:58:29.718Z</time></trkpt><trkpt lat="43.3133794" lon="12.4427588"><ele>436.0</ele><time>2026-04-28T10:58:30.719Z</time></trkpt><trkpt lat="43.3133232" lon="12.4426295"><ele>436.0</ele><time>2026-04-28T10:58:31.719Z</time></trkpt><trkpt lat="43.3132639" lon="12.4425016"><ele>436.0</ele><time>2026-04-28T10:58:32.718Z</time></trkpt><trkpt lat="43.3132055" lon="12.4423822"><ele>436.0</ele><time>2026-04-28T10:58:33.719Z</time></trkpt><trkpt lat="43.3131476" lon="12.4422553"><ele>436.0</ele><time>2026-04-28T10:58:34.719Z</time></trkpt><trkpt lat="43.3130872" lon="12.4421167"><ele>436.0</ele><time>2026-04-28T10:58:35.719Z</time></trkpt><trkpt lat="43.3130223" lon="12.4419678"><ele>439.25</ele><time>2026-04-28T10:58:36.719Z</time></trkpt><trkpt lat="43.3129605" lon="12.4418142"><ele>442.5</ele><time>2026-04-28T10:58:37.719Z</time></trkpt><trkpt lat="43.3129005" lon="12.4416528"><ele>445.75</ele><time>2026-04-28T10:58:38.719Z</time></trkpt><trkpt lat="43.3128435" lon="12.4414999"><ele>449.0</ele><time>2026-04-28T10:58:39.718Z</time></trkpt><trkpt lat="43.3127857" lon="12.4413457"><ele>449.5</ele><time>2026-04-28T10:58:40.717Z</time></trkpt><trkpt lat="43.3127328" lon="12.4411985"><ele>450.0</ele><time>2026-04-28T10:58:41.718Z</time></trkpt><trkpt lat="43.3126812" lon="12.4410509"><ele>450.5</ele><time>2026-04-28T10:58:42.718Z</time></trkpt><trkpt lat="43.3126376" lon="12.4409042"><ele>451.0</ele><time>2026-04-28T10:58:43.717Z</time></trkpt><trkpt lat="43.3125999" lon="12.440747"><ele>451.0</ele><time>2026-04-28T10:58:44.718Z</time></trkpt><trkpt lat="43.3125759" lon="12.440586"><ele>451.0</ele><time>2026-04-28T10:58:45.717Z</time></trkpt><trkpt lat="43.3125495" lon="12.4404227"><ele>451.0</ele><time>2026-04-28T10:58:46.718Z</time></trkpt><trkpt lat="43.3125174" lon="12.4402625"><ele>451.0</ele><time>2026-04-28T10:58:47.718Z</time></trkpt><trkpt lat="43.3124773" lon="12.4401024"><ele>452.8</ele><time>2026-04-28T10:58:48.718Z</time></trkpt><trkpt lat="43.3124379" lon="12.439939"><ele>454.6</ele><time>2026-04-28T10:58:49.717Z</time></trkpt><trkpt lat="43.312412" lon="12.4397864"><ele>456.4</ele><time>2026-04-28T10:58:50.718Z</time></trkpt><trkpt lat="43.3123915" lon="12.4396648"><ele>458.2</ele><time>2026-04-28T10:58:51.718Z</time></trkpt><trkpt lat="43.3123734" lon="12.4395465"><ele>460.0</ele><time>2026-04-28T10:58:52.718Z</time></trkpt><trkpt lat="43.3123557" lon="12.4394217"><ele>460.83333333333337</ele><time>2026-04-28T10:58:53.717Z</time></trkpt><trkpt lat="43.3123404" lon="12.4392934"><ele>461.6666666666667</ele><time>2026-04-28T10:58:54.718Z</time></trkpt><trkpt lat="43.3123246" lon="12.4391692"><ele>462.5</ele><time>2026-04-28T10:58:55.717Z</time></trkpt><trkpt lat="43.3123097" lon="12.4390639"><ele>463.33333333333337</ele><time>2026-04-28T10:58:56.718Z</time></trkpt><trkpt lat="43.3122952" lon="12.4389786"><ele>464.1666666666667</ele><time>2026-04-28T10:58:57.718Z</time></trkpt><trkpt lat="43.3122865" lon="12.4388441"><ele>465.0</ele><time>2026-04-28T10:58:59.718Z</time></trkpt><trkpt lat="43.3123203" lon="12.4387597"><ele>466.5</ele><time>2026-04-28T10:59:01.717Z</time></trkpt><trkpt lat="43.3124158" lon="12.4386669"><ele>468.0</ele><time>2026-04-28T10:59:03.718Z</time></trkpt><trkpt lat="43.3124685" lon="12.4386062"><ele>469.5</ele><time>2026-04-28T10:59:04.718Z</time></trkpt><trkpt lat="43.3125034" lon="12.4385307"><ele>471.0</ele><time>2026-04-28T10:59:05.717Z</time></trkpt><trkpt lat="43.3125331" lon="12.4384428"><ele>472.5</ele><time>2026-04-28T10:59:06.718Z</time></trkpt><trkpt lat="43.3125434" lon="12.4383569"><ele>474.0</ele><time>2026-04-28T10:59:07.718Z</time></trkpt><trkpt lat="43.3125583" lon="12.4382628"><ele>473.99999999999994</ele><time>2026-04-28T10:59:08.718Z</time></trkpt><trkpt lat="43.3125743" lon="12.4381662"><ele>474.0</ele><time>2026-04-28T10:59:09.718Z</time></trkpt><trkpt lat="43.3125918" lon="12.438073"><ele>473.99999999999994</ele><time>2026-04-28T10:59:10.718Z</time></trkpt><trkpt lat="43.3126174" lon="12.4379718"><ele>473.99999999999994</ele><time>2026-04-28T10:59:11.717Z</time></trkpt><trkpt lat="43.3126497" lon="12.4378805"><ele>474.0</ele><time>2026-04-28T10:59:12.717Z</time></trkpt><trkpt lat="43.3126879" lon="12.4377979"><ele>473.99999999999994</ele><time>2026-04-28T10:59:13.718Z</time></trkpt><trkpt lat="43.312726" lon="12.4377186"><ele>473.99999999999994</ele><time>2026-04-28T10:59:14.718Z</time></trkpt><trkpt lat="43.3127711" lon="12.4376412"><ele>475.8333333333333</ele><time>2026-04-28T10:59:15.717Z</time></trkpt><trkpt lat="43.3128178" lon="12.4375658"><ele>477.66666666666663</ele><time>2026-04-28T10:59:16.718Z</time></trkpt><trkpt lat="43.3128668" lon="12.4374913"><ele>479.5</ele><time>2026-04-28T10:59:17.717Z</time></trkpt><trkpt lat="43.3129133" lon="12.4374222"><ele>481.3333333333333</ele><time>2026-04-28T10:59:18.718Z</time></trkpt><trkpt lat="43.3129831" lon="12.4373153"><ele>483.16666666666663</ele><time>2026-04-28T10:59:20.718Z</time></trkpt><trkpt lat="43.3130474" lon="12.4371887"><ele>485.0</ele><time>2026-04-28T10:59:22.718Z</time></trkpt><trkpt lat="43.3130937" lon="12.4370471"><ele>485.66666666666663</ele><time>2026-04-28T10:59:24.718Z</time></trkpt><trkpt lat="43.3131466" lon="12.4369131"><ele>486.3333333333333</ele><time>2026-04-28T10:59:26.717Z</time></trkpt><trkpt lat="43.3131915" lon="12.4368486"><ele>487.0</ele><time>2026-04-28T10:59:27.718Z</time></trkpt><trkpt lat="43.3132454" lon="12.4367935"><ele>487.66666666666663</ele><time>2026-04-28T10:59:28.718Z</time></trkpt><trkpt lat="43.3133012" lon="12.4367353"><ele>488.3333333333333</ele><time>2026-04-28T10:59:29.718Z</time></trkpt><trkpt lat="43.313366" lon="12.4366588"><ele>489.0</ele><time>2026-04-28T10:59:30.717Z</time></trkpt><trkpt lat="43.3134332" lon="12.4365735"><ele>489.0</ele><time>2026-04-28T10:59:31.718Z</time></trkpt><trkpt lat="43.3134933" lon="12.4365"><ele>489.0</ele><time>2026-04-28T10:59:32.717Z</time></trkpt><trkpt lat="43.3135638" lon="12.4363692"><ele>489.0</ele><time>2026-04-28T10:59:34.718Z</time></trkpt><trkpt lat="43.313585" lon="12.4362215"><ele>489.0</ele><time>2026-04-28T10:59:36.717Z</time></trkpt><trkpt lat="43.3135503" lon="12.4360651"><ele>489.0</ele><time>2026-04-28T10:59:38.718Z</time></trkpt><trkpt lat="43.3135152" lon="12.4359436"><ele>490.3333333333333</ele><time>2026-04-28T10:59:40.718Z</time></trkpt><trkpt lat="43.313526" lon="12.435856"><ele>491.66666666666663</ele><time>2026-04-28T10:59:42.718Z</time></trkpt><trkpt lat="43.3135969" lon="12.435832"><ele>493.0</ele><time>2026-04-28T10:59:55.718Z</time></trkpt><trkpt lat="43.3136606" lon="12.435892"><ele>494.3333333333333</ele><time>2026-04-28T10:59:57.718Z</time></trkpt><trkpt lat="43.313731" lon="12.4359957"><ele>495.66666666666663</ele><time>2026-04-28T10:59:59.718Z</time></trkpt><trkpt lat="43.3137929" lon="12.4360613"><ele>497.0</ele><time>2026-04-28T11:00:01.718Z</time></trkpt><trkpt lat="43.3138961" lon="12.4360279"><ele>497.16666666666663</ele><time>2026-04-28T11:00:03.718Z</time></trkpt><trkpt lat="43.3140058" lon="12.4359758"><ele>497.3333333333333</ele><time>2026-04-28T11:00:05.718Z</time></trkpt><trkpt lat="43.314059" lon="12.4359288"><ele>497.5</ele><time>2026-04-28T11:00:06.718Z</time></trkpt><trkpt lat="43.3141158" lon="12.4358557"><ele>497.66666666666663</ele><time>2026-04-28T11:00:07.717Z</time></trkpt><trkpt lat="43.3141672" lon="12.4357591"><ele>497.8333333333333</ele><time>2026-04-28T11:00:08.718Z</time></trkpt><trkpt lat="43.3142197" lon="12.435641"><ele>498.0</ele><time>2026-04-28T11:00:09.718Z</time></trkpt><trkpt lat="43.3142724" lon="12.4355021"><ele>500.0</ele><time>2026-04-28T11:00:10.717Z</time></trkpt><trkpt lat="43.3143252" lon="12.4353325"><ele>502.0</ele><time>2026-04-28T11:00:11.718Z</time></trkpt><trkpt lat="43.3143787" lon="12.4351691"><ele>504.0</ele><time>2026-04-28T11:00:12.718Z</time></trkpt><trkpt lat="43.3144399" lon="12.434996"><ele>506.0</ele><time>2026-04-28T11:00:13.718Z</time></trkpt><trkpt lat="43.3145146" lon="12.4347959"><ele>508.0</ele><time>2026-04-28T11:00:14.716Z</time></trkpt><trkpt lat="43.3145935" lon="12.4345905"><ele>510.0</ele><time>2026-04-28T11:00:15.717Z</time></trkpt><trkpt lat="43.3146659" lon="12.4344017"><ele>512.0</ele><time>2026-04-28T11:00:16.718Z</time></trkpt><trkpt lat="43.3147284" lon="12.4342428"><ele>513.6</ele><time>2026-04-28T11:00:17.718Z</time></trkpt><trkpt lat="43.3147852" lon="12.4340988"><ele>515.2</ele><time>2026-04-28T11:00:18.718Z</time></trkpt><trkpt lat="43.3148323" lon="12.4339741"><ele>516.8</ele><time>2026-04-28T11:00:19.718Z</time></trkpt><trkpt lat="43.3148796" lon="12.4338562"><ele>518.4</ele><time>2026-04-28T11:00:20.717Z</time></trkpt><trkpt lat="43.3149257" lon="12.4337476"><ele>520.0</ele><time>2026-04-28T11:00:21.716Z</time></trkpt><trkpt lat="43.3149789" lon="12.4336434"><ele>521.1666666666667</ele><time>2026-04-28T11:00:22.717Z</time></trkpt><trkpt lat="43.3150396" lon="12.4335516"><ele>522.3333333333334</ele><time>2026-04-28T11:00:23.717Z</time></trkpt><trkpt lat="43.3150952" lon="12.4334684"><ele>523.5</ele><time>2026-04-28T11:00:24.718Z</time></trkpt><trkpt lat="43.3151435" lon="12.4334082"><ele>524.6666666666666</ele><time>2026-04-28T11:00:25.718Z</time></trkpt><trkpt lat="43.3152061" lon="12.4333034"><ele>525.8333333333333</ele><time>2026-04-28T11:00:27.718Z</time></trkpt><trkpt lat="43.3151967" lon="12.4332087"><ele>527.0</ele><time>2026-04-28T11:00:29.718Z</time></trkpt><trkpt lat="43.3151215" lon="12.4331176"><ele>527.0</ele><time>2026-04-28T11:00:31.718Z</time></trkpt><trkpt lat="43.3150484" lon="12.4330495"><ele>527.0</ele><time>2026-04-28T11:00:32.718Z</time></trkpt><trkpt lat="43.3149611" lon="12.432966"><ele>527.0</ele><time>2026-04-28T11:00:33.717Z</time></trkpt><trkpt lat="43.3148587" lon="12.4328662"><ele>527.0</ele><time>2026-04-28T11:00:34.718Z</time></trkpt><trkpt lat="43.3147551" lon="12.4327486"><ele>527.5</ele><time>2026-04-28T11:00:35.718Z</time></trkpt><trkpt lat="43.3146513" lon="12.432626"><ele>528.0</ele><time>2026-04-28T11:00:36.718Z</time></trkpt><trkpt lat="43.3145422" lon="12.4324977"><ele>528.5</ele><time>2026-04-28T11:00:37.717Z</time></trkpt><trkpt lat="43.314428" lon="12.4323673"><ele>529.0</ele><time>2026-04-28T11:00:38.718Z</time></trkpt><trkpt lat="43.3143135" lon="12.4322398"><ele>531.5</ele><time>2026-04-28T11:00:39.718Z</time></trkpt><trkpt lat="43.3142094" lon="12.4321246"><ele>534.0</ele><time>2026-04-28T11:00:40.717Z</time></trkpt><trkpt lat="43.3141133" lon="12.4320249"><ele>536.5</ele><time>2026-04-28T11:00:41.718Z</time></trkpt><trkpt lat="43.3140192" lon="12.4319385"><ele>539.0</ele><time>2026-04-28T11:00:42.718Z</time></trkpt><trkpt lat="43.31392" lon="12.4318678"><ele>540.0</ele><time>2026-04-28T11:00:43.717Z</time></trkpt><trkpt lat="43.3138157" lon="12.4318046"><ele>541.0</ele><time>2026-04-28T11:00:44.718Z</time></trkpt><trkpt lat="43.3137097" lon="12.4317433"><ele>542.0</ele><time>2026-04-28T11:00:45.718Z</time></trkpt><trkpt lat="43.3135983" lon="12.4316824"><ele>543.0</ele><time>2026-04-28T11:00:46.717Z</time></trkpt><trkpt lat="43.3134856" lon="12.4316203"><ele>543.0</ele><time>2026-04-28T11:00:47.718Z</time></trkpt><trkpt lat="43.3133713" lon="12.4315562"><ele>543.0</ele><time>2026-04-28T11:00:48.718Z</time></trkpt><trkpt lat="43.3132612" lon="12.4314889"><ele>543.0</ele><time>2026-04-28T11:00:49.717Z</time></trkpt><trkpt lat="43.3131514" lon="12.431423"><ele>543.0</ele><time>2026-04-28T11:00:50.718Z</time></trkpt><trkpt lat="43.3130427" lon="12.4313655"><ele>544.75</ele><time>2026-04-28T11:00:51.718Z</time></trkpt><trkpt lat="43.312929" lon="12.4313199"><ele>546.5</ele><time>2026-04-28T11:00:52.717Z</time></trkpt><trkpt lat="43.3128038" lon="12.4312836"><ele>548.25</ele><time>2026-04-28T11:00:53.718Z</time></trkpt><trkpt lat="43.3126735" lon="12.4312532"><ele>550.0</ele><time>2026-04-28T11:00:54.718Z</time></trkpt><trkpt lat="43.3125425" lon="12.4312192"><ele>550.25</ele><time>2026-04-28T11:00:55.718Z</time></trkpt><trkpt lat="43.3124152" lon="12.4311754"><ele>550.5</ele><time>2026-04-28T11:00:56.717Z</time></trkpt><trkpt lat="43.312294" lon="12.4311284"><ele>550.75</ele><time>2026-04-28T11:00:57.718Z</time></trkpt><trkpt lat="43.3121739" lon="12.4310777"><ele>551.0</ele><time>2026-04-28T11:00:58.718Z</time></trkpt><trkpt lat="43.3120524" lon="12.4310217"><ele>552.75</ele><time>2026-04-28T11:00:59.717Z</time></trkpt><trkpt lat="43.3119266" lon="12.4309647"><ele>554.5</ele><time>2026-04-28T11:01:00.718Z</time></trkpt><trkpt lat="43.3117981" lon="12.4309058"><ele>556.25</ele><time>2026-04-28T11:01:01.718Z</time></trkpt><trkpt lat="43.3116696" lon="12.4308469"><ele>558.0</ele><time>2026-04-28T11:01:02.718Z</time></trkpt><trkpt lat="43.311542" lon="12.4307847"><ele>558.0</ele><time>2026-04-28T11:01:03.718Z</time></trkpt><trkpt lat="43.311418" lon="12.4307193"><ele>558.0</ele><time>2026-04-28T11:01:04.718Z</time></trkpt><trkpt lat="43.3113058" lon="12.4306508"><ele>558.0</ele><time>2026-04-28T11:01:05.717Z</time></trkpt><trkpt lat="43.3112037" lon="12.4305802"><ele>558.0</ele><time>2026-04-28T11:01:06.718Z</time></trkpt><trkpt lat="43.3111143" lon="12.4304975"><ele>559.6</ele><time>2026-04-28T11:01:07.718Z</time></trkpt><trkpt lat="43.3110329" lon="12.4303953"><ele>561.1999999999999</ele><time>2026-04-28T11:01:08.718Z</time></trkpt><trkpt lat="43.3109605" lon="12.4302821"><ele>562.8</ele><time>2026-04-28T11:01:09.718Z</time></trkpt><trkpt lat="43.3108924" lon="12.4301653"><ele>564.4</ele><time>2026-04-28T11:01:10.718Z</time></trkpt><trkpt lat="43.3108198" lon="12.4300582"><ele>566.0</ele><time>2026-04-28T11:01:11.717Z</time></trkpt><trkpt lat="43.3107395" lon="12.4299687"><ele>566.0</ele><time>2026-04-28T11:01:12.718Z</time></trkpt><trkpt lat="43.3106497" lon="12.429897"><ele>566.0</ele><time>2026-04-28T11:01:13.718Z</time></trkpt><trkpt lat="43.3105455" lon="12.4298398"><ele>566.0</ele><time>2026-04-28T11:01:14.718Z</time></trkpt><trkpt lat="43.3104348" lon="12.4297956"><ele>566.0</ele><time>2026-04-28T11:01:15.717Z</time></trkpt><trkpt lat="43.3103414" lon="12.4297477"><ele>566.0</ele><time>2026-04-28T11:01:16.718Z</time></trkpt><trkpt lat="43.3102661" lon="12.4296866"><ele>567.8333333333333</ele><time>2026-04-28T11:01:17.718Z</time></trkpt><trkpt lat="43.310207" lon="12.4296105"><ele>569.6666666666666</ele><time>2026-04-28T11:01:18.718Z</time></trkpt><trkpt lat="43.3101616" lon="12.4295234"><ele>571.5</ele><time>2026-04-28T11:01:19.717Z</time></trkpt><trkpt lat="43.3101428" lon="12.4294304"><ele>573.3333333333334</ele><time>2026-04-28T11:01:20.718Z</time></trkpt><trkpt lat="43.3101367" lon="12.4293178"><ele>575.1666666666667</ele><time>2026-04-28T11:01:21.718Z</time></trkpt><trkpt lat="43.3101417" lon="12.4291908"><ele>577.0</ele><time>2026-04-28T11:01:22.718Z</time></trkpt><trkpt lat="43.3101413" lon="12.4290476"><ele>577.0</ele><time>2026-04-28T11:01:23.718Z</time></trkpt><trkpt lat="43.3101315" lon="12.4289016"><ele>577.0</ele><time>2026-04-28T11:01:24.718Z</time></trkpt><trkpt lat="43.3101062" lon="12.4287503"><ele>577.0</ele><time>2026-04-28T11:01:25.718Z</time></trkpt><trkpt lat="43.3100701" lon="12.4285877"><ele>577.0</ele><time>2026-04-28T11:01:26.718Z</time></trkpt><trkpt lat="43.3100254" lon="12.4284186"><ele>577.2</ele><time>2026-04-28T11:01:27.718Z</time></trkpt><trkpt lat="43.3099745" lon="12.4282623"><ele>577.4000000000001</ele><time>2026-04-28T11:01:28.718Z</time></trkpt><trkpt lat="43.3099242" lon="12.4281336"><ele>577.5999999999999</ele><time>2026-04-28T11:01:29.718Z</time></trkpt><trkpt lat="43.3098684" lon="12.4280165"><ele>577.8</ele><time>2026-04-28T11:01:30.718Z</time></trkpt><trkpt lat="43.3098063" lon="12.4278985"><ele>578.0</ele><time>2026-04-28T11:01:31.718Z</time></trkpt><trkpt lat="43.3097423" lon="12.427782"><ele>579.6666666666666</ele><time>2026-04-28T11:01:32.718Z</time></trkpt><trkpt lat="43.3096899" lon="12.427677"><ele>581.3333333333333</ele><time>2026-04-28T11:01:33.718Z</time></trkpt><trkpt lat="43.3096492" lon="12.4275829"><ele>583.0</ele><time>2026-04-28T11:01:34.718Z</time></trkpt><trkpt lat="43.3096227" lon="12.427477"><ele>584.6666666666666</ele><time>2026-04-28T11:01:35.718Z</time></trkpt><trkpt lat="43.3096169" lon="12.4273607"><ele>586.3333333333334</ele><time>2026-04-28T11:01:36.717Z</time></trkpt><trkpt lat="43.3096259" lon="12.4272424"><ele>588.0</ele><time>2026-04-28T11:01:37.717Z</time></trkpt><trkpt lat="43.3096325" lon="12.4271159"><ele>589.6</ele><time>2026-04-28T11:01:38.718Z</time></trkpt><trkpt lat="43.3096238" lon="12.4269837"><ele>591.1999999999999</ele><time>2026-04-28T11:01:39.718Z</time></trkpt><trkpt lat="43.3096008" lon="12.4268533"><ele>592.8</ele><time>2026-04-28T11:01:40.717Z</time></trkpt><trkpt lat="43.3095692" lon="12.4267163"><ele>594.4</ele><time>2026-04-28T11:01:41.718Z</time></trkpt><trkpt lat="43.3095314" lon="12.4265775"><ele>596.0</ele><time>2026-04-28T11:01:42.717Z</time></trkpt><trkpt lat="43.3094941" lon="12.4264672"><ele>596.0</ele><time>2026-04-28T11:01:43.718Z</time></trkpt><trkpt lat="43.3094472" lon="12.4263535"><ele>596.0</ele><time>2026-04-28T11:01:44.717Z</time></trkpt><trkpt lat="43.3093896" lon="12.4262354"><ele>596.0</ele><time>2026-04-28T11:01:45.718Z</time></trkpt><trkpt lat="43.3093455" lon="12.4261429"><ele>596.0</ele><time>2026-04-28T11:01:46.718Z</time></trkpt><trkpt lat="43.309289" lon="12.426027"><ele>596.0</ele><time>2026-04-28T11:01:48.718Z</time></trkpt><trkpt lat="43.3092568" lon="12.4259484"><ele>596.0</ele><time>2026-04-28T11:01:58.718Z</time></trkpt><trkpt lat="43.3092236" lon="12.4258198"><ele>597.0</ele><time>2026-04-28T11:02:00.717Z</time></trkpt><trkpt lat="43.3092087" lon="12.4256914"><ele>598.0</ele><time>2026-04-28T11:02:02.718Z</time></trkpt><trkpt lat="43.3092007" lon="12.4255102"><ele>599.0</ele><time>2026-04-28T11:02:04.718Z</time></trkpt><trkpt lat="43.309196" lon="12.4254098"><ele>600.0</ele><time>2026-04-28T11:02:05.718Z</time></trkpt><trkpt lat="43.3091779" lon="12.4253097"><ele>601.0</ele><time>2026-04-28T11:02:06.717Z</time></trkpt><trkpt lat="43.3091537" lon="12.4252123"><ele>602.0</ele><time>2026-04-28T11:02:07.718Z</time></trkpt><trkpt lat="43.309141" lon="12.4251167"><ele>603.0</ele><time>2026-04-28T11:02:08.718Z</time></trkpt><trkpt lat="43.309143" lon="12.4250162"><ele>604.0</ele><time>2026-04-28T11:02:09.717Z</time></trkpt><trkpt lat="43.3091542" lon="12.4249188"><ele>605.0</ele><time>2026-04-28T11:02:10.717Z</time></trkpt><trkpt lat="43.3091647" lon="12.42481"><ele>606.0</ele><time>2026-04-28T11:02:11.717Z</time></trkpt><trkpt lat="43.3091719" lon="12.4246925"><ele>607.0</ele><time>2026-04-28T11:02:12.716Z</time></trkpt><trkpt lat="43.3091719" lon="12.4245742"><ele>607.5</ele><time>2026-04-28T11:02:13.717Z</time></trkpt><trkpt lat="43.3091807" lon="12.4244552"><ele>608.0</ele><time>2026-04-28T11:02:14.717Z</time></trkpt><trkpt lat="43.3091971" lon="12.4243397"><ele>608.5</ele><time>2026-04-28T11:02:15.717Z</time></trkpt><trkpt lat="43.309215" lon="12.4242247"><ele>609.0</ele><time>2026-04-28T11:02:16.717Z</time></trkpt><trkpt lat="43.3092358" lon="12.4241076"><ele>609.5</ele><time>2026-04-28T11:02:17.717Z</time></trkpt><trkpt lat="43.3092587" lon="12.4239896"><ele>610.0</ele><time>2026-04-28T11:02:18.716Z</time></trkpt><trkpt lat="43.3092855" lon="12.4238643"><ele>612.0</ele><time>2026-04-28T11:02:19.715Z</time></trkpt><trkpt lat="43.3093152" lon="12.4237355"><ele>614.0</ele><time>2026-04-28T11:02:20.717Z</time></trkpt><trkpt lat="43.3093452" lon="12.42361"><ele>616.0</ele><time>2026-04-28T11:02:21.717Z</time></trkpt><trkpt lat="43.3093737" lon="12.423486"><ele>618.0</ele><time>2026-04-28T11:02:22.716Z</time></trkpt><trkpt lat="43.3093985" lon="12.4233584"><ele>620.0</ele><time>2026-04-28T11:02:23.717Z</time></trkpt><trkpt lat="43.309418" lon="12.4232266"><ele>620.0</ele><time>2026-04-28T11:02:24.717Z</time></trkpt><trkpt lat="43.3094252" lon="12.423094"><ele>620.0</ele><time>2026-04-28T11:02:25.717Z</time></trkpt><trkpt lat="43.3094307" lon="12.4229668"><ele>620.0</ele><time>2026-04-28T11:02:26.717Z</time></trkpt><trkpt lat="43.3094398" lon="12.4228422"><ele>620.0</ele><time>2026-04-28T11:02:27.716Z</time></trkpt><trkpt lat="43.3094543" lon="12.4227176"><ele>620.0</ele><time>2026-04-28T11:02:28.716Z</time></trkpt><trkpt lat="43.3094691" lon="12.4225926"><ele>621.4</ele><time>2026-04-28T11:02:29.717Z</time></trkpt><trkpt lat="43.3094792" lon="12.4224811"><ele>622.8</ele><time>2026-04-28T11:02:30.717Z</time></trkpt><trkpt lat="43.3094875" lon="12.4223729"><ele>624.2</ele><time>2026-04-28T11:02:31.717Z</time></trkpt><trkpt lat="43.3094978" lon="12.4222751"><ele>625.6</ele><time>2026-04-28T11:02:32.717Z</time></trkpt><trkpt lat="43.3095262" lon="12.4221255"><ele>627.0</ele><time>2026-04-28T11:02:34.716Z</time></trkpt><trkpt lat="43.3095794" lon="12.421962"><ele>627.0</ele><time>2026-04-28T11:02:36.717Z</time></trkpt><trkpt lat="43.3096131" lon="12.421861"><ele>627.0</ele><time>2026-04-28T11:02:37.717Z</time></trkpt><trkpt lat="43.3096449" lon="12.4217568"><ele>627.0</ele><time>2026-04-28T11:02:38.717Z</time></trkpt><trkpt lat="43.3096784" lon="12.4216559"><ele>627.0</ele><time>2026-04-28T11:02:39.717Z</time></trkpt><trkpt lat="43.3097145" lon="12.4215559"><ele>627.0</ele><time>2026-04-28T11:02:40.717Z</time></trkpt><trkpt lat="43.3097534" lon="12.4214568"><ele>627.0</ele><time>2026-04-28T11:02:41.717Z</time></trkpt><trkpt lat="43.3097944" lon="12.4213561"><ele>624.3333333333334</ele><time>2026-04-28T11:02:42.716Z</time></trkpt><trkpt lat="43.3098326" lon="12.4212542"><ele>621.6666666666666</ele><time>2026-04-28T11:02:43.717Z</time></trkpt><trkpt lat="43.3098713" lon="12.4211521"><ele>619.0</ele><time>2026-04-28T11:02:44.717Z</time></trkpt><trkpt lat="43.3099145" lon="12.4210518"><ele>616.3333333333333</ele><time>2026-04-28T11:02:45.717Z</time></trkpt><trkpt lat="43.3099616" lon="12.4209534"><ele>613.6666666666666</ele><time>2026-04-28T11:02:46.716Z</time></trkpt><trkpt lat="43.3100091" lon="12.4208566"><ele>611.0</ele><time>2026-04-28T11:02:47.717Z</time></trkpt><trkpt lat="43.3100574" lon="12.4207617"><ele>611.0</ele><time>2026-04-28T11:02:48.717Z</time></trkpt><trkpt lat="43.3101025" lon="12.4206696"><ele>611.0</ele><time>2026-04-28T11:02:49.717Z</time></trkpt><trkpt lat="43.3101442" lon="12.4205748"><ele>611.0</ele><time>2026-04-28T11:02:50.717Z</time></trkpt><trkpt lat="43.3101878" lon="12.4204602"><ele>611.0</ele><time>2026-04-28T11:02:51.717Z</time></trkpt><trkpt lat="43.3102213" lon="12.4203334"><ele>611.0</ele><time>2026-04-28T11:02:52.717Z</time></trkpt><trkpt lat="43.3102497" lon="12.4202163"><ele>611.0</ele><time>2026-04-28T11:02:53.717Z</time></trkpt><trkpt lat="43.3102793" lon="12.420087"><ele>609.4</ele><time>2026-04-28T11:02:54.717Z</time></trkpt><trkpt lat="43.3103116" lon="12.4199559"><ele>607.8</ele><time>2026-04-28T11:02:55.716Z</time></trkpt><trkpt lat="43.3103478" lon="12.4198261"><ele>606.1999999999999</ele><time>2026-04-28T11:02:56.717Z</time></trkpt><trkpt lat="43.3103886" lon="12.4197057"><ele>604.6</ele><time>2026-04-28T11:02:57.716Z</time></trkpt><trkpt lat="43.3104363" lon="12.4195973"><ele>603.0</ele><time>2026-04-28T11:02:58.717Z</time></trkpt><trkpt lat="43.3104928" lon="12.4194852"><ele>602.6</ele><time>2026-04-28T11:02:59.716Z</time></trkpt><trkpt lat="43.310563" lon="12.4193681"><ele>602.1999999999999</ele><time>2026-04-28T11:03:00.716Z</time></trkpt><trkpt lat="43.310632" lon="12.4192419"><ele>601.8</ele><time>2026-04-28T11:03:01.717Z</time></trkpt><trkpt lat="43.3106972" lon="12.4191218"><ele>601.4</ele><time>2026-04-28T11:03:02.717Z</time></trkpt><trkpt lat="43.3107644" lon="12.4190119"><ele>601.0</ele><time>2026-04-28T11:03:03.716Z</time></trkpt><trkpt lat="43.3108413" lon="12.4189072"><ele>598.75</ele><time>2026-04-28T11:03:04.717Z</time></trkpt><trkpt lat="43.3109311" lon="12.4188153"><ele>596.5</ele><time>2026-04-28T11:03:05.717Z</time></trkpt><trkpt lat="43.3110266" lon="12.418726"><ele>594.25</ele><time>2026-04-28T11:03:06.717Z</time></trkpt><trkpt lat="43.3111244" lon="12.4186323"><ele>592.0</ele><time>2026-04-28T11:03:07.716Z</time></trkpt><trkpt lat="43.3112144" lon="12.4185319"><ele>592.0</ele><time>2026-04-28T11:03:08.717Z</time></trkpt><trkpt lat="43.3112901" lon="12.4184237"><ele>592.0</ele><time>2026-04-28T11:03:09.717Z</time></trkpt><trkpt lat="43.3113611" lon="12.4183072"><ele>592.0</ele><time>2026-04-28T11:03:10.717Z</time></trkpt><trkpt lat="43.3114242" lon="12.4181853"><ele>592.0</ele><time>2026-04-28T11:03:11.717Z</time></trkpt><trkpt lat="43.311479" lon="12.4180516"><ele>592.0</ele><time>2026-04-28T11:03:12.716Z</time></trkpt><trkpt lat="43.3115268" lon="12.4179048"><ele>594.75</ele><time>2026-04-28T11:03:13.717Z</time></trkpt><trkpt lat="43.3115758" lon="12.4177516"><ele>597.5</ele><time>2026-04-28T11:03:14.717Z</time></trkpt><trkpt lat="43.3116305" lon="12.4175933"><ele>600.25</ele><time>2026-04-28T11:03:15.716Z</time></trkpt><trkpt lat="43.311691" lon="12.4174376"><ele>603.0</ele><time>2026-04-28T11:03:16.717Z</time></trkpt><trkpt lat="43.3117612" lon="12.417283"><ele>602.25</ele><time>2026-04-28T11:03:17.717Z</time></trkpt><trkpt lat="43.3118345" lon="12.4171228"><ele>601.5</ele><time>2026-04-28T11:03:18.717Z</time></trkpt><trkpt lat="43.3119093" lon="12.4169551"><ele>600.75</ele><time>2026-04-28T11:03:19.717Z</time></trkpt><trkpt lat="43.3119826" lon="12.4167827"><ele>600.0</ele><time>2026-04-28T11:03:20.715Z</time></trkpt><trkpt lat="43.3120534" lon="12.4166068"><ele>600.0</ele><time>2026-04-28T11:03:21.716Z</time></trkpt><trkpt lat="43.3121184" lon="12.4164238"><ele>600.0</ele><time>2026-04-28T11:03:22.717Z</time></trkpt><trkpt lat="43.312177" lon="12.4162357"><ele>600.0</ele><time>2026-04-28T11:03:23.717Z</time></trkpt><trkpt lat="43.3122375" lon="12.4160457"><ele>600.0</ele><time>2026-04-28T11:03:24.717Z</time></trkpt><trkpt lat="43.3123021" lon="12.4158581"><ele>600.0</ele><time>2026-04-28T11:03:25.717Z</time></trkpt><trkpt lat="43.3123772" lon="12.4156791"><ele>600.0</ele><time>2026-04-28T11:03:26.717Z</time></trkpt><trkpt lat="43.3124585" lon="12.4155087"><ele>600.0</ele><time>2026-04-28T11:03:27.717Z</time></trkpt><trkpt lat="43.3125403" lon="12.415341"><ele>600.0</ele><time>2026-04-28T11:03:28.717Z</time></trkpt><trkpt lat="43.3126219" lon="12.4151774"><ele>601.0</ele><time>2026-04-28T11:03:29.717Z</time></trkpt><trkpt lat="43.3126973" lon="12.4150132"><ele>602.0</ele><time>2026-04-28T11:03:30.717Z</time></trkpt><trkpt lat="43.3127655" lon="12.4148495"><ele>603.0</ele><time>2026-04-28T11:03:31.716Z</time></trkpt><trkpt lat="43.312835" lon="12.4146856"><ele>604.0</ele><time>2026-04-28T11:03:32.717Z</time></trkpt><trkpt lat="43.3129112" lon="12.4145233"><ele>604.0</ele><time>2026-04-28T11:03:33.716Z</time></trkpt><trkpt lat="43.3129897" lon="12.4143615"><ele>604.0</ele><time>2026-04-28T11:03:34.717Z</time></trkpt><trkpt lat="43.3130665" lon="12.4142005"><ele>604.0</ele><time>2026-04-28T11:03:35.716Z</time></trkpt><trkpt lat="43.3131344" lon="12.4140447"><ele>604.0</ele><time>2026-04-28T11:03:36.717Z</time></trkpt><trkpt lat="43.3131981" lon="12.4138896"><ele>604.0</ele><time>2026-04-28T11:03:37.716Z</time></trkpt><trkpt lat="43.3132562" lon="12.4137428"><ele>604.0</ele><time>2026-04-28T11:03:38.717Z</time></trkpt><trkpt lat="43.3133136" lon="12.4136029"><ele>604.0</ele><time>2026-04-28T11:03:39.716Z</time></trkpt><trkpt lat="43.3133764" lon="12.4134683"><ele>604.0</ele><time>2026-04-28T11:03:40.717Z</time></trkpt><trkpt lat="43.3134399" lon="12.4133284"><ele>604.0</ele><time>2026-04-28T11:03:41.717Z</time></trkpt><trkpt lat="43.3135012" lon="12.4131874"><ele>604.0</ele><time>2026-04-28T11:03:42.716Z</time></trkpt><trkpt lat="43.3135645" lon="12.4130391"><ele>604.0</ele><time>2026-04-28T11:03:43.717Z</time></trkpt><trkpt lat="43.3136268" lon="12.4128904"><ele>604.0</ele><time>2026-04-28T11:03:44.716Z</time></trkpt><trkpt lat="43.313691" lon="12.4127341"><ele>601.75</ele><time>2026-04-28T11:03:45.716Z</time></trkpt><trkpt lat="43.3137539" lon="12.4125748"><ele>599.5</ele><time>2026-04-28T11:03:46.717Z</time></trkpt><trkpt lat="43.3138117" lon="12.4124175"><ele>597.25</ele><time>2026-04-28T11:03:47.716Z</time></trkpt><trkpt lat="43.3138606" lon="12.4122605"><ele>595.0</ele><time>2026-04-28T11:03:48.717Z</time></trkpt><trkpt lat="43.3138988" lon="12.4120963"><ele>596.0</ele><time>2026-04-28T11:03:49.716Z</time></trkpt><trkpt lat="43.3139207" lon="12.4119351"><ele>597.0</ele><time>2026-04-28T11:03:50.717Z</time></trkpt><trkpt lat="43.3139372" lon="12.41179"><ele>598.0</ele><time>2026-04-28T11:03:51.717Z</time></trkpt><trkpt lat="43.3139648" lon="12.4116673"><ele>599.0</ele><time>2026-04-28T11:03:52.717Z</time></trkpt><trkpt lat="43.3140099" lon="12.4115581"><ele>600.0</ele><time>2026-04-28T11:03:53.717Z</time></trkpt><trkpt lat="43.3140693" lon="12.4114624"><ele>600.0</ele><time>2026-04-28T11:03:54.716Z</time></trkpt><trkpt lat="43.3141353" lon="12.4113728"><ele>600.0</ele><time>2026-04-28T11:03:55.717Z</time></trkpt><trkpt lat="43.3142025" lon="12.4112635"><ele>600.0</ele><time>2026-04-28T11:03:56.717Z</time></trkpt><trkpt lat="43.3142682" lon="12.4111347"><ele>600.0</ele><time>2026-04-28T11:03:57.716Z</time></trkpt><trkpt lat="43.3143219" lon="12.4109896"><ele>600.0</ele><time>2026-04-28T11:03:58.717Z</time></trkpt><trkpt lat="43.3143647" lon="12.4108336"><ele>597.75</ele><time>2026-04-28T11:03:59.717Z</time></trkpt><trkpt lat="43.3144055" lon="12.4106812"><ele>595.5</ele><time>2026-04-28T11:04:00.717Z</time></trkpt><trkpt lat="43.3144543" lon="12.4105259"><ele>593.25</ele><time>2026-04-28T11:04:01.717Z</time></trkpt><trkpt lat="43.3145094" lon="12.4103604"><ele>591.0</ele><time>2026-04-28T11:04:02.716Z</time></trkpt><trkpt lat="43.3145747" lon="12.4101865"><ele>591.75</ele><time>2026-04-28T11:04:03.717Z</time></trkpt><trkpt lat="43.3146414" lon="12.4100137"><ele>592.5</ele><time>2026-04-28T11:04:04.716Z</time></trkpt><trkpt lat="43.3146962" lon="12.4098455"><ele>593.25</ele><time>2026-04-28T11:04:05.717Z</time></trkpt><trkpt lat="43.3147427" lon="12.4096868"><ele>594.0</ele><time>2026-04-28T11:04:06.717Z</time></trkpt><trkpt lat="43.3147803" lon="12.4095379"><ele>594.2</ele><time>2026-04-28T11:04:07.716Z</time></trkpt><trkpt lat="43.3147975" lon="12.4093974"><ele>594.4</ele><time>2026-04-28T11:04:08.717Z</time></trkpt><trkpt lat="43.314785" lon="12.4092618"><ele>594.6</ele><time>2026-04-28T11:04:09.717Z</time></trkpt><trkpt lat="43.3147507" lon="12.409117"><ele>594.8</ele><time>2026-04-28T11:04:10.717Z</time></trkpt><trkpt lat="43.3146996" lon="12.4089579"><ele>595.0</ele><time>2026-04-28T11:04:11.717Z</time></trkpt><trkpt lat="43.3146436" lon="12.4088001"><ele>592.75</ele><time>2026-04-28T11:04:12.716Z</time></trkpt><trkpt lat="43.3145839" lon="12.4086383"><ele>590.5</ele><time>2026-04-28T11:04:13.717Z</time></trkpt><trkpt lat="43.3145244" lon="12.4084777"><ele>588.25</ele><time>2026-04-28T11:04:14.717Z</time></trkpt><trkpt lat="43.3144641" lon="12.4083311"><ele>586.0</ele><time>2026-04-28T11:04:15.716Z</time></trkpt><trkpt lat="43.3143983" lon="12.4081954"><ele>586.0</ele><time>2026-04-28T11:04:16.717Z</time></trkpt><trkpt lat="43.3143343" lon="12.4080663"><ele>586.0</ele><time>2026-04-28T11:04:17.716Z</time></trkpt><trkpt lat="43.3142685" lon="12.4079492"><ele>586.0</ele><time>2026-04-28T11:04:18.717Z</time></trkpt><trkpt lat="43.3141967" lon="12.4078469"><ele>586.0</ele><time>2026-04-28T11:04:19.717Z</time></trkpt><trkpt lat="43.3141216" lon="12.4077606"><ele>586.0</ele><time>2026-04-28T11:04:20.717Z</time></trkpt><trkpt lat="43.3140461" lon="12.4076906"><ele>585.6</ele><time>2026-04-28T11:04:21.716Z</time></trkpt><trkpt lat="43.3139747" lon="12.4076247"><ele>585.2</ele><time>2026-04-28T11:04:22.717Z</time></trkpt><trkpt lat="43.3139069" lon="12.4075605"><ele>584.8</ele><time>2026-04-28T11:04:23.716Z</time></trkpt><trkpt lat="43.3138334" lon="12.4074923"><ele>584.4</ele><time>2026-04-28T11:04:24.717Z</time></trkpt><trkpt lat="43.3137526" lon="12.4074189"><ele>584.0</ele><time>2026-04-28T11:04:25.717Z</time></trkpt><trkpt lat="43.3136568" lon="12.4073476"><ele>584.0</ele><time>2026-04-28T11:04:26.716Z</time></trkpt><trkpt lat="43.3135522" lon="12.4072898"><ele>584.0</ele><time>2026-04-28T11:04:27.717Z</time></trkpt><trkpt lat="43.3134484" lon="12.4072661"><ele>584.0</ele><time>2026-04-28T11:04:28.717Z</time></trkpt><trkpt lat="43.3133452" lon="12.4072532"><ele>584.0</ele><time>2026-04-28T11:04:29.717Z</time></trkpt><trkpt lat="43.313247" lon="12.4072324"><ele>584.0</ele><time>2026-04-28T11:04:30.717Z</time></trkpt><trkpt lat="43.3131498" lon="12.4072022"><ele>583.8</ele><time>2026-04-28T11:04:31.716Z</time></trkpt><trkpt lat="43.3130524" lon="12.4071578"><ele>583.5999999999999</ele><time>2026-04-28T11:04:32.717Z</time></trkpt><trkpt lat="43.3129467" lon="12.407114"><ele>583.4</ele><time>2026-04-28T11:04:33.716Z</time></trkpt><trkpt lat="43.3128396" lon="12.4070802"><ele>583.1999999999999</ele><time>2026-04-28T11:04:34.716Z</time></trkpt><trkpt lat="43.3127423" lon="12.407049"><ele>583.0</ele><time>2026-04-28T11:04:35.716Z</time></trkpt><trkpt lat="43.3126529" lon="12.40703"><ele>583.0</ele><time>2026-04-28T11:04:36.717Z</time></trkpt><trkpt lat="43.3125703" lon="12.4070215"><ele>583.0</ele><time>2026-04-28T11:04:37.717Z</time></trkpt><trkpt lat="43.3124862" lon="12.4070329"><ele>583.0</ele><time>2026-04-28T11:04:38.716Z</time></trkpt><trkpt lat="43.312406" lon="12.4070715"><ele>583.0</ele><time>2026-04-28T11:04:39.717Z</time></trkpt><trkpt lat="43.312337" lon="12.4071367"><ele>583.0</ele><time>2026-04-28T11:04:40.717Z</time></trkpt><trkpt lat="43.3122757" lon="12.4072143"><ele>583.0</ele><time>2026-04-28T11:04:41.717Z</time></trkpt><trkpt lat="43.3122151" lon="12.4072854"><ele>579.8</ele><time>2026-04-28T11:04:42.717Z</time></trkpt><trkpt lat="43.3121448" lon="12.4073449"><ele>576.5999999999999</ele><time>2026-04-28T11:04:43.716Z</time></trkpt><trkpt lat="43.3120605" lon="12.4073868"><ele>573.4000000000001</ele><time>2026-04-28T11:04:44.716Z</time></trkpt><trkpt lat="43.3119675" lon="12.407407"><ele>570.2</ele><time>2026-04-28T11:04:45.717Z</time></trkpt><trkpt lat="43.3118706" lon="12.4073986"><ele>567.0</ele><time>2026-04-28T11:04:46.716Z</time></trkpt><trkpt lat="43.3117673" lon="12.4073777"><ele>567.0</ele><time>2026-04-28T11:04:47.717Z</time></trkpt><trkpt lat="43.3116657" lon="12.4073532"><ele>567.0</ele><time>2026-04-28T11:04:48.717Z</time></trkpt><trkpt lat="43.3115752" lon="12.4073259"><ele>567.0</ele><time>2026-04-28T11:04:49.716Z</time></trkpt><trkpt lat="43.3114971" lon="12.4072948"><ele>567.0</ele><time>2026-04-28T11:04:50.717Z</time></trkpt><trkpt lat="43.3114325" lon="12.4072502"><ele>567.0</ele><time>2026-04-28T11:04:51.716Z</time></trkpt><trkpt lat="43.3113907" lon="12.407102"><ele>567.0</ele><time>2026-04-28T11:04:53.716Z</time></trkpt><trkpt lat="43.311405" lon="12.4070073"><ele>567.0</ele><time>2026-04-28T11:04:54.716Z</time></trkpt><trkpt lat="43.3114473" lon="12.4068973"><ele>567.0</ele><time>2026-04-28T11:04:55.717Z</time></trkpt><trkpt lat="43.3115054" lon="12.4067809"><ele>567.0</ele><time>2026-04-28T11:04:56.717Z</time></trkpt><trkpt lat="43.3115785" lon="12.4066508"><ele>567.0</ele><time>2026-04-28T11:04:57.716Z</time></trkpt><trkpt lat="43.3116561" lon="12.406516"><ele>567.0</ele><time>2026-04-28T11:04:58.717Z</time></trkpt><trkpt lat="43.3117392" lon="12.4063901"><ele>567.0</ele><time>2026-04-28T11:04:59.717Z</time></trkpt><trkpt lat="43.3118186" lon="12.4062828"><ele>567.0</ele><time>2026-04-28T11:05:00.717Z</time></trkpt><trkpt lat="43.3118848" lon="12.4061723"><ele>567.0</ele><time>2026-04-28T11:05:01.717Z</time></trkpt><trkpt lat="43.3119237" lon="12.4060489"><ele>567.0</ele><time>2026-04-28T11:05:02.717Z</time></trkpt><trkpt lat="43.3119452" lon="12.4059206"><ele>563.8333333333334</ele><time>2026-04-28T11:05:03.717Z</time></trkpt><trkpt lat="43.3119683" lon="12.4057931"><ele>560.6666666666666</ele><time>2026-04-28T11:05:04.716Z</time></trkpt><trkpt lat="43.3120069" lon="12.40567"><ele>557.5</ele><time>2026-04-28T11:05:05.717Z</time></trkpt><trkpt lat="43.3120569" lon="12.4055551"><ele>554.3333333333333</ele><time>2026-04-28T11:05:06.717Z</time></trkpt><trkpt lat="43.3121136" lon="12.4054653"><ele>551.1666666666666</ele><time>2026-04-28T11:05:07.716Z</time></trkpt><trkpt lat="43.3121674" lon="12.4053993"><ele>548.0</ele><time>2026-04-28T11:05:08.717Z</time></trkpt><trkpt lat="43.3122308" lon="12.4053576"><ele>545.6</ele><time>2026-04-28T11:05:09.716Z</time></trkpt><trkpt lat="43.3123012" lon="12.4053409"><ele>543.1999999999999</ele><time>2026-04-28T11:05:10.717Z</time></trkpt><trkpt lat="43.312392" lon="12.4053429"><ele>540.8</ele><time>2026-04-28T11:05:11.717Z</time></trkpt><trkpt lat="43.3124924" lon="12.4053333"><ele>538.4</ele><time>2026-04-28T11:05:12.717Z</time></trkpt><trkpt lat="43.3125907" lon="12.4052961"><ele>536.0</ele><time>2026-04-28T11:05:13.717Z</time></trkpt><trkpt lat="43.3126813" lon="12.4052396"><ele>536.0</ele><time>2026-04-28T11:05:14.717Z</time></trkpt><trkpt lat="43.3127607" lon="12.4051717"><ele>536.0</ele><time>2026-04-28T11:05:15.717Z</time></trkpt><trkpt lat="43.3128315" lon="12.4050982"><ele>536.0</ele><time>2026-04-28T11:05:16.717Z</time></trkpt><trkpt lat="43.3128963" lon="12.4050342"><ele>536.0</ele><time>2026-04-28T11:05:17.717Z</time></trkpt><trkpt lat="43.3129551" lon="12.4049796"><ele>536.0</ele><time>2026-04-28T11:05:18.717Z</time></trkpt><trkpt lat="43.3130039" lon="12.4049247"><ele>536.0</ele><time>2026-04-28T11:05:19.717Z</time></trkpt><trkpt lat="43.3130543" lon="12.4048069"><ele>536.0</ele><time>2026-04-28T11:05:21.717Z</time></trkpt><trkpt lat="43.3130247" lon="12.4046903"><ele>536.0</ele><time>2026-04-28T11:05:23.717Z</time></trkpt><trkpt lat="43.3128877" lon="12.4046208"><ele>536.0</ele><time>2026-04-28T11:05:25.717Z</time></trkpt><trkpt lat="43.3127884" lon="12.404596"><ele>536.0</ele><time>2026-04-28T11:05:26.716Z</time></trkpt><trkpt lat="43.3126764" lon="12.4045698"><ele>528.5</ele><time>2026-04-28T11:05:27.717Z</time></trkpt><trkpt lat="43.3125594" lon="12.4045473"><ele>521.0</ele><time>2026-04-28T11:05:28.716Z</time></trkpt><trkpt lat="43.3124362" lon="12.4045246"><ele>513.5</ele><time>2026-04-28T11:05:29.717Z</time></trkpt><trkpt lat="43.3123137" lon="12.4045021"><ele>506.0</ele><time>2026-04-28T11:05:30.717Z</time></trkpt><trkpt lat="43.3121876" lon="12.4044866"><ele>504.75</ele><time>2026-04-28T11:05:31.716Z</time></trkpt><trkpt lat="43.3120632" lon="12.4044848"><ele>503.5</ele><time>2026-04-28T11:05:32.717Z</time></trkpt><trkpt lat="43.3119378" lon="12.4044856"><ele>502.25</ele><time>2026-04-28T11:05:33.716Z</time></trkpt><trkpt lat="43.31182" lon="12.4044956"><ele>501.0</ele><time>2026-04-28T11:05:34.717Z</time></trkpt><trkpt lat="43.3117105" lon="12.4045036"><ele>501.0</ele><time>2026-04-28T11:05:35.716Z</time></trkpt><trkpt lat="43.3116112" lon="12.4045105"><ele>501.0</ele><time>2026-04-28T11:05:36.717Z</time></trkpt><trkpt lat="43.3115183" lon="12.4045156"><ele>501.0</ele><time>2026-04-28T11:05:37.716Z</time></trkpt><trkpt lat="43.3114329" lon="12.4045101"><ele>501.0</ele><time>2026-04-28T11:05:38.717Z</time></trkpt><trkpt lat="43.311366" lon="12.4044999"><ele>501.0</ele><time>2026-04-28T11:05:39.716Z</time></trkpt><trkpt lat="43.3113002" lon="12.4044917"><ele>501.0</ele><time>2026-04-28T11:05:42.716Z</time></trkpt><trkpt lat="43.3113885" lon="12.4045096"><ele>501.0</ele><time>2026-04-28T11:06:15.716Z</time></trkpt><trkpt lat="43.3114254" lon="12.4044112"><ele>501.0</ele><time>2026-04-28T11:06:20.716Z</time></trkpt><trkpt lat="43.3113829" lon="12.4043219"><ele>501.0</ele><time>2026-04-28T11:06:22.715Z</time></trkpt><trkpt lat="43.3113326" lon="12.4042417"><ele>501.0</ele><time>2026-04-28T11:06:25.716Z</time></trkpt><trkpt lat="43.311298" lon="12.4041688"><ele>501.0</ele><time>2026-04-28T11:06:28.716Z</time></trkpt><trkpt lat="43.3112536" lon="12.404045"><ele>501.0</ele><time>2026-04-28T11:06:31.715Z</time></trkpt><trkpt lat="43.3111977" lon="12.4039235"><ele>497.4</ele><time>2026-04-28T11:06:33.716Z</time></trkpt><trkpt lat="43.3111333" lon="12.4038094"><ele>493.8</ele><time>2026-04-28T11:06:35.716Z</time></trkpt><trkpt lat="43.3110844" lon="12.4036965"><ele>490.19999999999993</ele><time>2026-04-28T11:06:37.716Z</time></trkpt><trkpt lat="43.3110484" lon="12.4035672"><ele>486.59999999999997</ele><time>2026-04-28T11:06:39.716Z</time></trkpt><trkpt lat="43.3110343" lon="12.4034213"><ele>483.0</ele><time>2026-04-28T11:06:41.716Z</time></trkpt><trkpt lat="43.3110523" lon="12.4032824"><ele>483.0</ele><time>2026-04-28T11:06:43.716Z</time></trkpt><trkpt lat="43.3111155" lon="12.403143"><ele>483.0</ele><time>2026-04-28T11:06:45.716Z</time></trkpt><trkpt lat="43.3111541" lon="12.403069"><ele>483.0</ele><time>2026-04-28T11:06:46.715Z</time></trkpt><trkpt lat="43.3111941" lon="12.4029828"><ele>483.0</ele><time>2026-04-28T11:06:47.716Z</time></trkpt><trkpt lat="43.3112318" lon="12.4028974"><ele>483.0</ele><time>2026-04-28T11:06:48.715Z</time></trkpt><trkpt lat="43.3112669" lon="12.4028234"><ele>483.0</ele><time>2026-04-28T11:06:49.715Z</time></trkpt><trkpt lat="43.3113367" lon="12.4026913"><ele>482.3333333333333</ele><time>2026-04-28T11:06:51.715Z</time></trkpt><trkpt lat="43.3114039" lon="12.4025649"><ele>481.66666666666663</ele><time>2026-04-28T11:06:53.716Z</time></trkpt><trkpt lat="43.311441" lon="12.4024909"><ele>481.0</ele><time>2026-04-28T11:06:54.716Z</time></trkpt><trkpt lat="43.3114843" lon="12.4023963"><ele>480.3333333333333</ele><time>2026-04-28T11:06:55.715Z</time></trkpt><trkpt lat="43.3115295" lon="12.4022936"><ele>479.66666666666663</ele><time>2026-04-28T11:06:56.716Z</time></trkpt><trkpt lat="43.3115768" lon="12.4022018"><ele>479.0</ele><time>2026-04-28T11:06:57.716Z</time></trkpt><trkpt lat="43.3116251" lon="12.4021171"><ele>477.57142857142856</ele><time>2026-04-28T11:06:58.715Z</time></trkpt><trkpt lat="43.311672" lon="12.4020378"><ele>476.14285714285717</ele><time>2026-04-28T11:06:59.715Z</time></trkpt><trkpt lat="43.3117136" lon="12.4019566"><ele>474.7142857142857</ele><time>2026-04-28T11:07:00.716Z</time></trkpt><trkpt lat="43.3117465" lon="12.4018673"><ele>473.2857142857143</ele><time>2026-04-28T11:07:01.716Z</time></trkpt><trkpt lat="43.3117716" lon="12.4017777"><ele>471.8571428571429</ele><time>2026-04-28T11:07:02.716Z</time></trkpt><trkpt lat="43.3117996" lon="12.4016908"><ele>470.42857142857144</ele><time>2026-04-28T11:07:03.716Z</time></trkpt><trkpt lat="43.3118382" lon="12.4016164"><ele>469.0</ele><time>2026-04-28T11:07:04.716Z</time></trkpt><trkpt lat="43.31188" lon="12.4015477"><ele>469.00000000000006</ele><time>2026-04-28T11:07:05.716Z</time></trkpt><trkpt lat="43.3119215" lon="12.4014798"><ele>469.0</ele><time>2026-04-28T11:07:06.715Z</time></trkpt><trkpt lat="43.3119629" lon="12.401413"><ele>469.0</ele><time>2026-04-28T11:07:07.716Z</time></trkpt><trkpt lat="43.3120363" lon="12.4013007"><ele>469.0</ele><time>2026-04-28T11:07:09.716Z</time></trkpt><trkpt lat="43.3120841" lon="12.4012264"><ele>469.00000000000006</ele><time>2026-04-28T11:07:11.716Z</time></trkpt><trkpt lat="43.3121268" lon="12.4011074"><ele>469.0</ele><time>2026-04-28T11:07:28.716Z</time></trkpt><trkpt lat="43.3121857" lon="12.4010192"><ele>467.83333333333337</ele><time>2026-04-28T11:07:30.716Z</time></trkpt><trkpt lat="43.3122479" lon="12.4009072"><ele>466.6666666666667</ele><time>2026-04-28T11:07:32.716Z</time></trkpt><trkpt lat="43.3122826" lon="12.4008258"><ele>465.5</ele><time>2026-04-28T11:07:34.716Z</time></trkpt><trkpt lat="43.3122552" lon="12.4009105"><ele>464.33333333333337</ele><time>2026-04-28T11:07:52.716Z</time></trkpt><trkpt lat="43.3122067" lon="12.4009949"><ele>463.1666666666667</ele><time>2026-04-28T11:07:53.715Z</time></trkpt><trkpt lat="43.3121441" lon="12.4011098"><ele>462.0</ele><time>2026-04-28T11:07:55.716Z</time></trkpt><trkpt lat="43.3122201" lon="12.4011916"><ele>462.0</ele><time>2026-04-28T11:07:59.716Z</time></trkpt><trkpt lat="43.3122825" lon="12.4012044"><ele>462.0</ele><time>2026-04-28T11:08:00.716Z</time></trkpt><trkpt lat="43.3123508" lon="12.401228"><ele>462.0</ele><time>2026-04-28T11:08:01.716Z</time></trkpt><trkpt lat="43.3124154" lon="12.4012597"><ele>462.0</ele><time>2026-04-28T11:08:02.716Z</time></trkpt><trkpt lat="43.3124808" lon="12.4012908"><ele>462.0</ele><time>2026-04-28T11:08:03.716Z</time></trkpt><trkpt lat="43.3125973" lon="12.4013221"><ele>462.0</ele><time>2026-04-28T11:08:05.715Z</time></trkpt><trkpt lat="43.3126991" lon="12.4013086"><ele>462.0</ele><time>2026-04-28T11:08:07.715Z</time></trkpt><trkpt lat="43.3127975" lon="12.4012693"><ele>462.00000000000006</ele><time>2026-04-28T11:08:09.715Z</time></trkpt><trkpt lat="43.3128862" lon="12.4011972"><ele>462.00000000000006</ele><time>2026-04-28T11:08:11.715Z</time></trkpt><trkpt lat="43.3129522" lon="12.4010817"><ele>462.0</ele><time>2026-04-28T11:08:13.714Z</time></trkpt><trkpt lat="43.3130335" lon="12.4009392"><ele>462.0</ele><time>2026-04-28T11:08:15.715Z</time></trkpt><trkpt lat="43.313086" lon="12.4008541"><ele>460.42857142857144</ele><time>2026-04-28T11:08:16.716Z</time></trkpt><trkpt lat="43.3131363" lon="12.400769"><ele>458.8571428571429</ele><time>2026-04-28T11:08:17.716Z</time></trkpt><trkpt lat="43.3131815" lon="12.4006816"><ele>457.2857142857143</ele><time>2026-04-28T11:08:18.716Z</time></trkpt><trkpt lat="43.3132232" lon="12.4005922"><ele>455.7142857142857</ele><time>2026-04-28T11:08:19.716Z</time></trkpt><trkpt lat="43.3132608" lon="12.4005044"><ele>454.14285714285717</ele><time>2026-04-28T11:08:20.716Z</time></trkpt><trkpt lat="43.3132895" lon="12.4004185"><ele>452.57142857142856</ele><time>2026-04-28T11:08:21.716Z</time></trkpt><trkpt lat="43.3133134" lon="12.4003362"><ele>451.0</ele><time>2026-04-28T11:08:22.716Z</time></trkpt><trkpt lat="43.3133192" lon="12.4001749"><ele>450.1666666666667</ele><time>2026-04-28T11:08:24.716Z</time></trkpt><trkpt lat="43.3132725" lon="12.4000135"><ele>449.33333333333337</ele><time>2026-04-28T11:08:26.716Z</time></trkpt><trkpt lat="43.3132327" lon="12.3999364"><ele>448.5</ele><time>2026-04-28T11:08:27.716Z</time></trkpt><trkpt lat="43.3131854" lon="12.3998594"><ele>447.66666666666663</ele><time>2026-04-28T11:08:28.715Z</time></trkpt><trkpt lat="43.3131438" lon="12.3997782"><ele>446.8333333333333</ele><time>2026-04-28T11:08:29.716Z</time></trkpt><trkpt lat="43.3131141" lon="12.3996921"><ele>446.0</ele><time>2026-04-28T11:08:30.716Z</time></trkpt><trkpt lat="43.3130982" lon="12.3996057"><ele>445.4</ele><time>2026-04-28T11:08:31.716Z</time></trkpt><trkpt lat="43.3131177" lon="12.3994467"><ele>444.8</ele><time>2026-04-28T11:08:33.716Z</time></trkpt><trkpt lat="43.3131777" lon="12.3993085"><ele>444.19999999999993</ele><time>2026-04-28T11:08:35.715Z</time></trkpt><trkpt lat="43.3132365" lon="12.3992018"><ele>443.59999999999997</ele><time>2026-04-28T11:08:37.715Z</time></trkpt><trkpt lat="43.3132816" lon="12.3991092"><ele>443.0</ele><time>2026-04-28T11:08:53.716Z</time></trkpt><trkpt lat="43.3133433" lon="12.3989713"><ele>442.99999999999994</ele><time>2026-04-28T11:08:55.716Z</time></trkpt><trkpt lat="43.3134315" lon="12.3988576"><ele>443.0</ele><time>2026-04-28T11:08:57.715Z</time></trkpt><trkpt lat="43.3134829" lon="12.3987934"><ele>443.0</ele><time>2026-04-28T11:08:58.715Z</time></trkpt><trkpt lat="43.3135335" lon="12.3987293"><ele>443.0</ele><time>2026-04-28T11:08:59.716Z</time></trkpt><trkpt lat="43.3135843" lon="12.3986614"><ele>442.99999999999994</ele><time>2026-04-28T11:09:00.716Z</time></trkpt><trkpt lat="43.3136361" lon="12.3985913"><ele>443.0</ele><time>2026-04-28T11:09:01.714Z</time></trkpt><trkpt lat="43.3136847" lon="12.3985189"><ele>441.99999999999994</ele><time>2026-04-28T11:09:02.716Z</time></trkpt><trkpt lat="43.3137313" lon="12.3984454"><ele>441.0</ele><time>2026-04-28T11:09:03.715Z</time></trkpt><trkpt lat="43.3137746" lon="12.3983799"><ele>440.0</ele><time>2026-04-28T11:09:04.716Z</time></trkpt><trkpt lat="43.313854" lon="12.398269"><ele>439.0</ele><time>2026-04-28T11:09:06.716Z</time></trkpt><trkpt lat="43.3139016" lon="12.3981575"><ele>437.99999999999994</ele><time>2026-04-28T11:09:08.716Z</time></trkpt><trkpt lat="43.3139425" lon="12.3980336"><ele>437.0</ele><time>2026-04-28T11:09:10.716Z</time></trkpt><trkpt lat="43.3139956" lon="12.3979167"><ele>435.8333333333333</ele><time>2026-04-28T11:09:12.716Z</time></trkpt><trkpt lat="43.3140688" lon="12.3978266"><ele>434.66666666666663</ele><time>2026-04-28T11:09:14.716Z</time></trkpt><trkpt lat="43.3141543" lon="12.3977126"><ele>433.5</ele><time>2026-04-28T11:09:16.716Z</time></trkpt><trkpt lat="43.314207" lon="12.3976423"><ele>432.33333333333337</ele><time>2026-04-28T11:09:17.715Z</time></trkpt><trkpt lat="43.3142615" lon="12.3975719"><ele>431.1666666666667</ele><time>2026-04-28T11:09:18.715Z</time></trkpt><trkpt lat="43.3143111" lon="12.3975022"><ele>430.0</ele><time>2026-04-28T11:09:19.715Z</time></trkpt><trkpt lat="43.3143552" lon="12.3974378"><ele>430.0</ele><time>2026-04-28T11:09:20.715Z</time></trkpt><trkpt lat="43.3144264" lon="12.3973285"><ele>430.0</ele><time>2026-04-28T11:09:22.715Z</time></trkpt><trkpt lat="43.3144768" lon="12.3972217"><ele>430.0</ele><time>2026-04-28T11:09:24.716Z</time></trkpt><trkpt lat="43.3145297" lon="12.3971283"><ele>430.0</ele><time>2026-04-28T11:09:26.715Z</time></trkpt><trkpt lat="43.3145945" lon="12.3970334"><ele>430.0</ele><time>2026-04-28T11:09:28.714Z</time></trkpt><trkpt lat="43.3146538" lon="12.3969662"><ele>428.7142857142857</ele><time>2026-04-28T11:09:30.715Z</time></trkpt><trkpt lat="43.3147123" lon="12.3969298"><ele>427.42857142857144</ele><time>2026-04-28T11:09:32.715Z</time></trkpt><trkpt lat="43.314792" lon="12.3969282"><ele>426.14285714285717</ele><time>2026-04-28T11:09:34.715Z</time></trkpt><trkpt lat="43.3148669" lon="12.3969346"><ele>424.8571428571429</ele><time>2026-04-28T11:09:36.715Z</time></trkpt><trkpt lat="43.3149478" lon="12.3969313"><ele>423.57142857142856</ele><time>2026-04-28T11:09:39.715Z</time></trkpt><trkpt lat="43.3150108" lon="12.3969155"><ele>422.28571428571433</ele><time>2026-04-28T11:09:41.714Z</time></trkpt><trkpt lat="43.315083" lon="12.3968894"><ele>421.0</ele><time>2026-04-28T11:09:43.714Z</time></trkpt><trkpt lat="43.3151421" lon="12.3968557"><ele>420.6666666666667</ele><time>2026-04-28T11:09:45.714Z</time></trkpt><trkpt lat="43.3151905" lon="12.3967976"><ele>420.33333333333337</ele><time>2026-04-28T11:09:47.715Z</time></trkpt><trkpt lat="43.3152514" lon="12.3967396"><ele>420.0</ele><time>2026-04-28T11:09:49.715Z</time></trkpt><trkpt lat="43.3153219" lon="12.3966896"><ele>419.66666666666663</ele><time>2026-04-28T11:09:51.715Z</time></trkpt><trkpt lat="43.3153944" lon="12.3966306"><ele>419.3333333333333</ele><time>2026-04-28T11:09:53.714Z</time></trkpt><trkpt lat="43.3154696" lon="12.3965279"><ele>419.0</ele><time>2026-04-28T11:09:55.715Z</time></trkpt><trkpt lat="43.3155582" lon="12.3964308"><ele>417.6</ele><time>2026-04-28T11:09:57.715Z</time></trkpt><trkpt lat="43.3156636" lon="12.3963566"><ele>416.2</ele><time>2026-04-28T11:09:59.715Z</time></trkpt><trkpt lat="43.3157225" lon="12.3963254"><ele>414.8</ele><time>2026-04-28T11:10:00.713Z</time></trkpt><trkpt lat="43.3158184" lon="12.3962535"><ele>413.40000000000003</ele><time>2026-04-28T11:10:02.715Z</time></trkpt><trkpt lat="43.3158962" lon="12.3961654"><ele>412.0</ele><time>2026-04-28T11:10:04.714Z</time></trkpt><trkpt lat="43.3159782" lon="12.3960674"><ele>411.20000000000005</ele><time>2026-04-28T11:10:06.715Z</time></trkpt><trkpt lat="43.3160682" lon="12.3960076"><ele>410.4</ele><time>2026-04-28T11:10:08.714Z</time></trkpt><trkpt lat="43.3161572" lon="12.3959588"><ele>409.6</ele><time>2026-04-28T11:10:10.714Z</time></trkpt><trkpt lat="43.316248" lon="12.3959159"><ele>408.79999999999995</ele><time>2026-04-28T11:10:12.715Z</time></trkpt><trkpt lat="43.3163193" lon="12.3958842"><ele>408.0</ele><time>2026-04-28T11:10:15.715Z</time></trkpt><trkpt lat="43.3163748" lon="12.3957722"><ele>407.8333333333333</ele><time>2026-04-28T11:10:18.714Z</time></trkpt><trkpt lat="43.3164157" lon="12.3956834"><ele>407.66666666666663</ele><time>2026-04-28T11:10:20.714Z</time></trkpt><trkpt lat="43.3164536" lon="12.39559"><ele>407.5</ele><time>2026-04-28T11:10:22.715Z</time></trkpt><trkpt lat="43.3164713" lon="12.3954977"><ele>407.3333333333333</ele><time>2026-04-28T11:10:24.714Z</time></trkpt><trkpt lat="43.3164883" lon="12.3953832"><ele>407.16666666666663</ele><time>2026-04-28T11:10:26.715Z</time></trkpt><trkpt lat="43.3165233" lon="12.3952361"><ele>407.0</ele><time>2026-04-28T11:10:28.715Z</time></trkpt><trkpt lat="43.3165467" lon="12.3951261"><ele>407.0</ele><time>2026-04-28T11:10:30.715Z</time></trkpt><trkpt lat="43.3165476" lon="12.3949915"><ele>407.0</ele><time>2026-04-28T11:10:33.714Z</time></trkpt><trkpt lat="43.3165279" lon="12.3948509"><ele>407.0</ele><time>2026-04-28T11:10:35.715Z</time></trkpt><trkpt lat="43.3164926" lon="12.3947284"><ele>407.0</ele><time>2026-04-28T11:10:37.715Z</time></trkpt><trkpt lat="43.316466" lon="12.3946137"><ele>407.0</ele><time>2026-04-28T11:10:39.715Z</time></trkpt><trkpt lat="43.3164417" lon="12.3944789"><ele>405.66666666666663</ele><time>2026-04-28T11:10:41.714Z</time></trkpt><trkpt lat="43.3164346" lon="12.3943163"><ele>404.3333333333333</ele><time>2026-04-28T11:10:43.715Z</time></trkpt><trkpt lat="43.3164311" lon="12.3941409"><ele>403.0</ele><time>2026-04-28T11:10:45.714Z</time></trkpt><trkpt lat="43.3164329" lon="12.3940504"><ele>401.66666666666663</ele><time>2026-04-28T11:10:46.714Z</time></trkpt><trkpt lat="43.3164354" lon="12.3939613"><ele>400.3333333333333</ele><time>2026-04-28T11:10:47.715Z</time></trkpt><trkpt lat="43.3164389" lon="12.393872"><ele>399.0</ele><time>2026-04-28T11:10:48.715Z</time></trkpt><trkpt lat="43.3164458" lon="12.3937025"><ele>397.8333333333333</ele><time>2026-04-28T11:10:50.715Z</time></trkpt><trkpt lat="43.3164523" lon="12.393613"><ele>396.66666666666663</ele><time>2026-04-28T11:10:51.715Z</time></trkpt><trkpt lat="43.3164632" lon="12.3935027"><ele>395.5</ele><time>2026-04-28T11:10:52.715Z</time></trkpt><trkpt lat="43.3164729" lon="12.3933851"><ele>394.3333333333333</ele><time>2026-04-28T11:10:53.714Z</time></trkpt><trkpt lat="43.31648" lon="12.3932658"><ele>393.16666666666663</ele><time>2026-04-28T11:10:54.715Z</time></trkpt><trkpt lat="43.3164887" lon="12.3931488"><ele>392.0</ele><time>2026-04-28T11:10:55.714Z</time></trkpt><trkpt lat="43.3164939" lon="12.3930358"><ele>391.16666666666663</ele><time>2026-04-28T11:10:56.715Z</time></trkpt><trkpt lat="43.3165042" lon="12.3929285"><ele>390.3333333333333</ele><time>2026-04-28T11:10:57.715Z</time></trkpt><trkpt lat="43.3165118" lon="12.392823"><ele>389.5</ele><time>2026-04-28T11:10:58.715Z</time></trkpt><trkpt lat="43.3165223" lon="12.3927124"><ele>388.66666666666663</ele><time>2026-04-28T11:10:59.714Z</time></trkpt><trkpt lat="43.3165355" lon="12.3925924"><ele>387.8333333333333</ele><time>2026-04-28T11:11:00.715Z</time></trkpt><trkpt lat="43.3165459" lon="12.3924659"><ele>387.0</ele><time>2026-04-28T11:11:01.715Z</time></trkpt><trkpt lat="43.3165571" lon="12.39235"><ele>387.0</ele><time>2026-04-28T11:11:02.715Z</time></trkpt><trkpt lat="43.3165711" lon="12.3922475"><ele>387.0</ele><time>2026-04-28T11:11:03.714Z</time></trkpt><trkpt lat="43.3165808" lon="12.392147"><ele>387.0</ele><time>2026-04-28T11:11:04.715Z</time></trkpt><trkpt lat="43.3165867" lon="12.3920426"><ele>387.0</ele><time>2026-04-28T11:11:05.714Z</time></trkpt><trkpt lat="43.3165903" lon="12.3919434"><ele>387.0</ele><time>2026-04-28T11:11:06.715Z</time></trkpt><trkpt lat="43.3165997" lon="12.3917892"><ele>387.0</ele><time>2026-04-28T11:11:08.714Z</time></trkpt><trkpt lat="43.3166353" lon="12.3916732"><ele>387.1666666666667</ele><time>2026-04-28T11:11:10.715Z</time></trkpt><trkpt lat="43.3167114" lon="12.3915848"><ele>387.33333333333337</ele><time>2026-04-28T11:11:12.715Z</time></trkpt><trkpt lat="43.3167613" lon="12.3915298"><ele>387.5</ele><time>2026-04-28T11:11:13.715Z</time></trkpt><trkpt lat="43.3168184" lon="12.3914638"><ele>387.6666666666667</ele><time>2026-04-28T11:11:14.714Z</time></trkpt><trkpt lat="43.3168772" lon="12.391403"><ele>387.83333333333337</ele><time>2026-04-28T11:11:15.714Z</time></trkpt><trkpt lat="43.3169298" lon="12.3913545"><ele>388.0</ele><time>2026-04-28T11:11:16.715Z</time></trkpt><trkpt lat="43.3170237" lon="12.3912692"><ele>389.00000000000006</ele><time>2026-04-28T11:11:18.714Z</time></trkpt><trkpt lat="43.3171147" lon="12.3911616"><ele>390.0</ele><time>2026-04-28T11:11:20.715Z</time></trkpt><trkpt lat="43.317171" lon="12.3910914"><ele>391.0</ele><time>2026-04-28T11:11:21.714Z</time></trkpt><trkpt lat="43.3172272" lon="12.391015"><ele>392.0</ele><time>2026-04-28T11:11:22.715Z</time></trkpt><trkpt lat="43.3172833" lon="12.3909416"><ele>393.00000000000006</ele><time>2026-04-28T11:11:23.714Z</time></trkpt><trkpt lat="43.3173395" lon="12.3908684"><ele>394.0</ele><time>2026-04-28T11:11:24.714Z</time></trkpt><trkpt lat="43.3173937" lon="12.3907956"><ele>392.50000000000006</ele><time>2026-04-28T11:11:25.715Z</time></trkpt><trkpt lat="43.3174481" lon="12.3907191"><ele>391.0</ele><time>2026-04-28T11:11:26.715Z</time></trkpt><trkpt lat="43.3174983" lon="12.3906349"><ele>389.5</ele><time>2026-04-28T11:11:27.714Z</time></trkpt><trkpt lat="43.3175399" lon="12.3905454"><ele>388.0</ele><time>2026-04-28T11:11:28.715Z</time></trkpt><trkpt lat="43.3175761" lon="12.3904558"><ele>386.50000000000006</ele><time>2026-04-28T11:11:29.714Z</time></trkpt><trkpt lat="43.3176082" lon="12.3903686"><ele>385.0</ele><time>2026-04-28T11:11:30.714Z</time></trkpt><trkpt lat="43.3176929" lon="12.3902474"><ele>385.00000000000006</ele><time>2026-04-28T11:11:32.714Z</time></trkpt><trkpt lat="43.3177504" lon="12.390204"><ele>385.0</ele><time>2026-04-28T11:11:33.715Z</time></trkpt><trkpt lat="43.3178092" lon="12.3901699"><ele>385.0</ele><time>2026-04-28T11:11:34.715Z</time></trkpt><trkpt lat="43.3178672" lon="12.3901318"><ele>385.0</ele><time>2026-04-28T11:11:35.715Z</time></trkpt><trkpt lat="43.3179242" lon="12.39009"><ele>385.00000000000006</ele><time>2026-04-28T11:11:36.715Z</time></trkpt><trkpt lat="43.3180374" lon="12.3900252"><ele>385.0</ele><time>2026-04-28T11:11:38.714Z</time></trkpt><trkpt lat="43.3181449" lon="12.3899584"><ele>382.2</ele><time>2026-04-28T11:11:40.715Z</time></trkpt><trkpt lat="43.3182523" lon="12.3898873"><ele>379.4</ele><time>2026-04-28T11:11:42.715Z</time></trkpt><trkpt lat="43.3183501" lon="12.3898319"><ele>376.6</ele><time>2026-04-28T11:11:44.714Z</time></trkpt><trkpt lat="43.3184473" lon="12.3897737"><ele>373.8</ele><time>2026-04-28T11:11:46.715Z</time></trkpt><trkpt lat="43.3185439" lon="12.3897102"><ele>371.0</ele><time>2026-04-28T11:11:48.714Z</time></trkpt><trkpt lat="43.3186298" lon="12.3896308"><ele>370.8</ele><time>2026-04-28T11:11:50.715Z</time></trkpt><trkpt lat="43.3186919" lon="12.3895268"><ele>370.6</ele><time>2026-04-28T11:11:52.715Z</time></trkpt><trkpt lat="43.3187186" lon="12.3893954"><ele>370.4</ele><time>2026-04-28T11:11:54.715Z</time></trkpt><trkpt lat="43.3187067" lon="12.3892558"><ele>370.2</ele><time>2026-04-28T11:11:56.715Z</time></trkpt><trkpt lat="43.3186638" lon="12.3891201"><ele>370.0</ele><time>2026-04-28T11:11:58.715Z</time></trkpt><trkpt lat="43.3186213" lon="12.3890062"><ele>370.0</ele><time>2026-04-28T11:12:00.715Z</time></trkpt><trkpt lat="43.3185856" lon="12.388911"><ele>370.0</ele><time>2026-04-28T11:12:02.715Z</time></trkpt><trkpt lat="43.3185934" lon="12.3888135"><ele>370.0</ele><time>2026-04-28T11:12:04.715Z</time></trkpt><trkpt lat="43.3186512" lon="12.3887406"><ele>370.0</ele><time>2026-04-28T11:12:06.715Z</time></trkpt><trkpt lat="43.318747" lon="12.3887091"><ele>370.0</ele><time>2026-04-28T11:12:08.715Z</time></trkpt><trkpt lat="43.3188622" lon="12.3886959"><ele>370.0</ele><time>2026-04-28T11:12:10.715Z</time></trkpt><trkpt lat="43.3189263" lon="12.3886827"><ele>366.16666666666663</ele><time>2026-04-28T11:12:11.715Z</time></trkpt><trkpt lat="43.3189909" lon="12.3886602"><ele>362.3333333333333</ele><time>2026-04-28T11:12:12.715Z</time></trkpt><trkpt lat="43.3190523" lon="12.3886311"><ele>358.5</ele><time>2026-04-28T11:12:13.715Z</time></trkpt><trkpt lat="43.3191572" lon="12.3885752"><ele>354.6666666666667</ele><time>2026-04-28T11:12:15.714Z</time></trkpt><trkpt lat="43.3192537" lon="12.3885454"><ele>350.83333333333337</ele><time>2026-04-28T11:12:17.715Z</time></trkpt><trkpt lat="43.3193481" lon="12.3885488"><ele>347.0</ele><time>2026-04-28T11:12:19.715Z</time></trkpt><trkpt lat="43.3194243" lon="12.388625"><ele>347.0</ele><time>2026-04-28T11:12:21.714Z</time></trkpt><trkpt lat="43.3194586" lon="12.3887469"><ele>347.0</ele><time>2026-04-28T11:12:23.715Z</time></trkpt><trkpt lat="43.3194526" lon="12.3889042"><ele>347.0</ele><time>2026-04-28T11:12:25.714Z</time></trkpt><trkpt lat="43.3194375" lon="12.3890021"><ele>347.0</ele><time>2026-04-28T11:12:26.715Z</time></trkpt><trkpt lat="43.3194182" lon="12.3891028"><ele>347.0</ele><time>2026-04-28T11:12:27.715Z</time></trkpt><trkpt lat="43.3193996" lon="12.3892007"><ele>347.0</ele><time>2026-04-28T11:12:28.715Z</time></trkpt><trkpt lat="43.3193801" lon="12.3892968"><ele>347.6</ele><time>2026-04-28T11:12:29.714Z</time></trkpt><trkpt lat="43.3193609" lon="12.3893863"><ele>348.20000000000005</ele><time>2026-04-28T11:12:30.715Z</time></trkpt><trkpt lat="43.3193492" lon="12.3895289"><ele>348.8</ele><time>2026-04-28T11:12:32.715Z</time></trkpt><trkpt lat="43.3193786" lon="12.3896591"><ele>349.4</ele><time>2026-04-28T11:12:34.715Z</time></trkpt><trkpt lat="43.3194655" lon="12.3897465"><ele>350.0</ele><time>2026-04-28T11:12:36.715Z</time></trkpt><trkpt lat="43.3195997" lon="12.3897547"><ele>350.0</ele><time>2026-04-28T11:12:38.714Z</time></trkpt><trkpt lat="43.3196814" lon="12.389739"><ele>350.0</ele><time>2026-04-28T11:12:39.713Z</time></trkpt><trkpt lat="43.319767" lon="12.3897155"><ele>350.0</ele><time>2026-04-28T11:12:40.715Z</time></trkpt><trkpt lat="43.3198543" lon="12.3896934"><ele>350.0</ele><time>2026-04-28T11:12:41.715Z</time></trkpt><trkpt lat="43.3199382" lon="12.3896771"><ele>350.0</ele><time>2026-04-28T11:12:42.715Z</time></trkpt><trkpt lat="43.3200174" lon="12.3896684"><ele>350.0</ele><time>2026-04-28T11:12:43.714Z</time></trkpt><trkpt lat="43.3200898" lon="12.3896679"><ele>347.14285714285717</ele><time>2026-04-28T11:12:44.715Z</time></trkpt><trkpt lat="43.3201551" lon="12.389679"><ele>344.2857142857143</ele><time>2026-04-28T11:12:45.715Z</time></trkpt><trkpt lat="43.3202177" lon="12.3897098"><ele>341.42857142857144</ele><time>2026-04-28T11:12:46.715Z</time></trkpt><trkpt lat="43.3202794" lon="12.3897621"><ele>338.57142857142856</ele><time>2026-04-28T11:12:47.714Z</time></trkpt><trkpt lat="43.3203449" lon="12.3898098"><ele>335.7142857142857</ele><time>2026-04-28T11:12:48.714Z</time></trkpt><trkpt lat="43.3204114" lon="12.3898376"><ele>332.8571428571429</ele><time>2026-04-28T11:12:49.714Z</time></trkpt><trkpt lat="43.3204803" lon="12.3898514"><ele>330.0</ele><time>2026-04-28T11:12:50.714Z</time></trkpt><trkpt lat="43.3205474" lon="12.3898553"><ele>328.5</ele><time>2026-04-28T11:12:51.713Z</time></trkpt><trkpt lat="43.3206137" lon="12.3898383"><ele>327.0</ele><time>2026-04-28T11:12:52.714Z</time></trkpt><trkpt lat="43.3206767" lon="12.389796"><ele>325.5</ele><time>2026-04-28T11:12:53.714Z</time></trkpt><trkpt lat="43.3207334" lon="12.3897361"><ele>324.0</ele><time>2026-04-28T11:12:54.714Z</time></trkpt><trkpt lat="43.3207789" lon="12.3896638"><ele>322.5</ele><time>2026-04-28T11:12:55.714Z</time></trkpt><trkpt lat="43.3208151" lon="12.3895872"><ele>321.0</ele><time>2026-04-28T11:12:56.714Z</time></trkpt><trkpt lat="43.3208763" lon="12.3894482"><ele>321.0</ele><time>2026-04-28T11:12:58.714Z</time></trkpt><trkpt lat="43.3209313" lon="12.3893102"><ele>321.0</ele><time>2026-04-28T11:13:00.714Z</time></trkpt><trkpt lat="43.3209795" lon="12.3891553"><ele>321.0</ele><time>2026-04-28T11:13:02.713Z</time></trkpt><trkpt lat="43.3210055" lon="12.3890741"><ele>321.0</ele><time>2026-04-28T11:13:03.713Z</time></trkpt><trkpt lat="43.3210325" lon="12.3889937"><ele>321.0</ele><time>2026-04-28T11:13:04.713Z</time></trkpt><trkpt lat="43.3210962" lon="12.3888614"><ele>321.8333333333333</ele><time>2026-04-28T11:13:06.714Z</time></trkpt><trkpt lat="43.3211574" lon="12.3887236"><ele>322.6666666666667</ele><time>2026-04-28T11:13:08.714Z</time></trkpt><trkpt lat="43.321182" lon="12.3886429"><ele>323.5</ele><time>2026-04-28T11:13:09.713Z</time></trkpt><trkpt lat="43.3212058" lon="12.3885602"><ele>324.33333333333337</ele><time>2026-04-28T11:13:10.714Z</time></trkpt><trkpt lat="43.3212301" lon="12.388479"><ele>325.1666666666667</ele><time>2026-04-28T11:13:11.714Z</time></trkpt><trkpt lat="43.3212862" lon="12.3883324"><ele>326.0</ele><time>2026-04-28T11:13:13.714Z</time></trkpt><trkpt lat="43.3213636" lon="12.3882"><ele>324.0</ele><time>2026-04-28T11:13:15.714Z</time></trkpt><trkpt lat="43.3214107" lon="12.3881382"><ele>322.0</ele><time>2026-04-28T11:13:16.714Z</time></trkpt><trkpt lat="43.3214673" lon="12.3880686"><ele>320.0</ele><time>2026-04-28T11:13:17.714Z</time></trkpt><trkpt lat="43.3215239" lon="12.3880037"><ele>318.0</ele><time>2026-04-28T11:13:18.714Z</time></trkpt><trkpt lat="43.3216154" lon="12.3879084"><ele>316.0</ele><time>2026-04-28T11:13:20.714Z</time></trkpt><trkpt lat="43.3217121" lon="12.3878414"><ele>314.0</ele><time>2026-04-28T11:13:22.712Z</time></trkpt><trkpt lat="43.3218312" lon="12.3877982"><ele>313.6666666666667</ele><time>2026-04-28T11:13:24.714Z</time></trkpt><trkpt lat="43.3218964" lon="12.3877836"><ele>313.33333333333337</ele><time>2026-04-28T11:13:25.713Z</time></trkpt><trkpt lat="43.3220175" lon="12.3877806"><ele>313.0</ele><time>2026-04-28T11:13:27.713Z</time></trkpt><trkpt lat="43.3220829" lon="12.3878004"><ele>312.6666666666667</ele><time>2026-04-28T11:13:28.714Z</time></trkpt><trkpt lat="43.3221549" lon="12.3878275"><ele>312.3333333333333</ele><time>2026-04-28T11:13:29.714Z</time></trkpt><trkpt lat="43.3222228" lon="12.3878573"><ele>312.0</ele><time>2026-04-28T11:13:30.714Z</time></trkpt><trkpt lat="43.3223278" lon="12.3879404"><ele>310.0</ele><time>2026-04-28T11:13:32.714Z</time></trkpt><trkpt lat="43.3223732" lon="12.3880096"><ele>308.0</ele><time>2026-04-28T11:13:33.714Z</time></trkpt><trkpt lat="43.3224207" lon="12.3880932"><ele>306.0</ele><time>2026-04-28T11:13:34.713Z</time></trkpt><trkpt lat="43.3224721" lon="12.3881678"><ele>304.0</ele><time>2026-04-28T11:13:35.713Z</time></trkpt><trkpt lat="43.3225282" lon="12.3882172"><ele>302.0</ele><time>2026-04-28T11:13:36.713Z</time></trkpt><trkpt lat="43.3226461" lon="12.388233"><ele>300.0</ele><time>2026-04-28T11:13:38.714Z</time></trkpt><trkpt lat="43.3227509" lon="12.388151"><ele>300.0</ele><time>2026-04-28T11:13:40.713Z</time></trkpt><trkpt lat="43.3227951" lon="12.3880872"><ele>300.0</ele><time>2026-04-28T11:13:41.713Z</time></trkpt><trkpt lat="43.3228757" lon="12.3879711"><ele>300.0</ele><time>2026-04-28T11:13:43.713Z</time></trkpt><trkpt lat="43.3229367" lon="12.3878501"><ele>300.0</ele><time>2026-04-28T11:13:45.714Z</time></trkpt><trkpt lat="43.3229705" lon="12.3877225"><ele>300.0</ele><time>2026-04-28T11:13:47.714Z</time></trkpt><trkpt lat="43.3230216" lon="12.3876508"><ele>297.4</ele><time>2026-04-28T11:13:49.714Z</time></trkpt><trkpt lat="43.3231034" lon="12.3876473"><ele>294.8</ele><time>2026-04-28T11:13:51.714Z</time></trkpt><trkpt lat="43.3231694" lon="12.3877283"><ele>292.2</ele><time>2026-04-28T11:13:53.714Z</time></trkpt><trkpt lat="43.3231862" lon="12.3878613"><ele>289.6</ele><time>2026-04-28T11:13:55.713Z</time></trkpt><trkpt lat="43.3231668" lon="12.3880158"><ele>287.0</ele><time>2026-04-28T11:13:57.714Z</time></trkpt><trkpt lat="43.3231423" lon="12.3881369"><ele>287.0</ele><time>2026-04-28T11:13:59.714Z</time></trkpt><trkpt lat="43.3231295" lon="12.3882325"><ele>287.0</ele><time>2026-04-28T11:14:01.714Z</time></trkpt><trkpt lat="43.3231583" lon="12.3883196"><ele>287.0</ele><time>2026-04-28T11:14:04.714Z</time></trkpt><trkpt lat="43.3232425" lon="12.3882281"><ele>287.0</ele><time>2026-04-28T11:14:10.713Z</time></trkpt><trkpt lat="43.3232573" lon="12.3881102"><ele>287.0</ele><time>2026-04-28T11:14:11.714Z</time></trkpt><trkpt lat="43.3232743" lon="12.3879777"><ele>287.0</ele><time>2026-04-28T11:14:12.714Z</time></trkpt><trkpt lat="43.3233013" lon="12.3878242"><ele>287.0</ele><time>2026-04-28T11:14:13.714Z</time></trkpt><trkpt lat="43.3233305" lon="12.3876363"><ele>287.0</ele><time>2026-04-28T11:14:14.714Z</time></trkpt><trkpt lat="43.3233434" lon="12.3874282"><ele>287.0</ele><time>2026-04-28T11:14:15.713Z</time></trkpt><trkpt lat="43.3233345" lon="12.3872246"><ele>287.0</ele><time>2026-04-28T11:14:16.713Z</time></trkpt><trkpt lat="43.3233046" lon="12.387051"><ele>287.25</ele><time>2026-04-28T11:14:17.713Z</time></trkpt><trkpt lat="43.3232497" lon="12.3869051"><ele>287.5</ele><time>2026-04-28T11:14:18.714Z</time></trkpt><trkpt lat="43.3231781" lon="12.3867562"><ele>287.75</ele><time>2026-04-28T11:14:19.713Z</time></trkpt><trkpt lat="43.3230808" lon="12.3866083"><ele>288.0</ele><time>2026-04-28T11:14:20.714Z</time></trkpt><trkpt lat="43.3229686" lon="12.3864789"><ele>288.6666666666667</ele><time>2026-04-28T11:14:21.713Z</time></trkpt><trkpt lat="43.3228415" lon="12.3863599"><ele>289.33333333333337</ele><time>2026-04-28T11:14:22.713Z</time></trkpt><trkpt lat="43.3227083" lon="12.3862451"><ele>290.0</ele><time>2026-04-28T11:14:23.714Z</time></trkpt><trkpt lat="43.3225708" lon="12.3861292"><ele>290.0</ele><time>2026-04-28T11:14:24.714Z</time></trkpt><trkpt lat="43.3224258" lon="12.386014"><ele>290.0</ele><time>2026-04-28T11:14:25.713Z</time></trkpt><trkpt lat="43.322279" lon="12.3859103"><ele>290.0</ele><time>2026-04-28T11:14:26.714Z</time></trkpt><trkpt lat="43.3221427" lon="12.3858146"><ele>288.5</ele><time>2026-04-28T11:14:27.713Z</time></trkpt><trkpt lat="43.3220194" lon="12.385724"><ele>287.0</ele><time>2026-04-28T11:14:28.714Z</time></trkpt><trkpt lat="43.3219071" lon="12.3856379"><ele>285.5</ele><time>2026-04-28T11:14:29.712Z</time></trkpt><trkpt lat="43.321799" lon="12.3855652"><ele>284.0</ele><time>2026-04-28T11:14:30.713Z</time></trkpt><trkpt lat="43.3216932" lon="12.3855021"><ele>284.0</ele><time>2026-04-28T11:14:31.714Z</time></trkpt><trkpt lat="43.3215874" lon="12.3854431"><ele>284.0</ele><time>2026-04-28T11:14:32.713Z</time></trkpt><trkpt lat="43.321476" lon="12.385397"><ele>284.0</ele><time>2026-04-28T11:14:33.713Z</time></trkpt><trkpt lat="43.3213629" lon="12.3853616"><ele>284.0</ele><time>2026-04-28T11:14:34.714Z</time></trkpt><trkpt lat="43.3212445" lon="12.3853396"><ele>285.0</ele><time>2026-04-28T11:14:35.714Z</time></trkpt><trkpt lat="43.3211205" lon="12.3853307"><ele>286.0</ele><time>2026-04-28T11:14:36.714Z</time></trkpt><trkpt lat="43.3209929" lon="12.3853378"><ele>287.0</ele><time>2026-04-28T11:14:37.714Z</time></trkpt><trkpt lat="43.3208622" lon="12.3853597"><ele>288.0</ele><time>2026-04-28T11:14:38.714Z</time></trkpt><trkpt lat="43.3207399" lon="12.3853905"><ele>288.0</ele><time>2026-04-28T11:14:39.713Z</time></trkpt><trkpt lat="43.3206233" lon="12.3854215"><ele>288.0</ele><time>2026-04-28T11:14:40.714Z</time></trkpt><trkpt lat="43.3205145" lon="12.3854445"><ele>288.0</ele><time>2026-04-28T11:14:41.713Z</time></trkpt><trkpt lat="43.3204198" lon="12.3854579"><ele>288.0</ele><time>2026-04-28T11:14:42.714Z</time></trkpt><trkpt lat="43.3203411" lon="12.3854622"><ele>288.0</ele><time>2026-04-28T11:14:43.713Z</time></trkpt><trkpt lat="43.3202752" lon="12.3854686"><ele>288.0</ele><time>2026-04-28T11:14:44.714Z</time></trkpt><trkpt lat="43.3202063" lon="12.3854828"><ele>288.0</ele><time>2026-04-28T11:14:46.714Z</time></trkpt><trkpt lat="43.3202804" lon="12.3855548"><ele>288.0</ele><time>2026-04-28T11:15:06.714Z</time></trkpt><trkpt lat="43.3203678" lon="12.3855231"><ele>288.0</ele><time>2026-04-28T11:15:07.714Z</time></trkpt><trkpt lat="43.3204589" lon="12.3854973"><ele>288.0</ele><time>2026-04-28T11:15:08.714Z</time></trkpt><trkpt lat="43.3205744" lon="12.3854629"><ele>288.0</ele><time>2026-04-28T11:15:09.713Z</time></trkpt><trkpt lat="43.3206998" lon="12.3854296"><ele>288.0</ele><time>2026-04-28T11:15:10.714Z</time></trkpt><trkpt lat="43.3208376" lon="12.3853958"><ele>288.0</ele><time>2026-04-28T11:15:11.714Z</time></trkpt><trkpt lat="43.3209903" lon="12.38537"><ele>288.0</ele><time>2026-04-28T11:15:12.713Z</time></trkpt><trkpt lat="43.3211582" lon="12.3853654"><ele>288.0</ele><time>2026-04-28T11:15:13.713Z</time></trkpt><trkpt lat="43.3213284" lon="12.3853899"><ele>288.0</ele><time>2026-04-28T11:15:14.714Z</time></trkpt><trkpt lat="43.3215033" lon="12.3854395"><ele>288.0</ele><time>2026-04-28T11:15:15.714Z</time></trkpt><trkpt lat="43.3216746" lon="12.385528"><ele>291.0</ele><time>2026-04-28T11:15:16.713Z</time></trkpt><trkpt lat="43.321841" lon="12.3856442"><ele>294.0</ele><time>2026-04-28T11:15:17.714Z</time></trkpt><trkpt lat="43.3220083" lon="12.385758"><ele>297.0</ele><time>2026-04-28T11:15:18.714Z</time></trkpt><trkpt lat="43.3221813" lon="12.3858763"><ele>294.6666666666667</ele><time>2026-04-28T11:15:19.713Z</time></trkpt><trkpt lat="43.3223522" lon="12.3859989"><ele>292.33333333333337</ele><time>2026-04-28T11:15:20.714Z</time></trkpt><trkpt lat="43.322516" lon="12.3861148"><ele>290.0</ele><time>2026-04-28T11:15:21.713Z</time></trkpt><trkpt lat="43.3226707" lon="12.3862289"><ele>291.6666666666667</ele><time>2026-04-28T11:15:22.713Z</time></trkpt><trkpt lat="43.3228144" lon="12.3863515"><ele>293.3333333333333</ele><time>2026-04-28T11:15:23.714Z</time></trkpt><trkpt lat="43.3229412" lon="12.3864857"><ele>295.0</ele><time>2026-04-28T11:15:24.713Z</time></trkpt><trkpt lat="43.3230494" lon="12.3866237"><ele>293.25</ele><time>2026-04-28T11:15:25.713Z</time></trkpt><trkpt lat="43.3231424" lon="12.3867654"><ele>291.5</ele><time>2026-04-28T11:15:26.714Z</time></trkpt><trkpt lat="43.323218" lon="12.3869181"><ele>289.75</ele><time>2026-04-28T11:15:27.713Z</time></trkpt><trkpt lat="43.3232711" lon="12.3870891"><ele>288.0</ele><time>2026-04-28T11:15:28.714Z</time></trkpt><trkpt lat="43.3233019" lon="12.3872786"><ele>287.6666666666667</ele><time>2026-04-28T11:15:29.713Z</time></trkpt><trkpt lat="43.3233117" lon="12.3874773"><ele>287.33333333333337</ele><time>2026-04-28T11:15:30.712Z</time></trkpt><trkpt lat="43.3232922" lon="12.3876925"><ele>287.0</ele><time>2026-04-28T11:15:31.714Z</time></trkpt><trkpt lat="43.323257" lon="12.3879254"><ele>286.6666666666667</ele><time>2026-04-28T11:15:32.713Z</time></trkpt><trkpt lat="43.3232163" lon="12.3881727"><ele>286.3333333333333</ele><time>2026-04-28T11:15:33.714Z</time></trkpt><trkpt lat="43.3231793" lon="12.3884134"><ele>286.0</ele><time>2026-04-28T11:15:34.714Z</time></trkpt><trkpt lat="43.3231494" lon="12.3886402"><ele>285.3333333333333</ele><time>2026-04-28T11:15:35.714Z</time></trkpt><trkpt lat="43.3231336" lon="12.3888584"><ele>284.6666666666667</ele><time>2026-04-28T11:15:36.713Z</time></trkpt><trkpt lat="43.3231375" lon="12.3890712"><ele>284.0</ele><time>2026-04-28T11:15:37.713Z</time></trkpt><trkpt lat="43.3231668" lon="12.3892915"><ele>284.0</ele><time>2026-04-28T11:15:38.714Z</time></trkpt><trkpt lat="43.3232172" lon="12.3895108"><ele>284.0</ele><time>2026-04-28T11:15:39.714Z</time></trkpt><trkpt lat="43.3232796" lon="12.389726"><ele>284.0</ele><time>2026-04-28T11:15:40.714Z</time></trkpt><trkpt lat="43.3233441" lon="12.389922"><ele>284.75</ele><time>2026-04-28T11:15:41.714Z</time></trkpt><trkpt lat="43.3234093" lon="12.3901007"><ele>285.5</ele><time>2026-04-28T11:15:42.713Z</time></trkpt><trkpt lat="43.3234864" lon="12.3902559"><ele>286.25</ele><time>2026-04-28T11:15:43.714Z</time></trkpt><trkpt lat="43.3235811" lon="12.390378"><ele>287.0</ele><time>2026-04-28T11:15:44.713Z</time></trkpt><trkpt lat="43.3236945" lon="12.3904637"><ele>287.0</ele><time>2026-04-28T11:15:45.714Z</time></trkpt><trkpt lat="43.3238223" lon="12.3905016"><ele>287.0</ele><time>2026-04-28T11:15:46.714Z</time></trkpt><trkpt lat="43.3239612" lon="12.3904999"><ele>287.0</ele><time>2026-04-28T11:15:47.713Z</time></trkpt><trkpt lat="43.324106" lon="12.3904799"><ele>287.0</ele><time>2026-04-28T11:15:48.714Z</time></trkpt><trkpt lat="43.3242598" lon="12.3904642"><ele>283.6666666666667</ele><time>2026-04-28T11:15:49.714Z</time></trkpt><trkpt lat="43.3244157" lon="12.3904601"><ele>280.3333333333333</ele><time>2026-04-28T11:15:50.713Z</time></trkpt><trkpt lat="43.3245718" lon="12.390472"><ele>277.0</ele><time>2026-04-28T11:15:51.713Z</time></trkpt><trkpt lat="43.324719" lon="12.3905054"><ele>276.66666666666663</ele><time>2026-04-28T11:15:52.714Z</time></trkpt><trkpt lat="43.3248672" lon="12.3905554"><ele>276.3333333333333</ele><time>2026-04-28T11:15:53.714Z</time></trkpt><trkpt lat="43.3250119" lon="12.3906163"><ele>276.0</ele><time>2026-04-28T11:15:54.714Z</time></trkpt><trkpt lat="43.3251564" lon="12.3906802"><ele>276.0</ele><time>2026-04-28T11:15:55.714Z</time></trkpt><trkpt lat="43.3252987" lon="12.3907505"><ele>276.0</ele><time>2026-04-28T11:15:56.714Z</time></trkpt><trkpt lat="43.3254398" lon="12.3908198"><ele>276.0</ele><time>2026-04-28T11:15:57.714Z</time></trkpt><trkpt lat="43.3255798" lon="12.3908939"><ele>277.25</ele><time>2026-04-28T11:15:58.713Z</time></trkpt><trkpt lat="43.3257182" lon="12.3909739"><ele>278.5</ele><time>2026-04-28T11:15:59.712Z</time></trkpt><trkpt lat="43.3258499" lon="12.391053"><ele>279.75</ele><time>2026-04-28T11:16:00.713Z</time></trkpt><trkpt lat="43.3259688" lon="12.391142"><ele>281.0</ele><time>2026-04-28T11:16:01.713Z</time></trkpt><trkpt lat="43.3260709" lon="12.3912515"><ele>281.5</ele><time>2026-04-28T11:16:02.712Z</time></trkpt><trkpt lat="43.326151" lon="12.3913794"><ele>282.0</ele><time>2026-04-28T11:16:03.713Z</time></trkpt><trkpt lat="43.3262148" lon="12.39152"><ele>282.5</ele><time>2026-04-28T11:16:04.712Z</time></trkpt><trkpt lat="43.3262496" lon="12.3916677"><ele>283.0</ele><time>2026-04-28T11:16:05.713Z</time></trkpt><trkpt lat="43.3262658" lon="12.3918107"><ele>283.0</ele><time>2026-04-28T11:16:06.712Z</time></trkpt><trkpt lat="43.3262694" lon="12.3919371"><ele>283.0</ele><time>2026-04-28T11:16:07.713Z</time></trkpt><trkpt lat="43.3262753" lon="12.392039"><ele>283.0</ele><time>2026-04-28T11:16:08.712Z</time></trkpt><trkpt lat="43.3263272" lon="12.3921413"><ele>283.0</ele><time>2026-04-28T11:16:10.713Z</time></trkpt><trkpt lat="43.3263981" lon="12.3920733"><ele>283.0</ele><time>2026-04-28T11:16:13.713Z</time></trkpt><trkpt lat="43.3264059" lon="12.3919421"><ele>283.0</ele><time>2026-04-28T11:16:15.713Z</time></trkpt><trkpt lat="43.326417" lon="12.3918551"><ele>284.4</ele><time>2026-04-28T11:16:16.713Z</time></trkpt><trkpt lat="43.3264379" lon="12.3917413"><ele>285.8</ele><time>2026-04-28T11:16:17.712Z</time></trkpt><trkpt lat="43.3264587" lon="12.391624"><ele>287.2</ele><time>2026-04-28T11:16:18.713Z</time></trkpt><trkpt lat="43.3264834" lon="12.3914899"><ele>288.6</ele><time>2026-04-28T11:16:19.712Z</time></trkpt><trkpt lat="43.326512" lon="12.3913338"><ele>290.0</ele><time>2026-04-28T11:16:20.713Z</time></trkpt><trkpt lat="43.3265477" lon="12.3911534"><ele>290.25</ele><time>2026-04-28T11:16:21.712Z</time></trkpt><trkpt lat="43.3265847" lon="12.390969"><ele>290.5</ele><time>2026-04-28T11:16:22.713Z</time></trkpt><trkpt lat="43.326623" lon="12.3907773"><ele>290.75</ele><time>2026-04-28T11:16:23.713Z</time></trkpt><trkpt lat="43.3266624" lon="12.3905807"><ele>291.0</ele><time>2026-04-28T11:16:24.712Z</time></trkpt><trkpt lat="43.3267143" lon="12.3903832"><ele>290.3333333333333</ele><time>2026-04-28T11:16:25.713Z</time></trkpt><trkpt lat="43.326774" lon="12.3901852"><ele>289.66666666666663</ele><time>2026-04-28T11:16:26.713Z</time></trkpt><trkpt lat="43.3268463" lon="12.3899892"><ele>289.0</ele><time>2026-04-28T11:16:27.711Z</time></trkpt><trkpt lat="43.3269195" lon="12.3898049"><ele>289.5</ele><time>2026-04-28T11:16:28.713Z</time></trkpt><trkpt lat="43.326992" lon="12.3896492"><ele>290.0</ele><time>2026-04-28T11:16:29.713Z</time></trkpt><trkpt lat="43.3270556" lon="12.3895025"><ele>290.5</ele><time>2026-04-28T11:16:30.713Z</time></trkpt><trkpt lat="43.3270996" lon="12.3893681"><ele>291.0</ele><time>2026-04-28T11:16:31.713Z</time></trkpt><trkpt lat="43.3271133" lon="12.389238"><ele>291.0</ele><time>2026-04-28T11:16:32.713Z</time></trkpt><trkpt lat="43.327091" lon="12.389109"><ele>291.0</ele><time>2026-04-28T11:16:33.713Z</time></trkpt><trkpt lat="43.3270335" lon="12.3889891"><ele>291.0</ele><time>2026-04-28T11:16:34.713Z</time></trkpt><trkpt lat="43.3269522" lon="12.3888839"><ele>291.0</ele><time>2026-04-28T11:16:35.713Z</time></trkpt><trkpt lat="43.3268604" lon="12.3887753"><ele>291.0</ele><time>2026-04-28T11:16:36.713Z</time></trkpt><trkpt lat="43.3267903" lon="12.3886592"><ele>292.75</ele><time>2026-04-28T11:16:37.712Z</time></trkpt><trkpt lat="43.3267374" lon="12.3885267"><ele>294.5</ele><time>2026-04-28T11:16:38.713Z</time></trkpt><trkpt lat="43.3267053" lon="12.3883761"><ele>296.25</ele><time>2026-04-28T11:16:39.712Z</time></trkpt><trkpt lat="43.3266944" lon="12.3882075"><ele>298.0</ele><time>2026-04-28T11:16:40.713Z</time></trkpt><trkpt lat="43.3266903" lon="12.388022"><ele>298.3333333333333</ele><time>2026-04-28T11:16:41.712Z</time></trkpt><trkpt lat="43.3266839" lon="12.3878208"><ele>298.6666666666667</ele><time>2026-04-28T11:16:42.713Z</time></trkpt><trkpt lat="43.3266793" lon="12.3876095"><ele>299.0</ele><time>2026-04-28T11:16:43.713Z</time></trkpt><trkpt lat="43.3266758" lon="12.3873909"><ele>301.33333333333337</ele><time>2026-04-28T11:16:44.712Z</time></trkpt><trkpt lat="43.3266725" lon="12.3871597"><ele>303.6666666666667</ele><time>2026-04-28T11:16:45.713Z</time></trkpt><trkpt lat="43.3266679" lon="12.3869166"><ele>306.0</ele><time>2026-04-28T11:16:46.712Z</time></trkpt><trkpt lat="43.3266561" lon="12.3866695"><ele>306.0</ele><time>2026-04-28T11:16:47.713Z</time></trkpt><trkpt lat="43.3266316" lon="12.3864273"><ele>306.0</ele><time>2026-04-28T11:16:48.712Z</time></trkpt><trkpt lat="43.3265974" lon="12.386204"><ele>306.0</ele><time>2026-04-28T11:16:49.713Z</time></trkpt><trkpt lat="43.3265693" lon="12.3860025"><ele>308.25</ele><time>2026-04-28T11:16:50.713Z</time></trkpt><trkpt lat="43.3265572" lon="12.3858254"><ele>310.5</ele><time>2026-04-28T11:16:51.713Z</time></trkpt><trkpt lat="43.3265685" lon="12.3856687"><ele>312.75</ele><time>2026-04-28T11:16:52.713Z</time></trkpt><trkpt lat="43.3266048" lon="12.3855181"><ele>315.0</ele><time>2026-04-28T11:16:53.713Z</time></trkpt><trkpt lat="43.3266756" lon="12.385373"><ele>315.0</ele><time>2026-04-28T11:16:54.713Z</time></trkpt><trkpt lat="43.3267693" lon="12.3852493"><ele>315.0</ele><time>2026-04-28T11:16:55.712Z</time></trkpt><trkpt lat="43.3268575" lon="12.3851478"><ele>315.0</ele><time>2026-04-28T11:16:56.713Z</time></trkpt><trkpt lat="43.3269258" lon="12.3850446"><ele>315.0</ele><time>2026-04-28T11:16:57.713Z</time></trkpt><trkpt lat="43.3269793" lon="12.3849314"><ele>315.0</ele><time>2026-04-28T11:16:58.712Z</time></trkpt><trkpt lat="43.3270025" lon="12.3848119"><ele>315.0</ele><time>2026-04-28T11:16:59.713Z</time></trkpt><trkpt lat="43.326989" lon="12.384688"><ele>315.0</ele><time>2026-04-28T11:17:00.712Z</time></trkpt><trkpt lat="43.3269337" lon="12.3845745"><ele>315.0</ele><time>2026-04-28T11:17:01.713Z</time></trkpt><trkpt lat="43.3268477" lon="12.384482"><ele>315.0</ele><time>2026-04-28T11:17:02.713Z</time></trkpt><trkpt lat="43.3267266" lon="12.3844135"><ele>315.0</ele><time>2026-04-28T11:17:03.713Z</time></trkpt><trkpt lat="43.326592" lon="12.3843528"><ele>315.0</ele><time>2026-04-28T11:17:04.712Z</time></trkpt><trkpt lat="43.3264739" lon="12.3842812"><ele>315.0</ele><time>2026-04-28T11:17:05.713Z</time></trkpt><trkpt lat="43.3263854" lon="12.3841883"><ele>315.0</ele><time>2026-04-28T11:17:06.712Z</time></trkpt><trkpt lat="43.3263253" lon="12.3840783"><ele>315.0</ele><time>2026-04-28T11:17:07.713Z</time></trkpt><trkpt lat="43.326297" lon="12.3839514"><ele>315.0</ele><time>2026-04-28T11:17:08.713Z</time></trkpt><trkpt lat="43.3263051" lon="12.383822"><ele>315.0</ele><time>2026-04-28T11:17:09.713Z</time></trkpt><trkpt lat="43.3263564" lon="12.3836965"><ele>315.0</ele><time>2026-04-28T11:17:10.713Z</time></trkpt><trkpt lat="43.3264311" lon="12.3835629"><ele>315.0</ele><time>2026-04-28T11:17:11.713Z</time></trkpt><trkpt lat="43.3265193" lon="12.3834085"><ele>315.0</ele><time>2026-04-28T11:17:12.712Z</time></trkpt><trkpt lat="43.3266099" lon="12.3832544"><ele>319.5</ele><time>2026-04-28T11:17:13.713Z</time></trkpt><trkpt lat="43.3267023" lon="12.3831085"><ele>324.0</ele><time>2026-04-28T11:17:14.713Z</time></trkpt><trkpt lat="43.3267699" lon="12.3829799"><ele>328.5</ele><time>2026-04-28T11:17:15.713Z</time></trkpt><trkpt lat="43.3268086" lon="12.3828503"><ele>333.0</ele><time>2026-04-28T11:17:16.711Z</time></trkpt><trkpt lat="43.3268086" lon="12.3827229"><ele>333.59999999999997</ele><time>2026-04-28T11:17:17.713Z</time></trkpt><trkpt lat="43.3267717" lon="12.3825938"><ele>334.2</ele><time>2026-04-28T11:17:18.713Z</time></trkpt><trkpt lat="43.3267087" lon="12.3824761"><ele>334.8</ele><time>2026-04-28T11:17:19.712Z</time></trkpt><trkpt lat="43.3266297" lon="12.3823922"><ele>335.4</ele><time>2026-04-28T11:17:20.713Z</time></trkpt><trkpt lat="43.3265416" lon="12.3823576"><ele>336.0</ele><time>2026-04-28T11:17:21.712Z</time></trkpt><trkpt lat="43.3264386" lon="12.3823684"><ele>335.75</ele><time>2026-04-28T11:17:22.712Z</time></trkpt><trkpt lat="43.3263244" lon="12.3824169"><ele>335.5</ele><time>2026-04-28T11:17:23.713Z</time></trkpt><trkpt lat="43.3261956" lon="12.3824783"><ele>335.25</ele><time>2026-04-28T11:17:24.712Z</time></trkpt><trkpt lat="43.3260719" lon="12.3825225"><ele>335.0</ele><time>2026-04-28T11:17:25.713Z</time></trkpt><trkpt lat="43.3259564" lon="12.382535"><ele>335.0</ele><time>2026-04-28T11:17:26.713Z</time></trkpt><trkpt lat="43.32583" lon="12.3825145"><ele>335.0</ele><time>2026-04-28T11:17:27.712Z</time></trkpt><trkpt lat="43.3256922" lon="12.3824639"><ele>335.0</ele><time>2026-04-28T11:17:28.713Z</time></trkpt><trkpt lat="43.3255523" lon="12.3823978"><ele>335.0</ele><time>2026-04-28T11:17:29.712Z</time></trkpt><trkpt lat="43.3254142" lon="12.382328"><ele>332.25</ele><time>2026-04-28T11:17:30.713Z</time></trkpt><trkpt lat="43.3252916" lon="12.3822504"><ele>329.5</ele><time>2026-04-28T11:17:31.712Z</time></trkpt><trkpt lat="43.3251852" lon="12.3821471"><ele>326.75</ele><time>2026-04-28T11:17:32.713Z</time></trkpt><trkpt lat="43.3250905" lon="12.382005"><ele>324.0</ele><time>2026-04-28T11:17:33.713Z</time></trkpt><trkpt lat="43.3250015" lon="12.3818352"><ele>330.25</ele><time>2026-04-28T11:17:34.713Z</time></trkpt><trkpt lat="43.3249092" lon="12.3816621"><ele>336.5</ele><time>2026-04-28T11:17:35.712Z</time></trkpt><trkpt lat="43.324831" lon="12.3815151"><ele>342.75</ele><time>2026-04-28T11:17:36.713Z</time></trkpt><trkpt lat="43.3247505" lon="12.3814022"><ele>349.0</ele><time>2026-04-28T11:17:37.713Z</time></trkpt><trkpt lat="43.3246626" lon="12.3813321"><ele>351.0</ele><time>2026-04-28T11:17:38.713Z</time></trkpt><trkpt lat="43.3245699" lon="12.3813229"><ele>353.0</ele><time>2026-04-28T11:17:39.712Z</time></trkpt><trkpt lat="43.3244739" lon="12.3813645"><ele>355.0</ele><time>2026-04-28T11:17:40.712Z</time></trkpt><trkpt lat="43.3243751" lon="12.3814433"><ele>357.0</ele><time>2026-04-28T11:17:41.713Z</time></trkpt><trkpt lat="43.3242759" lon="12.381523"><ele>359.0</ele><time>2026-04-28T11:17:42.712Z</time></trkpt><trkpt lat="43.3241802" lon="12.3815728"><ele>358.2</ele><time>2026-04-28T11:17:43.713Z</time></trkpt><trkpt lat="43.3240813" lon="12.3815827"><ele>357.4</ele><time>2026-04-28T11:17:44.712Z</time></trkpt><trkpt lat="43.3239985" lon="12.3815421"><ele>356.6</ele><time>2026-04-28T11:17:45.713Z</time></trkpt><trkpt lat="43.3239313" lon="12.3814505"><ele>355.8</ele><time>2026-04-28T11:17:46.712Z</time></trkpt><trkpt lat="43.3238722" lon="12.3813173"><ele>355.0</ele><time>2026-04-28T11:17:47.713Z</time></trkpt><trkpt lat="43.3238053" lon="12.3811594"><ele>355.0</ele><time>2026-04-28T11:17:48.712Z</time></trkpt><trkpt lat="43.3237343" lon="12.3810249"><ele>355.0</ele><time>2026-04-28T11:17:49.713Z</time></trkpt><trkpt lat="43.3236632" lon="12.3809084"><ele>355.0</ele><time>2026-04-28T11:17:50.712Z</time></trkpt><trkpt lat="43.3235742" lon="12.3808381"><ele>355.0</ele><time>2026-04-28T11:17:51.713Z</time></trkpt><trkpt lat="43.3234797" lon="12.3808179"><ele>355.0</ele><time>2026-04-28T11:17:52.712Z</time></trkpt><trkpt lat="43.3233772" lon="12.3808576"><ele>355.0</ele><time>2026-04-28T11:17:53.713Z</time></trkpt><trkpt lat="43.3232694" lon="12.3809463"><ele>355.0</ele><time>2026-04-28T11:17:54.713Z</time></trkpt><trkpt lat="43.3231576" lon="12.3810656"><ele>355.0</ele><time>2026-04-28T11:17:55.712Z</time></trkpt><trkpt lat="43.3230507" lon="12.3811694"><ele>355.0</ele><time>2026-04-28T11:17:56.713Z</time></trkpt><trkpt lat="43.3229441" lon="12.3812392"><ele>354.0</ele><time>2026-04-28T11:17:57.713Z</time></trkpt><trkpt lat="43.3228425" lon="12.3812478"><ele>353.0</ele><time>2026-04-28T11:17:58.712Z</time></trkpt><trkpt lat="43.3227504" lon="12.3811988"><ele>352.0</ele><time>2026-04-28T11:17:59.713Z</time></trkpt><trkpt lat="43.3226634" lon="12.3810885"><ele>351.0</ele><time>2026-04-28T11:18:00.713Z</time></trkpt><trkpt lat="43.3225832" lon="12.3809316"><ele>351.0</ele><time>2026-04-28T11:18:01.713Z</time></trkpt><trkpt lat="43.3225155" lon="12.3807451"><ele>351.0</ele><time>2026-04-28T11:18:02.713Z</time></trkpt><trkpt lat="43.3224421" lon="12.3805405"><ele>351.0</ele><time>2026-04-28T11:18:03.713Z</time></trkpt><trkpt lat="43.3223621" lon="12.3803753"><ele>354.75</ele><time>2026-04-28T11:18:04.712Z</time></trkpt><trkpt lat="43.3222666" lon="12.3802439"><ele>358.5</ele><time>2026-04-28T11:18:05.713Z</time></trkpt><trkpt lat="43.3221517" lon="12.3801482"><ele>362.25</ele><time>2026-04-28T11:18:06.713Z</time></trkpt><trkpt lat="43.3220183" lon="12.3800852"><ele>366.0</ele><time>2026-04-28T11:18:07.712Z</time></trkpt><trkpt lat="43.3218692" lon="12.3800446"><ele>366.0</ele><time>2026-04-28T11:18:08.712Z</time></trkpt><trkpt lat="43.3217063" lon="12.3800148"><ele>366.0</ele><time>2026-04-28T11:18:09.713Z</time></trkpt><trkpt lat="43.3215346" lon="12.3799905"><ele>366.0</ele><time>2026-04-28T11:18:10.713Z</time></trkpt><trkpt lat="43.3213679" lon="12.3799618"><ele>367.0</ele><time>2026-04-28T11:18:11.712Z</time></trkpt><trkpt lat="43.3212195" lon="12.379923"><ele>368.0</ele><time>2026-04-28T11:18:12.712Z</time></trkpt><trkpt lat="43.3210897" lon="12.3798604"><ele>369.0</ele><time>2026-04-28T11:18:13.713Z</time></trkpt><trkpt lat="43.320977" lon="12.3797595"><ele>370.0</ele><time>2026-04-28T11:18:14.712Z</time></trkpt><trkpt lat="43.3208642" lon="12.3796359"><ele>370.0</ele><time>2026-04-28T11:18:15.713Z</time></trkpt><trkpt lat="43.3207638" lon="12.3795071"><ele>370.0</ele><time>2026-04-28T11:18:16.713Z</time></trkpt><trkpt lat="43.3206873" lon="12.3793659"><ele>370.0</ele><time>2026-04-28T11:18:17.712Z</time></trkpt><trkpt lat="43.3206331" lon="12.3791966"><ele>370.0</ele><time>2026-04-28T11:18:18.713Z</time></trkpt><trkpt lat="43.3205938" lon="12.3790062"><ele>367.3333333333333</ele><time>2026-04-28T11:18:19.713Z</time></trkpt><trkpt lat="43.3205474" lon="12.3788093"><ele>364.6666666666667</ele><time>2026-04-28T11:18:20.712Z</time></trkpt><trkpt lat="43.3204729" lon="12.3786052"><ele>362.0</ele><time>2026-04-28T11:18:21.713Z</time></trkpt><trkpt lat="43.3203797" lon="12.3784026"><ele>362.0</ele><time>2026-04-28T11:18:22.713Z</time></trkpt><trkpt lat="43.3202704" lon="12.3782053"><ele>362.0</ele><time>2026-04-28T11:18:23.713Z</time></trkpt><trkpt lat="43.3201457" lon="12.3780188"><ele>362.0</ele><time>2026-04-28T11:18:24.713Z</time></trkpt><trkpt lat="43.3200164" lon="12.3778592"><ele>363.6666666666667</ele><time>2026-04-28T11:18:25.713Z</time></trkpt><trkpt lat="43.3198794" lon="12.3777055"><ele>365.3333333333333</ele><time>2026-04-28T11:18:26.713Z</time></trkpt><trkpt lat="43.3197386" lon="12.3775443"><ele>367.0</ele><time>2026-04-28T11:18:27.713Z</time></trkpt><trkpt lat="43.3195985" lon="12.377377"><ele>367.0</ele><time>2026-04-28T11:18:28.713Z</time></trkpt><trkpt lat="43.3194615" lon="12.3772107"><ele>367.0</ele><time>2026-04-28T11:18:29.712Z</time></trkpt><trkpt lat="43.3193418" lon="12.377065"><ele>367.0</ele><time>2026-04-28T11:18:30.713Z</time></trkpt><trkpt lat="43.3192266" lon="12.3769418"><ele>368.0</ele><time>2026-04-28T11:18:31.713Z</time></trkpt><trkpt lat="43.3191038" lon="12.3768453"><ele>369.0</ele><time>2026-04-28T11:18:32.712Z</time></trkpt><trkpt lat="43.318969" lon="12.3767885"><ele>370.0</ele><time>2026-04-28T11:18:33.713Z</time></trkpt><trkpt lat="43.3188471" lon="12.3767453"><ele>371.0</ele><time>2026-04-28T11:18:34.712Z</time></trkpt><trkpt lat="43.3187413" lon="12.3766933"><ele>371.0</ele><time>2026-04-28T11:18:35.713Z</time></trkpt><trkpt lat="43.3186548" lon="12.3766201"><ele>371.0</ele><time>2026-04-28T11:18:36.712Z</time></trkpt><trkpt lat="43.3185869" lon="12.3765061"><ele>371.0</ele><time>2026-04-28T11:18:37.713Z</time></trkpt><trkpt lat="43.3185301" lon="12.3763634"><ele>371.0</ele><time>2026-04-28T11:18:38.712Z</time></trkpt><trkpt lat="43.3184824" lon="12.3761814"><ele>373.75</ele><time>2026-04-28T11:18:39.713Z</time></trkpt><trkpt lat="43.3184389" lon="12.3759851"><ele>376.5</ele><time>2026-04-28T11:18:40.712Z</time></trkpt><trkpt lat="43.3183947" lon="12.3758099"><ele>379.25</ele><time>2026-04-28T11:18:41.713Z</time></trkpt><trkpt lat="43.318346" lon="12.3756543"><ele>382.0</ele><time>2026-04-28T11:18:42.713Z</time></trkpt><trkpt lat="43.3182817" lon="12.3755063"><ele>381.0</ele><time>2026-04-28T11:18:43.713Z</time></trkpt><trkpt lat="43.3181937" lon="12.3753742"><ele>380.0</ele><time>2026-04-28T11:18:44.712Z</time></trkpt><trkpt lat="43.3180747" lon="12.375244"><ele>379.0</ele><time>2026-04-28T11:18:45.713Z</time></trkpt><trkpt lat="43.3179427" lon="12.3751234"><ele>378.0</ele><time>2026-04-28T11:18:46.713Z</time></trkpt><trkpt lat="43.3177995" lon="12.374987"><ele>378.0</ele><time>2026-04-28T11:18:47.713Z</time></trkpt><trkpt lat="43.3176713" lon="12.3748513"><ele>378.0</ele><time>2026-04-28T11:18:48.713Z</time></trkpt><trkpt lat="43.3175597" lon="12.3747095"><ele>378.0</ele><time>2026-04-28T11:18:49.713Z</time></trkpt><trkpt lat="43.3174636" lon="12.374546"><ele>374.0</ele><time>2026-04-28T11:18:50.713Z</time></trkpt><trkpt lat="43.3173683" lon="12.3743462"><ele>370.0</ele><time>2026-04-28T11:18:51.713Z</time></trkpt><trkpt lat="43.3172736" lon="12.3741351"><ele>366.0</ele><time>2026-04-28T11:18:52.712Z</time></trkpt><trkpt lat="43.3171822" lon="12.3739242"><ele>371.6666666666667</ele><time>2026-04-28T11:18:53.713Z</time></trkpt><trkpt lat="43.3170908" lon="12.373722"><ele>377.33333333333337</ele><time>2026-04-28T11:18:54.713Z</time></trkpt><trkpt lat="43.3169995" lon="12.3735388"><ele>383.0</ele><time>2026-04-28T11:18:55.713Z</time></trkpt><trkpt lat="43.3169007" lon="12.3733749"><ele>383.0</ele><time>2026-04-28T11:18:56.712Z</time></trkpt><trkpt lat="43.3167808" lon="12.3732303"><ele>383.0</ele><time>2026-04-28T11:18:57.713Z</time></trkpt><trkpt lat="43.3166414" lon="12.3731017"><ele>383.0</ele><time>2026-04-28T11:18:58.713Z</time></trkpt><trkpt lat="43.3164872" lon="12.3729881"><ele>386.33333333333337</ele><time>2026-04-28T11:18:59.713Z</time></trkpt><trkpt lat="43.316318" lon="12.3728745"><ele>389.6666666666667</ele><time>2026-04-28T11:19:00.713Z</time></trkpt><trkpt lat="43.316143" lon="12.3727577"><ele>393.0</ele><time>2026-04-28T11:19:01.713Z</time></trkpt><trkpt lat="43.3159673" lon="12.37264"><ele>393.0</ele><time>2026-04-28T11:19:02.712Z</time></trkpt><trkpt lat="43.3158057" lon="12.3725342"><ele>393.0</ele><time>2026-04-28T11:19:03.712Z</time></trkpt><trkpt lat="43.3156574" lon="12.372429"><ele>393.0</ele><time>2026-04-28T11:19:04.713Z</time></trkpt><trkpt lat="43.3155219" lon="12.3723143"><ele>391.33333333333337</ele><time>2026-04-28T11:19:05.712Z</time></trkpt><trkpt lat="43.3153932" lon="12.3721764"><ele>389.6666666666667</ele><time>2026-04-28T11:19:06.712Z</time></trkpt><trkpt lat="43.3152731" lon="12.3720068"><ele>388.0</ele><time>2026-04-28T11:19:07.713Z</time></trkpt><trkpt lat="43.3151537" lon="12.3718243"><ele>388.0</ele><time>2026-04-28T11:19:08.713Z</time></trkpt><trkpt lat="43.3150295" lon="12.3716411"><ele>388.0</ele><time>2026-04-28T11:19:09.713Z</time></trkpt><trkpt lat="43.3149085" lon="12.3714668"><ele>388.0</ele><time>2026-04-28T11:19:10.713Z</time></trkpt><trkpt lat="43.3147914" lon="12.3713037"><ele>388.6666666666667</ele><time>2026-04-28T11:19:11.712Z</time></trkpt><trkpt lat="43.3146712" lon="12.3711535"><ele>389.33333333333337</ele><time>2026-04-28T11:19:12.713Z</time></trkpt><trkpt lat="43.314534" lon="12.3710173"><ele>390.0</ele><time>2026-04-28T11:19:13.713Z</time></trkpt><trkpt lat="43.3143858" lon="12.3708939"><ele>390.0</ele><time>2026-04-28T11:19:14.711Z</time></trkpt><trkpt lat="43.3142292" lon="12.3707734"><ele>390.0</ele><time>2026-04-28T11:19:15.713Z</time></trkpt><trkpt lat="43.3140696" lon="12.3706531"><ele>390.0</ele><time>2026-04-28T11:19:16.713Z</time></trkpt><trkpt lat="43.3139079" lon="12.3705252"><ele>389.33333333333337</ele><time>2026-04-28T11:19:17.713Z</time></trkpt><trkpt lat="43.3137492" lon="12.3703796"><ele>388.6666666666667</ele><time>2026-04-28T11:19:18.712Z</time></trkpt><trkpt lat="43.3135951" lon="12.3702209"><ele>388.0</ele><time>2026-04-28T11:19:19.713Z</time></trkpt><trkpt lat="43.3134464" lon="12.3700513"><ele>388.0</ele><time>2026-04-28T11:19:20.712Z</time></trkpt><trkpt lat="43.3133117" lon="12.3698829"><ele>388.0</ele><time>2026-04-28T11:19:21.712Z</time></trkpt><trkpt lat="43.3131912" lon="12.3697192"><ele>388.0</ele><time>2026-04-28T11:19:22.713Z</time></trkpt><trkpt lat="43.3130873" lon="12.3695587"><ele>385.6666666666667</ele><time>2026-04-28T11:19:23.712Z</time></trkpt><trkpt lat="43.3129997" lon="12.3693883"><ele>383.33333333333337</ele><time>2026-04-28T11:19:24.713Z</time></trkpt><trkpt lat="43.3129228" lon="12.3691981"><ele>381.0</ele><time>2026-04-28T11:19:25.713Z</time></trkpt><trkpt lat="43.3128519" lon="12.3689956"><ele>385.0</ele><time>2026-04-28T11:19:26.712Z</time></trkpt><trkpt lat="43.3127811" lon="12.3688058"><ele>389.0</ele><time>2026-04-28T11:19:27.713Z</time></trkpt><trkpt lat="43.3127054" lon="12.368626"><ele>393.0</ele><time>2026-04-28T11:19:28.713Z</time></trkpt><trkpt lat="43.3126114" lon="12.3684529"><ele>393.0</ele><time>2026-04-28T11:19:29.712Z</time></trkpt><trkpt lat="43.312499" lon="12.3682983"><ele>393.0</ele><time>2026-04-28T11:19:30.713Z</time></trkpt><trkpt lat="43.3123653" lon="12.3681567"><ele>393.0</ele><time>2026-04-28T11:19:31.71Z</time></trkpt><trkpt lat="43.3122165" lon="12.3680136"><ele>392.0</ele><time>2026-04-28T11:19:32.712Z</time></trkpt><trkpt lat="43.3120568" lon="12.3678761"><ele>391.0</ele><time>2026-04-28T11:19:33.712Z</time></trkpt><trkpt lat="43.3119026" lon="12.3677386"><ele>390.0</ele><time>2026-04-28T11:19:34.711Z</time></trkpt><trkpt lat="43.3117586" lon="12.3676084"><ele>390.0</ele><time>2026-04-28T11:19:35.712Z</time></trkpt><trkpt lat="43.3116161" lon="12.3674849"><ele>390.0</ele><time>2026-04-28T11:19:36.712Z</time></trkpt><trkpt lat="43.3114877" lon="12.3673626"><ele>390.0</ele><time>2026-04-28T11:19:37.711Z</time></trkpt><trkpt lat="43.311362" lon="12.3672491"><ele>389.25</ele><time>2026-04-28T11:19:38.712Z</time></trkpt><trkpt lat="43.3112457" lon="12.3671384"><ele>388.5</ele><time>2026-04-28T11:19:39.711Z</time></trkpt><trkpt lat="43.3111465" lon="12.3670169"><ele>387.75</ele><time>2026-04-28T11:19:40.712Z</time></trkpt><trkpt lat="43.3110747" lon="12.3668765"><ele>387.0</ele><time>2026-04-28T11:19:41.711Z</time></trkpt><trkpt lat="43.3110297" lon="12.3667181"><ele>387.0</ele><time>2026-04-28T11:19:42.712Z</time></trkpt><trkpt lat="43.3110162" lon="12.3665348"><ele>387.0</ele><time>2026-04-28T11:19:43.712Z</time></trkpt><trkpt lat="43.3110129" lon="12.3663317"><ele>387.0</ele><time>2026-04-28T11:19:44.711Z</time></trkpt><trkpt lat="43.3110147" lon="12.3661114"><ele>387.0</ele><time>2026-04-28T11:19:45.711Z</time></trkpt><trkpt lat="43.3110142" lon="12.365864"><ele>385.6666666666667</ele><time>2026-04-28T11:19:46.712Z</time></trkpt><trkpt lat="43.3110087" lon="12.3656254"><ele>384.33333333333337</ele><time>2026-04-28T11:19:47.712Z</time></trkpt><trkpt lat="43.3110105" lon="12.3653917"><ele>383.0</ele><time>2026-04-28T11:19:48.711Z</time></trkpt><trkpt lat="43.3110195" lon="12.3651446"><ele>383.0</ele><time>2026-04-28T11:19:49.711Z</time></trkpt><trkpt lat="43.3110345" lon="12.3648794"><ele>383.0</ele><time>2026-04-28T11:19:50.712Z</time></trkpt><trkpt lat="43.3110428" lon="12.3645904"><ele>383.0</ele><time>2026-04-28T11:19:51.712Z</time></trkpt><trkpt lat="43.3110366" lon="12.3643054"><ele>382.6666666666667</ele><time>2026-04-28T11:19:52.712Z</time></trkpt><trkpt lat="43.3110256" lon="12.364025"><ele>382.3333333333333</ele><time>2026-04-28T11:19:53.712Z</time></trkpt><trkpt lat="43.3110166" lon="12.3637548"><ele>382.0</ele><time>2026-04-28T11:19:54.711Z</time></trkpt><trkpt lat="43.3110108" lon="12.3635015"><ele>380.3333333333333</ele><time>2026-04-28T11:19:55.712Z</time></trkpt><trkpt lat="43.3110066" lon="12.3632673"><ele>378.6666666666667</ele><time>2026-04-28T11:19:56.711Z</time></trkpt><trkpt lat="43.3110024" lon="12.3630532"><ele>377.0</ele><time>2026-04-28T11:19:57.711Z</time></trkpt><trkpt lat="43.3110004" lon="12.3628532"><ele>376.5</ele><time>2026-04-28T11:19:58.711Z</time></trkpt><trkpt lat="43.3110013" lon="12.3626604"><ele>376.0</ele><time>2026-04-28T11:19:59.712Z</time></trkpt><trkpt lat="43.3110029" lon="12.3624776"><ele>375.5</ele><time>2026-04-28T11:20:00.712Z</time></trkpt><trkpt lat="43.3110048" lon="12.3622986"><ele>375.0</ele><time>2026-04-28T11:20:01.712Z</time></trkpt><trkpt lat="43.3110045" lon="12.3621247"><ele>374.75</ele><time>2026-04-28T11:20:02.712Z</time></trkpt><trkpt lat="43.3110126" lon="12.3619524"><ele>374.5</ele><time>2026-04-28T11:20:03.712Z</time></trkpt><trkpt lat="43.3110305" lon="12.3617845"><ele>374.25</ele><time>2026-04-28T11:20:04.711Z</time></trkpt><trkpt lat="43.3110704" lon="12.3616215"><ele>374.0</ele><time>2026-04-28T11:20:05.712Z</time></trkpt><trkpt lat="43.3111219" lon="12.3614562"><ele>373.75</ele><time>2026-04-28T11:20:06.712Z</time></trkpt><trkpt lat="43.3111853" lon="12.3612982"><ele>373.5</ele><time>2026-04-28T11:20:07.712Z</time></trkpt><trkpt lat="43.3112546" lon="12.3611566"><ele>373.25</ele><time>2026-04-28T11:20:08.711Z</time></trkpt><trkpt lat="43.3113175" lon="12.361027"><ele>373.0</ele><time>2026-04-28T11:20:09.712Z</time></trkpt><trkpt lat="43.3113739" lon="12.360912"><ele>372.5</ele><time>2026-04-28T11:20:10.711Z</time></trkpt><trkpt lat="43.311427" lon="12.360819"><ele>372.0</ele><time>2026-04-28T11:20:11.712Z</time></trkpt><trkpt lat="43.3114846" lon="12.3607561"><ele>371.5</ele><time>2026-04-28T11:20:12.712Z</time></trkpt><trkpt lat="43.3115491" lon="12.3607265"><ele>371.0</ele><time>2026-04-28T11:20:13.712Z</time></trkpt><trkpt lat="43.3116426" lon="12.3608053"><ele>370.5</ele><time>2026-04-28T11:20:15.711Z</time></trkpt><trkpt lat="43.3116615" lon="12.360894"><ele>370.0</ele><time>2026-04-28T11:20:16.712Z</time></trkpt><trkpt lat="43.3116727" lon="12.3610266"><ele>370.0</ele><time>2026-04-28T11:20:17.711Z</time></trkpt><trkpt lat="43.3116757" lon="12.3611749"><ele>370.0</ele><time>2026-04-28T11:20:18.712Z</time></trkpt><trkpt lat="43.3116734" lon="12.3613258"><ele>370.0</ele><time>2026-04-28T11:20:19.711Z</time></trkpt><trkpt lat="43.3116702" lon="12.3614713"><ele>370.0</ele><time>2026-04-28T11:20:20.712Z</time></trkpt><trkpt lat="43.3116748" lon="12.3616094"><ele>370.0</ele><time>2026-04-28T11:20:21.711Z</time></trkpt><trkpt lat="43.3116796" lon="12.3617412"><ele>369.5</ele><time>2026-04-28T11:20:22.712Z</time></trkpt><trkpt lat="43.3116806" lon="12.3618672"><ele>369.0</ele><time>2026-04-28T11:20:23.712Z</time></trkpt><trkpt lat="43.3116833" lon="12.3619877"><ele>368.5</ele><time>2026-04-28T11:20:24.712Z</time></trkpt><trkpt lat="43.3116863" lon="12.3621013"><ele>368.0</ele><time>2026-04-28T11:20:25.712Z</time></trkpt><trkpt lat="43.3116974" lon="12.3622005"><ele>367.5</ele><time>2026-04-28T11:20:26.712Z</time></trkpt><trkpt lat="43.3117183" lon="12.3622915"><ele>367.0</ele><time>2026-04-28T11:20:27.712Z</time></trkpt><trkpt lat="43.3117618" lon="12.3623749"><ele>366.66666666666663</ele><time>2026-04-28T11:20:28.712Z</time></trkpt><trkpt lat="43.3118278" lon="12.3624391"><ele>366.3333333333333</ele><time>2026-04-28T11:20:29.711Z</time></trkpt><trkpt lat="43.3119126" lon="12.3624803"><ele>366.0</ele><time>2026-04-28T11:20:30.712Z</time></trkpt><trkpt lat="43.311999" lon="12.3624824"><ele>365.6666666666667</ele><time>2026-04-28T11:20:31.712Z</time></trkpt><trkpt lat="43.3120775" lon="12.3624536"><ele>365.33333333333337</ele><time>2026-04-28T11:20:32.71Z</time></trkpt><trkpt lat="43.3121471" lon="12.3623956"><ele>365.0</ele><time>2026-04-28T11:20:33.712Z</time></trkpt><trkpt lat="43.3122074" lon="12.3623113"><ele>363.0</ele><time>2026-04-28T11:20:34.71Z</time></trkpt><trkpt lat="43.3122481" lon="12.3622078"><ele>361.0</ele><time>2026-04-28T11:20:35.712Z</time></trkpt><trkpt lat="43.3122703" lon="12.3620987"><ele>359.0</ele><time>2026-04-28T11:20:36.711Z</time></trkpt><trkpt lat="43.3122835" lon="12.3619987"><ele>357.0</ele><time>2026-04-28T11:20:37.711Z</time></trkpt><trkpt lat="43.3122922" lon="12.3619051"><ele>355.0</ele><time>2026-04-28T11:20:38.712Z</time></trkpt><trkpt lat="43.3122972" lon="12.3617584"><ele>353.0</ele><time>2026-04-28T11:20:40.712Z</time></trkpt><trkpt lat="43.3122499" lon="12.3618723"><ele>355.0</ele><time>2026-04-28T11:20:48.712Z</time></trkpt><trkpt lat="43.3122381" lon="12.3619946"><ele>357.0</ele><time>2026-04-28T11:20:49.711Z</time></trkpt><trkpt lat="43.3122281" lon="12.3621122"><ele>359.0</ele><time>2026-04-28T11:20:50.712Z</time></trkpt><trkpt lat="43.3121973" lon="12.3622319"><ele>361.0</ele><time>2026-04-28T11:20:51.712Z</time></trkpt><trkpt lat="43.3121514" lon="12.362329"><ele>363.0</ele><time>2026-04-28T11:20:52.712Z</time></trkpt><trkpt lat="43.312075" lon="12.3623989"><ele>365.0</ele><time>2026-04-28T11:20:53.712Z</time></trkpt><trkpt lat="43.311997" lon="12.3624352"><ele>365.0</ele><time>2026-04-28T11:20:54.712Z</time></trkpt><trkpt lat="43.3119167" lon="12.3624409"><ele>365.0</ele><time>2026-04-28T11:20:55.711Z</time></trkpt><trkpt lat="43.3118385" lon="12.3624173"><ele>365.0</ele><time>2026-04-28T11:20:56.712Z</time></trkpt><trkpt lat="43.3117765" lon="12.3623472"><ele>365.0</ele><time>2026-04-28T11:20:57.711Z</time></trkpt><trkpt lat="43.3117341" lon="12.3622444"><ele>365.0</ele><time>2026-04-28T11:20:58.712Z</time></trkpt><trkpt lat="43.3117138" lon="12.3621066"><ele>365.0</ele><time>2026-04-28T11:20:59.711Z</time></trkpt><trkpt lat="43.3117062" lon="12.3619249"><ele>365.5</ele><time>2026-04-28T11:21:00.712Z</time></trkpt><trkpt lat="43.311702" lon="12.3617337"><ele>366.0</ele><time>2026-04-28T11:21:01.712Z</time></trkpt><trkpt lat="43.3116898" lon="12.3615192"><ele>366.5</ele><time>2026-04-28T11:21:02.711Z</time></trkpt><trkpt lat="43.311686" lon="12.3613204"><ele>367.0</ele><time>2026-04-28T11:21:03.712Z</time></trkpt><trkpt lat="43.3116882" lon="12.361137"><ele>367.6</ele><time>2026-04-28T11:21:04.712Z</time></trkpt><trkpt lat="43.311684" lon="12.3609745"><ele>368.20000000000005</ele><time>2026-04-28T11:21:05.712Z</time></trkpt><trkpt lat="43.3116668" lon="12.3608309"><ele>368.8</ele><time>2026-04-28T11:21:06.712Z</time></trkpt><trkpt lat="43.3116389" lon="12.3607122"><ele>369.4</ele><time>2026-04-28T11:21:07.712Z</time></trkpt><trkpt lat="43.3116153" lon="12.3606104"><ele>370.0</ele><time>2026-04-28T11:21:08.712Z</time></trkpt><trkpt lat="43.311611" lon="12.3605054"><ele>370.16666666666663</ele><time>2026-04-28T11:21:09.711Z</time></trkpt><trkpt lat="43.3116075" lon="12.3604003"><ele>370.3333333333333</ele><time>2026-04-28T11:21:10.711Z</time></trkpt><trkpt lat="43.3116057" lon="12.3602891"><ele>370.5</ele><time>2026-04-28T11:21:11.712Z</time></trkpt><trkpt lat="43.3115938" lon="12.3601829"><ele>370.6666666666667</ele><time>2026-04-28T11:21:12.712Z</time></trkpt><trkpt lat="43.3115727" lon="12.3600728"><ele>370.83333333333337</ele><time>2026-04-28T11:21:13.712Z</time></trkpt><trkpt lat="43.3115371" lon="12.3599791"><ele>371.0</ele><time>2026-04-28T11:21:14.711Z</time></trkpt><trkpt lat="43.3114887" lon="12.3599027"><ele>371.0</ele><time>2026-04-28T11:21:15.712Z</time></trkpt><trkpt lat="43.3114325" lon="12.3598406"><ele>371.0</ele><time>2026-04-28T11:21:16.712Z</time></trkpt><trkpt lat="43.3113703" lon="12.3597912"><ele>371.0</ele><time>2026-04-28T11:21:17.711Z</time></trkpt><trkpt lat="43.3113018" lon="12.359755"><ele>371.0</ele><time>2026-04-28T11:21:18.712Z</time></trkpt><trkpt lat="43.3112255" lon="12.3597365"><ele>371.0</ele><time>2026-04-28T11:21:19.712Z</time></trkpt><trkpt lat="43.3111499" lon="12.3597174"><ele>371.0</ele><time>2026-04-28T11:21:20.712Z</time></trkpt><trkpt lat="43.3110756" lon="12.3596944"><ele>371.0</ele><time>2026-04-28T11:21:21.712Z</time></trkpt><trkpt lat="43.3110002" lon="12.3596755"><ele>371.5</ele><time>2026-04-28T11:21:22.711Z</time></trkpt><trkpt lat="43.3109269" lon="12.35966"><ele>372.0</ele><time>2026-04-28T11:21:23.712Z</time></trkpt><trkpt lat="43.310854" lon="12.359655"><ele>372.5</ele><time>2026-04-28T11:21:24.711Z</time></trkpt><trkpt lat="43.3107847" lon="12.3596352"><ele>373.0</ele><time>2026-04-28T11:21:25.71Z</time></trkpt><trkpt lat="43.3106867" lon="12.3596119"><ele>373.5</ele><time>2026-04-28T11:21:27.712Z</time></trkpt><trkpt lat="43.3106117" lon="12.3595786"><ele>374.0</ele><time>2026-04-28T11:21:31.712Z</time></trkpt><trkpt lat="43.310548" lon="12.3595771"><ele>374.0</ele><time>2026-04-28T11:21:42.712Z</time></trkpt><trkpt lat="43.3104892" lon="12.3596379"><ele>374.0</ele><time>2026-04-28T11:21:45.711Z</time></trkpt><trkpt lat="43.3104858" lon="12.3597459"><ele>374.0</ele><time>2026-04-28T11:21:48.712Z</time></trkpt><trkpt lat="43.3105567" lon="12.3597449"><ele>374.0</ele><time>2026-04-28T11:21:52.659Z</time></trkpt><trkpt lat="43.3106332" lon="12.3596982"><ele>374.0</ele><time>2026-04-28T11:21:54.619Z</time></trkpt><trkpt lat="43.3106858" lon="12.3596064"><ele>374.0</ele><time>2026-04-28T11:21:57.711Z</time></trkpt><trkpt lat="43.3107958" lon="12.3596142"><ele>374.0</ele><time>2026-04-28T11:22:00.711Z</time></trkpt><trkpt lat="43.3108908" lon="12.3596423"><ele>374.0</ele><time>2026-04-28T11:22:02.712Z</time></trkpt><trkpt lat="43.3109791" lon="12.3596654"><ele>374.0</ele><time>2026-04-28T11:22:04.711Z</time></trkpt><trkpt lat="43.3110694" lon="12.3596834"><ele>374.0</ele><time>2026-04-28T11:22:06.711Z</time></trkpt><trkpt lat="43.3111622" lon="12.3597019"><ele>374.0</ele><time>2026-04-28T11:22:08.712Z</time></trkpt><trkpt lat="43.3112679" lon="12.3597305"><ele>374.1666666666667</ele><time>2026-04-28T11:22:10.712Z</time></trkpt><trkpt lat="43.3113339" lon="12.3597578"><ele>374.33333333333337</ele><time>2026-04-28T11:22:11.711Z</time></trkpt><trkpt lat="43.3113946" lon="12.3597938"><ele>374.5</ele><time>2026-04-28T11:22:12.711Z</time></trkpt><trkpt lat="43.3114489" lon="12.3598436"><ele>374.6666666666667</ele><time>2026-04-28T11:22:13.712Z</time></trkpt><trkpt lat="43.3115351" lon="12.3599627"><ele>374.8333333333333</ele><time>2026-04-28T11:22:15.711Z</time></trkpt><trkpt lat="43.3115877" lon="12.3601032"><ele>375.0</ele><time>2026-04-28T11:22:17.711Z</time></trkpt><trkpt lat="43.3116118" lon="12.3602738"><ele>374.2</ele><time>2026-04-28T11:22:19.712Z</time></trkpt><trkpt lat="43.3116179" lon="12.3604305"><ele>373.4</ele><time>2026-04-28T11:22:21.712Z</time></trkpt><trkpt lat="43.3116311" lon="12.360583"><ele>372.6</ele><time>2026-04-28T11:22:23.712Z</time></trkpt><trkpt lat="43.3116411" lon="12.3606903"><ele>371.8</ele><time>2026-04-28T11:22:24.712Z</time></trkpt><trkpt lat="43.3116587" lon="12.3608147"><ele>371.0</ele><time>2026-04-28T11:22:25.712Z</time></trkpt><trkpt lat="43.3116676" lon="12.3609468"><ele>370.75</ele><time>2026-04-28T11:22:26.712Z</time></trkpt><trkpt lat="43.3116709" lon="12.3610883"><ele>370.5</ele><time>2026-04-28T11:22:27.712Z</time></trkpt><trkpt lat="43.3116738" lon="12.3612447"><ele>370.25</ele><time>2026-04-28T11:22:28.712Z</time></trkpt><trkpt lat="43.3116751" lon="12.3614053"><ele>370.0</ele><time>2026-04-28T11:22:29.711Z</time></trkpt><trkpt lat="43.3116752" lon="12.3615746"><ele>369.4</ele><time>2026-04-28T11:22:30.712Z</time></trkpt><trkpt lat="43.3116793" lon="12.3617387"><ele>368.8</ele><time>2026-04-28T11:22:31.712Z</time></trkpt><trkpt lat="43.3116842" lon="12.3618961"><ele>368.20000000000005</ele><time>2026-04-28T11:22:32.712Z</time></trkpt><trkpt lat="43.3116876" lon="12.3620389"><ele>367.6</ele><time>2026-04-28T11:22:33.711Z</time></trkpt><trkpt lat="43.311698" lon="12.3621743"><ele>367.0</ele><time>2026-04-28T11:22:34.711Z</time></trkpt><trkpt lat="43.3117232" lon="12.3622911"><ele>366.66666666666663</ele><time>2026-04-28T11:22:35.712Z</time></trkpt><trkpt lat="43.3117729" lon="12.362387"><ele>366.3333333333333</ele><time>2026-04-28T11:22:36.712Z</time></trkpt><trkpt lat="43.3118444" lon="12.362452"><ele>366.0</ele><time>2026-04-28T11:22:37.712Z</time></trkpt><trkpt lat="43.3119357" lon="12.3624794"><ele>365.6666666666667</ele><time>2026-04-28T11:22:38.712Z</time></trkpt><trkpt lat="43.3120279" lon="12.3624636"><ele>365.33333333333337</ele><time>2026-04-28T11:22:39.71Z</time></trkpt><trkpt lat="43.3121104" lon="12.3624155"><ele>365.0</ele><time>2026-04-28T11:22:40.711Z</time></trkpt><trkpt lat="43.3121869" lon="12.362329"><ele>362.0</ele><time>2026-04-28T11:22:41.712Z</time></trkpt><trkpt lat="43.3122431" lon="12.3622133"><ele>359.0</ele><time>2026-04-28T11:22:42.711Z</time></trkpt><trkpt lat="43.3122759" lon="12.3620705"><ele>356.0</ele><time>2026-04-28T11:22:43.711Z</time></trkpt><trkpt lat="43.3122844" lon="12.3619072"><ele>353.0</ele><time>2026-04-28T11:22:44.712Z</time></trkpt><trkpt lat="43.3122858" lon="12.3617278"><ele>352.5</ele><time>2026-04-28T11:22:45.712Z</time></trkpt><trkpt lat="43.3122889" lon="12.3615416"><ele>352.0</ele><time>2026-04-28T11:22:46.711Z</time></trkpt><trkpt lat="43.3122948" lon="12.361349"><ele>351.5</ele><time>2026-04-28T11:22:47.712Z</time></trkpt><trkpt lat="43.3123005" lon="12.3611453"><ele>351.0</ele><time>2026-04-28T11:22:48.712Z</time></trkpt><trkpt lat="43.3123009" lon="12.3609391"><ele>350.25</ele><time>2026-04-28T11:22:49.711Z</time></trkpt><trkpt lat="43.3123" lon="12.3607339"><ele>349.5</ele><time>2026-04-28T11:22:50.712Z</time></trkpt><trkpt lat="43.3123065" lon="12.360529"><ele>348.75</ele><time>2026-04-28T11:22:51.711Z</time></trkpt><trkpt lat="43.3123158" lon="12.360323"><ele>348.0</ele><time>2026-04-28T11:22:52.712Z</time></trkpt><trkpt lat="43.3123205" lon="12.3601163"><ele>347.6666666666667</ele><time>2026-04-28T11:22:53.711Z</time></trkpt><trkpt lat="43.3123122" lon="12.3599041"><ele>347.33333333333337</ele><time>2026-04-28T11:22:54.712Z</time></trkpt><trkpt lat="43.312289" lon="12.3596961"><ele>347.0</ele><time>2026-04-28T11:22:55.712Z</time></trkpt><trkpt lat="43.3122583" lon="12.3594999"><ele>348.0</ele><time>2026-04-28T11:22:56.712Z</time></trkpt><trkpt lat="43.3122271" lon="12.3593075"><ele>349.0</ele><time>2026-04-28T11:22:57.712Z</time></trkpt><trkpt lat="43.3121982" lon="12.3591181"><ele>350.0</ele><time>2026-04-28T11:22:58.712Z</time></trkpt><trkpt lat="43.3121686" lon="12.3589349"><ele>351.0</ele><time>2026-04-28T11:22:59.712Z</time></trkpt><trkpt lat="43.3121426" lon="12.3587561"><ele>351.0</ele><time>2026-04-28T11:23:00.711Z</time></trkpt><trkpt lat="43.3121166" lon="12.3585913"><ele>351.0</ele><time>2026-04-28T11:23:01.712Z</time></trkpt><trkpt lat="43.3120957" lon="12.3584377"><ele>351.0</ele><time>2026-04-28T11:23:02.712Z</time></trkpt><trkpt lat="43.3120787" lon="12.3582953"><ele>351.0</ele><time>2026-04-28T11:23:03.712Z</time></trkpt><trkpt lat="43.3120671" lon="12.3581701"><ele>351.0</ele><time>2026-04-28T11:23:04.712Z</time></trkpt><trkpt lat="43.312077" lon="12.3580666"><ele>348.8333333333333</ele><time>2026-04-28T11:23:05.712Z</time></trkpt><trkpt lat="43.3121143" lon="12.3579868"><ele>346.6666666666667</ele><time>2026-04-28T11:23:06.712Z</time></trkpt><trkpt lat="43.3121784" lon="12.3579481"><ele>344.5</ele><time>2026-04-28T11:23:07.712Z</time></trkpt><trkpt lat="43.3122463" lon="12.3579546"><ele>342.33333333333337</ele><time>2026-04-28T11:23:08.712Z</time></trkpt><trkpt lat="43.3123084" lon="12.3580121"><ele>340.1666666666667</ele><time>2026-04-28T11:23:09.711Z</time></trkpt><trkpt lat="43.3123572" lon="12.3581145"><ele>338.0</ele><time>2026-04-28T11:23:10.711Z</time></trkpt><trkpt lat="43.3123914" lon="12.3582486"><ele>337.0</ele><time>2026-04-28T11:23:11.711Z</time></trkpt><trkpt lat="43.3124271" lon="12.3583896"><ele>336.0</ele><time>2026-04-28T11:23:12.711Z</time></trkpt><trkpt lat="43.3124857" lon="12.3585197"><ele>335.0</ele><time>2026-04-28T11:23:13.711Z</time></trkpt><trkpt lat="43.3125602" lon="12.3586453"><ele>334.0</ele><time>2026-04-28T11:23:14.711Z</time></trkpt><trkpt lat="43.3126471" lon="12.358759"><ele>334.0</ele><time>2026-04-28T11:23:15.711Z</time></trkpt><trkpt lat="43.3127386" lon="12.3588496"><ele>334.0</ele><time>2026-04-28T11:23:16.711Z</time></trkpt><trkpt lat="43.3128358" lon="12.3589339"><ele>334.0</ele><time>2026-04-28T11:23:17.71Z</time></trkpt><trkpt lat="43.3129277" lon="12.3590191"><ele>334.0</ele><time>2026-04-28T11:23:18.71Z</time></trkpt><trkpt lat="43.3130196" lon="12.3591"><ele>334.0</ele><time>2026-04-28T11:23:19.711Z</time></trkpt><trkpt lat="43.313119" lon="12.3591881"><ele>333.2</ele><time>2026-04-28T11:23:20.711Z</time></trkpt><trkpt lat="43.3132168" lon="12.359282"><ele>332.4</ele><time>2026-04-28T11:23:21.71Z</time></trkpt><trkpt lat="43.3133096" lon="12.3593688"><ele>331.6</ele><time>2026-04-28T11:23:22.711Z</time></trkpt><trkpt lat="43.3133928" lon="12.359436"><ele>330.8</ele><time>2026-04-28T11:23:23.71Z</time></trkpt><trkpt lat="43.313472" lon="12.3594762"><ele>330.0</ele><time>2026-04-28T11:23:24.711Z</time></trkpt><trkpt lat="43.3135502" lon="12.3594675"><ele>330.0</ele><time>2026-04-28T11:23:25.71Z</time></trkpt><trkpt lat="43.3136152" lon="12.3594147"><ele>330.0</ele><time>2026-04-28T11:23:26.711Z</time></trkpt><trkpt lat="43.3136596" lon="12.35932"><ele>330.0</ele><time>2026-04-28T11:23:27.711Z</time></trkpt><trkpt lat="43.3136732" lon="12.3592035"><ele>330.0</ele><time>2026-04-28T11:23:28.711Z</time></trkpt><trkpt lat="43.3136725" lon="12.3590805"><ele>330.0</ele><time>2026-04-28T11:23:29.711Z</time></trkpt><trkpt lat="43.3136858" lon="12.3589533"><ele>330.0</ele><time>2026-04-28T11:23:30.711Z</time></trkpt><trkpt lat="43.3137233" lon="12.3588344"><ele>329.0</ele><time>2026-04-28T11:23:31.711Z</time></trkpt><trkpt lat="43.313784" lon="12.3587348"><ele>328.0</ele><time>2026-04-28T11:23:32.711Z</time></trkpt><trkpt lat="43.3138631" lon="12.3586679"><ele>327.0</ele><time>2026-04-28T11:23:33.711Z</time></trkpt><trkpt lat="43.3139478" lon="12.3586496"><ele>326.0</ele><time>2026-04-28T11:23:34.711Z</time></trkpt><trkpt lat="43.3140282" lon="12.3586679"><ele>325.0</ele><time>2026-04-28T11:23:35.711Z</time></trkpt><trkpt lat="43.3141081" lon="12.3587246"><ele>324.0</ele><time>2026-04-28T11:23:36.711Z</time></trkpt><trkpt lat="43.3141777" lon="12.3588127"><ele>323.75</ele><time>2026-04-28T11:23:37.71Z</time></trkpt><trkpt lat="43.314231" lon="12.3589309"><ele>323.5</ele><time>2026-04-28T11:23:38.711Z</time></trkpt><trkpt lat="43.3142669" lon="12.3590768"><ele>323.25</ele><time>2026-04-28T11:23:39.71Z</time></trkpt><trkpt lat="43.3142976" lon="12.3592394"><ele>323.0</ele><time>2026-04-28T11:23:40.711Z</time></trkpt><trkpt lat="43.3143349" lon="12.3594121"><ele>323.0</ele><time>2026-04-28T11:23:41.711Z</time></trkpt><trkpt lat="43.3143792" lon="12.3595729"><ele>323.0</ele><time>2026-04-28T11:23:42.71Z</time></trkpt><trkpt lat="43.3144329" lon="12.3597302"><ele>323.0</ele><time>2026-04-28T11:23:43.71Z</time></trkpt><trkpt lat="43.3144878" lon="12.3598685"><ele>323.0</ele><time>2026-04-28T11:23:44.711Z</time></trkpt><trkpt lat="43.3145475" lon="12.359992"><ele>323.0</ele><time>2026-04-28T11:23:45.71Z</time></trkpt><trkpt lat="43.3146161" lon="12.3600971"><ele>323.0</ele><time>2026-04-28T11:23:46.711Z</time></trkpt><trkpt lat="43.3146969" lon="12.3601777"><ele>323.0</ele><time>2026-04-28T11:23:47.71Z</time></trkpt><trkpt lat="43.3147942" lon="12.3602334"><ele>323.0</ele><time>2026-04-28T11:23:48.711Z</time></trkpt><trkpt lat="43.3149054" lon="12.3602773"><ele>323.0</ele><time>2026-04-28T11:23:49.711Z</time></trkpt><trkpt lat="43.3150126" lon="12.3603294"><ele>323.0</ele><time>2026-04-28T11:23:50.711Z</time></trkpt><trkpt lat="43.3151142" lon="12.3603767"><ele>323.0</ele><time>2026-04-28T11:23:51.71Z</time></trkpt><trkpt lat="43.3152117" lon="12.3604202"><ele>323.0</ele><time>2026-04-28T11:23:52.711Z</time></trkpt><trkpt lat="43.3153057" lon="12.3604494"><ele>323.0</ele><time>2026-04-28T11:23:53.711Z</time></trkpt><trkpt lat="43.3153955" lon="12.3604542"><ele>323.0</ele><time>2026-04-28T11:23:54.71Z</time></trkpt><trkpt lat="43.3154748" lon="12.3604279"><ele>323.0</ele><time>2026-04-28T11:23:55.711Z</time></trkpt><trkpt lat="43.3155482" lon="12.3603654"><ele>323.0</ele><time>2026-04-28T11:23:56.71Z</time></trkpt><trkpt lat="43.3156109" lon="12.3602717"><ele>323.0</ele><time>2026-04-28T11:23:57.711Z</time></trkpt><trkpt lat="43.31566" lon="12.3601519"><ele>323.0</ele><time>2026-04-28T11:23:58.71Z</time></trkpt><trkpt lat="43.3156959" lon="12.3600051"><ele>323.0</ele><time>2026-04-28T11:23:59.711Z</time></trkpt><trkpt lat="43.3157293" lon="12.3598304"><ele>321.33333333333337</ele><time>2026-04-28T11:24:00.711Z</time></trkpt><trkpt lat="43.3157662" lon="12.3596317"><ele>319.6666666666667</ele><time>2026-04-28T11:24:01.71Z</time></trkpt><trkpt lat="43.3158072" lon="12.3594288"><ele>318.0</ele><time>2026-04-28T11:24:02.711Z</time></trkpt><trkpt lat="43.3158537" lon="12.3592214"><ele>318.0</ele><time>2026-04-28T11:24:03.711Z</time></trkpt><trkpt lat="43.3159038" lon="12.3590082"><ele>318.0</ele><time>2026-04-28T11:24:04.71Z</time></trkpt><trkpt lat="43.3159538" lon="12.3587906"><ele>318.0</ele><time>2026-04-28T11:24:05.709Z</time></trkpt><trkpt lat="43.3160024" lon="12.3585722"><ele>317.3333333333333</ele><time>2026-04-28T11:24:06.711Z</time></trkpt><trkpt lat="43.3160481" lon="12.3583481"><ele>316.66666666666663</ele><time>2026-04-28T11:24:07.71Z</time></trkpt><trkpt lat="43.3160946" lon="12.3581191"><ele>316.0</ele><time>2026-04-28T11:24:08.711Z</time></trkpt><trkpt lat="43.3161456" lon="12.357889"><ele>315.66666666666663</ele><time>2026-04-28T11:24:09.711Z</time></trkpt><trkpt lat="43.3161977" lon="12.357664"><ele>315.3333333333333</ele><time>2026-04-28T11:24:10.711Z</time></trkpt><trkpt lat="43.3162394" lon="12.3574465"><ele>315.0</ele><time>2026-04-28T11:24:11.711Z</time></trkpt><trkpt lat="43.3162646" lon="12.3572383"><ele>314.6666666666667</ele><time>2026-04-28T11:24:12.711Z</time></trkpt><trkpt lat="43.3162749" lon="12.3570309"><ele>314.33333333333337</ele><time>2026-04-28T11:24:13.711Z</time></trkpt><trkpt lat="43.3162663" lon="12.3568242"><ele>314.0</ele><time>2026-04-28T11:24:14.71Z</time></trkpt><trkpt lat="43.3162435" lon="12.356616"><ele>314.0</ele><time>2026-04-28T11:24:15.71Z</time></trkpt><trkpt lat="43.3162115" lon="12.3564045"><ele>314.0</ele><time>2026-04-28T11:24:16.711Z</time></trkpt><trkpt lat="43.3161751" lon="12.3561871"><ele>314.0</ele><time>2026-04-28T11:24:17.711Z</time></trkpt><trkpt lat="43.3161402" lon="12.355966"><ele>313.33333333333337</ele><time>2026-04-28T11:24:18.71Z</time></trkpt><trkpt lat="43.3161079" lon="12.3557362"><ele>312.6666666666667</ele><time>2026-04-28T11:24:19.71Z</time></trkpt><trkpt lat="43.3160761" lon="12.3554994"><ele>312.0</ele><time>2026-04-28T11:24:20.711Z</time></trkpt><trkpt lat="43.3160422" lon="12.3552622"><ele>311.6666666666667</ele><time>2026-04-28T11:24:21.71Z</time></trkpt><trkpt lat="43.3160128" lon="12.3550365"><ele>311.33333333333337</ele><time>2026-04-28T11:24:22.711Z</time></trkpt><trkpt lat="43.3159822" lon="12.3548178"><ele>311.0</ele><time>2026-04-28T11:24:23.711Z</time></trkpt><trkpt lat="43.3159448" lon="12.3546106"><ele>311.0</ele><time>2026-04-28T11:24:24.711Z</time></trkpt><trkpt lat="43.3158965" lon="12.354405"><ele>311.0</ele><time>2026-04-28T11:24:25.711Z</time></trkpt><trkpt lat="43.3158307" lon="12.354205"><ele>311.0</ele><time>2026-04-28T11:24:26.71Z</time></trkpt><trkpt lat="43.3157549" lon="12.3540054"><ele>312.0</ele><time>2026-04-28T11:24:27.711Z</time></trkpt><trkpt lat="43.3156677" lon="12.3538055"><ele>313.0</ele><time>2026-04-28T11:24:28.71Z</time></trkpt><trkpt lat="43.3155815" lon="12.3536022"><ele>314.0</ele><time>2026-04-28T11:24:29.711Z</time></trkpt><trkpt lat="43.3154997" lon="12.3534045"><ele>312.0</ele><time>2026-04-28T11:24:30.711Z</time></trkpt><trkpt lat="43.3154212" lon="12.3532153"><ele>310.0</ele><time>2026-04-28T11:24:31.71Z</time></trkpt><trkpt lat="43.3153452" lon="12.3530369"><ele>308.0</ele><time>2026-04-28T11:24:32.711Z</time></trkpt><trkpt lat="43.3152654" lon="12.3528606"><ele>308.0</ele><time>2026-04-28T11:24:33.711Z</time></trkpt><trkpt lat="43.3151832" lon="12.3526835"><ele>308.0</ele><time>2026-04-28T11:24:34.711Z</time></trkpt><trkpt lat="43.3150885" lon="12.3525092"><ele>308.0</ele><time>2026-04-28T11:24:35.711Z</time></trkpt><trkpt lat="43.3149679" lon="12.3523399"><ele>308.33333333333337</ele><time>2026-04-28T11:24:36.71Z</time></trkpt><trkpt lat="43.3148347" lon="12.3521895"><ele>308.6666666666667</ele><time>2026-04-28T11:24:37.711Z</time></trkpt><trkpt lat="43.3146916" lon="12.3520497"><ele>309.0</ele><time>2026-04-28T11:24:38.711Z</time></trkpt><trkpt lat="43.3145483" lon="12.3519014"><ele>309.0</ele><time>2026-04-28T11:24:39.711Z</time></trkpt><trkpt lat="43.3143989" lon="12.3517579"><ele>309.0</ele><time>2026-04-28T11:24:40.71Z</time></trkpt><trkpt lat="43.3142477" lon="12.3516217"><ele>309.0</ele><time>2026-04-28T11:24:41.71Z</time></trkpt><trkpt lat="43.3141052" lon="12.3514937"><ele>308.6666666666667</ele><time>2026-04-28T11:24:42.711Z</time></trkpt><trkpt lat="43.3139669" lon="12.3513646"><ele>308.33333333333337</ele><time>2026-04-28T11:24:43.711Z</time></trkpt><trkpt lat="43.313834" lon="12.3512377"><ele>308.0</ele><time>2026-04-28T11:24:44.71Z</time></trkpt><trkpt lat="43.3137027" lon="12.351109"><ele>308.0</ele><time>2026-04-28T11:24:45.711Z</time></trkpt><trkpt lat="43.3135703" lon="12.3509801"><ele>308.0</ele><time>2026-04-28T11:24:46.71Z</time></trkpt><trkpt lat="43.3134422" lon="12.3508575"><ele>308.0</ele><time>2026-04-28T11:24:47.711Z</time></trkpt><trkpt lat="43.3133184" lon="12.3507389"><ele>308.0</ele><time>2026-04-28T11:24:48.711Z</time></trkpt><trkpt lat="43.3131958" lon="12.3506241"><ele>308.0</ele><time>2026-04-28T11:24:49.71Z</time></trkpt><trkpt lat="43.313075" lon="12.3505091"><ele>308.0</ele><time>2026-04-28T11:24:50.711Z</time></trkpt><trkpt lat="43.3129576" lon="12.3503982"><ele>308.0</ele><time>2026-04-28T11:24:51.711Z</time></trkpt><trkpt lat="43.3128426" lon="12.3502894"><ele>307.0</ele><time>2026-04-28T11:24:52.71Z</time></trkpt><trkpt lat="43.3127281" lon="12.3501832"><ele>306.0</ele><time>2026-04-28T11:24:53.711Z</time></trkpt><trkpt lat="43.3126148" lon="12.3500788"><ele>305.0</ele><time>2026-04-28T11:24:54.711Z</time></trkpt><trkpt lat="43.3125044" lon="12.3499721"><ele>304.0</ele><time>2026-04-28T11:24:55.711Z</time></trkpt><trkpt lat="43.3123965" lon="12.3498676"><ele>304.0</ele><time>2026-04-28T11:24:56.711Z</time></trkpt><trkpt lat="43.3122873" lon="12.3497621"><ele>304.0</ele><time>2026-04-28T11:24:57.71Z</time></trkpt><trkpt lat="43.3121779" lon="12.34966"><ele>304.0</ele><time>2026-04-28T11:24:58.71Z</time></trkpt><trkpt lat="43.3120678" lon="12.3495564"><ele>304.0</ele><time>2026-04-28T11:24:59.711Z</time></trkpt><trkpt lat="43.3119559" lon="12.3494516"><ele>302.0</ele><time>2026-04-28T11:25:00.711Z</time></trkpt><trkpt lat="43.3118469" lon="12.3493415"><ele>300.0</ele><time>2026-04-28T11:25:01.711Z</time></trkpt><trkpt lat="43.311735" lon="12.3492354"><ele>298.0</ele><time>2026-04-28T11:25:02.709Z</time></trkpt><trkpt lat="43.3116194" lon="12.3491304"><ele>296.0</ele><time>2026-04-28T11:25:03.711Z</time></trkpt><trkpt lat="43.311502" lon="12.349021"><ele>295.5</ele><time>2026-04-28T11:25:04.711Z</time></trkpt><trkpt lat="43.3113809" lon="12.3489109"><ele>295.0</ele><time>2026-04-28T11:25:05.71Z</time></trkpt><trkpt lat="43.3112659" lon="12.3488"><ele>294.5</ele><time>2026-04-28T11:25:06.709Z</time></trkpt><trkpt lat="43.3111548" lon="12.3486944"><ele>294.0</ele><time>2026-04-28T11:25:07.711Z</time></trkpt><trkpt lat="43.3110452" lon="12.3485946"><ele>294.0</ele><time>2026-04-28T11:25:08.711Z</time></trkpt><trkpt lat="43.3109344" lon="12.3484921"><ele>294.0</ele><time>2026-04-28T11:25:09.71Z</time></trkpt><trkpt lat="43.3108254" lon="12.3483891"><ele>294.0</ele><time>2026-04-28T11:25:10.71Z</time></trkpt><trkpt lat="43.3107183" lon="12.3482831"><ele>294.0</ele><time>2026-04-28T11:25:11.711Z</time></trkpt><trkpt lat="43.3106102" lon="12.3481792"><ele>294.0</ele><time>2026-04-28T11:25:12.711Z</time></trkpt><trkpt lat="43.3105007" lon="12.3480769"><ele>294.0</ele><time>2026-04-28T11:25:13.71Z</time></trkpt><trkpt lat="43.3103909" lon="12.347975"><ele>294.0</ele><time>2026-04-28T11:25:14.71Z</time></trkpt><trkpt lat="43.3102819" lon="12.3478753"><ele>294.0</ele><time>2026-04-28T11:25:15.711Z</time></trkpt><trkpt lat="43.3101725" lon="12.3477716"><ele>294.0</ele><time>2026-04-28T11:25:16.711Z</time></trkpt><trkpt lat="43.3100653" lon="12.3476654"><ele>294.0</ele><time>2026-04-28T11:25:17.71Z</time></trkpt><trkpt lat="43.3099563" lon="12.3475592"><ele>294.0</ele><time>2026-04-28T11:25:18.711Z</time></trkpt><trkpt lat="43.3098454" lon="12.3474553"><ele>294.0</ele><time>2026-04-28T11:25:19.71Z</time></trkpt><trkpt lat="43.3097318" lon="12.3473522"><ele>293.0</ele><time>2026-04-28T11:25:20.711Z</time></trkpt><trkpt lat="43.3096186" lon="12.3472448"><ele>292.0</ele><time>2026-04-28T11:25:21.711Z</time></trkpt><trkpt lat="43.3095057" lon="12.347136"><ele>291.0</ele><time>2026-04-28T11:25:22.71Z</time></trkpt><trkpt lat="43.3093933" lon="12.3470303"><ele>290.0</ele><time>2026-04-28T11:25:23.71Z</time></trkpt><trkpt lat="43.3092876" lon="12.3469287"><ele>290.0</ele><time>2026-04-28T11:25:24.711Z</time></trkpt><trkpt lat="43.3091852" lon="12.3468307"><ele>290.0</ele><time>2026-04-28T11:25:25.711Z</time></trkpt><trkpt lat="43.3090839" lon="12.3467297"><ele>290.0</ele><time>2026-04-28T11:25:26.71Z</time></trkpt><trkpt lat="43.3089875" lon="12.3466373"><ele>290.0</ele><time>2026-04-28T11:25:27.71Z</time></trkpt><trkpt lat="43.3088941" lon="12.3465492"><ele>289.6</ele><time>2026-04-28T11:25:28.711Z</time></trkpt><trkpt lat="43.3088035" lon="12.3464657"><ele>289.2</ele><time>2026-04-28T11:25:29.71Z</time></trkpt><trkpt lat="43.3087172" lon="12.3463845"><ele>288.8</ele><time>2026-04-28T11:25:30.71Z</time></trkpt><trkpt lat="43.3086325" lon="12.3463015"><ele>288.4</ele><time>2026-04-28T11:25:31.71Z</time></trkpt><trkpt lat="43.3085568" lon="12.3462166"><ele>288.0</ele><time>2026-04-28T11:25:32.711Z</time></trkpt><trkpt lat="43.3084862" lon="12.3461276"><ele>287.8</ele><time>2026-04-28T11:25:33.71Z</time></trkpt><trkpt lat="43.3084244" lon="12.3460265"><ele>287.6</ele><time>2026-04-28T11:25:34.711Z</time></trkpt><trkpt lat="43.3083724" lon="12.3459107"><ele>287.4</ele><time>2026-04-28T11:25:35.711Z</time></trkpt><trkpt lat="43.3083384" lon="12.3457849"><ele>287.2</ele><time>2026-04-28T11:25:36.71Z</time></trkpt><trkpt lat="43.3083202" lon="12.3456542"><ele>287.0</ele><time>2026-04-28T11:25:37.711Z</time></trkpt><trkpt lat="43.308315" lon="12.3455163"><ele>286.4</ele><time>2026-04-28T11:25:38.71Z</time></trkpt><trkpt lat="43.3083254" lon="12.3453794"><ele>285.79999999999995</ele><time>2026-04-28T11:25:39.709Z</time></trkpt><trkpt lat="43.308342" lon="12.3452456"><ele>285.2</ele><time>2026-04-28T11:25:40.711Z</time></trkpt><trkpt lat="43.3083654" lon="12.3451138"><ele>284.59999999999997</ele><time>2026-04-28T11:25:41.71Z</time></trkpt><trkpt lat="43.3083925" lon="12.3449806"><ele>284.0</ele><time>2026-04-28T11:25:42.711Z</time></trkpt><trkpt lat="43.3084226" lon="12.3448496"><ele>284.0</ele><time>2026-04-28T11:25:43.711Z</time></trkpt><trkpt lat="43.3084544" lon="12.3447193"><ele>284.0</ele><time>2026-04-28T11:25:44.71Z</time></trkpt><trkpt lat="43.3084865" lon="12.3445871"><ele>284.0</ele><time>2026-04-28T11:25:45.71Z</time></trkpt><trkpt lat="43.3085215" lon="12.344455"><ele>284.0</ele><time>2026-04-28T11:25:46.711Z</time></trkpt><trkpt lat="43.3085555" lon="12.3443195"><ele>284.0</ele><time>2026-04-28T11:25:47.71Z</time></trkpt><trkpt lat="43.3085867" lon="12.3441807"><ele>283.4</ele><time>2026-04-28T11:25:48.711Z</time></trkpt><trkpt lat="43.3086221" lon="12.3440424"><ele>282.79999999999995</ele><time>2026-04-28T11:25:49.711Z</time></trkpt><trkpt lat="43.3086576" lon="12.3439028"><ele>282.20000000000005</ele><time>2026-04-28T11:25:50.711Z</time></trkpt><trkpt lat="43.3086924" lon="12.3437592"><ele>281.6</ele><time>2026-04-28T11:25:51.711Z</time></trkpt><trkpt lat="43.3087189" lon="12.3436101"><ele>281.0</ele><time>2026-04-28T11:25:52.711Z</time></trkpt><trkpt lat="43.3087506" lon="12.3434588"><ele>280.25</ele><time>2026-04-28T11:25:53.711Z</time></trkpt><trkpt lat="43.3087864" lon="12.3433055"><ele>279.5</ele><time>2026-04-28T11:25:54.71Z</time></trkpt><trkpt lat="43.3088259" lon="12.3431516"><ele>278.75</ele><time>2026-04-28T11:25:55.711Z</time></trkpt><trkpt lat="43.3088637" lon="12.3429955"><ele>278.0</ele><time>2026-04-28T11:25:56.711Z</time></trkpt><trkpt lat="43.308902" lon="12.3428395"><ele>278.0</ele><time>2026-04-28T11:25:57.711Z</time></trkpt><trkpt lat="43.3089375" lon="12.3426777"><ele>278.0</ele><time>2026-04-28T11:25:58.711Z</time></trkpt><trkpt lat="43.308977" lon="12.3425186"><ele>278.0</ele><time>2026-04-28T11:25:59.71Z</time></trkpt><trkpt lat="43.3090138" lon="12.3423661"><ele>278.0</ele><time>2026-04-28T11:26:00.711Z</time></trkpt><trkpt lat="43.3090527" lon="12.3422088"><ele>276.75</ele><time>2026-04-28T11:26:01.711Z</time></trkpt><trkpt lat="43.3090926" lon="12.3420541"><ele>275.5</ele><time>2026-04-28T11:26:02.711Z</time></trkpt><trkpt lat="43.3091319" lon="12.3419009"><ele>274.25</ele><time>2026-04-28T11:26:03.711Z</time></trkpt><trkpt lat="43.3091682" lon="12.3417479"><ele>273.0</ele><time>2026-04-28T11:26:04.71Z</time></trkpt><trkpt lat="43.309202" lon="12.3415958"><ele>273.0</ele><time>2026-04-28T11:26:05.711Z</time></trkpt><trkpt lat="43.3092334" lon="12.3414455"><ele>273.0</ele><time>2026-04-28T11:26:06.711Z</time></trkpt><trkpt lat="43.309264" lon="12.3412972"><ele>273.0</ele><time>2026-04-28T11:26:07.71Z</time></trkpt><trkpt lat="43.3092986" lon="12.3411509"><ele>273.0</ele><time>2026-04-28T11:26:08.711Z</time></trkpt><trkpt lat="43.3093325" lon="12.3410067"><ele>273.0</ele><time>2026-04-28T11:26:09.711Z</time></trkpt><trkpt lat="43.3093634" lon="12.34086"><ele>272.4</ele><time>2026-04-28T11:26:10.71Z</time></trkpt><trkpt lat="43.3093943" lon="12.3407157"><ele>271.8</ele><time>2026-04-28T11:26:11.711Z</time></trkpt><trkpt lat="43.3094245" lon="12.3405736"><ele>271.2</ele><time>2026-04-28T11:26:12.71Z</time></trkpt><trkpt lat="43.3094584" lon="12.3404334"><ele>270.6</ele><time>2026-04-28T11:26:13.711Z</time></trkpt><trkpt lat="43.3094887" lon="12.3402903"><ele>270.0</ele><time>2026-04-28T11:26:14.71Z</time></trkpt><trkpt lat="43.3095175" lon="12.3401508"><ele>269.0</ele><time>2026-04-28T11:26:15.711Z</time></trkpt><trkpt lat="43.309548" lon="12.3400159"><ele>268.0</ele><time>2026-04-28T11:26:16.711Z</time></trkpt><trkpt lat="43.3095721" lon="12.3398865"><ele>267.0</ele><time>2026-04-28T11:26:17.711Z</time></trkpt><trkpt lat="43.309576" lon="12.339762"><ele>266.0</ele><time>2026-04-28T11:26:18.711Z</time></trkpt><trkpt lat="43.3095552" lon="12.3396449"><ele>265.0</ele><time>2026-04-28T11:26:19.71Z</time></trkpt><trkpt lat="43.3095105" lon="12.3395526"><ele>264.4</ele><time>2026-04-28T11:26:20.711Z</time></trkpt><trkpt lat="43.3094461" lon="12.3394776"><ele>263.8</ele><time>2026-04-28T11:26:21.711Z</time></trkpt><trkpt lat="43.3093637" lon="12.3394325"><ele>263.2</ele><time>2026-04-28T11:26:22.71Z</time></trkpt><trkpt lat="43.3092718" lon="12.339409"><ele>262.6</ele><time>2026-04-28T11:26:23.711Z</time></trkpt><trkpt lat="43.3091734" lon="12.3393949"><ele>262.0</ele><time>2026-04-28T11:26:24.711Z</time></trkpt><trkpt lat="43.3090702" lon="12.3393842"><ele>262.0</ele><time>2026-04-28T11:26:25.711Z</time></trkpt><trkpt lat="43.3089676" lon="12.3393764"><ele>262.0</ele><time>2026-04-28T11:26:26.711Z</time></trkpt><trkpt lat="43.30887" lon="12.3393641"><ele>262.0</ele><time>2026-04-28T11:26:27.711Z</time></trkpt><trkpt lat="43.3087772" lon="12.3393441"><ele>262.0</ele><time>2026-04-28T11:26:28.71Z</time></trkpt><trkpt lat="43.3086845" lon="12.3393095"><ele>262.0</ele><time>2026-04-28T11:26:29.711Z</time></trkpt><trkpt lat="43.3085886" lon="12.3392618"><ele>261.6</ele><time>2026-04-28T11:26:30.711Z</time></trkpt><trkpt lat="43.3084969" lon="12.3391949"><ele>261.2</ele><time>2026-04-28T11:26:31.711Z</time></trkpt><trkpt lat="43.3084116" lon="12.3391139"><ele>260.8</ele><time>2026-04-28T11:26:32.71Z</time></trkpt><trkpt lat="43.3083337" lon="12.3390159"><ele>260.4</ele><time>2026-04-28T11:26:33.71Z</time></trkpt><trkpt lat="43.3082635" lon="12.3388996"><ele>260.0</ele><time>2026-04-28T11:26:34.711Z</time></trkpt><trkpt lat="43.3082077" lon="12.338769"><ele>259.75</ele><time>2026-04-28T11:26:35.71Z</time></trkpt><trkpt lat="43.3081642" lon="12.3386267"><ele>259.5</ele><time>2026-04-28T11:26:36.711Z</time></trkpt><trkpt lat="43.3081326" lon="12.3384798"><ele>259.25</ele><time>2026-04-28T11:26:37.711Z</time></trkpt><trkpt lat="43.3080989" lon="12.3383292"><ele>259.0</ele><time>2026-04-28T11:26:38.71Z</time></trkpt><trkpt lat="43.3080706" lon="12.3381761"><ele>258.5</ele><time>2026-04-28T11:26:39.711Z</time></trkpt><trkpt lat="43.3080482" lon="12.3380204"><ele>258.0</ele><time>2026-04-28T11:26:40.711Z</time></trkpt><trkpt lat="43.3080217" lon="12.337864"><ele>257.5</ele><time>2026-04-28T11:26:41.71Z</time></trkpt><trkpt lat="43.3079891" lon="12.3377078"><ele>257.0</ele><time>2026-04-28T11:26:42.709Z</time></trkpt><trkpt lat="43.3079607" lon="12.3375483"><ele>257.0</ele><time>2026-04-28T11:26:43.709Z</time></trkpt><trkpt lat="43.3079346" lon="12.3373868"><ele>257.0</ele><time>2026-04-28T11:26:44.709Z</time></trkpt><trkpt lat="43.3079063" lon="12.3372249"><ele>257.0</ele><time>2026-04-28T11:26:45.709Z</time></trkpt><trkpt lat="43.3078787" lon="12.3370657"><ele>257.0</ele><time>2026-04-28T11:26:46.709Z</time></trkpt><trkpt lat="43.3078492" lon="12.3369104"><ele>257.2</ele><time>2026-04-28T11:26:47.71Z</time></trkpt><trkpt lat="43.3078215" lon="12.3367646"><ele>257.4</ele><time>2026-04-28T11:26:48.71Z</time></trkpt><trkpt lat="43.3077985" lon="12.3366331"><ele>257.6</ele><time>2026-04-28T11:26:49.709Z</time></trkpt><trkpt lat="43.3077772" lon="12.3365056"><ele>257.8</ele><time>2026-04-28T11:26:50.71Z</time></trkpt><trkpt lat="43.3077562" lon="12.3363847"><ele>258.0</ele><time>2026-04-28T11:26:51.709Z</time></trkpt><trkpt lat="43.3077351" lon="12.3362741"><ele>257.6666666666667</ele><time>2026-04-28T11:26:52.71Z</time></trkpt><trkpt lat="43.3077162" lon="12.3361713"><ele>257.3333333333333</ele><time>2026-04-28T11:26:53.71Z</time></trkpt><trkpt lat="43.3077015" lon="12.33607"><ele>257.0</ele><time>2026-04-28T11:26:54.709Z</time></trkpt><trkpt lat="43.3076785" lon="12.3359692"><ele>256.66666666666663</ele><time>2026-04-28T11:26:55.71Z</time></trkpt><trkpt lat="43.3076605" lon="12.335859"><ele>256.3333333333333</ele><time>2026-04-28T11:26:56.71Z</time></trkpt><trkpt lat="43.3076388" lon="12.3357377"><ele>256.0</ele><time>2026-04-28T11:26:57.71Z</time></trkpt><trkpt lat="43.3076147" lon="12.3356102"><ele>255.83333333333331</ele><time>2026-04-28T11:26:58.71Z</time></trkpt><trkpt lat="43.307594" lon="12.3354897"><ele>255.66666666666666</ele><time>2026-04-28T11:26:59.71Z</time></trkpt><trkpt lat="43.3075728" lon="12.3353773"><ele>255.5</ele><time>2026-04-28T11:27:00.71Z</time></trkpt><trkpt lat="43.3075549" lon="12.335275"><ele>255.33333333333331</ele><time>2026-04-28T11:27:01.71Z</time></trkpt><trkpt lat="43.3075367" lon="12.3351804"><ele>255.16666666666666</ele><time>2026-04-28T11:27:02.709Z</time></trkpt><trkpt lat="43.3075099" lon="12.3350992"><ele>255.0</ele><time>2026-04-28T11:27:03.71Z</time></trkpt><trkpt lat="43.3074661" lon="12.3349488"><ele>255.0</ele><time>2026-04-28T11:27:05.71Z</time></trkpt><trkpt lat="43.3074447" lon="12.3348671"><ele>255.0</ele><time>2026-04-28T11:27:06.71Z</time></trkpt><trkpt lat="43.3073811" lon="12.3347378"><ele>255.0</ele><time>2026-04-28T11:27:08.71Z</time></trkpt><trkpt lat="43.3072704" lon="12.3347191"><ele>255.0</ele><time>2026-04-28T11:27:10.71Z</time></trkpt><trkpt lat="43.3072119" lon="12.3347559"><ele>255.0</ele><time>2026-04-28T11:27:11.71Z</time></trkpt><trkpt lat="43.3071544" lon="12.3348169"><ele>255.0</ele><time>2026-04-28T11:27:12.709Z</time></trkpt><trkpt lat="43.3070889" lon="12.3348807"><ele>255.0</ele><time>2026-04-28T11:27:13.71Z</time></trkpt><trkpt lat="43.3070121" lon="12.3349193"><ele>255.0</ele><time>2026-04-28T11:27:14.71Z</time></trkpt><trkpt lat="43.3069286" lon="12.3349489"><ele>255.0</ele><time>2026-04-28T11:27:15.71Z</time></trkpt><trkpt lat="43.3068412" lon="12.3349823"><ele>255.0</ele><time>2026-04-28T11:27:16.71Z</time></trkpt><trkpt lat="43.3067469" lon="12.3350096"><ele>255.0</ele><time>2026-04-28T11:27:17.71Z</time></trkpt><trkpt lat="43.3066574" lon="12.3350357"><ele>255.0</ele><time>2026-04-28T11:27:18.709Z</time></trkpt><trkpt lat="43.3065747" lon="12.3350655"><ele>255.0</ele><time>2026-04-28T11:27:19.71Z</time></trkpt><trkpt lat="43.3064961" lon="12.3351117"><ele>255.0</ele><time>2026-04-28T11:27:20.71Z</time></trkpt><trkpt lat="43.3064222" lon="12.3351788"><ele>255.0</ele><time>2026-04-28T11:27:21.71Z</time></trkpt><trkpt lat="43.3063564" lon="12.3352655"><ele>255.0</ele><time>2026-04-28T11:27:22.709Z</time></trkpt><trkpt lat="43.3062937" lon="12.3353615"><ele>255.0</ele><time>2026-04-28T11:27:23.71Z</time></trkpt><trkpt lat="43.306232" lon="12.3354598"><ele>254.8</ele><time>2026-04-28T11:27:24.709Z</time></trkpt><trkpt lat="43.3061698" lon="12.3355599"><ele>254.6</ele><time>2026-04-28T11:27:25.71Z</time></trkpt><trkpt lat="43.306105" lon="12.3356658"><ele>254.39999999999998</ele><time>2026-04-28T11:27:26.709Z</time></trkpt><trkpt lat="43.3060476" lon="12.3357681"><ele>254.2</ele><time>2026-04-28T11:27:27.71Z</time></trkpt><trkpt lat="43.3059942" lon="12.3358624"><ele>254.0</ele><time>2026-04-28T11:27:28.71Z</time></trkpt><trkpt lat="43.3059437" lon="12.3359545"><ele>254.00000000000003</ele><time>2026-04-28T11:27:29.709Z</time></trkpt><trkpt lat="43.3058902" lon="12.3360491"><ele>254.0</ele><time>2026-04-28T11:27:30.71Z</time></trkpt><trkpt lat="43.30584" lon="12.3361368"><ele>254.0</ele><time>2026-04-28T11:27:31.71Z</time></trkpt><trkpt lat="43.305791" lon="12.3362194"><ele>254.0</ele><time>2026-04-28T11:27:32.709Z</time></trkpt><trkpt lat="43.3057378" lon="12.3363068"><ele>254.00000000000003</ele><time>2026-04-28T11:27:33.71Z</time></trkpt><trkpt lat="43.3056877" lon="12.3363765"><ele>254.0</ele><time>2026-04-28T11:27:34.709Z</time></trkpt><trkpt lat="43.3055934" lon="12.3364428"><ele>254.0</ele><time>2026-04-28T11:27:36.71Z</time></trkpt><trkpt lat="43.3055237" lon="12.3364766"><ele>253.0</ele><time>2026-04-28T11:27:38.71Z</time></trkpt><trkpt lat="43.3054709" lon="12.3365375"><ele>253.0</ele><time>2026-04-28T11:27:41.71Z</time></trkpt></trkseg></trk></gpx>